<?xml version="1.0" encoding="UTF-8" standalone="no" ?>
<gpx xmlns="http://www.topografix.com/GPX/1/1" xmlns:xsi="http://www.w3.org/2001/XMLSchema-instance" xsi:schemaLocation="http://www.topografix.com/GPX/1/1 http://www.topografix.com/GPX/1/1/gpx.xsd" version="1.1" creator="VisuGPX - https://www.visugpx.com">
  <metadata>
    <name>Randonnée du 31/03/2021 à 09:33</name>
  </metadata>
  <trk>
    <name><![CDATA[Randonnée du 31/03/2021 à 09:33]]></name>
    <trkseg>
      <trkpt lat="44.04357" lon="5.79703">
        <ele>708</ele>
        <time>2021-03-31T09:33:47+02:00</time>
      </trkpt>
      <trkpt lat="44.04348" lon="5.79688">
        <ele>689</ele>
        <time>2021-03-31T09:33:52+02:00</time>
      </trkpt>
      <trkpt lat="44.04343" lon="5.79669">
        <ele>684</ele>
        <time>2021-03-31T09:36:02+02:00</time>
      </trkpt>
      <trkpt lat="44.04353" lon="5.79656">
        <ele>680</ele>
        <time>2021-03-31T09:36:18+02:00</time>
      </trkpt>
      <trkpt lat="44.04367" lon="5.79653">
        <ele>679</ele>
        <time>2021-03-31T09:36:27+02:00</time>
      </trkpt>
      <trkpt lat="44.04381" lon="5.79647">
        <ele>682</ele>
        <time>2021-03-31T09:36:36+02:00</time>
      </trkpt>
      <trkpt lat="44.04395" lon="5.79639">
        <ele>684</ele>
        <time>2021-03-31T09:36:44+02:00</time>
      </trkpt>
      <trkpt lat="44.04408" lon="5.79634">
        <ele>687</ele>
        <time>2021-03-31T09:36:53+02:00</time>
      </trkpt>
      <trkpt lat="44.04421" lon="5.7963">
        <ele>688</ele>
        <time>2021-03-31T09:37:01+02:00</time>
      </trkpt>
      <trkpt lat="44.04435" lon="5.79624">
        <ele>689</ele>
        <time>2021-03-31T09:37:10+02:00</time>
      </trkpt>
      <trkpt lat="44.04448" lon="5.79619">
        <ele>691</ele>
        <time>2021-03-31T09:37:19+02:00</time>
      </trkpt>
      <trkpt lat="44.04462" lon="5.79616">
        <ele>694</ele>
        <time>2021-03-31T09:37:29+02:00</time>
      </trkpt>
      <trkpt lat="44.04475" lon="5.79608">
        <ele>697</ele>
        <time>2021-03-31T09:37:40+02:00</time>
      </trkpt>
      <trkpt lat="44.04489" lon="5.79602">
        <ele>700</ele>
        <time>2021-03-31T09:37:51+02:00</time>
      </trkpt>
      <trkpt lat="44.04502" lon="5.79595">
        <ele>701</ele>
        <time>2021-03-31T09:38:01+02:00</time>
      </trkpt>
      <trkpt lat="44.04514" lon="5.79585">
        <ele>702</ele>
        <time>2021-03-31T09:38:11+02:00</time>
      </trkpt>
      <trkpt lat="44.04526" lon="5.79575">
        <ele>703</ele>
        <time>2021-03-31T09:38:21+02:00</time>
      </trkpt>
      <trkpt lat="44.04536" lon="5.7956">
        <ele>703</ele>
        <time>2021-03-31T09:38:31+02:00</time>
      </trkpt>
      <trkpt lat="44.04548" lon="5.7955">
        <ele>704</ele>
        <time>2021-03-31T09:38:40+02:00</time>
      </trkpt>
      <trkpt lat="44.0456" lon="5.7954">
        <ele>705</ele>
        <time>2021-03-31T09:38:50+02:00</time>
      </trkpt>
      <trkpt lat="44.04572" lon="5.79532">
        <ele>708</ele>
        <time>2021-03-31T09:39:01+02:00</time>
      </trkpt>
      <trkpt lat="44.04586" lon="5.79529">
        <ele>710</ele>
        <time>2021-03-31T09:39:12+02:00</time>
      </trkpt>
      <trkpt lat="44.04593" lon="5.79511">
        <ele>710</ele>
        <time>2021-03-31T09:39:21+02:00</time>
      </trkpt>
      <trkpt lat="44.04593" lon="5.79492">
        <ele>711</ele>
        <time>2021-03-31T09:39:29+02:00</time>
      </trkpt>
      <trkpt lat="44.04595" lon="5.79471">
        <ele>711</ele>
        <time>2021-03-31T09:39:34+02:00</time>
      </trkpt>
      <trkpt lat="44.046" lon="5.79449">
        <ele>711</ele>
        <time>2021-03-31T09:39:39+02:00</time>
      </trkpt>
      <trkpt lat="44.04606" lon="5.79432">
        <ele>711</ele>
        <time>2021-03-31T09:39:43+02:00</time>
      </trkpt>
      <trkpt lat="44.0461" lon="5.79412">
        <ele>711</ele>
        <time>2021-03-31T09:39:47+02:00</time>
      </trkpt>
      <trkpt lat="44.0461" lon="5.79389">
        <ele>711</ele>
        <time>2021-03-31T09:39:51+02:00</time>
      </trkpt>
      <trkpt lat="44.04608" lon="5.79368">
        <ele>711</ele>
        <time>2021-03-31T09:39:55+02:00</time>
      </trkpt>
      <trkpt lat="44.04604" lon="5.79346">
        <ele>712</ele>
        <time>2021-03-31T09:39:59+02:00</time>
      </trkpt>
      <trkpt lat="44.04599" lon="5.79324">
        <ele>713</ele>
        <time>2021-03-31T09:40:03+02:00</time>
      </trkpt>
      <trkpt lat="44.04593" lon="5.79302">
        <ele>713</ele>
        <time>2021-03-31T09:40:07+02:00</time>
      </trkpt>
      <trkpt lat="44.04587" lon="5.7928">
        <ele>714</ele>
        <time>2021-03-31T09:40:11+02:00</time>
      </trkpt>
      <trkpt lat="44.04582" lon="5.7926">
        <ele>713</ele>
        <time>2021-03-31T09:40:15+02:00</time>
      </trkpt>
      <trkpt lat="44.04576" lon="5.79238">
        <ele>713</ele>
        <time>2021-03-31T09:40:19+02:00</time>
      </trkpt>
      <trkpt lat="44.04571" lon="5.79218">
        <ele>712</ele>
        <time>2021-03-31T09:40:23+02:00</time>
      </trkpt>
      <trkpt lat="44.04565" lon="5.79197">
        <ele>713</ele>
        <time>2021-03-31T09:40:27+02:00</time>
      </trkpt>
      <trkpt lat="44.04558" lon="5.79174">
        <ele>712</ele>
        <time>2021-03-31T09:40:31+02:00</time>
      </trkpt>
      <trkpt lat="44.04552" lon="5.79154">
        <ele>711</ele>
        <time>2021-03-31T09:40:34+02:00</time>
      </trkpt>
      <trkpt lat="44.04547" lon="5.79131">
        <ele>710</ele>
        <time>2021-03-31T09:40:37+02:00</time>
      </trkpt>
      <trkpt lat="44.04542" lon="5.79107">
        <ele>710</ele>
        <time>2021-03-31T09:40:40+02:00</time>
      </trkpt>
      <trkpt lat="44.04539" lon="5.7908">
        <ele>709</ele>
        <time>2021-03-31T09:40:43+02:00</time>
      </trkpt>
      <trkpt lat="44.04539" lon="5.79061">
        <ele>709</ele>
        <time>2021-03-31T09:40:45+02:00</time>
      </trkpt>
      <trkpt lat="44.0454" lon="5.79033">
        <ele>709</ele>
        <time>2021-03-31T09:40:48+02:00</time>
      </trkpt>
      <trkpt lat="44.04543" lon="5.79007">
        <ele>710</ele>
        <time>2021-03-31T09:40:51+02:00</time>
      </trkpt>
      <trkpt lat="44.04548" lon="5.78981">
        <ele>710</ele>
        <time>2021-03-31T09:40:54+02:00</time>
      </trkpt>
      <trkpt lat="44.04553" lon="5.78957">
        <ele>710</ele>
        <time>2021-03-31T09:40:57+02:00</time>
      </trkpt>
      <trkpt lat="44.04558" lon="5.78932">
        <ele>710</ele>
        <time>2021-03-31T09:41:00+02:00</time>
      </trkpt>
      <trkpt lat="44.04563" lon="5.7891">
        <ele>710</ele>
        <time>2021-03-31T09:41:03+02:00</time>
      </trkpt>
      <trkpt lat="44.04567" lon="5.78889">
        <ele>710</ele>
        <time>2021-03-31T09:41:06+02:00</time>
      </trkpt>
      <trkpt lat="44.04571" lon="5.7887">
        <ele>711</ele>
        <time>2021-03-31T09:41:09+02:00</time>
      </trkpt>
      <trkpt lat="44.04575" lon="5.7885">
        <ele>711</ele>
        <time>2021-03-31T09:41:12+02:00</time>
      </trkpt>
      <trkpt lat="44.04577" lon="5.78831">
        <ele>711</ele>
        <time>2021-03-31T09:41:15+02:00</time>
      </trkpt>
      <trkpt lat="44.04576" lon="5.7881">
        <ele>711</ele>
        <time>2021-03-31T09:41:18+02:00</time>
      </trkpt>
      <trkpt lat="44.04574" lon="5.78788">
        <ele>711</ele>
        <time>2021-03-31T09:41:21+02:00</time>
      </trkpt>
      <trkpt lat="44.04572" lon="5.78764">
        <ele>711</ele>
        <time>2021-03-31T09:41:24+02:00</time>
      </trkpt>
      <trkpt lat="44.04571" lon="5.7874">
        <ele>709</ele>
        <time>2021-03-31T09:41:27+02:00</time>
      </trkpt>
      <trkpt lat="44.04569" lon="5.78715">
        <ele>706</ele>
        <time>2021-03-31T09:41:30+02:00</time>
      </trkpt>
      <trkpt lat="44.04568" lon="5.7869">
        <ele>704</ele>
        <time>2021-03-31T09:41:33+02:00</time>
      </trkpt>
      <trkpt lat="44.04566" lon="5.78671">
        <ele>704</ele>
        <time>2021-03-31T09:41:35+02:00</time>
      </trkpt>
      <trkpt lat="44.04565" lon="5.7865">
        <ele>704</ele>
        <time>2021-03-31T09:41:37+02:00</time>
      </trkpt>
      <trkpt lat="44.04563" lon="5.7863">
        <ele>703</ele>
        <time>2021-03-31T09:41:39+02:00</time>
      </trkpt>
      <trkpt lat="44.04562" lon="5.78609">
        <ele>702</ele>
        <time>2021-03-31T09:41:41+02:00</time>
      </trkpt>
      <trkpt lat="44.0456" lon="5.78586">
        <ele>702</ele>
        <time>2021-03-31T09:41:43+02:00</time>
      </trkpt>
      <trkpt lat="44.04558" lon="5.78563">
        <ele>702</ele>
        <time>2021-03-31T09:41:45+02:00</time>
      </trkpt>
      <trkpt lat="44.04557" lon="5.78539">
        <ele>701</ele>
        <time>2021-03-31T09:41:47+02:00</time>
      </trkpt>
      <trkpt lat="44.04555" lon="5.78514">
        <ele>700</ele>
        <time>2021-03-31T09:41:49+02:00</time>
      </trkpt>
      <trkpt lat="44.04554" lon="5.7849">
        <ele>699</ele>
        <time>2021-03-31T09:41:51+02:00</time>
      </trkpt>
      <trkpt lat="44.04552" lon="5.78466">
        <ele>699</ele>
        <time>2021-03-31T09:41:53+02:00</time>
      </trkpt>
      <trkpt lat="44.04551" lon="5.78444">
        <ele>698</ele>
        <time>2021-03-31T09:41:55+02:00</time>
      </trkpt>
      <trkpt lat="44.04549" lon="5.78423">
        <ele>698</ele>
        <time>2021-03-31T09:41:57+02:00</time>
      </trkpt>
      <trkpt lat="44.04546" lon="5.78404">
        <ele>697</ele>
        <time>2021-03-31T09:41:59+02:00</time>
      </trkpt>
      <trkpt lat="44.04543" lon="5.78379">
        <ele>698</ele>
        <time>2021-03-31T09:42:02+02:00</time>
      </trkpt>
      <trkpt lat="44.04542" lon="5.78356">
        <ele>698</ele>
        <time>2021-03-31T09:42:05+02:00</time>
      </trkpt>
      <trkpt lat="44.04544" lon="5.78333">
        <ele>697</ele>
        <time>2021-03-31T09:42:08+02:00</time>
      </trkpt>
      <trkpt lat="44.04542" lon="5.78308">
        <ele>695</ele>
        <time>2021-03-31T09:42:11+02:00</time>
      </trkpt>
      <trkpt lat="44.04542" lon="5.78285">
        <ele>696</ele>
        <time>2021-03-31T09:42:14+02:00</time>
      </trkpt>
      <trkpt lat="44.04543" lon="5.78263">
        <ele>700</ele>
        <time>2021-03-31T09:42:18+02:00</time>
      </trkpt>
      <trkpt lat="44.04542" lon="5.78243">
        <ele>708</ele>
        <time>2021-03-31T09:45:29+02:00</time>
      </trkpt>
      <trkpt lat="44.04542" lon="5.7822">
        <ele>708</ele>
        <time>2021-03-31T09:45:33+02:00</time>
      </trkpt>
      <trkpt lat="44.04542" lon="5.782">
        <ele>708</ele>
        <time>2021-03-31T09:45:36+02:00</time>
      </trkpt>
      <trkpt lat="44.04543" lon="5.7818">
        <ele>706</ele>
        <time>2021-03-31T09:45:39+02:00</time>
      </trkpt>
      <trkpt lat="44.04544" lon="5.78159">
        <ele>706</ele>
        <time>2021-03-31T09:45:42+02:00</time>
      </trkpt>
      <trkpt lat="44.04544" lon="5.78135">
        <ele>706</ele>
        <time>2021-03-31T09:45:45+02:00</time>
      </trkpt>
      <trkpt lat="44.04545" lon="5.78112">
        <ele>704</ele>
        <time>2021-03-31T09:45:48+02:00</time>
      </trkpt>
      <trkpt lat="44.04544" lon="5.7809">
        <ele>695</ele>
        <time>2021-03-31T09:45:51+02:00</time>
      </trkpt>
      <trkpt lat="44.04541" lon="5.78065">
        <ele>687</ele>
        <time>2021-03-31T09:45:55+02:00</time>
      </trkpt>
      <trkpt lat="44.04536" lon="5.78042">
        <ele>686</ele>
        <time>2021-03-31T09:45:58+02:00</time>
      </trkpt>
      <trkpt lat="44.04539" lon="5.7802">
        <ele>685</ele>
        <time>2021-03-31T09:46:01+02:00</time>
      </trkpt>
      <trkpt lat="44.0454" lon="5.78">
        <ele>690</ele>
        <time>2021-03-31T09:46:04+02:00</time>
      </trkpt>
      <trkpt lat="44.04543" lon="5.77982">
        <ele>692</ele>
        <time>2021-03-31T09:46:07+02:00</time>
      </trkpt>
      <trkpt lat="44.04547" lon="5.77959">
        <ele>692</ele>
        <time>2021-03-31T09:46:10+02:00</time>
      </trkpt>
      <trkpt lat="44.0455" lon="5.77934">
        <ele>692</ele>
        <time>2021-03-31T09:46:13+02:00</time>
      </trkpt>
      <trkpt lat="44.04548" lon="5.77907">
        <ele>692</ele>
        <time>2021-03-31T09:46:16+02:00</time>
      </trkpt>
      <trkpt lat="44.04545" lon="5.77886">
        <ele>693</ele>
        <time>2021-03-31T09:46:18+02:00</time>
      </trkpt>
      <trkpt lat="44.04542" lon="5.77862">
        <ele>693</ele>
        <time>2021-03-31T09:46:20+02:00</time>
      </trkpt>
      <trkpt lat="44.0454" lon="5.77839">
        <ele>694</ele>
        <time>2021-03-31T09:46:22+02:00</time>
      </trkpt>
      <trkpt lat="44.04537" lon="5.77818">
        <ele>696</ele>
        <time>2021-03-31T09:46:24+02:00</time>
      </trkpt>
      <trkpt lat="44.04535" lon="5.77791">
        <ele>695</ele>
        <time>2021-03-31T09:46:27+02:00</time>
      </trkpt>
      <trkpt lat="44.04531" lon="5.77767">
        <ele>694</ele>
        <time>2021-03-31T09:46:30+02:00</time>
      </trkpt>
      <trkpt lat="44.04529" lon="5.77745">
        <ele>695</ele>
        <time>2021-03-31T09:46:33+02:00</time>
      </trkpt>
      <trkpt lat="44.04526" lon="5.77722">
        <ele>695</ele>
        <time>2021-03-31T09:46:36+02:00</time>
      </trkpt>
      <trkpt lat="44.04522" lon="5.777">
        <ele>695</ele>
        <time>2021-03-31T09:46:39+02:00</time>
      </trkpt>
      <trkpt lat="44.04518" lon="5.77677">
        <ele>693</ele>
        <time>2021-03-31T09:46:42+02:00</time>
      </trkpt>
      <trkpt lat="44.04515" lon="5.77652">
        <ele>692</ele>
        <time>2021-03-31T09:46:45+02:00</time>
      </trkpt>
      <trkpt lat="44.04511" lon="5.77626">
        <ele>691</ele>
        <time>2021-03-31T09:46:48+02:00</time>
      </trkpt>
      <trkpt lat="44.04501" lon="5.77602">
        <ele>690</ele>
        <time>2021-03-31T09:46:51+02:00</time>
      </trkpt>
      <trkpt lat="44.04491" lon="5.77588">
        <ele>689</ele>
        <time>2021-03-31T09:46:53+02:00</time>
      </trkpt>
      <trkpt lat="44.0448" lon="5.77573">
        <ele>687</ele>
        <time>2021-03-31T09:46:55+02:00</time>
      </trkpt>
      <trkpt lat="44.04471" lon="5.77555">
        <ele>687</ele>
        <time>2021-03-31T09:46:57+02:00</time>
      </trkpt>
      <trkpt lat="44.04461" lon="5.77538">
        <ele>686</ele>
        <time>2021-03-31T09:46:59+02:00</time>
      </trkpt>
      <trkpt lat="44.04453" lon="5.7752">
        <ele>686</ele>
        <time>2021-03-31T09:47:01+02:00</time>
      </trkpt>
      <trkpt lat="44.04444" lon="5.77504">
        <ele>687</ele>
        <time>2021-03-31T09:47:03+02:00</time>
      </trkpt>
      <trkpt lat="44.04436" lon="5.77487">
        <ele>688</ele>
        <time>2021-03-31T09:47:05+02:00</time>
      </trkpt>
      <trkpt lat="44.04428" lon="5.77462">
        <ele>688</ele>
        <time>2021-03-31T09:47:08+02:00</time>
      </trkpt>
      <trkpt lat="44.04424" lon="5.77444">
        <ele>687</ele>
        <time>2021-03-31T09:47:10+02:00</time>
      </trkpt>
      <trkpt lat="44.04419" lon="5.77426">
        <ele>686</ele>
        <time>2021-03-31T09:47:12+02:00</time>
      </trkpt>
      <trkpt lat="44.04412" lon="5.77409">
        <ele>686</ele>
        <time>2021-03-31T09:47:14+02:00</time>
      </trkpt>
      <trkpt lat="44.04403" lon="5.77392">
        <ele>685</ele>
        <time>2021-03-31T09:47:16+02:00</time>
      </trkpt>
      <trkpt lat="44.04394" lon="5.77377">
        <ele>684</ele>
        <time>2021-03-31T09:47:18+02:00</time>
      </trkpt>
      <trkpt lat="44.04383" lon="5.77362">
        <ele>684</ele>
        <time>2021-03-31T09:47:20+02:00</time>
      </trkpt>
      <trkpt lat="44.04372" lon="5.77347">
        <ele>683</ele>
        <time>2021-03-31T09:47:22+02:00</time>
      </trkpt>
      <trkpt lat="44.0436" lon="5.77331">
        <ele>681</ele>
        <time>2021-03-31T09:47:24+02:00</time>
      </trkpt>
      <trkpt lat="44.04348" lon="5.77315">
        <ele>681</ele>
        <time>2021-03-31T09:47:26+02:00</time>
      </trkpt>
      <trkpt lat="44.04335" lon="5.77299">
        <ele>680</ele>
        <time>2021-03-31T09:47:28+02:00</time>
      </trkpt>
      <trkpt lat="44.04321" lon="5.77283">
        <ele>680</ele>
        <time>2021-03-31T09:47:30+02:00</time>
      </trkpt>
      <trkpt lat="44.04308" lon="5.77267">
        <ele>680</ele>
        <time>2021-03-31T09:47:32+02:00</time>
      </trkpt>
      <trkpt lat="44.04295" lon="5.77251">
        <ele>679</ele>
        <time>2021-03-31T09:47:34+02:00</time>
      </trkpt>
      <trkpt lat="44.04283" lon="5.77235">
        <ele>679</ele>
        <time>2021-03-31T09:47:36+02:00</time>
      </trkpt>
      <trkpt lat="44.04271" lon="5.7722">
        <ele>678</ele>
        <time>2021-03-31T09:47:38+02:00</time>
      </trkpt>
      <trkpt lat="44.04258" lon="5.77205">
        <ele>677</ele>
        <time>2021-03-31T09:47:40+02:00</time>
      </trkpt>
      <trkpt lat="44.04246" lon="5.7719">
        <ele>677</ele>
        <time>2021-03-31T09:47:42+02:00</time>
      </trkpt>
      <trkpt lat="44.04234" lon="5.77174">
        <ele>676</ele>
        <time>2021-03-31T09:47:44+02:00</time>
      </trkpt>
      <trkpt lat="44.04223" lon="5.77157">
        <ele>675</ele>
        <time>2021-03-31T09:47:46+02:00</time>
      </trkpt>
      <trkpt lat="44.04213" lon="5.77139">
        <ele>674</ele>
        <time>2021-03-31T09:47:48+02:00</time>
      </trkpt>
      <trkpt lat="44.04203" lon="5.7712">
        <ele>673</ele>
        <time>2021-03-31T09:47:50+02:00</time>
      </trkpt>
      <trkpt lat="44.04193" lon="5.77101">
        <ele>673</ele>
        <time>2021-03-31T09:47:52+02:00</time>
      </trkpt>
      <trkpt lat="44.04183" lon="5.77083">
        <ele>673</ele>
        <time>2021-03-31T09:47:54+02:00</time>
      </trkpt>
      <trkpt lat="44.04172" lon="5.77067">
        <ele>673</ele>
        <time>2021-03-31T09:47:56+02:00</time>
      </trkpt>
      <trkpt lat="44.0416" lon="5.77052">
        <ele>673</ele>
        <time>2021-03-31T09:47:58+02:00</time>
      </trkpt>
      <trkpt lat="44.04148" lon="5.7704">
        <ele>673</ele>
        <time>2021-03-31T09:48:00+02:00</time>
      </trkpt>
      <trkpt lat="44.04136" lon="5.77029">
        <ele>673</ele>
        <time>2021-03-31T09:48:02+02:00</time>
      </trkpt>
      <trkpt lat="44.04124" lon="5.77018">
        <ele>673</ele>
        <time>2021-03-31T09:48:04+02:00</time>
      </trkpt>
      <trkpt lat="44.04112" lon="5.77007">
        <ele>673</ele>
        <time>2021-03-31T09:48:06+02:00</time>
      </trkpt>
      <trkpt lat="44.04101" lon="5.76995">
        <ele>672</ele>
        <time>2021-03-31T09:48:08+02:00</time>
      </trkpt>
      <trkpt lat="44.0409" lon="5.76983">
        <ele>672</ele>
        <time>2021-03-31T09:48:10+02:00</time>
      </trkpt>
      <trkpt lat="44.04079" lon="5.7697">
        <ele>672</ele>
        <time>2021-03-31T09:48:12+02:00</time>
      </trkpt>
      <trkpt lat="44.04069" lon="5.76957">
        <ele>672</ele>
        <time>2021-03-31T09:48:14+02:00</time>
      </trkpt>
      <trkpt lat="44.04059" lon="5.76945">
        <ele>672</ele>
        <time>2021-03-31T09:48:16+02:00</time>
      </trkpt>
      <trkpt lat="44.04049" lon="5.76931">
        <ele>672</ele>
        <time>2021-03-31T09:48:18+02:00</time>
      </trkpt>
      <trkpt lat="44.04039" lon="5.76917">
        <ele>673</ele>
        <time>2021-03-31T09:48:20+02:00</time>
      </trkpt>
      <trkpt lat="44.04028" lon="5.76903">
        <ele>673</ele>
        <time>2021-03-31T09:48:22+02:00</time>
      </trkpt>
      <trkpt lat="44.04018" lon="5.7689">
        <ele>673</ele>
        <time>2021-03-31T09:48:24+02:00</time>
      </trkpt>
      <trkpt lat="44.04003" lon="5.76873">
        <ele>673</ele>
        <time>2021-03-31T09:48:27+02:00</time>
      </trkpt>
      <trkpt lat="44.03993" lon="5.7686">
        <ele>673</ele>
        <time>2021-03-31T09:48:29+02:00</time>
      </trkpt>
      <trkpt lat="44.03982" lon="5.76848">
        <ele>673</ele>
        <time>2021-03-31T09:48:31+02:00</time>
      </trkpt>
      <trkpt lat="44.03972" lon="5.76836">
        <ele>673</ele>
        <time>2021-03-31T09:48:33+02:00</time>
      </trkpt>
      <trkpt lat="44.03956" lon="5.76818">
        <ele>672</ele>
        <time>2021-03-31T09:48:36+02:00</time>
      </trkpt>
      <trkpt lat="44.03941" lon="5.76801">
        <ele>672</ele>
        <time>2021-03-31T09:48:39+02:00</time>
      </trkpt>
      <trkpt lat="44.03926" lon="5.76783">
        <ele>672</ele>
        <time>2021-03-31T09:48:42+02:00</time>
      </trkpt>
      <trkpt lat="44.03911" lon="5.76766">
        <ele>673</ele>
        <time>2021-03-31T09:48:45+02:00</time>
      </trkpt>
      <trkpt lat="44.03897" lon="5.76748">
        <ele>672</ele>
        <time>2021-03-31T09:48:48+02:00</time>
      </trkpt>
      <trkpt lat="44.03886" lon="5.76729">
        <ele>671</ele>
        <time>2021-03-31T09:48:51+02:00</time>
      </trkpt>
      <trkpt lat="44.03876" lon="5.76712">
        <ele>670</ele>
        <time>2021-03-31T09:48:54+02:00</time>
      </trkpt>
      <trkpt lat="44.03866" lon="5.76698">
        <ele>669</ele>
        <time>2021-03-31T09:48:58+02:00</time>
      </trkpt>
      <trkpt lat="44.03856" lon="5.76684">
        <ele>670</ele>
        <time>2021-03-31T09:49:03+02:00</time>
      </trkpt>
      <trkpt lat="44.03843" lon="5.76673">
        <ele>671</ele>
        <time>2021-03-31T09:50:02+02:00</time>
      </trkpt>
      <trkpt lat="44.03831" lon="5.7666">
        <ele>669</ele>
        <time>2021-03-31T09:50:07+02:00</time>
      </trkpt>
      <trkpt lat="44.03819" lon="5.76647">
        <ele>671</ele>
        <time>2021-03-31T09:50:11+02:00</time>
      </trkpt>
      <trkpt lat="44.03805" lon="5.76632">
        <ele>671</ele>
        <time>2021-03-31T09:50:15+02:00</time>
      </trkpt>
      <trkpt lat="44.03794" lon="5.7662">
        <ele>671</ele>
        <time>2021-03-31T09:50:18+02:00</time>
      </trkpt>
      <trkpt lat="44.03784" lon="5.76607">
        <ele>670</ele>
        <time>2021-03-31T09:50:21+02:00</time>
      </trkpt>
      <trkpt lat="44.03774" lon="5.76593">
        <ele>669</ele>
        <time>2021-03-31T09:50:24+02:00</time>
      </trkpt>
      <trkpt lat="44.03763" lon="5.76578">
        <ele>669</ele>
        <time>2021-03-31T09:50:27+02:00</time>
      </trkpt>
      <trkpt lat="44.03752" lon="5.76564">
        <ele>670</ele>
        <time>2021-03-31T09:50:30+02:00</time>
      </trkpt>
      <trkpt lat="44.0374" lon="5.76549">
        <ele>671</ele>
        <time>2021-03-31T09:50:33+02:00</time>
      </trkpt>
      <trkpt lat="44.03729" lon="5.76533">
        <ele>671</ele>
        <time>2021-03-31T09:50:36+02:00</time>
      </trkpt>
      <trkpt lat="44.03716" lon="5.76521">
        <ele>670</ele>
        <time>2021-03-31T09:50:39+02:00</time>
      </trkpt>
      <trkpt lat="44.03702" lon="5.76511">
        <ele>670</ele>
        <time>2021-03-31T09:50:42+02:00</time>
      </trkpt>
      <trkpt lat="44.03689" lon="5.76501">
        <ele>670</ele>
        <time>2021-03-31T09:50:45+02:00</time>
      </trkpt>
      <trkpt lat="44.03675" lon="5.76491">
        <ele>670</ele>
        <time>2021-03-31T09:50:48+02:00</time>
      </trkpt>
      <trkpt lat="44.03662" lon="5.76481">
        <ele>671</ele>
        <time>2021-03-31T09:50:51+02:00</time>
      </trkpt>
      <trkpt lat="44.03649" lon="5.7647">
        <ele>672</ele>
        <time>2021-03-31T09:50:54+02:00</time>
      </trkpt>
      <trkpt lat="44.03638" lon="5.76454">
        <ele>671</ele>
        <time>2021-03-31T09:50:57+02:00</time>
      </trkpt>
      <trkpt lat="44.03624" lon="5.76437">
        <ele>671</ele>
        <time>2021-03-31T09:51:00+02:00</time>
      </trkpt>
      <trkpt lat="44.0361" lon="5.76417">
        <ele>670</ele>
        <time>2021-03-31T09:51:03+02:00</time>
      </trkpt>
      <trkpt lat="44.036" lon="5.76404">
        <ele>670</ele>
        <time>2021-03-31T09:51:05+02:00</time>
      </trkpt>
      <trkpt lat="44.03589" lon="5.76393">
        <ele>670</ele>
        <time>2021-03-31T09:51:07+02:00</time>
      </trkpt>
      <trkpt lat="44.03578" lon="5.76381">
        <ele>670</ele>
        <time>2021-03-31T09:51:09+02:00</time>
      </trkpt>
      <trkpt lat="44.03567" lon="5.76368">
        <ele>669</ele>
        <time>2021-03-31T09:51:11+02:00</time>
      </trkpt>
      <trkpt lat="44.03556" lon="5.76354">
        <ele>669</ele>
        <time>2021-03-31T09:51:13+02:00</time>
      </trkpt>
      <trkpt lat="44.03545" lon="5.76338">
        <ele>668</ele>
        <time>2021-03-31T09:51:15+02:00</time>
      </trkpt>
      <trkpt lat="44.03532" lon="5.76323">
        <ele>667</ele>
        <time>2021-03-31T09:51:17+02:00</time>
      </trkpt>
      <trkpt lat="44.03519" lon="5.76308">
        <ele>667</ele>
        <time>2021-03-31T09:51:19+02:00</time>
      </trkpt>
      <trkpt lat="44.03505" lon="5.76293">
        <ele>666</ele>
        <time>2021-03-31T09:51:21+02:00</time>
      </trkpt>
      <trkpt lat="44.03492" lon="5.76278">
        <ele>665</ele>
        <time>2021-03-31T09:51:23+02:00</time>
      </trkpt>
      <trkpt lat="44.03479" lon="5.76263">
        <ele>664</ele>
        <time>2021-03-31T09:51:25+02:00</time>
      </trkpt>
      <trkpt lat="44.03466" lon="5.76246">
        <ele>663</ele>
        <time>2021-03-31T09:51:27+02:00</time>
      </trkpt>
      <trkpt lat="44.03453" lon="5.76228">
        <ele>662</ele>
        <time>2021-03-31T09:51:29+02:00</time>
      </trkpt>
      <trkpt lat="44.0344" lon="5.7621">
        <ele>660</ele>
        <time>2021-03-31T09:51:31+02:00</time>
      </trkpt>
      <trkpt lat="44.03426" lon="5.76196">
        <ele>658</ele>
        <time>2021-03-31T09:51:33+02:00</time>
      </trkpt>
      <trkpt lat="44.03409" lon="5.76186">
        <ele>659</ele>
        <time>2021-03-31T09:51:35+02:00</time>
      </trkpt>
      <trkpt lat="44.03392" lon="5.76176">
        <ele>658</ele>
        <time>2021-03-31T09:51:37+02:00</time>
      </trkpt>
      <trkpt lat="44.03376" lon="5.76162">
        <ele>657</ele>
        <time>2021-03-31T09:51:39+02:00</time>
      </trkpt>
      <trkpt lat="44.03359" lon="5.76152">
        <ele>655</ele>
        <time>2021-03-31T09:51:41+02:00</time>
      </trkpt>
      <trkpt lat="44.03344" lon="5.76139">
        <ele>655</ele>
        <time>2021-03-31T09:51:43+02:00</time>
      </trkpt>
      <trkpt lat="44.03327" lon="5.76124">
        <ele>654</ele>
        <time>2021-03-31T09:51:45+02:00</time>
      </trkpt>
      <trkpt lat="44.03313" lon="5.76108">
        <ele>654</ele>
        <time>2021-03-31T09:51:47+02:00</time>
      </trkpt>
      <trkpt lat="44.03299" lon="5.7609">
        <ele>652</ele>
        <time>2021-03-31T09:51:49+02:00</time>
      </trkpt>
      <trkpt lat="44.03284" lon="5.76074">
        <ele>653</ele>
        <time>2021-03-31T09:51:51+02:00</time>
      </trkpt>
      <trkpt lat="44.03269" lon="5.76062">
        <ele>653</ele>
        <time>2021-03-31T09:51:53+02:00</time>
      </trkpt>
      <trkpt lat="44.03252" lon="5.76047">
        <ele>653</ele>
        <time>2021-03-31T09:51:55+02:00</time>
      </trkpt>
      <trkpt lat="44.03236" lon="5.76031">
        <ele>652</ele>
        <time>2021-03-31T09:51:57+02:00</time>
      </trkpt>
      <trkpt lat="44.0322" lon="5.76017">
        <ele>651</ele>
        <time>2021-03-31T09:51:59+02:00</time>
      </trkpt>
      <trkpt lat="44.03204" lon="5.76002">
        <ele>650</ele>
        <time>2021-03-31T09:52:01+02:00</time>
      </trkpt>
      <trkpt lat="44.03189" lon="5.75988">
        <ele>648</ele>
        <time>2021-03-31T09:52:03+02:00</time>
      </trkpt>
      <trkpt lat="44.03173" lon="5.75973">
        <ele>646</ele>
        <time>2021-03-31T09:52:05+02:00</time>
      </trkpt>
      <trkpt lat="44.03157" lon="5.75958">
        <ele>645</ele>
        <time>2021-03-31T09:52:07+02:00</time>
      </trkpt>
      <trkpt lat="44.03142" lon="5.75943">
        <ele>644</ele>
        <time>2021-03-31T09:52:09+02:00</time>
      </trkpt>
      <trkpt lat="44.03128" lon="5.75928">
        <ele>643</ele>
        <time>2021-03-31T09:52:11+02:00</time>
      </trkpt>
      <trkpt lat="44.03113" lon="5.75911">
        <ele>642</ele>
        <time>2021-03-31T09:52:13+02:00</time>
      </trkpt>
      <trkpt lat="44.03098" lon="5.75895">
        <ele>642</ele>
        <time>2021-03-31T09:52:15+02:00</time>
      </trkpt>
      <trkpt lat="44.03083" lon="5.75879">
        <ele>641</ele>
        <time>2021-03-31T09:52:17+02:00</time>
      </trkpt>
      <trkpt lat="44.03067" lon="5.75863">
        <ele>640</ele>
        <time>2021-03-31T09:52:19+02:00</time>
      </trkpt>
      <trkpt lat="44.03051" lon="5.75848">
        <ele>640</ele>
        <time>2021-03-31T09:52:21+02:00</time>
      </trkpt>
      <trkpt lat="44.03036" lon="5.75832">
        <ele>638</ele>
        <time>2021-03-31T09:52:23+02:00</time>
      </trkpt>
      <trkpt lat="44.0302" lon="5.75816">
        <ele>636</ele>
        <time>2021-03-31T09:52:25+02:00</time>
      </trkpt>
      <trkpt lat="44.03005" lon="5.75797">
        <ele>635</ele>
        <time>2021-03-31T09:52:27+02:00</time>
      </trkpt>
      <trkpt lat="44.02989" lon="5.75779">
        <ele>633</ele>
        <time>2021-03-31T09:52:29+02:00</time>
      </trkpt>
      <trkpt lat="44.02974" lon="5.75761">
        <ele>633</ele>
        <time>2021-03-31T09:52:31+02:00</time>
      </trkpt>
      <trkpt lat="44.0296" lon="5.75744">
        <ele>631</ele>
        <time>2021-03-31T09:52:33+02:00</time>
      </trkpt>
      <trkpt lat="44.02947" lon="5.75726">
        <ele>630</ele>
        <time>2021-03-31T09:52:35+02:00</time>
      </trkpt>
      <trkpt lat="44.02937" lon="5.75704">
        <ele>628</ele>
        <time>2021-03-31T09:52:37+02:00</time>
      </trkpt>
      <trkpt lat="44.02932" lon="5.75685">
        <ele>627</ele>
        <time>2021-03-31T09:52:39+02:00</time>
      </trkpt>
      <trkpt lat="44.02936" lon="5.75658">
        <ele>626</ele>
        <time>2021-03-31T09:52:42+02:00</time>
      </trkpt>
      <trkpt lat="44.02947" lon="5.75646">
        <ele>626</ele>
        <time>2021-03-31T09:52:44+02:00</time>
      </trkpt>
      <trkpt lat="44.02962" lon="5.75638">
        <ele>625</ele>
        <time>2021-03-31T09:52:46+02:00</time>
      </trkpt>
      <trkpt lat="44.02978" lon="5.75628">
        <ele>624</ele>
        <time>2021-03-31T09:52:48+02:00</time>
      </trkpt>
      <trkpt lat="44.02995" lon="5.75617">
        <ele>624</ele>
        <time>2021-03-31T09:52:50+02:00</time>
      </trkpt>
      <trkpt lat="44.03012" lon="5.75603">
        <ele>624</ele>
        <time>2021-03-31T09:52:52+02:00</time>
      </trkpt>
      <trkpt lat="44.03029" lon="5.75588">
        <ele>623</ele>
        <time>2021-03-31T09:52:54+02:00</time>
      </trkpt>
      <trkpt lat="44.03042" lon="5.75572">
        <ele>621</ele>
        <time>2021-03-31T09:52:56+02:00</time>
      </trkpt>
      <trkpt lat="44.03052" lon="5.75552">
        <ele>618</ele>
        <time>2021-03-31T09:52:58+02:00</time>
      </trkpt>
      <trkpt lat="44.03056" lon="5.75528">
        <ele>616</ele>
        <time>2021-03-31T09:53:00+02:00</time>
      </trkpt>
      <trkpt lat="44.0305" lon="5.75506">
        <ele>616</ele>
        <time>2021-03-31T09:53:02+02:00</time>
      </trkpt>
      <trkpt lat="44.03038" lon="5.75489">
        <ele>617</ele>
        <time>2021-03-31T09:53:04+02:00</time>
      </trkpt>
      <trkpt lat="44.03026" lon="5.75473">
        <ele>617</ele>
        <time>2021-03-31T09:53:06+02:00</time>
      </trkpt>
      <trkpt lat="44.03016" lon="5.75455">
        <ele>617</ele>
        <time>2021-03-31T09:53:08+02:00</time>
      </trkpt>
      <trkpt lat="44.03009" lon="5.75436">
        <ele>616</ele>
        <time>2021-03-31T09:53:10+02:00</time>
      </trkpt>
      <trkpt lat="44.03004" lon="5.75414">
        <ele>615</ele>
        <time>2021-03-31T09:53:12+02:00</time>
      </trkpt>
      <trkpt lat="44.03" lon="5.75394">
        <ele>614</ele>
        <time>2021-03-31T09:53:14+02:00</time>
      </trkpt>
      <trkpt lat="44.02993" lon="5.75376">
        <ele>614</ele>
        <time>2021-03-31T09:53:16+02:00</time>
      </trkpt>
      <trkpt lat="44.02983" lon="5.75362">
        <ele>615</ele>
        <time>2021-03-31T09:53:18+02:00</time>
      </trkpt>
      <trkpt lat="44.02972" lon="5.75349">
        <ele>615</ele>
        <time>2021-03-31T09:53:20+02:00</time>
      </trkpt>
      <trkpt lat="44.02961" lon="5.75338">
        <ele>615</ele>
        <time>2021-03-31T09:53:22+02:00</time>
      </trkpt>
      <trkpt lat="44.02943" lon="5.75324">
        <ele>615</ele>
        <time>2021-03-31T09:53:25+02:00</time>
      </trkpt>
      <trkpt lat="44.02931" lon="5.75316">
        <ele>616</ele>
        <time>2021-03-31T09:53:27+02:00</time>
      </trkpt>
      <trkpt lat="44.02913" lon="5.75303">
        <ele>616</ele>
        <time>2021-03-31T09:53:30+02:00</time>
      </trkpt>
      <trkpt lat="44.02901" lon="5.75294">
        <ele>616</ele>
        <time>2021-03-31T09:53:32+02:00</time>
      </trkpt>
      <trkpt lat="44.02888" lon="5.75285">
        <ele>615</ele>
        <time>2021-03-31T09:53:34+02:00</time>
      </trkpt>
      <trkpt lat="44.02874" lon="5.75276">
        <ele>615</ele>
        <time>2021-03-31T09:53:36+02:00</time>
      </trkpt>
      <trkpt lat="44.02861" lon="5.75266">
        <ele>614</ele>
        <time>2021-03-31T09:53:38+02:00</time>
      </trkpt>
      <trkpt lat="44.02847" lon="5.75257">
        <ele>614</ele>
        <time>2021-03-31T09:53:40+02:00</time>
      </trkpt>
      <trkpt lat="44.02833" lon="5.75247">
        <ele>612</ele>
        <time>2021-03-31T09:53:42+02:00</time>
      </trkpt>
      <trkpt lat="44.02818" lon="5.75237">
        <ele>610</ele>
        <time>2021-03-31T09:53:44+02:00</time>
      </trkpt>
      <trkpt lat="44.02804" lon="5.75227">
        <ele>609</ele>
        <time>2021-03-31T09:53:46+02:00</time>
      </trkpt>
      <trkpt lat="44.02789" lon="5.75217">
        <ele>609</ele>
        <time>2021-03-31T09:53:48+02:00</time>
      </trkpt>
      <trkpt lat="44.02775" lon="5.75207">
        <ele>610</ele>
        <time>2021-03-31T09:53:50+02:00</time>
      </trkpt>
      <trkpt lat="44.02761" lon="5.75197">
        <ele>610</ele>
        <time>2021-03-31T09:53:52+02:00</time>
      </trkpt>
      <trkpt lat="44.02747" lon="5.75188">
        <ele>610</ele>
        <time>2021-03-31T09:53:54+02:00</time>
      </trkpt>
      <trkpt lat="44.02734" lon="5.75178">
        <ele>610</ele>
        <time>2021-03-31T09:53:56+02:00</time>
      </trkpt>
      <trkpt lat="44.0272" lon="5.75169">
        <ele>610</ele>
        <time>2021-03-31T09:53:58+02:00</time>
      </trkpt>
      <trkpt lat="44.02707" lon="5.7516">
        <ele>609</ele>
        <time>2021-03-31T09:54:00+02:00</time>
      </trkpt>
      <trkpt lat="44.02694" lon="5.7515">
        <ele>609</ele>
        <time>2021-03-31T09:54:02+02:00</time>
      </trkpt>
      <trkpt lat="44.02681" lon="5.75141">
        <ele>608</ele>
        <time>2021-03-31T09:54:04+02:00</time>
      </trkpt>
      <trkpt lat="44.02667" lon="5.75132">
        <ele>608</ele>
        <time>2021-03-31T09:54:06+02:00</time>
      </trkpt>
      <trkpt lat="44.02653" lon="5.75122">
        <ele>607</ele>
        <time>2021-03-31T09:54:08+02:00</time>
      </trkpt>
      <trkpt lat="44.0264" lon="5.75112">
        <ele>607</ele>
        <time>2021-03-31T09:54:10+02:00</time>
      </trkpt>
      <trkpt lat="44.02627" lon="5.75101">
        <ele>606</ele>
        <time>2021-03-31T09:54:12+02:00</time>
      </trkpt>
      <trkpt lat="44.02612" lon="5.75091">
        <ele>605</ele>
        <time>2021-03-31T09:54:14+02:00</time>
      </trkpt>
      <trkpt lat="44.02598" lon="5.75081">
        <ele>604</ele>
        <time>2021-03-31T09:54:16+02:00</time>
      </trkpt>
      <trkpt lat="44.02582" lon="5.75071">
        <ele>603</ele>
        <time>2021-03-31T09:54:18+02:00</time>
      </trkpt>
      <trkpt lat="44.02565" lon="5.75062">
        <ele>602</ele>
        <time>2021-03-31T09:54:20+02:00</time>
      </trkpt>
      <trkpt lat="44.02548" lon="5.75055">
        <ele>602</ele>
        <time>2021-03-31T09:54:22+02:00</time>
      </trkpt>
      <trkpt lat="44.02532" lon="5.75047">
        <ele>601</ele>
        <time>2021-03-31T09:54:24+02:00</time>
      </trkpt>
      <trkpt lat="44.02515" lon="5.7504">
        <ele>601</ele>
        <time>2021-03-31T09:54:26+02:00</time>
      </trkpt>
      <trkpt lat="44.02499" lon="5.75032">
        <ele>600</ele>
        <time>2021-03-31T09:54:28+02:00</time>
      </trkpt>
      <trkpt lat="44.02484" lon="5.75024">
        <ele>599</ele>
        <time>2021-03-31T09:54:30+02:00</time>
      </trkpt>
      <trkpt lat="44.02468" lon="5.75017">
        <ele>598</ele>
        <time>2021-03-31T09:54:32+02:00</time>
      </trkpt>
      <trkpt lat="44.02451" lon="5.7501">
        <ele>598</ele>
        <time>2021-03-31T09:54:34+02:00</time>
      </trkpt>
      <trkpt lat="44.02433" lon="5.75003">
        <ele>598</ele>
        <time>2021-03-31T09:54:36+02:00</time>
      </trkpt>
      <trkpt lat="44.02416" lon="5.74995">
        <ele>598</ele>
        <time>2021-03-31T09:54:38+02:00</time>
      </trkpt>
      <trkpt lat="44.02399" lon="5.74988">
        <ele>599</ele>
        <time>2021-03-31T09:54:40+02:00</time>
      </trkpt>
      <trkpt lat="44.0238" lon="5.74979">
        <ele>600</ele>
        <time>2021-03-31T09:54:42+02:00</time>
      </trkpt>
      <trkpt lat="44.02361" lon="5.74974">
        <ele>601</ele>
        <time>2021-03-31T09:54:44+02:00</time>
      </trkpt>
      <trkpt lat="44.02345" lon="5.74969">
        <ele>599</ele>
        <time>2021-03-31T09:54:46+02:00</time>
      </trkpt>
      <trkpt lat="44.02329" lon="5.74964">
        <ele>598</ele>
        <time>2021-03-31T09:54:48+02:00</time>
      </trkpt>
      <trkpt lat="44.02314" lon="5.74958">
        <ele>597</ele>
        <time>2021-03-31T09:54:50+02:00</time>
      </trkpt>
      <trkpt lat="44.02299" lon="5.7495">
        <ele>598</ele>
        <time>2021-03-31T09:54:52+02:00</time>
      </trkpt>
      <trkpt lat="44.02286" lon="5.74941">
        <ele>598</ele>
        <time>2021-03-31T09:54:54+02:00</time>
      </trkpt>
      <trkpt lat="44.02273" lon="5.74931">
        <ele>597</ele>
        <time>2021-03-31T09:54:56+02:00</time>
      </trkpt>
      <trkpt lat="44.0226" lon="5.74921">
        <ele>597</ele>
        <time>2021-03-31T09:54:58+02:00</time>
      </trkpt>
      <trkpt lat="44.02247" lon="5.74912">
        <ele>596</ele>
        <time>2021-03-31T09:55:00+02:00</time>
      </trkpt>
      <trkpt lat="44.02234" lon="5.74902">
        <ele>596</ele>
        <time>2021-03-31T09:55:02+02:00</time>
      </trkpt>
      <trkpt lat="44.02222" lon="5.74892">
        <ele>597</ele>
        <time>2021-03-31T09:55:04+02:00</time>
      </trkpt>
      <trkpt lat="44.02209" lon="5.74881">
        <ele>597</ele>
        <time>2021-03-31T09:55:06+02:00</time>
      </trkpt>
      <trkpt lat="44.02197" lon="5.74871">
        <ele>597</ele>
        <time>2021-03-31T09:55:08+02:00</time>
      </trkpt>
      <trkpt lat="44.02184" lon="5.74861">
        <ele>597</ele>
        <time>2021-03-31T09:55:10+02:00</time>
      </trkpt>
      <trkpt lat="44.02171" lon="5.74852">
        <ele>596</ele>
        <time>2021-03-31T09:55:12+02:00</time>
      </trkpt>
      <trkpt lat="44.02158" lon="5.74843">
        <ele>595</ele>
        <time>2021-03-31T09:55:14+02:00</time>
      </trkpt>
      <trkpt lat="44.02144" lon="5.74833">
        <ele>594</ele>
        <time>2021-03-31T09:55:16+02:00</time>
      </trkpt>
      <trkpt lat="44.02131" lon="5.74822">
        <ele>594</ele>
        <time>2021-03-31T09:55:18+02:00</time>
      </trkpt>
      <trkpt lat="44.02119" lon="5.74809">
        <ele>593</ele>
        <time>2021-03-31T09:55:20+02:00</time>
      </trkpt>
      <trkpt lat="44.02108" lon="5.74794">
        <ele>593</ele>
        <time>2021-03-31T09:55:22+02:00</time>
      </trkpt>
      <trkpt lat="44.02097" lon="5.74779">
        <ele>592</ele>
        <time>2021-03-31T09:55:24+02:00</time>
      </trkpt>
      <trkpt lat="44.02086" lon="5.74763">
        <ele>592</ele>
        <time>2021-03-31T09:55:26+02:00</time>
      </trkpt>
      <trkpt lat="44.02076" lon="5.74747">
        <ele>592</ele>
        <time>2021-03-31T09:55:28+02:00</time>
      </trkpt>
      <trkpt lat="44.02066" lon="5.74731">
        <ele>592</ele>
        <time>2021-03-31T09:55:30+02:00</time>
      </trkpt>
      <trkpt lat="44.02056" lon="5.74716">
        <ele>592</ele>
        <time>2021-03-31T09:55:32+02:00</time>
      </trkpt>
      <trkpt lat="44.02046" lon="5.74701">
        <ele>592</ele>
        <time>2021-03-31T09:55:34+02:00</time>
      </trkpt>
      <trkpt lat="44.02036" lon="5.74687">
        <ele>592</ele>
        <time>2021-03-31T09:55:36+02:00</time>
      </trkpt>
      <trkpt lat="44.02026" lon="5.74674">
        <ele>592</ele>
        <time>2021-03-31T09:55:38+02:00</time>
      </trkpt>
      <trkpt lat="44.02016" lon="5.74661">
        <ele>591</ele>
        <time>2021-03-31T09:55:40+02:00</time>
      </trkpt>
      <trkpt lat="44.02008" lon="5.74646">
        <ele>590</ele>
        <time>2021-03-31T09:55:42+02:00</time>
      </trkpt>
      <trkpt lat="44.02" lon="5.7463">
        <ele>590</ele>
        <time>2021-03-31T09:55:44+02:00</time>
      </trkpt>
      <trkpt lat="44.01992" lon="5.74613">
        <ele>590</ele>
        <time>2021-03-31T09:55:46+02:00</time>
      </trkpt>
      <trkpt lat="44.01984" lon="5.74595">
        <ele>589</ele>
        <time>2021-03-31T09:55:48+02:00</time>
      </trkpt>
      <trkpt lat="44.01977" lon="5.74577">
        <ele>589</ele>
        <time>2021-03-31T09:55:50+02:00</time>
      </trkpt>
      <trkpt lat="44.01969" lon="5.74558">
        <ele>588</ele>
        <time>2021-03-31T09:55:52+02:00</time>
      </trkpt>
      <trkpt lat="44.01961" lon="5.74539">
        <ele>588</ele>
        <time>2021-03-31T09:55:54+02:00</time>
      </trkpt>
      <trkpt lat="44.01952" lon="5.7452">
        <ele>589</ele>
        <time>2021-03-31T09:55:56+02:00</time>
      </trkpt>
      <trkpt lat="44.01944" lon="5.74501">
        <ele>588</ele>
        <time>2021-03-31T09:55:58+02:00</time>
      </trkpt>
      <trkpt lat="44.01936" lon="5.74481">
        <ele>587</ele>
        <time>2021-03-31T09:56:00+02:00</time>
      </trkpt>
      <trkpt lat="44.01927" lon="5.74462">
        <ele>586</ele>
        <time>2021-03-31T09:56:02+02:00</time>
      </trkpt>
      <trkpt lat="44.01919" lon="5.74442">
        <ele>586</ele>
        <time>2021-03-31T09:56:04+02:00</time>
      </trkpt>
      <trkpt lat="44.01914" lon="5.74423">
        <ele>585</ele>
        <time>2021-03-31T09:56:06+02:00</time>
      </trkpt>
      <trkpt lat="44.01914" lon="5.74401">
        <ele>585</ele>
        <time>2021-03-31T09:56:08+02:00</time>
      </trkpt>
      <trkpt lat="44.01922" lon="5.74383">
        <ele>585</ele>
        <time>2021-03-31T09:56:10+02:00</time>
      </trkpt>
      <trkpt lat="44.01935" lon="5.74373">
        <ele>584</ele>
        <time>2021-03-31T09:56:12+02:00</time>
      </trkpt>
      <trkpt lat="44.01951" lon="5.74365">
        <ele>584</ele>
        <time>2021-03-31T09:56:14+02:00</time>
      </trkpt>
      <trkpt lat="44.01964" lon="5.74356">
        <ele>582</ele>
        <time>2021-03-31T09:56:16+02:00</time>
      </trkpt>
      <trkpt lat="44.01976" lon="5.74344">
        <ele>580</ele>
        <time>2021-03-31T09:56:18+02:00</time>
      </trkpt>
      <trkpt lat="44.01986" lon="5.74329">
        <ele>578</ele>
        <time>2021-03-31T09:56:20+02:00</time>
      </trkpt>
      <trkpt lat="44.01994" lon="5.74312">
        <ele>578</ele>
        <time>2021-03-31T09:56:22+02:00</time>
      </trkpt>
      <trkpt lat="44.02001" lon="5.74292">
        <ele>578</ele>
        <time>2021-03-31T09:56:24+02:00</time>
      </trkpt>
      <trkpt lat="44.02008" lon="5.74273">
        <ele>577</ele>
        <time>2021-03-31T09:56:26+02:00</time>
      </trkpt>
      <trkpt lat="44.02014" lon="5.74254">
        <ele>577</ele>
        <time>2021-03-31T09:56:28+02:00</time>
      </trkpt>
      <trkpt lat="44.0202" lon="5.74234">
        <ele>577</ele>
        <time>2021-03-31T09:56:30+02:00</time>
      </trkpt>
      <trkpt lat="44.02024" lon="5.74214">
        <ele>577</ele>
        <time>2021-03-31T09:56:32+02:00</time>
      </trkpt>
      <trkpt lat="44.02028" lon="5.74193">
        <ele>577</ele>
        <time>2021-03-31T09:56:34+02:00</time>
      </trkpt>
      <trkpt lat="44.02033" lon="5.74173">
        <ele>577</ele>
        <time>2021-03-31T09:56:36+02:00</time>
      </trkpt>
      <trkpt lat="44.02041" lon="5.74155">
        <ele>576</ele>
        <time>2021-03-31T09:56:38+02:00</time>
      </trkpt>
      <trkpt lat="44.02052" lon="5.74141">
        <ele>575</ele>
        <time>2021-03-31T09:56:40+02:00</time>
      </trkpt>
      <trkpt lat="44.02064" lon="5.74131">
        <ele>575</ele>
        <time>2021-03-31T09:56:43+02:00</time>
      </trkpt>
      <trkpt lat="44.02077" lon="5.74141">
        <ele>576</ele>
        <time>2021-03-31T09:58:32+02:00</time>
      </trkpt>
      <trkpt lat="44.02091" lon="5.74149">
        <ele>576</ele>
        <time>2021-03-31T09:58:40+02:00</time>
      </trkpt>
      <trkpt lat="44.02077" lon="5.74144">
        <ele>577</ele>
        <time>2021-03-31T09:59:11+02:00</time>
      </trkpt>
      <trkpt lat="44.02069" lon="5.7413">
        <ele>578</ele>
        <time>2021-03-31T09:59:16+02:00</time>
      </trkpt>
      <trkpt lat="44.02074" lon="5.74112">
        <ele>576</ele>
        <time>2021-03-31T09:59:21+02:00</time>
      </trkpt>
      <trkpt lat="44.02082" lon="5.74092">
        <ele>576</ele>
        <time>2021-03-31T09:59:25+02:00</time>
      </trkpt>
      <trkpt lat="44.02091" lon="5.74074">
        <ele>574</ele>
        <time>2021-03-31T09:59:28+02:00</time>
      </trkpt>
      <trkpt lat="44.02102" lon="5.74057">
        <ele>574</ele>
        <time>2021-03-31T09:59:31+02:00</time>
      </trkpt>
      <trkpt lat="44.02115" lon="5.74041">
        <ele>573</ele>
        <time>2021-03-31T09:59:34+02:00</time>
      </trkpt>
      <trkpt lat="44.02127" lon="5.74025">
        <ele>573</ele>
        <time>2021-03-31T09:59:37+02:00</time>
      </trkpt>
      <trkpt lat="44.02137" lon="5.74007">
        <ele>573</ele>
        <time>2021-03-31T09:59:40+02:00</time>
      </trkpt>
      <trkpt lat="44.02147" lon="5.73989">
        <ele>574</ele>
        <time>2021-03-31T09:59:43+02:00</time>
      </trkpt>
      <trkpt lat="44.02154" lon="5.73971">
        <ele>575</ele>
        <time>2021-03-31T09:59:46+02:00</time>
      </trkpt>
      <trkpt lat="44.0216" lon="5.73952">
        <ele>575</ele>
        <time>2021-03-31T09:59:49+02:00</time>
      </trkpt>
      <trkpt lat="44.02165" lon="5.73934">
        <ele>575</ele>
        <time>2021-03-31T09:59:52+02:00</time>
      </trkpt>
      <trkpt lat="44.0217" lon="5.73916">
        <ele>576</ele>
        <time>2021-03-31T09:59:55+02:00</time>
      </trkpt>
      <trkpt lat="44.02172" lon="5.73896">
        <ele>575</ele>
        <time>2021-03-31T09:59:58+02:00</time>
      </trkpt>
      <trkpt lat="44.02173" lon="5.73876">
        <ele>576</ele>
        <time>2021-03-31T10:00:01+02:00</time>
      </trkpt>
      <trkpt lat="44.02173" lon="5.73857">
        <ele>576</ele>
        <time>2021-03-31T10:00:04+02:00</time>
      </trkpt>
      <trkpt lat="44.02172" lon="5.73838">
        <ele>576</ele>
        <time>2021-03-31T10:00:07+02:00</time>
      </trkpt>
      <trkpt lat="44.02169" lon="5.73816">
        <ele>576</ele>
        <time>2021-03-31T10:00:11+02:00</time>
      </trkpt>
      <trkpt lat="44.02165" lon="5.73796">
        <ele>578</ele>
        <time>2021-03-31T10:00:15+02:00</time>
      </trkpt>
      <trkpt lat="44.02159" lon="5.73777">
        <ele>578</ele>
        <time>2021-03-31T10:00:19+02:00</time>
      </trkpt>
      <trkpt lat="44.02153" lon="5.73758">
        <ele>579</ele>
        <time>2021-03-31T10:00:23+02:00</time>
      </trkpt>
      <trkpt lat="44.02146" lon="5.73737">
        <ele>578</ele>
        <time>2021-03-31T10:00:28+02:00</time>
      </trkpt>
      <trkpt lat="44.02139" lon="5.73719">
        <ele>579</ele>
        <time>2021-03-31T10:00:32+02:00</time>
      </trkpt>
      <trkpt lat="44.02133" lon="5.73699">
        <ele>579</ele>
        <time>2021-03-31T10:00:36+02:00</time>
      </trkpt>
      <trkpt lat="44.02128" lon="5.73676">
        <ele>578</ele>
        <time>2021-03-31T10:00:40+02:00</time>
      </trkpt>
      <trkpt lat="44.02125" lon="5.73652">
        <ele>581</ele>
        <time>2021-03-31T10:00:44+02:00</time>
      </trkpt>
      <trkpt lat="44.02117" lon="5.7363">
        <ele>580</ele>
        <time>2021-03-31T10:00:48+02:00</time>
      </trkpt>
      <trkpt lat="44.02105" lon="5.73613">
        <ele>580</ele>
        <time>2021-03-31T10:00:52+02:00</time>
      </trkpt>
      <trkpt lat="44.02096" lon="5.73597">
        <ele>579</ele>
        <time>2021-03-31T10:00:56+02:00</time>
      </trkpt>
      <trkpt lat="44.02087" lon="5.7358">
        <ele>580</ele>
        <time>2021-03-31T10:01:01+02:00</time>
      </trkpt>
      <trkpt lat="44.02081" lon="5.73562">
        <ele>582</ele>
        <time>2021-03-31T10:01:06+02:00</time>
      </trkpt>
      <trkpt lat="44.02073" lon="5.73544">
        <ele>583</ele>
        <time>2021-03-31T10:01:12+02:00</time>
      </trkpt>
      <trkpt lat="44.02067" lon="5.73525">
        <ele>584</ele>
        <time>2021-03-31T10:01:18+02:00</time>
      </trkpt>
      <trkpt lat="44.02058" lon="5.73507">
        <ele>584</ele>
        <time>2021-03-31T10:01:24+02:00</time>
      </trkpt>
      <trkpt lat="44.02049" lon="5.73491">
        <ele>586</ele>
        <time>2021-03-31T10:01:30+02:00</time>
      </trkpt>
      <trkpt lat="44.02038" lon="5.73477">
        <ele>588</ele>
        <time>2021-03-31T10:01:37+02:00</time>
      </trkpt>
      <trkpt lat="44.02027" lon="5.73465">
        <ele>590</ele>
        <time>2021-03-31T10:01:43+02:00</time>
      </trkpt>
      <trkpt lat="44.02015" lon="5.73452">
        <ele>592</ele>
        <time>2021-03-31T10:01:49+02:00</time>
      </trkpt>
      <trkpt lat="44.02003" lon="5.7344">
        <ele>593</ele>
        <time>2021-03-31T10:01:55+02:00</time>
      </trkpt>
      <trkpt lat="44.01993" lon="5.73427">
        <ele>591</ele>
        <time>2021-03-31T10:02:00+02:00</time>
      </trkpt>
      <trkpt lat="44.0198" lon="5.73412">
        <ele>588</ele>
        <time>2021-03-31T10:02:05+02:00</time>
      </trkpt>
      <trkpt lat="44.01969" lon="5.73401">
        <ele>587</ele>
        <time>2021-03-31T10:02:09+02:00</time>
      </trkpt>
      <trkpt lat="44.01957" lon="5.73391">
        <ele>588</ele>
        <time>2021-03-31T10:02:13+02:00</time>
      </trkpt>
      <trkpt lat="44.01943" lon="5.73378">
        <ele>590</ele>
        <time>2021-03-31T10:02:18+02:00</time>
      </trkpt>
      <trkpt lat="44.01931" lon="5.73365">
        <ele>590</ele>
        <time>2021-03-31T10:02:23+02:00</time>
      </trkpt>
      <trkpt lat="44.01921" lon="5.73353">
        <ele>591</ele>
        <time>2021-03-31T10:02:28+02:00</time>
      </trkpt>
      <trkpt lat="44.0191" lon="5.73336">
        <ele>591</ele>
        <time>2021-03-31T10:02:34+02:00</time>
      </trkpt>
      <trkpt lat="44.019" lon="5.73319">
        <ele>593</ele>
        <time>2021-03-31T10:02:40+02:00</time>
      </trkpt>
      <trkpt lat="44.01893" lon="5.733">
        <ele>593</ele>
        <time>2021-03-31T10:02:46+02:00</time>
      </trkpt>
      <trkpt lat="44.0189" lon="5.73282">
        <ele>593</ele>
        <time>2021-03-31T10:02:52+02:00</time>
      </trkpt>
      <trkpt lat="44.01889" lon="5.73263">
        <ele>594</ele>
        <time>2021-03-31T10:02:58+02:00</time>
      </trkpt>
      <trkpt lat="44.01888" lon="5.73243">
        <ele>595</ele>
        <time>2021-03-31T10:03:04+02:00</time>
      </trkpt>
      <trkpt lat="44.01888" lon="5.73224">
        <ele>596</ele>
        <time>2021-03-31T10:03:10+02:00</time>
      </trkpt>
      <trkpt lat="44.01888" lon="5.73204">
        <ele>596</ele>
        <time>2021-03-31T10:03:16+02:00</time>
      </trkpt>
      <trkpt lat="44.01888" lon="5.73185">
        <ele>597</ele>
        <time>2021-03-31T10:03:22+02:00</time>
      </trkpt>
      <trkpt lat="44.0189" lon="5.73165">
        <ele>598</ele>
        <time>2021-03-31T10:03:28+02:00</time>
      </trkpt>
      <trkpt lat="44.01892" lon="5.73146">
        <ele>600</ele>
        <time>2021-03-31T10:03:34+02:00</time>
      </trkpt>
      <trkpt lat="44.01894" lon="5.73124">
        <ele>600</ele>
        <time>2021-03-31T10:03:41+02:00</time>
      </trkpt>
      <trkpt lat="44.01897" lon="5.73105">
        <ele>602</ele>
        <time>2021-03-31T10:03:47+02:00</time>
      </trkpt>
      <trkpt lat="44.01899" lon="5.73085">
        <ele>602</ele>
        <time>2021-03-31T10:03:53+02:00</time>
      </trkpt>
      <trkpt lat="44.01901" lon="5.73063">
        <ele>602</ele>
        <time>2021-03-31T10:03:59+02:00</time>
      </trkpt>
      <trkpt lat="44.01902" lon="5.73042">
        <ele>602</ele>
        <time>2021-03-31T10:04:04+02:00</time>
      </trkpt>
      <trkpt lat="44.01898" lon="5.73023">
        <ele>603</ele>
        <time>2021-03-31T10:04:09+02:00</time>
      </trkpt>
      <trkpt lat="44.01892" lon="5.73003">
        <ele>604</ele>
        <time>2021-03-31T10:04:14+02:00</time>
      </trkpt>
      <trkpt lat="44.01887" lon="5.72984">
        <ele>605</ele>
        <time>2021-03-31T10:04:19+02:00</time>
      </trkpt>
      <trkpt lat="44.0188" lon="5.72963">
        <ele>604</ele>
        <time>2021-03-31T10:04:24+02:00</time>
      </trkpt>
      <trkpt lat="44.01874" lon="5.72941">
        <ele>604</ele>
        <time>2021-03-31T10:04:29+02:00</time>
      </trkpt>
      <trkpt lat="44.01868" lon="5.72924">
        <ele>605</ele>
        <time>2021-03-31T10:04:33+02:00</time>
      </trkpt>
      <trkpt lat="44.01862" lon="5.72903">
        <ele>605</ele>
        <time>2021-03-31T10:04:38+02:00</time>
      </trkpt>
      <trkpt lat="44.01857" lon="5.72882">
        <ele>605</ele>
        <time>2021-03-31T10:04:43+02:00</time>
      </trkpt>
      <trkpt lat="44.01854" lon="5.72859">
        <ele>606</ele>
        <time>2021-03-31T10:04:48+02:00</time>
      </trkpt>
      <trkpt lat="44.01853" lon="5.72837">
        <ele>607</ele>
        <time>2021-03-31T10:04:53+02:00</time>
      </trkpt>
      <trkpt lat="44.01855" lon="5.72815">
        <ele>608</ele>
        <time>2021-03-31T10:04:58+02:00</time>
      </trkpt>
      <trkpt lat="44.0186" lon="5.72793">
        <ele>608</ele>
        <time>2021-03-31T10:05:03+02:00</time>
      </trkpt>
      <trkpt lat="44.01867" lon="5.72772">
        <ele>608</ele>
        <time>2021-03-31T10:05:08+02:00</time>
      </trkpt>
      <trkpt lat="44.01875" lon="5.72755">
        <ele>608</ele>
        <time>2021-03-31T10:05:13+02:00</time>
      </trkpt>
      <trkpt lat="44.01883" lon="5.72737">
        <ele>608</ele>
        <time>2021-03-31T10:05:18+02:00</time>
      </trkpt>
      <trkpt lat="44.01889" lon="5.72716">
        <ele>608</ele>
        <time>2021-03-31T10:05:23+02:00</time>
      </trkpt>
      <trkpt lat="44.01895" lon="5.72697">
        <ele>608</ele>
        <time>2021-03-31T10:05:28+02:00</time>
      </trkpt>
      <trkpt lat="44.019" lon="5.72676">
        <ele>608</ele>
        <time>2021-03-31T10:05:33+02:00</time>
      </trkpt>
      <trkpt lat="44.01905" lon="5.72654">
        <ele>608</ele>
        <time>2021-03-31T10:05:38+02:00</time>
      </trkpt>
      <trkpt lat="44.01909" lon="5.72636">
        <ele>609</ele>
        <time>2021-03-31T10:05:42+02:00</time>
      </trkpt>
      <trkpt lat="44.01914" lon="5.72614">
        <ele>610</ele>
        <time>2021-03-31T10:05:47+02:00</time>
      </trkpt>
      <trkpt lat="44.01918" lon="5.72596">
        <ele>610</ele>
        <time>2021-03-31T10:05:51+02:00</time>
      </trkpt>
      <trkpt lat="44.01923" lon="5.72578">
        <ele>611</ele>
        <time>2021-03-31T10:05:55+02:00</time>
      </trkpt>
      <trkpt lat="44.0193" lon="5.72558">
        <ele>611</ele>
        <time>2021-03-31T10:06:00+02:00</time>
      </trkpt>
      <trkpt lat="44.01937" lon="5.7254">
        <ele>612</ele>
        <time>2021-03-31T10:06:05+02:00</time>
      </trkpt>
      <trkpt lat="44.01947" lon="5.72522">
        <ele>612</ele>
        <time>2021-03-31T10:06:10+02:00</time>
      </trkpt>
      <trkpt lat="44.01956" lon="5.72504">
        <ele>612</ele>
        <time>2021-03-31T10:06:15+02:00</time>
      </trkpt>
      <trkpt lat="44.01965" lon="5.72487">
        <ele>612</ele>
        <time>2021-03-31T10:06:20+02:00</time>
      </trkpt>
      <trkpt lat="44.01975" lon="5.7247">
        <ele>614</ele>
        <time>2021-03-31T10:06:25+02:00</time>
      </trkpt>
      <trkpt lat="44.01984" lon="5.72455">
        <ele>613</ele>
        <time>2021-03-31T10:06:30+02:00</time>
      </trkpt>
      <trkpt lat="44.01995" lon="5.72441">
        <ele>614</ele>
        <time>2021-03-31T10:06:35+02:00</time>
      </trkpt>
      <trkpt lat="44.02006" lon="5.72426">
        <ele>613</ele>
        <time>2021-03-31T10:06:40+02:00</time>
      </trkpt>
      <trkpt lat="44.02017" lon="5.72412">
        <ele>614</ele>
        <time>2021-03-31T10:06:45+02:00</time>
      </trkpt>
      <trkpt lat="44.02026" lon="5.72397">
        <ele>615</ele>
        <time>2021-03-31T10:06:50+02:00</time>
      </trkpt>
      <trkpt lat="44.02033" lon="5.7238">
        <ele>617</ele>
        <time>2021-03-31T10:06:55+02:00</time>
      </trkpt>
      <trkpt lat="44.02039" lon="5.72363">
        <ele>617</ele>
        <time>2021-03-31T10:07:00+02:00</time>
      </trkpt>
      <trkpt lat="44.02047" lon="5.72345">
        <ele>618</ele>
        <time>2021-03-31T10:07:05+02:00</time>
      </trkpt>
      <trkpt lat="44.02053" lon="5.72326">
        <ele>618</ele>
        <time>2021-03-31T10:07:10+02:00</time>
      </trkpt>
      <trkpt lat="44.0206" lon="5.72307">
        <ele>617</ele>
        <time>2021-03-31T10:07:15+02:00</time>
      </trkpt>
      <trkpt lat="44.02067" lon="5.72289">
        <ele>617</ele>
        <time>2021-03-31T10:07:19+02:00</time>
      </trkpt>
      <trkpt lat="44.02076" lon="5.7227">
        <ele>617</ele>
        <time>2021-03-31T10:07:23+02:00</time>
      </trkpt>
      <trkpt lat="44.02086" lon="5.7225">
        <ele>618</ele>
        <time>2021-03-31T10:07:27+02:00</time>
      </trkpt>
      <trkpt lat="44.02094" lon="5.72234">
        <ele>617</ele>
        <time>2021-03-31T10:07:30+02:00</time>
      </trkpt>
      <trkpt lat="44.02103" lon="5.72217">
        <ele>616</ele>
        <time>2021-03-31T10:07:33+02:00</time>
      </trkpt>
      <trkpt lat="44.0211" lon="5.72196">
        <ele>616</ele>
        <time>2021-03-31T10:07:36+02:00</time>
      </trkpt>
      <trkpt lat="44.02114" lon="5.72175">
        <ele>617</ele>
        <time>2021-03-31T10:07:39+02:00</time>
      </trkpt>
      <trkpt lat="44.02115" lon="5.72151">
        <ele>617</ele>
        <time>2021-03-31T10:07:42+02:00</time>
      </trkpt>
      <trkpt lat="44.02115" lon="5.72128">
        <ele>618</ele>
        <time>2021-03-31T10:07:45+02:00</time>
      </trkpt>
      <trkpt lat="44.02113" lon="5.72104">
        <ele>618</ele>
        <time>2021-03-31T10:07:48+02:00</time>
      </trkpt>
      <trkpt lat="44.0211" lon="5.72081">
        <ele>619</ele>
        <time>2021-03-31T10:07:51+02:00</time>
      </trkpt>
      <trkpt lat="44.02106" lon="5.72059">
        <ele>620</ele>
        <time>2021-03-31T10:07:54+02:00</time>
      </trkpt>
      <trkpt lat="44.02104" lon="5.72039">
        <ele>620</ele>
        <time>2021-03-31T10:07:57+02:00</time>
      </trkpt>
      <trkpt lat="44.02103" lon="5.72015">
        <ele>621</ele>
        <time>2021-03-31T10:08:01+02:00</time>
      </trkpt>
      <trkpt lat="44.02102" lon="5.71991">
        <ele>621</ele>
        <time>2021-03-31T10:08:05+02:00</time>
      </trkpt>
      <trkpt lat="44.02101" lon="5.71967">
        <ele>621</ele>
        <time>2021-03-31T10:08:09+02:00</time>
      </trkpt>
      <trkpt lat="44.02102" lon="5.71944">
        <ele>622</ele>
        <time>2021-03-31T10:08:13+02:00</time>
      </trkpt>
      <trkpt lat="44.02101" lon="5.71919">
        <ele>621</ele>
        <time>2021-03-31T10:08:17+02:00</time>
      </trkpt>
      <trkpt lat="44.02101" lon="5.71894">
        <ele>621</ele>
        <time>2021-03-31T10:08:21+02:00</time>
      </trkpt>
      <trkpt lat="44.02101" lon="5.71875">
        <ele>620</ele>
        <time>2021-03-31T10:08:24+02:00</time>
      </trkpt>
      <trkpt lat="44.02101" lon="5.71856">
        <ele>620</ele>
        <time>2021-03-31T10:08:27+02:00</time>
      </trkpt>
      <trkpt lat="44.02101" lon="5.71837">
        <ele>620</ele>
        <time>2021-03-31T10:08:30+02:00</time>
      </trkpt>
      <trkpt lat="44.02101" lon="5.71818">
        <ele>619</ele>
        <time>2021-03-31T10:08:33+02:00</time>
      </trkpt>
      <trkpt lat="44.02101" lon="5.71795">
        <ele>619</ele>
        <time>2021-03-31T10:08:37+02:00</time>
      </trkpt>
      <trkpt lat="44.02103" lon="5.71774">
        <ele>620</ele>
        <time>2021-03-31T10:08:42+02:00</time>
      </trkpt>
      <trkpt lat="44.02102" lon="5.71753">
        <ele>620</ele>
        <time>2021-03-31T10:10:42+02:00</time>
      </trkpt>
      <trkpt lat="44.02102" lon="5.71732">
        <ele>620</ele>
        <time>2021-03-31T10:10:48+02:00</time>
      </trkpt>
      <trkpt lat="44.02103" lon="5.71709">
        <ele>621</ele>
        <time>2021-03-31T10:10:53+02:00</time>
      </trkpt>
      <trkpt lat="44.02103" lon="5.71689">
        <ele>622</ele>
        <time>2021-03-31T10:10:57+02:00</time>
      </trkpt>
      <trkpt lat="44.02104" lon="5.71667">
        <ele>622</ele>
        <time>2021-03-31T10:11:01+02:00</time>
      </trkpt>
      <trkpt lat="44.02105" lon="5.71644">
        <ele>622</ele>
        <time>2021-03-31T10:11:05+02:00</time>
      </trkpt>
      <trkpt lat="44.02105" lon="5.71622">
        <ele>620</ele>
        <time>2021-03-31T10:11:09+02:00</time>
      </trkpt>
      <trkpt lat="44.02106" lon="5.71598">
        <ele>622</ele>
        <time>2021-03-31T10:11:13+02:00</time>
      </trkpt>
      <trkpt lat="44.02107" lon="5.71576">
        <ele>623</ele>
        <time>2021-03-31T10:11:17+02:00</time>
      </trkpt>
      <trkpt lat="44.02107" lon="5.71552">
        <ele>622</ele>
        <time>2021-03-31T10:11:21+02:00</time>
      </trkpt>
      <trkpt lat="44.02108" lon="5.71533">
        <ele>622</ele>
        <time>2021-03-31T10:11:24+02:00</time>
      </trkpt>
      <trkpt lat="44.02109" lon="5.71512">
        <ele>621</ele>
        <time>2021-03-31T10:11:27+02:00</time>
      </trkpt>
      <trkpt lat="44.0211" lon="5.71489">
        <ele>621</ele>
        <time>2021-03-31T10:11:30+02:00</time>
      </trkpt>
      <trkpt lat="44.02112" lon="5.71467">
        <ele>620</ele>
        <time>2021-03-31T10:11:33+02:00</time>
      </trkpt>
      <trkpt lat="44.02114" lon="5.71445">
        <ele>620</ele>
        <time>2021-03-31T10:11:36+02:00</time>
      </trkpt>
      <trkpt lat="44.02117" lon="5.71423">
        <ele>620</ele>
        <time>2021-03-31T10:11:39+02:00</time>
      </trkpt>
      <trkpt lat="44.02123" lon="5.71403">
        <ele>620</ele>
        <time>2021-03-31T10:11:42+02:00</time>
      </trkpt>
      <trkpt lat="44.02131" lon="5.71386">
        <ele>620</ele>
        <time>2021-03-31T10:11:45+02:00</time>
      </trkpt>
      <trkpt lat="44.02141" lon="5.71371">
        <ele>621</ele>
        <time>2021-03-31T10:11:48+02:00</time>
      </trkpt>
      <trkpt lat="44.02151" lon="5.71355">
        <ele>621</ele>
        <time>2021-03-31T10:11:51+02:00</time>
      </trkpt>
      <trkpt lat="44.02162" lon="5.71338">
        <ele>621</ele>
        <time>2021-03-31T10:11:54+02:00</time>
      </trkpt>
      <trkpt lat="44.02171" lon="5.7132">
        <ele>620</ele>
        <time>2021-03-31T10:11:57+02:00</time>
      </trkpt>
      <trkpt lat="44.02178" lon="5.713">
        <ele>620</ele>
        <time>2021-03-31T10:12:00+02:00</time>
      </trkpt>
      <trkpt lat="44.0218" lon="5.71279">
        <ele>622</ele>
        <time>2021-03-31T10:12:03+02:00</time>
      </trkpt>
      <trkpt lat="44.02172" lon="5.7126">
        <ele>623</ele>
        <time>2021-03-31T10:12:06+02:00</time>
      </trkpt>
      <trkpt lat="44.02162" lon="5.71245">
        <ele>623</ele>
        <time>2021-03-31T10:12:09+02:00</time>
      </trkpt>
      <trkpt lat="44.02159" lon="5.71223">
        <ele>620</ele>
        <time>2021-03-31T10:12:13+02:00</time>
      </trkpt>
      <trkpt lat="44.02167" lon="5.71208">
        <ele>620</ele>
        <time>2021-03-31T10:12:16+02:00</time>
      </trkpt>
      <trkpt lat="44.02172" lon="5.7119">
        <ele>621</ele>
        <time>2021-03-31T10:12:19+02:00</time>
      </trkpt>
      <trkpt lat="44.02169" lon="5.71166">
        <ele>622</ele>
        <time>2021-03-31T10:12:23+02:00</time>
      </trkpt>
      <trkpt lat="44.02161" lon="5.7115">
        <ele>623</ele>
        <time>2021-03-31T10:12:26+02:00</time>
      </trkpt>
      <trkpt lat="44.02154" lon="5.71134">
        <ele>625</ele>
        <time>2021-03-31T10:12:29+02:00</time>
      </trkpt>
      <trkpt lat="44.02147" lon="5.71117">
        <ele>623</ele>
        <time>2021-03-31T10:12:32+02:00</time>
      </trkpt>
      <trkpt lat="44.02139" lon="5.71102">
        <ele>623</ele>
        <time>2021-03-31T10:12:35+02:00</time>
      </trkpt>
      <trkpt lat="44.02129" lon="5.71087">
        <ele>623</ele>
        <time>2021-03-31T10:12:38+02:00</time>
      </trkpt>
      <trkpt lat="44.02117" lon="5.71078">
        <ele>623</ele>
        <time>2021-03-31T10:12:41+02:00</time>
      </trkpt>
      <trkpt lat="44.02105" lon="5.71068">
        <ele>624</ele>
        <time>2021-03-31T10:12:44+02:00</time>
      </trkpt>
      <trkpt lat="44.02094" lon="5.7105">
        <ele>625</ele>
        <time>2021-03-31T10:12:48+02:00</time>
      </trkpt>
      <trkpt lat="44.02088" lon="5.71031">
        <ele>626</ele>
        <time>2021-03-31T10:12:52+02:00</time>
      </trkpt>
      <trkpt lat="44.02084" lon="5.71011">
        <ele>626</ele>
        <time>2021-03-31T10:12:56+02:00</time>
      </trkpt>
      <trkpt lat="44.02082" lon="5.70989">
        <ele>626</ele>
        <time>2021-03-31T10:13:00+02:00</time>
      </trkpt>
      <trkpt lat="44.02079" lon="5.70968">
        <ele>628</ele>
        <time>2021-03-31T10:13:04+02:00</time>
      </trkpt>
      <trkpt lat="44.02077" lon="5.70946">
        <ele>629</ele>
        <time>2021-03-31T10:13:08+02:00</time>
      </trkpt>
      <trkpt lat="44.02075" lon="5.70925">
        <ele>630</ele>
        <time>2021-03-31T10:13:12+02:00</time>
      </trkpt>
      <trkpt lat="44.02073" lon="5.70903">
        <ele>628</ele>
        <time>2021-03-31T10:13:16+02:00</time>
      </trkpt>
      <trkpt lat="44.02071" lon="5.70884">
        <ele>627</ele>
        <time>2021-03-31T10:13:19+02:00</time>
      </trkpt>
      <trkpt lat="44.02067" lon="5.70865">
        <ele>626</ele>
        <time>2021-03-31T10:13:22+02:00</time>
      </trkpt>
      <trkpt lat="44.0206" lon="5.70847">
        <ele>627</ele>
        <time>2021-03-31T10:13:25+02:00</time>
      </trkpt>
      <trkpt lat="44.02051" lon="5.70831">
        <ele>627</ele>
        <time>2021-03-31T10:13:28+02:00</time>
      </trkpt>
      <trkpt lat="44.0204" lon="5.70817">
        <ele>628</ele>
        <time>2021-03-31T10:13:31+02:00</time>
      </trkpt>
      <trkpt lat="44.02031" lon="5.70802">
        <ele>627</ele>
        <time>2021-03-31T10:13:34+02:00</time>
      </trkpt>
      <trkpt lat="44.02022" lon="5.70789">
        <ele>626</ele>
        <time>2021-03-31T10:13:37+02:00</time>
      </trkpt>
      <trkpt lat="44.02012" lon="5.70775">
        <ele>626</ele>
        <time>2021-03-31T10:13:40+02:00</time>
      </trkpt>
      <trkpt lat="44.02002" lon="5.70762">
        <ele>626</ele>
        <time>2021-03-31T10:13:43+02:00</time>
      </trkpt>
      <trkpt lat="44.01992" lon="5.70748">
        <ele>626</ele>
        <time>2021-03-31T10:13:46+02:00</time>
      </trkpt>
      <trkpt lat="44.01982" lon="5.70735">
        <ele>626</ele>
        <time>2021-03-31T10:13:49+02:00</time>
      </trkpt>
      <trkpt lat="44.01972" lon="5.70721">
        <ele>625</ele>
        <time>2021-03-31T10:13:52+02:00</time>
      </trkpt>
      <trkpt lat="44.01959" lon="5.70705">
        <ele>627</ele>
        <time>2021-03-31T10:13:56+02:00</time>
      </trkpt>
      <trkpt lat="44.01946" lon="5.70688">
        <ele>627</ele>
        <time>2021-03-31T10:14:00+02:00</time>
      </trkpt>
      <trkpt lat="44.01934" lon="5.70672">
        <ele>628</ele>
        <time>2021-03-31T10:14:04+02:00</time>
      </trkpt>
      <trkpt lat="44.01923" lon="5.70656">
        <ele>628</ele>
        <time>2021-03-31T10:14:08+02:00</time>
      </trkpt>
      <trkpt lat="44.0191" lon="5.7064">
        <ele>628</ele>
        <time>2021-03-31T10:14:12+02:00</time>
      </trkpt>
      <trkpt lat="44.01898" lon="5.70623">
        <ele>628</ele>
        <time>2021-03-31T10:14:16+02:00</time>
      </trkpt>
      <trkpt lat="44.01886" lon="5.70608">
        <ele>629</ele>
        <time>2021-03-31T10:14:20+02:00</time>
      </trkpt>
      <trkpt lat="44.01875" lon="5.70592">
        <ele>629</ele>
        <time>2021-03-31T10:14:24+02:00</time>
      </trkpt>
      <trkpt lat="44.01863" lon="5.70576">
        <ele>630</ele>
        <time>2021-03-31T10:14:28+02:00</time>
      </trkpt>
      <trkpt lat="44.01853" lon="5.70562">
        <ele>629</ele>
        <time>2021-03-31T10:14:32+02:00</time>
      </trkpt>
      <trkpt lat="44.01841" lon="5.70547">
        <ele>629</ele>
        <time>2021-03-31T10:14:36+02:00</time>
      </trkpt>
      <trkpt lat="44.01829" lon="5.70532">
        <ele>629</ele>
        <time>2021-03-31T10:14:40+02:00</time>
      </trkpt>
      <trkpt lat="44.01817" lon="5.70517">
        <ele>629</ele>
        <time>2021-03-31T10:14:44+02:00</time>
      </trkpt>
      <trkpt lat="44.01806" lon="5.70501">
        <ele>630</ele>
        <time>2021-03-31T10:14:48+02:00</time>
      </trkpt>
      <trkpt lat="44.01795" lon="5.70487">
        <ele>629</ele>
        <time>2021-03-31T10:14:52+02:00</time>
      </trkpt>
      <trkpt lat="44.01785" lon="5.70473">
        <ele>630</ele>
        <time>2021-03-31T10:14:56+02:00</time>
      </trkpt>
      <trkpt lat="44.01775" lon="5.70459">
        <ele>631</ele>
        <time>2021-03-31T10:15:00+02:00</time>
      </trkpt>
      <trkpt lat="44.01765" lon="5.70445">
        <ele>632</ele>
        <time>2021-03-31T10:15:04+02:00</time>
      </trkpt>
      <trkpt lat="44.01754" lon="5.70432">
        <ele>634</ele>
        <time>2021-03-31T10:15:08+02:00</time>
      </trkpt>
      <trkpt lat="44.01744" lon="5.70417">
        <ele>634</ele>
        <time>2021-03-31T10:15:12+02:00</time>
      </trkpt>
      <trkpt lat="44.01733" lon="5.70403">
        <ele>633</ele>
        <time>2021-03-31T10:15:16+02:00</time>
      </trkpt>
      <trkpt lat="44.01722" lon="5.7039">
        <ele>634</ele>
        <time>2021-03-31T10:15:20+02:00</time>
      </trkpt>
      <trkpt lat="44.01712" lon="5.70374">
        <ele>635</ele>
        <time>2021-03-31T10:15:24+02:00</time>
      </trkpt>
      <trkpt lat="44.01701" lon="5.70359">
        <ele>636</ele>
        <time>2021-03-31T10:15:28+02:00</time>
      </trkpt>
      <trkpt lat="44.01688" lon="5.70343">
        <ele>635</ele>
        <time>2021-03-31T10:15:32+02:00</time>
      </trkpt>
      <trkpt lat="44.01675" lon="5.70331">
        <ele>634</ele>
        <time>2021-03-31T10:15:36+02:00</time>
      </trkpt>
      <trkpt lat="44.0166" lon="5.70321">
        <ele>633</ele>
        <time>2021-03-31T10:15:40+02:00</time>
      </trkpt>
      <trkpt lat="44.01644" lon="5.70312">
        <ele>634</ele>
        <time>2021-03-31T10:15:44+02:00</time>
      </trkpt>
      <trkpt lat="44.0163" lon="5.70304">
        <ele>636</ele>
        <time>2021-03-31T10:15:48+02:00</time>
      </trkpt>
      <trkpt lat="44.01616" lon="5.70298">
        <ele>638</ele>
        <time>2021-03-31T10:15:52+02:00</time>
      </trkpt>
      <trkpt lat="44.01603" lon="5.70289">
        <ele>636</ele>
        <time>2021-03-31T10:15:57+02:00</time>
      </trkpt>
      <trkpt lat="44.01589" lon="5.70279">
        <ele>636</ele>
        <time>2021-03-31T10:16:02+02:00</time>
      </trkpt>
      <trkpt lat="44.01575" lon="5.70271">
        <ele>637</ele>
        <time>2021-03-31T10:16:07+02:00</time>
      </trkpt>
      <trkpt lat="44.01562" lon="5.70263">
        <ele>639</ele>
        <time>2021-03-31T10:16:12+02:00</time>
      </trkpt>
      <trkpt lat="44.0155" lon="5.70254">
        <ele>639</ele>
        <time>2021-03-31T10:16:17+02:00</time>
      </trkpt>
      <trkpt lat="44.01537" lon="5.70242">
        <ele>641</ele>
        <time>2021-03-31T10:16:23+02:00</time>
      </trkpt>
      <trkpt lat="44.01526" lon="5.70227">
        <ele>642</ele>
        <time>2021-03-31T10:16:29+02:00</time>
      </trkpt>
      <trkpt lat="44.01516" lon="5.70213">
        <ele>645</ele>
        <time>2021-03-31T10:16:35+02:00</time>
      </trkpt>
      <trkpt lat="44.01508" lon="5.70197">
        <ele>643</ele>
        <time>2021-03-31T10:16:43+02:00</time>
      </trkpt>
      <trkpt lat="44.01495" lon="5.7019">
        <ele>641</ele>
        <time>2021-03-31T10:16:50+02:00</time>
      </trkpt>
      <trkpt lat="44.01481" lon="5.70187">
        <ele>644</ele>
        <time>2021-03-31T10:16:57+02:00</time>
      </trkpt>
      <trkpt lat="44.01466" lon="5.70182">
        <ele>646</ele>
        <time>2021-03-31T10:17:05+02:00</time>
      </trkpt>
      <trkpt lat="44.01452" lon="5.70177">
        <ele>647</ele>
        <time>2021-03-31T10:17:12+02:00</time>
      </trkpt>
      <trkpt lat="44.01439" lon="5.70168">
        <ele>647</ele>
        <time>2021-03-31T10:17:18+02:00</time>
      </trkpt>
      <trkpt lat="44.0143" lon="5.70153">
        <ele>647</ele>
        <time>2021-03-31T10:17:24+02:00</time>
      </trkpt>
      <trkpt lat="44.01421" lon="5.70135">
        <ele>647</ele>
        <time>2021-03-31T10:17:31+02:00</time>
      </trkpt>
      <trkpt lat="44.01409" lon="5.70122">
        <ele>646</ele>
        <time>2021-03-31T10:17:38+02:00</time>
      </trkpt>
      <trkpt lat="44.01396" lon="5.70118">
        <ele>648</ele>
        <time>2021-03-31T10:17:44+02:00</time>
      </trkpt>
      <trkpt lat="44.01381" lon="5.70119">
        <ele>650</ele>
        <time>2021-03-31T10:17:51+02:00</time>
      </trkpt>
      <trkpt lat="44.01366" lon="5.70118">
        <ele>652</ele>
        <time>2021-03-31T10:17:58+02:00</time>
      </trkpt>
      <trkpt lat="44.01351" lon="5.70116">
        <ele>655</ele>
        <time>2021-03-31T10:18:05+02:00</time>
      </trkpt>
      <trkpt lat="44.01336" lon="5.70113">
        <ele>657</ele>
        <time>2021-03-31T10:18:12+02:00</time>
      </trkpt>
      <trkpt lat="44.01323" lon="5.70109">
        <ele>657</ele>
        <time>2021-03-31T10:18:18+02:00</time>
      </trkpt>
      <trkpt lat="44.01309" lon="5.70105">
        <ele>657</ele>
        <time>2021-03-31T10:18:24+02:00</time>
      </trkpt>
      <trkpt lat="44.01296" lon="5.70102">
        <ele>657</ele>
        <time>2021-03-31T10:18:30+02:00</time>
      </trkpt>
      <trkpt lat="44.01282" lon="5.70097">
        <ele>657</ele>
        <time>2021-03-31T10:18:36+02:00</time>
      </trkpt>
      <trkpt lat="44.01269" lon="5.70091">
        <ele>658</ele>
        <time>2021-03-31T10:18:42+02:00</time>
      </trkpt>
      <trkpt lat="44.01256" lon="5.70083">
        <ele>658</ele>
        <time>2021-03-31T10:18:48+02:00</time>
      </trkpt>
      <trkpt lat="44.01243" lon="5.70075">
        <ele>659</ele>
        <time>2021-03-31T10:18:54+02:00</time>
      </trkpt>
      <trkpt lat="44.0123" lon="5.70067">
        <ele>661</ele>
        <time>2021-03-31T10:19:01+02:00</time>
      </trkpt>
      <trkpt lat="44.01217" lon="5.70056">
        <ele>659</ele>
        <time>2021-03-31T10:19:08+02:00</time>
      </trkpt>
      <trkpt lat="44.01204" lon="5.70047">
        <ele>659</ele>
        <time>2021-03-31T10:19:14+02:00</time>
      </trkpt>
      <trkpt lat="44.01191" lon="5.70037">
        <ele>659</ele>
        <time>2021-03-31T10:19:20+02:00</time>
      </trkpt>
      <trkpt lat="44.01179" lon="5.70027">
        <ele>660</ele>
        <time>2021-03-31T10:19:26+02:00</time>
      </trkpt>
      <trkpt lat="44.01167" lon="5.70017">
        <ele>663</ele>
        <time>2021-03-31T10:19:32+02:00</time>
      </trkpt>
      <trkpt lat="44.01157" lon="5.70004">
        <ele>666</ele>
        <time>2021-03-31T10:19:38+02:00</time>
      </trkpt>
      <trkpt lat="44.01151" lon="5.69985">
        <ele>667</ele>
        <time>2021-03-31T10:19:44+02:00</time>
      </trkpt>
      <trkpt lat="44.0115" lon="5.69964">
        <ele>667</ele>
        <time>2021-03-31T10:19:50+02:00</time>
      </trkpt>
      <trkpt lat="44.01159" lon="5.69947">
        <ele>666</ele>
        <time>2021-03-31T10:19:57+02:00</time>
      </trkpt>
      <trkpt lat="44.01146" lon="5.69941">
        <ele>665</ele>
        <time>2021-03-31T10:20:31+02:00</time>
      </trkpt>
      <trkpt lat="44.01133" lon="5.69947">
        <ele>665</ele>
        <time>2021-03-31T10:22:43+02:00</time>
      </trkpt>
      <trkpt lat="44.01119" lon="5.69946">
        <ele>661</ele>
        <time>2021-03-31T10:22:48+02:00</time>
      </trkpt>
      <trkpt lat="44.01104" lon="5.69946">
        <ele>657</ele>
        <time>2021-03-31T10:22:53+02:00</time>
      </trkpt>
      <trkpt lat="44.0109" lon="5.69947">
        <ele>656</ele>
        <time>2021-03-31T10:22:58+02:00</time>
      </trkpt>
      <trkpt lat="44.01077" lon="5.69948">
        <ele>654</ele>
        <time>2021-03-31T10:23:07+02:00</time>
      </trkpt>
      <trkpt lat="44.01062" lon="5.69949">
        <ele>654</ele>
        <time>2021-03-31T10:23:44+02:00</time>
      </trkpt>
      <trkpt lat="44.0105" lon="5.69956">
        <ele>653</ele>
        <time>2021-03-31T10:23:50+02:00</time>
      </trkpt>
      <trkpt lat="44.01036" lon="5.69965">
        <ele>655</ele>
        <time>2021-03-31T10:23:57+02:00</time>
      </trkpt>
      <trkpt lat="44.01021" lon="5.6997">
        <ele>655</ele>
        <time>2021-03-31T10:24:03+02:00</time>
      </trkpt>
      <trkpt lat="44.01006" lon="5.69973">
        <ele>655</ele>
        <time>2021-03-31T10:24:08+02:00</time>
      </trkpt>
      <trkpt lat="44.0099" lon="5.69977">
        <ele>655</ele>
        <time>2021-03-31T10:24:13+02:00</time>
      </trkpt>
      <trkpt lat="44.00974" lon="5.69979">
        <ele>656</ele>
        <time>2021-03-31T10:24:18+02:00</time>
      </trkpt>
      <trkpt lat="44.00959" lon="5.69982">
        <ele>658</ele>
        <time>2021-03-31T10:24:23+02:00</time>
      </trkpt>
      <trkpt lat="44.00945" lon="5.69986">
        <ele>659</ele>
        <time>2021-03-31T10:24:27+02:00</time>
      </trkpt>
      <trkpt lat="44.00931" lon="5.69989">
        <ele>658</ele>
        <time>2021-03-31T10:24:31+02:00</time>
      </trkpt>
      <trkpt lat="44.00918" lon="5.69993">
        <ele>658</ele>
        <time>2021-03-31T10:24:35+02:00</time>
      </trkpt>
      <trkpt lat="44.00904" lon="5.69994">
        <ele>659</ele>
        <time>2021-03-31T10:24:39+02:00</time>
      </trkpt>
      <trkpt lat="44.00888" lon="5.69999">
        <ele>661</ele>
        <time>2021-03-31T10:24:44+02:00</time>
      </trkpt>
      <trkpt lat="44.00874" lon="5.7">
        <ele>662</ele>
        <time>2021-03-31T10:24:48+02:00</time>
      </trkpt>
      <trkpt lat="44.00858" lon="5.69999">
        <ele>662</ele>
        <time>2021-03-31T10:24:53+02:00</time>
      </trkpt>
      <trkpt lat="44.00844" lon="5.7">
        <ele>663</ele>
        <time>2021-03-31T10:24:58+02:00</time>
      </trkpt>
      <trkpt lat="44.0083" lon="5.70003">
        <ele>663</ele>
        <time>2021-03-31T10:25:04+02:00</time>
      </trkpt>
      <trkpt lat="44.00815" lon="5.70005">
        <ele>661</ele>
        <time>2021-03-31T10:25:11+02:00</time>
      </trkpt>
      <trkpt lat="44.00801" lon="5.70008">
        <ele>663</ele>
        <time>2021-03-31T10:25:17+02:00</time>
      </trkpt>
      <trkpt lat="44.00786" lon="5.70011">
        <ele>667</ele>
        <time>2021-03-31T10:25:24+02:00</time>
      </trkpt>
      <trkpt lat="44.00773" lon="5.70013">
        <ele>670</ele>
        <time>2021-03-31T10:25:32+02:00</time>
      </trkpt>
      <trkpt lat="44.00759" lon="5.70013">
        <ele>667</ele>
        <time>2021-03-31T10:25:38+02:00</time>
      </trkpt>
      <trkpt lat="44.00745" lon="5.70015">
        <ele>665</ele>
        <time>2021-03-31T10:25:44+02:00</time>
      </trkpt>
      <trkpt lat="44.0073" lon="5.70013">
        <ele>668</ele>
        <time>2021-03-31T10:25:50+02:00</time>
      </trkpt>
      <trkpt lat="44.00716" lon="5.70013">
        <ele>668</ele>
        <time>2021-03-31T10:25:58+02:00</time>
      </trkpt>
      <trkpt lat="44.007" lon="5.70011">
        <ele>667</ele>
        <time>2021-03-31T10:26:04+02:00</time>
      </trkpt>
      <trkpt lat="44.00684" lon="5.70009">
        <ele>666</ele>
        <time>2021-03-31T10:26:09+02:00</time>
      </trkpt>
      <trkpt lat="44.0067" lon="5.70004">
        <ele>664</ele>
        <time>2021-03-31T10:26:13+02:00</time>
      </trkpt>
      <trkpt lat="44.00654" lon="5.70001">
        <ele>664</ele>
        <time>2021-03-31T10:26:17+02:00</time>
      </trkpt>
      <trkpt lat="44.00637" lon="5.70001">
        <ele>665</ele>
        <time>2021-03-31T10:26:21+02:00</time>
      </trkpt>
      <trkpt lat="44.00621" lon="5.7">
        <ele>667</ele>
        <time>2021-03-31T10:26:25+02:00</time>
      </trkpt>
      <trkpt lat="44.00608" lon="5.69998">
        <ele>668</ele>
        <time>2021-03-31T10:26:29+02:00</time>
      </trkpt>
      <trkpt lat="44.00591" lon="5.69993">
        <ele>668</ele>
        <time>2021-03-31T10:26:34+02:00</time>
      </trkpt>
      <trkpt lat="44.00576" lon="5.69991">
        <ele>670</ele>
        <time>2021-03-31T10:26:38+02:00</time>
      </trkpt>
      <trkpt lat="44.00561" lon="5.69991">
        <ele>669</ele>
        <time>2021-03-31T10:26:42+02:00</time>
      </trkpt>
      <trkpt lat="44.00546" lon="5.6999">
        <ele>666</ele>
        <time>2021-03-31T10:26:46+02:00</time>
      </trkpt>
      <trkpt lat="44.0053" lon="5.69986">
        <ele>666</ele>
        <time>2021-03-31T10:26:50+02:00</time>
      </trkpt>
      <trkpt lat="44.00516" lon="5.6998">
        <ele>666</ele>
        <time>2021-03-31T10:26:56+02:00</time>
      </trkpt>
      <trkpt lat="44.00501" lon="5.69978">
        <ele>666</ele>
        <time>2021-03-31T10:27:05+02:00</time>
      </trkpt>
      <trkpt lat="44.00484" lon="5.69978">
        <ele>659</ele>
        <time>2021-03-31T10:27:12+02:00</time>
      </trkpt>
      <trkpt lat="44.00471" lon="5.69978">
        <ele>659</ele>
        <time>2021-03-31T10:27:16+02:00</time>
      </trkpt>
      <trkpt lat="44.00457" lon="5.69976">
        <ele>662</ele>
        <time>2021-03-31T10:27:20+02:00</time>
      </trkpt>
      <trkpt lat="44.00443" lon="5.69976">
        <ele>665</ele>
        <time>2021-03-31T10:27:24+02:00</time>
      </trkpt>
      <trkpt lat="44.00427" lon="5.69972">
        <ele>667</ele>
        <time>2021-03-31T10:27:29+02:00</time>
      </trkpt>
      <trkpt lat="44.00411" lon="5.6997">
        <ele>667</ele>
        <time>2021-03-31T10:27:34+02:00</time>
      </trkpt>
      <trkpt lat="44.00399" lon="5.69958">
        <ele>668</ele>
        <time>2021-03-31T10:27:43+02:00</time>
      </trkpt>
      <trkpt lat="44.00386" lon="5.69964">
        <ele>663</ele>
        <time>2021-03-31T10:28:09+02:00</time>
      </trkpt>
      <trkpt lat="44.00372" lon="5.69955">
        <ele>662</ele>
        <time>2021-03-31T10:30:01+02:00</time>
      </trkpt>
      <trkpt lat="44.00359" lon="5.69946">
        <ele>658</ele>
        <time>2021-03-31T10:30:09+02:00</time>
      </trkpt>
      <trkpt lat="44.00346" lon="5.69937">
        <ele>657</ele>
        <time>2021-03-31T10:30:18+02:00</time>
      </trkpt>
      <trkpt lat="44.0033" lon="5.69932">
        <ele>654</ele>
        <time>2021-03-31T10:30:28+02:00</time>
      </trkpt>
      <trkpt lat="44.00318" lon="5.69922">
        <ele>655</ele>
        <time>2021-03-31T10:30:34+02:00</time>
      </trkpt>
      <trkpt lat="44.00307" lon="5.69911">
        <ele>663</ele>
        <time>2021-03-31T10:30:40+02:00</time>
      </trkpt>
      <trkpt lat="44.00294" lon="5.69898">
        <ele>669</ele>
        <time>2021-03-31T10:30:48+02:00</time>
      </trkpt>
      <trkpt lat="44.00283" lon="5.69884">
        <ele>670</ele>
        <time>2021-03-31T10:30:54+02:00</time>
      </trkpt>
      <trkpt lat="44.00273" lon="5.69868">
        <ele>665</ele>
        <time>2021-03-31T10:31:02+02:00</time>
      </trkpt>
      <trkpt lat="44.00259" lon="5.69857">
        <ele>660</ele>
        <time>2021-03-31T10:31:08+02:00</time>
      </trkpt>
      <trkpt lat="44.00244" lon="5.69841">
        <ele>659</ele>
        <time>2021-03-31T10:31:21+02:00</time>
      </trkpt>
      <trkpt lat="44.00233" lon="5.69828">
        <ele>660</ele>
        <time>2021-03-31T10:31:34+02:00</time>
      </trkpt>
      <trkpt lat="44.00222" lon="5.69815">
        <ele>660</ele>
        <time>2021-03-31T10:32:04+02:00</time>
      </trkpt>
      <trkpt lat="44.00211" lon="5.69804">
        <ele>656</ele>
        <time>2021-03-31T10:32:13+02:00</time>
      </trkpt>
      <trkpt lat="44.00199" lon="5.6979">
        <ele>654</ele>
        <time>2021-03-31T10:32:21+02:00</time>
      </trkpt>
      <trkpt lat="44.00187" lon="5.69778">
        <ele>653</ele>
        <time>2021-03-31T10:32:27+02:00</time>
      </trkpt>
      <trkpt lat="44.00176" lon="5.69766">
        <ele>654</ele>
        <time>2021-03-31T10:32:33+02:00</time>
      </trkpt>
      <trkpt lat="44.00165" lon="5.69754">
        <ele>653</ele>
        <time>2021-03-31T10:32:42+02:00</time>
      </trkpt>
      <trkpt lat="44.00157" lon="5.69737">
        <ele>650</ele>
        <time>2021-03-31T10:32:53+02:00</time>
      </trkpt>
      <trkpt lat="44.00144" lon="5.69728">
        <ele>644</ele>
        <time>2021-03-31T10:33:12+02:00</time>
      </trkpt>
      <trkpt lat="44.00133" lon="5.69717">
        <ele>646</ele>
        <time>2021-03-31T10:33:25+02:00</time>
      </trkpt>
      <trkpt lat="44.0012" lon="5.69706">
        <ele>649</ele>
        <time>2021-03-31T10:33:49+02:00</time>
      </trkpt>
      <trkpt lat="44.00107" lon="5.69696">
        <ele>648</ele>
        <time>2021-03-31T10:33:59+02:00</time>
      </trkpt>
      <trkpt lat="44.00094" lon="5.69688">
        <ele>644</ele>
        <time>2021-03-31T10:34:17+02:00</time>
      </trkpt>
      <trkpt lat="44.00076" lon="5.69672">
        <ele>641</ele>
        <time>2021-03-31T10:34:59+02:00</time>
      </trkpt>
      <trkpt lat="44.00064" lon="5.69661">
        <ele>640</ele>
        <time>2021-03-31T10:35:07+02:00</time>
      </trkpt>
      <trkpt lat="44.00054" lon="5.6965">
        <ele>639</ele>
        <time>2021-03-31T10:35:24+02:00</time>
      </trkpt>
      <trkpt lat="44.0004" lon="5.6964">
        <ele>636</ele>
        <time>2021-03-31T10:35:31+02:00</time>
      </trkpt>
      <trkpt lat="44.00025" lon="5.69638">
        <ele>634</ele>
        <time>2021-03-31T10:35:39+02:00</time>
      </trkpt>
      <trkpt lat="44.00012" lon="5.69631">
        <ele>633</ele>
        <time>2021-03-31T10:35:50+02:00</time>
      </trkpt>
      <trkpt lat="43.99998" lon="5.69632">
        <ele>636</ele>
        <time>2021-03-31T10:36:05+02:00</time>
      </trkpt>
      <trkpt lat="43.99992" lon="5.69614">
        <ele>637</ele>
        <time>2021-03-31T10:36:18+02:00</time>
      </trkpt>
      <trkpt lat="43.99992" lon="5.69594">
        <ele>636</ele>
        <time>2021-03-31T10:36:33+02:00</time>
      </trkpt>
      <trkpt lat="43.99988" lon="5.69566">
        <ele>631</ele>
        <time>2021-03-31T10:37:06+02:00</time>
      </trkpt>
      <trkpt lat="43.9998" lon="5.69551">
        <ele>630</ele>
        <time>2021-03-31T10:38:23+02:00</time>
      </trkpt>
      <trkpt lat="43.99969" lon="5.69534">
        <ele>629</ele>
        <time>2021-03-31T10:38:39+02:00</time>
      </trkpt>
      <trkpt lat="43.9996" lon="5.69512">
        <ele>628</ele>
        <time>2021-03-31T10:39:07+02:00</time>
      </trkpt>
      <trkpt lat="43.99956" lon="5.69493">
        <ele>626</ele>
        <time>2021-03-31T10:39:13+02:00</time>
      </trkpt>
      <trkpt lat="43.99956" lon="5.69471">
        <ele>625</ele>
        <time>2021-03-31T10:39:19+02:00</time>
      </trkpt>
      <trkpt lat="43.99958" lon="5.69451">
        <ele>625</ele>
        <time>2021-03-31T10:39:25+02:00</time>
      </trkpt>
      <trkpt lat="43.99952" lon="5.69434">
        <ele>625</ele>
        <time>2021-03-31T10:39:30+02:00</time>
      </trkpt>
      <trkpt lat="43.9994" lon="5.69421">
        <ele>627</ele>
        <time>2021-03-31T10:39:35+02:00</time>
      </trkpt>
      <trkpt lat="43.99927" lon="5.694">
        <ele>629</ele>
        <time>2021-03-31T10:39:57+02:00</time>
      </trkpt>
      <trkpt lat="43.99921" lon="5.69382">
        <ele>625</ele>
        <time>2021-03-31T10:40:07+02:00</time>
      </trkpt>
      <trkpt lat="43.99913" lon="5.69363">
        <ele>624</ele>
        <time>2021-03-31T10:40:14+02:00</time>
      </trkpt>
      <trkpt lat="43.99905" lon="5.69347">
        <ele>627</ele>
        <time>2021-03-31T10:40:20+02:00</time>
      </trkpt>
      <trkpt lat="43.99896" lon="5.69331">
        <ele>627</ele>
        <time>2021-03-31T10:40:27+02:00</time>
      </trkpt>
      <trkpt lat="43.99887" lon="5.69315">
        <ele>627</ele>
        <time>2021-03-31T10:40:37+02:00</time>
      </trkpt>
      <trkpt lat="43.99883" lon="5.69296">
        <ele>625</ele>
        <time>2021-03-31T10:40:47+02:00</time>
      </trkpt>
      <trkpt lat="43.99878" lon="5.69278">
        <ele>623</ele>
        <time>2021-03-31T10:40:56+02:00</time>
      </trkpt>
      <trkpt lat="43.99869" lon="5.69263">
        <ele>621</ele>
        <time>2021-03-31T10:41:02+02:00</time>
      </trkpt>
      <trkpt lat="43.99857" lon="5.69255">
        <ele>620</ele>
        <time>2021-03-31T10:41:08+02:00</time>
      </trkpt>
      <trkpt lat="43.99845" lon="5.69244">
        <ele>619</ele>
        <time>2021-03-31T10:41:13+02:00</time>
      </trkpt>
      <trkpt lat="43.99835" lon="5.69231">
        <ele>619</ele>
        <time>2021-03-31T10:41:18+02:00</time>
      </trkpt>
      <trkpt lat="43.99828" lon="5.69212">
        <ele>618</ele>
        <time>2021-03-31T10:41:24+02:00</time>
      </trkpt>
      <trkpt lat="43.99821" lon="5.69193">
        <ele>615</ele>
        <time>2021-03-31T10:41:31+02:00</time>
      </trkpt>
      <trkpt lat="43.99808" lon="5.69181">
        <ele>613</ele>
        <time>2021-03-31T10:41:40+02:00</time>
      </trkpt>
      <trkpt lat="43.99797" lon="5.69169">
        <ele>610</ele>
        <time>2021-03-31T10:41:47+02:00</time>
      </trkpt>
      <trkpt lat="43.99784" lon="5.69161">
        <ele>609</ele>
        <time>2021-03-31T10:41:55+02:00</time>
      </trkpt>
      <trkpt lat="43.99771" lon="5.6915">
        <ele>610</ele>
        <time>2021-03-31T10:42:03+02:00</time>
      </trkpt>
      <trkpt lat="43.9976" lon="5.69137">
        <ele>610</ele>
        <time>2021-03-31T10:42:11+02:00</time>
      </trkpt>
      <trkpt lat="43.99749" lon="5.69125">
        <ele>607</ele>
        <time>2021-03-31T10:43:36+02:00</time>
      </trkpt>
      <trkpt lat="43.99737" lon="5.69114">
        <ele>604</ele>
        <time>2021-03-31T10:43:49+02:00</time>
      </trkpt>
      <trkpt lat="43.99725" lon="5.69102">
        <ele>605</ele>
        <time>2021-03-31T10:44:05+02:00</time>
      </trkpt>
      <trkpt lat="43.99712" lon="5.69089">
        <ele>605</ele>
        <time>2021-03-31T10:44:19+02:00</time>
      </trkpt>
      <trkpt lat="43.997" lon="5.69079">
        <ele>602</ele>
        <time>2021-03-31T10:44:42+02:00</time>
      </trkpt>
      <trkpt lat="43.99691" lon="5.69063">
        <ele>598</ele>
        <time>2021-03-31T10:44:47+02:00</time>
      </trkpt>
      <trkpt lat="43.9968" lon="5.6905">
        <ele>597</ele>
        <time>2021-03-31T10:44:54+02:00</time>
      </trkpt>
      <trkpt lat="43.9967" lon="5.69038">
        <ele>598</ele>
        <time>2021-03-31T10:45:00+02:00</time>
      </trkpt>
      <trkpt lat="43.99657" lon="5.6903">
        <ele>596</ele>
        <time>2021-03-31T10:45:07+02:00</time>
      </trkpt>
      <trkpt lat="43.99645" lon="5.69019">
        <ele>596</ele>
        <time>2021-03-31T10:45:13+02:00</time>
      </trkpt>
      <trkpt lat="43.99631" lon="5.69009">
        <ele>599</ele>
        <time>2021-03-31T10:45:19+02:00</time>
      </trkpt>
      <trkpt lat="43.99619" lon="5.68995">
        <ele>599</ele>
        <time>2021-03-31T10:45:28+02:00</time>
      </trkpt>
      <trkpt lat="43.99606" lon="5.68985">
        <ele>597</ele>
        <time>2021-03-31T10:45:35+02:00</time>
      </trkpt>
      <trkpt lat="43.99593" lon="5.68975">
        <ele>594</ele>
        <time>2021-03-31T10:45:42+02:00</time>
      </trkpt>
      <trkpt lat="43.9958" lon="5.68964">
        <ele>593</ele>
        <time>2021-03-31T10:45:49+02:00</time>
      </trkpt>
      <trkpt lat="43.99568" lon="5.68955">
        <ele>590</ele>
        <time>2021-03-31T10:45:58+02:00</time>
      </trkpt>
      <trkpt lat="43.99554" lon="5.68932">
        <ele>584</ele>
        <time>2021-03-31T10:46:43+02:00</time>
      </trkpt>
      <trkpt lat="43.99546" lon="5.68915">
        <ele>585</ele>
        <time>2021-03-31T10:46:50+02:00</time>
      </trkpt>
      <trkpt lat="43.99537" lon="5.68896">
        <ele>587</ele>
        <time>2021-03-31T10:46:56+02:00</time>
      </trkpt>
      <trkpt lat="43.99525" lon="5.68886">
        <ele>588</ele>
        <time>2021-03-31T10:47:01+02:00</time>
      </trkpt>
      <trkpt lat="43.99514" lon="5.68874">
        <ele>587</ele>
        <time>2021-03-31T10:47:08+02:00</time>
      </trkpt>
      <trkpt lat="43.99506" lon="5.68856">
        <ele>588</ele>
        <time>2021-03-31T10:47:15+02:00</time>
      </trkpt>
      <trkpt lat="43.99498" lon="5.68839">
        <ele>591</ele>
        <time>2021-03-31T10:47:21+02:00</time>
      </trkpt>
      <trkpt lat="43.99489" lon="5.68823">
        <ele>591</ele>
        <time>2021-03-31T10:47:27+02:00</time>
      </trkpt>
      <trkpt lat="43.99479" lon="5.68809">
        <ele>591</ele>
        <time>2021-03-31T10:47:32+02:00</time>
      </trkpt>
      <trkpt lat="43.9947" lon="5.68794">
        <ele>590</ele>
        <time>2021-03-31T10:47:38+02:00</time>
      </trkpt>
      <trkpt lat="43.99459" lon="5.6878">
        <ele>590</ele>
        <time>2021-03-31T10:47:48+02:00</time>
      </trkpt>
      <trkpt lat="43.9945" lon="5.6876">
        <ele>589</ele>
        <time>2021-03-31T10:47:53+02:00</time>
      </trkpt>
      <trkpt lat="43.99443" lon="5.68741">
        <ele>589</ele>
        <time>2021-03-31T10:47:56+02:00</time>
      </trkpt>
      <trkpt lat="43.99437" lon="5.68721">
        <ele>588</ele>
        <time>2021-03-31T10:47:59+02:00</time>
      </trkpt>
      <trkpt lat="43.99431" lon="5.68701">
        <ele>589</ele>
        <time>2021-03-31T10:48:02+02:00</time>
      </trkpt>
      <trkpt lat="43.9942" lon="5.6869">
        <ele>588</ele>
        <time>2021-03-31T10:48:05+02:00</time>
      </trkpt>
      <trkpt lat="43.99405" lon="5.68689">
        <ele>587</ele>
        <time>2021-03-31T10:48:08+02:00</time>
      </trkpt>
      <trkpt lat="43.99391" lon="5.68686">
        <ele>586</ele>
        <time>2021-03-31T10:48:11+02:00</time>
      </trkpt>
      <trkpt lat="43.99377" lon="5.68674">
        <ele>584</ele>
        <time>2021-03-31T10:48:15+02:00</time>
      </trkpt>
      <trkpt lat="43.99365" lon="5.68662">
        <ele>584</ele>
        <time>2021-03-31T10:48:19+02:00</time>
      </trkpt>
      <trkpt lat="43.99353" lon="5.68651">
        <ele>583</ele>
        <time>2021-03-31T10:48:23+02:00</time>
      </trkpt>
      <trkpt lat="43.99341" lon="5.6864">
        <ele>583</ele>
        <time>2021-03-31T10:48:27+02:00</time>
      </trkpt>
      <trkpt lat="43.99329" lon="5.68627">
        <ele>582</ele>
        <time>2021-03-31T10:48:32+02:00</time>
      </trkpt>
      <trkpt lat="43.99316" lon="5.68624">
        <ele>582</ele>
        <time>2021-03-31T10:48:38+02:00</time>
      </trkpt>
      <trkpt lat="43.99301" lon="5.68623">
        <ele>582</ele>
        <time>2021-03-31T10:48:43+02:00</time>
      </trkpt>
      <trkpt lat="43.99286" lon="5.68623">
        <ele>582</ele>
        <time>2021-03-31T10:48:48+02:00</time>
      </trkpt>
      <trkpt lat="43.99271" lon="5.68625">
        <ele>581</ele>
        <time>2021-03-31T10:48:56+02:00</time>
      </trkpt>
      <trkpt lat="43.99256" lon="5.68622">
        <ele>582</ele>
        <time>2021-03-31T10:49:04+02:00</time>
      </trkpt>
      <trkpt lat="43.99242" lon="5.68614">
        <ele>580</ele>
        <time>2021-03-31T10:49:10+02:00</time>
      </trkpt>
      <trkpt lat="43.99229" lon="5.686">
        <ele>580</ele>
        <time>2021-03-31T10:49:16+02:00</time>
      </trkpt>
      <trkpt lat="43.99218" lon="5.68588">
        <ele>580</ele>
        <time>2021-03-31T10:49:20+02:00</time>
      </trkpt>
      <trkpt lat="43.99208" lon="5.68574">
        <ele>580</ele>
        <time>2021-03-31T10:49:24+02:00</time>
      </trkpt>
      <trkpt lat="43.99196" lon="5.6856">
        <ele>580</ele>
        <time>2021-03-31T10:49:29+02:00</time>
      </trkpt>
      <trkpt lat="43.99188" lon="5.68543">
        <ele>580</ele>
        <time>2021-03-31T10:49:35+02:00</time>
      </trkpt>
      <trkpt lat="43.9918" lon="5.68527">
        <ele>582</ele>
        <time>2021-03-31T10:49:41+02:00</time>
      </trkpt>
      <trkpt lat="43.99168" lon="5.68514">
        <ele>581</ele>
        <time>2021-03-31T10:49:48+02:00</time>
      </trkpt>
      <trkpt lat="43.99154" lon="5.68504">
        <ele>580</ele>
        <time>2021-03-31T10:49:56+02:00</time>
      </trkpt>
      <trkpt lat="43.99141" lon="5.68497">
        <ele>579</ele>
        <time>2021-03-31T10:50:02+02:00</time>
      </trkpt>
      <trkpt lat="43.99126" lon="5.68491">
        <ele>580</ele>
        <time>2021-03-31T10:50:09+02:00</time>
      </trkpt>
      <trkpt lat="43.99113" lon="5.68486">
        <ele>581</ele>
        <time>2021-03-31T10:50:15+02:00</time>
      </trkpt>
      <trkpt lat="43.99104" lon="5.68469">
        <ele>582</ele>
        <time>2021-03-31T10:50:21+02:00</time>
      </trkpt>
      <trkpt lat="43.991" lon="5.68449">
        <ele>584</ele>
        <time>2021-03-31T10:50:28+02:00</time>
      </trkpt>
      <trkpt lat="43.99092" lon="5.68433">
        <ele>585</ele>
        <time>2021-03-31T10:50:36+02:00</time>
      </trkpt>
      <trkpt lat="43.99084" lon="5.68418">
        <ele>585</ele>
        <time>2021-03-31T10:50:46+02:00</time>
      </trkpt>
      <trkpt lat="43.99089" lon="5.684">
        <ele>584</ele>
        <time>2021-03-31T10:51:21+02:00</time>
      </trkpt>
      <trkpt lat="43.99094" lon="5.68381">
        <ele>585</ele>
        <time>2021-03-31T10:51:27+02:00</time>
      </trkpt>
      <trkpt lat="43.991" lon="5.68364">
        <ele>586</ele>
        <time>2021-03-31T10:51:32+02:00</time>
      </trkpt>
      <trkpt lat="43.99106" lon="5.68346">
        <ele>587</ele>
        <time>2021-03-31T10:51:37+02:00</time>
      </trkpt>
      <trkpt lat="43.99111" lon="5.68327">
        <ele>589</ele>
        <time>2021-03-31T10:51:43+02:00</time>
      </trkpt>
      <trkpt lat="43.99116" lon="5.6831">
        <ele>589</ele>
        <time>2021-03-31T10:51:49+02:00</time>
      </trkpt>
      <trkpt lat="43.99123" lon="5.6829">
        <ele>591</ele>
        <time>2021-03-31T10:51:56+02:00</time>
      </trkpt>
      <trkpt lat="43.99128" lon="5.68271">
        <ele>592</ele>
        <time>2021-03-31T10:52:03+02:00</time>
      </trkpt>
      <trkpt lat="43.99133" lon="5.68252">
        <ele>595</ele>
        <time>2021-03-31T10:52:10+02:00</time>
      </trkpt>
      <trkpt lat="43.99138" lon="5.68234">
        <ele>596</ele>
        <time>2021-03-31T10:52:17+02:00</time>
      </trkpt>
      <trkpt lat="43.9914" lon="5.68213">
        <ele>597</ele>
        <time>2021-03-31T10:52:25+02:00</time>
      </trkpt>
      <trkpt lat="43.99154" lon="5.68205">
        <ele>592</ele>
        <time>2021-03-31T10:53:41+02:00</time>
      </trkpt>
      <trkpt lat="43.99168" lon="5.68213">
        <ele>589</ele>
        <time>2021-03-31T10:53:46+02:00</time>
      </trkpt>
      <trkpt lat="43.99182" lon="5.68219">
        <ele>589</ele>
        <time>2021-03-31T10:53:51+02:00</time>
      </trkpt>
      <trkpt lat="43.99197" lon="5.68226">
        <ele>588</ele>
        <time>2021-03-31T10:53:57+02:00</time>
      </trkpt>
      <trkpt lat="43.99211" lon="5.6823">
        <ele>590</ele>
        <time>2021-03-31T10:54:02+02:00</time>
      </trkpt>
      <trkpt lat="43.99224" lon="5.68233">
        <ele>592</ele>
        <time>2021-03-31T10:54:07+02:00</time>
      </trkpt>
      <trkpt lat="43.99239" lon="5.68238">
        <ele>593</ele>
        <time>2021-03-31T10:54:12+02:00</time>
      </trkpt>
      <trkpt lat="43.99253" lon="5.68242">
        <ele>593</ele>
        <time>2021-03-31T10:54:17+02:00</time>
      </trkpt>
      <trkpt lat="43.99266" lon="5.68247">
        <ele>593</ele>
        <time>2021-03-31T10:54:23+02:00</time>
      </trkpt>
      <trkpt lat="43.9928" lon="5.68253">
        <ele>595</ele>
        <time>2021-03-31T10:54:29+02:00</time>
      </trkpt>
      <trkpt lat="43.99296" lon="5.68258">
        <ele>597</ele>
        <time>2021-03-31T10:54:35+02:00</time>
      </trkpt>
      <trkpt lat="43.9931" lon="5.68262">
        <ele>598</ele>
        <time>2021-03-31T10:54:41+02:00</time>
      </trkpt>
      <trkpt lat="43.99325" lon="5.68267">
        <ele>599</ele>
        <time>2021-03-31T10:54:48+02:00</time>
      </trkpt>
      <trkpt lat="43.99339" lon="5.68272">
        <ele>599</ele>
        <time>2021-03-31T10:54:53+02:00</time>
      </trkpt>
      <trkpt lat="43.99351" lon="5.68281">
        <ele>600</ele>
        <time>2021-03-31T10:54:58+02:00</time>
      </trkpt>
      <trkpt lat="43.99364" lon="5.68291">
        <ele>600</ele>
        <time>2021-03-31T10:55:04+02:00</time>
      </trkpt>
      <trkpt lat="43.99379" lon="5.68296">
        <ele>602</ele>
        <time>2021-03-31T10:55:12+02:00</time>
      </trkpt>
      <trkpt lat="43.99389" lon="5.68284">
        <ele>605</ele>
        <time>2021-03-31T10:55:20+02:00</time>
      </trkpt>
      <trkpt lat="43.99399" lon="5.68268">
        <ele>608</ele>
        <time>2021-03-31T10:55:30+02:00</time>
      </trkpt>
      <trkpt lat="43.99404" lon="5.68249">
        <ele>608</ele>
        <time>2021-03-31T10:55:40+02:00</time>
      </trkpt>
      <trkpt lat="43.99402" lon="5.6823">
        <ele>608</ele>
        <time>2021-03-31T10:55:49+02:00</time>
      </trkpt>
      <trkpt lat="43.99405" lon="5.68248">
        <ele>608</ele>
        <time>2021-03-31T10:59:37+02:00</time>
      </trkpt>
      <trkpt lat="43.99399" lon="5.68268">
        <ele>604</ele>
        <time>2021-03-31T10:59:44+02:00</time>
      </trkpt>
      <trkpt lat="43.99388" lon="5.6828">
        <ele>599</ele>
        <time>2021-03-31T10:59:51+02:00</time>
      </trkpt>
      <trkpt lat="43.99385" lon="5.68302">
        <ele>596</ele>
        <time>2021-03-31T10:59:59+02:00</time>
      </trkpt>
      <trkpt lat="43.99397" lon="5.68315">
        <ele>598</ele>
        <time>2021-03-31T11:00:06+02:00</time>
      </trkpt>
      <trkpt lat="43.99411" lon="5.68325">
        <ele>601</ele>
        <time>2021-03-31T11:00:12+02:00</time>
      </trkpt>
      <trkpt lat="43.99425" lon="5.68336">
        <ele>603</ele>
        <time>2021-03-31T11:00:17+02:00</time>
      </trkpt>
      <trkpt lat="43.99438" lon="5.68345">
        <ele>602</ele>
        <time>2021-03-31T11:00:21+02:00</time>
      </trkpt>
      <trkpt lat="43.99453" lon="5.68354">
        <ele>602</ele>
        <time>2021-03-31T11:00:25+02:00</time>
      </trkpt>
      <trkpt lat="43.99468" lon="5.68365">
        <ele>603</ele>
        <time>2021-03-31T11:00:29+02:00</time>
      </trkpt>
      <trkpt lat="43.99484" lon="5.68376">
        <ele>601</ele>
        <time>2021-03-31T11:00:33+02:00</time>
      </trkpt>
      <trkpt lat="43.99499" lon="5.68388">
        <ele>601</ele>
        <time>2021-03-31T11:00:37+02:00</time>
      </trkpt>
      <trkpt lat="43.99512" lon="5.68397">
        <ele>601</ele>
        <time>2021-03-31T11:00:40+02:00</time>
      </trkpt>
      <trkpt lat="43.99524" lon="5.68406">
        <ele>601</ele>
        <time>2021-03-31T11:00:43+02:00</time>
      </trkpt>
      <trkpt lat="43.99538" lon="5.68418">
        <ele>600</ele>
        <time>2021-03-31T11:00:47+02:00</time>
      </trkpt>
      <trkpt lat="43.99553" lon="5.6843">
        <ele>596</ele>
        <time>2021-03-31T11:00:51+02:00</time>
      </trkpt>
      <trkpt lat="43.99567" lon="5.6844">
        <ele>595</ele>
        <time>2021-03-31T11:00:55+02:00</time>
      </trkpt>
      <trkpt lat="43.9958" lon="5.68448">
        <ele>597</ele>
        <time>2021-03-31T11:00:59+02:00</time>
      </trkpt>
      <trkpt lat="43.99593" lon="5.68456">
        <ele>599</ele>
        <time>2021-03-31T11:01:03+02:00</time>
      </trkpt>
      <trkpt lat="43.99607" lon="5.68464">
        <ele>597</ele>
        <time>2021-03-31T11:01:07+02:00</time>
      </trkpt>
      <trkpt lat="43.99621" lon="5.68472">
        <ele>600</ele>
        <time>2021-03-31T11:01:11+02:00</time>
      </trkpt>
      <trkpt lat="43.99636" lon="5.68482">
        <ele>603</ele>
        <time>2021-03-31T11:01:15+02:00</time>
      </trkpt>
      <trkpt lat="43.99652" lon="5.68491">
        <ele>604</ele>
        <time>2021-03-31T11:01:19+02:00</time>
      </trkpt>
      <trkpt lat="43.99668" lon="5.68499">
        <ele>604</ele>
        <time>2021-03-31T11:01:23+02:00</time>
      </trkpt>
      <trkpt lat="43.99684" lon="5.68508">
        <ele>603</ele>
        <time>2021-03-31T11:01:27+02:00</time>
      </trkpt>
      <trkpt lat="43.99701" lon="5.68515">
        <ele>598</ele>
        <time>2021-03-31T11:01:31+02:00</time>
      </trkpt>
      <trkpt lat="43.99715" lon="5.68519">
        <ele>596</ele>
        <time>2021-03-31T11:01:34+02:00</time>
      </trkpt>
      <trkpt lat="43.9973" lon="5.68525">
        <ele>593</ele>
        <time>2021-03-31T11:01:38+02:00</time>
      </trkpt>
      <trkpt lat="43.99747" lon="5.6853">
        <ele>592</ele>
        <time>2021-03-31T11:01:42+02:00</time>
      </trkpt>
      <trkpt lat="43.99761" lon="5.68533">
        <ele>594</ele>
        <time>2021-03-31T11:01:45+02:00</time>
      </trkpt>
      <trkpt lat="43.99775" lon="5.68538">
        <ele>594</ele>
        <time>2021-03-31T11:01:48+02:00</time>
      </trkpt>
      <trkpt lat="43.99788" lon="5.68543">
        <ele>594</ele>
        <time>2021-03-31T11:01:51+02:00</time>
      </trkpt>
      <trkpt lat="43.99803" lon="5.68546">
        <ele>596</ele>
        <time>2021-03-31T11:01:54+02:00</time>
      </trkpt>
      <trkpt lat="43.99818" lon="5.68549">
        <ele>597</ele>
        <time>2021-03-31T11:01:57+02:00</time>
      </trkpt>
      <trkpt lat="43.99832" lon="5.68553">
        <ele>598</ele>
        <time>2021-03-31T11:02:00+02:00</time>
      </trkpt>
      <trkpt lat="43.99845" lon="5.68556">
        <ele>600</ele>
        <time>2021-03-31T11:02:03+02:00</time>
      </trkpt>
      <trkpt lat="43.99862" lon="5.6856">
        <ele>601</ele>
        <time>2021-03-31T11:02:07+02:00</time>
      </trkpt>
      <trkpt lat="43.9988" lon="5.68561">
        <ele>600</ele>
        <time>2021-03-31T11:02:11+02:00</time>
      </trkpt>
      <trkpt lat="43.99898" lon="5.68562">
        <ele>600</ele>
        <time>2021-03-31T11:02:15+02:00</time>
      </trkpt>
      <trkpt lat="43.99915" lon="5.68565">
        <ele>601</ele>
        <time>2021-03-31T11:02:19+02:00</time>
      </trkpt>
      <trkpt lat="43.99932" lon="5.68568">
        <ele>601</ele>
        <time>2021-03-31T11:02:23+02:00</time>
      </trkpt>
      <trkpt lat="43.9995" lon="5.68569">
        <ele>602</ele>
        <time>2021-03-31T11:02:27+02:00</time>
      </trkpt>
      <trkpt lat="43.99967" lon="5.68573">
        <ele>602</ele>
        <time>2021-03-31T11:02:31+02:00</time>
      </trkpt>
      <trkpt lat="43.9998" lon="5.68575">
        <ele>602</ele>
        <time>2021-03-31T11:02:34+02:00</time>
      </trkpt>
      <trkpt lat="43.99994" lon="5.68576">
        <ele>603</ele>
        <time>2021-03-31T11:02:37+02:00</time>
      </trkpt>
      <trkpt lat="44.00011" lon="5.68576">
        <ele>602</ele>
        <time>2021-03-31T11:02:41+02:00</time>
      </trkpt>
      <trkpt lat="44.00028" lon="5.68578">
        <ele>603</ele>
        <time>2021-03-31T11:02:45+02:00</time>
      </trkpt>
      <trkpt lat="44.00045" lon="5.68577">
        <ele>598</ele>
        <time>2021-03-31T11:02:49+02:00</time>
      </trkpt>
      <trkpt lat="44.00059" lon="5.68578">
        <ele>596</ele>
        <time>2021-03-31T11:02:52+02:00</time>
      </trkpt>
      <trkpt lat="44.00074" lon="5.68578">
        <ele>598</ele>
        <time>2021-03-31T11:02:55+02:00</time>
      </trkpt>
      <trkpt lat="44.00088" lon="5.68578">
        <ele>602</ele>
        <time>2021-03-31T11:02:58+02:00</time>
      </trkpt>
      <trkpt lat="44.00103" lon="5.68579">
        <ele>603</ele>
        <time>2021-03-31T11:03:01+02:00</time>
      </trkpt>
      <trkpt lat="44.00118" lon="5.68578">
        <ele>604</ele>
        <time>2021-03-31T11:03:04+02:00</time>
      </trkpt>
      <trkpt lat="44.00132" lon="5.68577">
        <ele>604</ele>
        <time>2021-03-31T11:03:07+02:00</time>
      </trkpt>
      <trkpt lat="44.00146" lon="5.68577">
        <ele>604</ele>
        <time>2021-03-31T11:03:10+02:00</time>
      </trkpt>
      <trkpt lat="44.0016" lon="5.68577">
        <ele>605</ele>
        <time>2021-03-31T11:03:13+02:00</time>
      </trkpt>
      <trkpt lat="44.00174" lon="5.68578">
        <ele>606</ele>
        <time>2021-03-31T11:03:16+02:00</time>
      </trkpt>
      <trkpt lat="44.00189" lon="5.68577">
        <ele>607</ele>
        <time>2021-03-31T11:03:19+02:00</time>
      </trkpt>
      <trkpt lat="44.00205" lon="5.68577">
        <ele>608</ele>
        <time>2021-03-31T11:03:23+02:00</time>
      </trkpt>
      <trkpt lat="44.00219" lon="5.68578">
        <ele>608</ele>
        <time>2021-03-31T11:03:26+02:00</time>
      </trkpt>
      <trkpt lat="44.00233" lon="5.68579">
        <ele>610</ele>
        <time>2021-03-31T11:03:29+02:00</time>
      </trkpt>
      <trkpt lat="44.00248" lon="5.68577">
        <ele>611</ele>
        <time>2021-03-31T11:03:32+02:00</time>
      </trkpt>
      <trkpt lat="44.00262" lon="5.68576">
        <ele>610</ele>
        <time>2021-03-31T11:03:35+02:00</time>
      </trkpt>
      <trkpt lat="44.00276" lon="5.68576">
        <ele>610</ele>
        <time>2021-03-31T11:03:38+02:00</time>
      </trkpt>
      <trkpt lat="44.00291" lon="5.68576">
        <ele>610</ele>
        <time>2021-03-31T11:03:41+02:00</time>
      </trkpt>
      <trkpt lat="44.00304" lon="5.68575">
        <ele>610</ele>
        <time>2021-03-31T11:03:44+02:00</time>
      </trkpt>
      <trkpt lat="44.00318" lon="5.68574">
        <ele>609</ele>
        <time>2021-03-31T11:03:47+02:00</time>
      </trkpt>
      <trkpt lat="44.00332" lon="5.68574">
        <ele>610</ele>
        <time>2021-03-31T11:03:50+02:00</time>
      </trkpt>
      <trkpt lat="44.00347" lon="5.68574">
        <ele>610</ele>
        <time>2021-03-31T11:03:53+02:00</time>
      </trkpt>
      <trkpt lat="44.00361" lon="5.68574">
        <ele>610</ele>
        <time>2021-03-31T11:03:56+02:00</time>
      </trkpt>
      <trkpt lat="44.00376" lon="5.68574">
        <ele>611</ele>
        <time>2021-03-31T11:03:59+02:00</time>
      </trkpt>
      <trkpt lat="44.00391" lon="5.68574">
        <ele>611</ele>
        <time>2021-03-31T11:04:02+02:00</time>
      </trkpt>
      <trkpt lat="44.00407" lon="5.68575">
        <ele>612</ele>
        <time>2021-03-31T11:04:05+02:00</time>
      </trkpt>
      <trkpt lat="44.00422" lon="5.68579">
        <ele>611</ele>
        <time>2021-03-31T11:04:08+02:00</time>
      </trkpt>
      <trkpt lat="44.00436" lon="5.68588">
        <ele>611</ele>
        <time>2021-03-31T11:04:11+02:00</time>
      </trkpt>
      <trkpt lat="44.0045" lon="5.68599">
        <ele>607</ele>
        <time>2021-03-31T11:04:14+02:00</time>
      </trkpt>
      <trkpt lat="44.00463" lon="5.68611">
        <ele>607</ele>
        <time>2021-03-31T11:04:17+02:00</time>
      </trkpt>
      <trkpt lat="44.00476" lon="5.68624">
        <ele>606</ele>
        <time>2021-03-31T11:04:20+02:00</time>
      </trkpt>
      <trkpt lat="44.0049" lon="5.68633">
        <ele>607</ele>
        <time>2021-03-31T11:04:23+02:00</time>
      </trkpt>
      <trkpt lat="44.00505" lon="5.68636">
        <ele>607</ele>
        <time>2021-03-31T11:04:26+02:00</time>
      </trkpt>
      <trkpt lat="44.00519" lon="5.68634">
        <ele>609</ele>
        <time>2021-03-31T11:04:29+02:00</time>
      </trkpt>
      <trkpt lat="44.00536" lon="5.6863">
        <ele>611</ele>
        <time>2021-03-31T11:04:33+02:00</time>
      </trkpt>
      <trkpt lat="44.00549" lon="5.68627">
        <ele>612</ele>
        <time>2021-03-31T11:04:37+02:00</time>
      </trkpt>
      <trkpt lat="44.00563" lon="5.68623">
        <ele>613</ele>
        <time>2021-03-31T11:04:42+02:00</time>
      </trkpt>
      <trkpt lat="44.00579" lon="5.68619">
        <ele>613</ele>
        <time>2021-03-31T11:04:48+02:00</time>
      </trkpt>
      <trkpt lat="44.00594" lon="5.68615">
        <ele>613</ele>
        <time>2021-03-31T11:04:54+02:00</time>
      </trkpt>
      <trkpt lat="44.00609" lon="5.68612">
        <ele>611</ele>
        <time>2021-03-31T11:05:00+02:00</time>
      </trkpt>
      <trkpt lat="44.00624" lon="5.68608">
        <ele>611</ele>
        <time>2021-03-31T11:05:05+02:00</time>
      </trkpt>
      <trkpt lat="44.00638" lon="5.68604">
        <ele>612</ele>
        <time>2021-03-31T11:05:10+02:00</time>
      </trkpt>
      <trkpt lat="44.00652" lon="5.68601">
        <ele>611</ele>
        <time>2021-03-31T11:05:16+02:00</time>
      </trkpt>
      <trkpt lat="44.00668" lon="5.68598">
        <ele>611</ele>
        <time>2021-03-31T11:05:22+02:00</time>
      </trkpt>
      <trkpt lat="44.00683" lon="5.68594">
        <ele>614</ele>
        <time>2021-03-31T11:05:28+02:00</time>
      </trkpt>
      <trkpt lat="44.00698" lon="5.68588">
        <ele>616</ele>
        <time>2021-03-31T11:05:34+02:00</time>
      </trkpt>
      <trkpt lat="44.00711" lon="5.68586">
        <ele>616</ele>
        <time>2021-03-31T11:05:39+02:00</time>
      </trkpt>
      <trkpt lat="44.00726" lon="5.68582">
        <ele>617</ele>
        <time>2021-03-31T11:05:45+02:00</time>
      </trkpt>
      <trkpt lat="44.0074" lon="5.68579">
        <ele>616</ele>
        <time>2021-03-31T11:05:51+02:00</time>
      </trkpt>
      <trkpt lat="44.00755" lon="5.68575">
        <ele>617</ele>
        <time>2021-03-31T11:05:56+02:00</time>
      </trkpt>
      <trkpt lat="44.00769" lon="5.68571">
        <ele>619</ele>
        <time>2021-03-31T11:06:02+02:00</time>
      </trkpt>
      <trkpt lat="44.00783" lon="5.68567">
        <ele>617</ele>
        <time>2021-03-31T11:06:09+02:00</time>
      </trkpt>
      <trkpt lat="44.00797" lon="5.68563">
        <ele>617</ele>
        <time>2021-03-31T11:06:15+02:00</time>
      </trkpt>
      <trkpt lat="44.00811" lon="5.68558">
        <ele>617</ele>
        <time>2021-03-31T11:06:21+02:00</time>
      </trkpt>
      <trkpt lat="44.00826" lon="5.68552">
        <ele>621</ele>
        <time>2021-03-31T11:06:27+02:00</time>
      </trkpt>
      <trkpt lat="44.0084" lon="5.68548">
        <ele>623</ele>
        <time>2021-03-31T11:06:33+02:00</time>
      </trkpt>
      <trkpt lat="44.00854" lon="5.68543">
        <ele>622</ele>
        <time>2021-03-31T11:06:38+02:00</time>
      </trkpt>
      <trkpt lat="44.00868" lon="5.68538">
        <ele>622</ele>
        <time>2021-03-31T11:06:43+02:00</time>
      </trkpt>
      <trkpt lat="44.00883" lon="5.68532">
        <ele>625</ele>
        <time>2021-03-31T11:06:48+02:00</time>
      </trkpt>
      <trkpt lat="44.00898" lon="5.68526">
        <ele>625</ele>
        <time>2021-03-31T11:06:53+02:00</time>
      </trkpt>
      <trkpt lat="44.00913" lon="5.68519">
        <ele>624</ele>
        <time>2021-03-31T11:06:58+02:00</time>
      </trkpt>
      <trkpt lat="44.00929" lon="5.68514">
        <ele>624</ele>
        <time>2021-03-31T11:07:03+02:00</time>
      </trkpt>
      <trkpt lat="44.00945" lon="5.68508">
        <ele>627</ele>
        <time>2021-03-31T11:07:08+02:00</time>
      </trkpt>
      <trkpt lat="44.00959" lon="5.68502">
        <ele>627</ele>
        <time>2021-03-31T11:07:13+02:00</time>
      </trkpt>
      <trkpt lat="44.00973" lon="5.68497">
        <ele>629</ele>
        <time>2021-03-31T11:07:18+02:00</time>
      </trkpt>
      <trkpt lat="44.00988" lon="5.68489">
        <ele>634</ele>
        <time>2021-03-31T11:07:23+02:00</time>
      </trkpt>
      <trkpt lat="44.01003" lon="5.68481">
        <ele>634</ele>
        <time>2021-03-31T11:07:28+02:00</time>
      </trkpt>
      <trkpt lat="44.01018" lon="5.68478">
        <ele>633</ele>
        <time>2021-03-31T11:07:35+02:00</time>
      </trkpt>
      <trkpt lat="44.01032" lon="5.68474">
        <ele>633</ele>
        <time>2021-03-31T11:07:40+02:00</time>
      </trkpt>
      <trkpt lat="44.01045" lon="5.68465">
        <ele>633</ele>
        <time>2021-03-31T11:07:44+02:00</time>
      </trkpt>
      <trkpt lat="44.01061" lon="5.68455">
        <ele>634</ele>
        <time>2021-03-31T11:07:48+02:00</time>
      </trkpt>
      <trkpt lat="44.01077" lon="5.68444">
        <ele>635</ele>
        <time>2021-03-31T11:07:52+02:00</time>
      </trkpt>
      <trkpt lat="44.0109" lon="5.68437">
        <ele>635</ele>
        <time>2021-03-31T11:07:55+02:00</time>
      </trkpt>
      <trkpt lat="44.01104" lon="5.6843">
        <ele>632</ele>
        <time>2021-03-31T11:07:58+02:00</time>
      </trkpt>
      <trkpt lat="44.01119" lon="5.68422">
        <ele>632</ele>
        <time>2021-03-31T11:08:01+02:00</time>
      </trkpt>
      <trkpt lat="44.01134" lon="5.68414">
        <ele>631</ele>
        <time>2021-03-31T11:08:04+02:00</time>
      </trkpt>
      <trkpt lat="44.01149" lon="5.68405">
        <ele>631</ele>
        <time>2021-03-31T11:08:07+02:00</time>
      </trkpt>
      <trkpt lat="44.01165" lon="5.68395">
        <ele>631</ele>
        <time>2021-03-31T11:08:10+02:00</time>
      </trkpt>
      <trkpt lat="44.01181" lon="5.68385">
        <ele>633</ele>
        <time>2021-03-31T11:08:13+02:00</time>
      </trkpt>
      <trkpt lat="44.01197" lon="5.68375">
        <ele>632</ele>
        <time>2021-03-31T11:08:16+02:00</time>
      </trkpt>
      <trkpt lat="44.01213" lon="5.68365">
        <ele>632</ele>
        <time>2021-03-31T11:08:19+02:00</time>
      </trkpt>
      <trkpt lat="44.01229" lon="5.68357">
        <ele>631</ele>
        <time>2021-03-31T11:08:22+02:00</time>
      </trkpt>
      <trkpt lat="44.01243" lon="5.68349">
        <ele>631</ele>
        <time>2021-03-31T11:08:25+02:00</time>
      </trkpt>
      <trkpt lat="44.01259" lon="5.6834">
        <ele>632</ele>
        <time>2021-03-31T11:08:28+02:00</time>
      </trkpt>
      <trkpt lat="44.01274" lon="5.68332">
        <ele>632</ele>
        <time>2021-03-31T11:08:31+02:00</time>
      </trkpt>
      <trkpt lat="44.01289" lon="5.68324">
        <ele>632</ele>
        <time>2021-03-31T11:08:34+02:00</time>
      </trkpt>
      <trkpt lat="44.01305" lon="5.68315">
        <ele>632</ele>
        <time>2021-03-31T11:08:37+02:00</time>
      </trkpt>
      <trkpt lat="44.0132" lon="5.68307">
        <ele>632</ele>
        <time>2021-03-31T11:08:40+02:00</time>
      </trkpt>
      <trkpt lat="44.01335" lon="5.68299">
        <ele>632</ele>
        <time>2021-03-31T11:08:43+02:00</time>
      </trkpt>
      <trkpt lat="44.0135" lon="5.68291">
        <ele>632</ele>
        <time>2021-03-31T11:08:46+02:00</time>
      </trkpt>
      <trkpt lat="44.01364" lon="5.68283">
        <ele>633</ele>
        <time>2021-03-31T11:08:49+02:00</time>
      </trkpt>
      <trkpt lat="44.01378" lon="5.68275">
        <ele>633</ele>
        <time>2021-03-31T11:08:52+02:00</time>
      </trkpt>
      <trkpt lat="44.01392" lon="5.68267">
        <ele>632</ele>
        <time>2021-03-31T11:08:55+02:00</time>
      </trkpt>
      <trkpt lat="44.01407" lon="5.68259">
        <ele>632</ele>
        <time>2021-03-31T11:08:58+02:00</time>
      </trkpt>
      <trkpt lat="44.01422" lon="5.68251">
        <ele>633</ele>
        <time>2021-03-31T11:09:01+02:00</time>
      </trkpt>
      <trkpt lat="44.01437" lon="5.68244">
        <ele>634</ele>
        <time>2021-03-31T11:09:04+02:00</time>
      </trkpt>
      <trkpt lat="44.01452" lon="5.68237">
        <ele>634</ele>
        <time>2021-03-31T11:09:07+02:00</time>
      </trkpt>
      <trkpt lat="44.01467" lon="5.68229">
        <ele>635</ele>
        <time>2021-03-31T11:09:10+02:00</time>
      </trkpt>
      <trkpt lat="44.01483" lon="5.68224">
        <ele>634</ele>
        <time>2021-03-31T11:09:13+02:00</time>
      </trkpt>
      <trkpt lat="44.01499" lon="5.68221">
        <ele>635</ele>
        <time>2021-03-31T11:09:16+02:00</time>
      </trkpt>
      <trkpt lat="44.01516" lon="5.68223">
        <ele>635</ele>
        <time>2021-03-31T11:09:19+02:00</time>
      </trkpt>
      <trkpt lat="44.01531" lon="5.68229">
        <ele>636</ele>
        <time>2021-03-31T11:09:22+02:00</time>
      </trkpt>
      <trkpt lat="44.01546" lon="5.68235">
        <ele>636</ele>
        <time>2021-03-31T11:09:25+02:00</time>
      </trkpt>
      <trkpt lat="44.0156" lon="5.6824">
        <ele>635</ele>
        <time>2021-03-31T11:09:28+02:00</time>
      </trkpt>
      <trkpt lat="44.01576" lon="5.6824">
        <ele>634</ele>
        <time>2021-03-31T11:09:31+02:00</time>
      </trkpt>
      <trkpt lat="44.01591" lon="5.68232">
        <ele>636</ele>
        <time>2021-03-31T11:09:34+02:00</time>
      </trkpt>
      <trkpt lat="44.01606" lon="5.6822">
        <ele>638</ele>
        <time>2021-03-31T11:09:37+02:00</time>
      </trkpt>
      <trkpt lat="44.0162" lon="5.68207">
        <ele>638</ele>
        <time>2021-03-31T11:09:40+02:00</time>
      </trkpt>
      <trkpt lat="44.01634" lon="5.68193">
        <ele>639</ele>
        <time>2021-03-31T11:09:43+02:00</time>
      </trkpt>
      <trkpt lat="44.01649" lon="5.68179">
        <ele>638</ele>
        <time>2021-03-31T11:09:46+02:00</time>
      </trkpt>
      <trkpt lat="44.01663" lon="5.68167">
        <ele>639</ele>
        <time>2021-03-31T11:09:49+02:00</time>
      </trkpt>
      <trkpt lat="44.01676" lon="5.68158">
        <ele>640</ele>
        <time>2021-03-31T11:09:52+02:00</time>
      </trkpt>
      <trkpt lat="44.0169" lon="5.68154">
        <ele>640</ele>
        <time>2021-03-31T11:09:55+02:00</time>
      </trkpt>
      <trkpt lat="44.01705" lon="5.68153">
        <ele>639</ele>
        <time>2021-03-31T11:09:59+02:00</time>
      </trkpt>
      <trkpt lat="44.0172" lon="5.68155">
        <ele>638</ele>
        <time>2021-03-31T11:10:04+02:00</time>
      </trkpt>
      <trkpt lat="44.01735" lon="5.68157">
        <ele>638</ele>
        <time>2021-03-31T11:10:09+02:00</time>
      </trkpt>
      <trkpt lat="44.0175" lon="5.68158">
        <ele>637</ele>
        <time>2021-03-31T11:10:14+02:00</time>
      </trkpt>
      <trkpt lat="44.01764" lon="5.68158">
        <ele>635</ele>
        <time>2021-03-31T11:10:19+02:00</time>
      </trkpt>
      <trkpt lat="44.01778" lon="5.6816">
        <ele>635</ele>
        <time>2021-03-31T11:10:24+02:00</time>
      </trkpt>
      <trkpt lat="44.01793" lon="5.6816">
        <ele>635</ele>
        <time>2021-03-31T11:10:29+02:00</time>
      </trkpt>
      <trkpt lat="44.01807" lon="5.6816">
        <ele>635</ele>
        <time>2021-03-31T11:10:34+02:00</time>
      </trkpt>
      <trkpt lat="44.01822" lon="5.68159">
        <ele>634</ele>
        <time>2021-03-31T11:10:40+02:00</time>
      </trkpt>
      <trkpt lat="44.01837" lon="5.68154">
        <ele>635</ele>
        <time>2021-03-31T11:10:46+02:00</time>
      </trkpt>
      <trkpt lat="44.01851" lon="5.68152">
        <ele>635</ele>
        <time>2021-03-31T11:10:52+02:00</time>
      </trkpt>
      <trkpt lat="44.01866" lon="5.68147">
        <ele>634</ele>
        <time>2021-03-31T11:10:58+02:00</time>
      </trkpt>
      <trkpt lat="44.01881" lon="5.68142">
        <ele>636</ele>
        <time>2021-03-31T11:11:04+02:00</time>
      </trkpt>
      <trkpt lat="44.01896" lon="5.68134">
        <ele>640</ele>
        <time>2021-03-31T11:11:10+02:00</time>
      </trkpt>
      <trkpt lat="44.01909" lon="5.68122">
        <ele>645</ele>
        <time>2021-03-31T11:11:16+02:00</time>
      </trkpt>
      <trkpt lat="44.01921" lon="5.6811">
        <ele>645</ele>
        <time>2021-03-31T11:11:21+02:00</time>
      </trkpt>
      <trkpt lat="44.01933" lon="5.68098">
        <ele>647</ele>
        <time>2021-03-31T11:11:26+02:00</time>
      </trkpt>
      <trkpt lat="44.01946" lon="5.68087">
        <ele>648</ele>
        <time>2021-03-31T11:11:31+02:00</time>
      </trkpt>
      <trkpt lat="44.01961" lon="5.68077">
        <ele>647</ele>
        <time>2021-03-31T11:11:36+02:00</time>
      </trkpt>
      <trkpt lat="44.01976" lon="5.68067">
        <ele>645</ele>
        <time>2021-03-31T11:11:41+02:00</time>
      </trkpt>
      <trkpt lat="44.0199" lon="5.68059">
        <ele>646</ele>
        <time>2021-03-31T11:11:45+02:00</time>
      </trkpt>
      <trkpt lat="44.02003" lon="5.6805">
        <ele>647</ele>
        <time>2021-03-31T11:11:49+02:00</time>
      </trkpt>
      <trkpt lat="44.02017" lon="5.68041">
        <ele>647</ele>
        <time>2021-03-31T11:11:53+02:00</time>
      </trkpt>
      <trkpt lat="44.02031" lon="5.68034">
        <ele>649</ele>
        <time>2021-03-31T11:11:57+02:00</time>
      </trkpt>
      <trkpt lat="44.02044" lon="5.68026">
        <ele>651</ele>
        <time>2021-03-31T11:12:01+02:00</time>
      </trkpt>
      <trkpt lat="44.02057" lon="5.68018">
        <ele>653</ele>
        <time>2021-03-31T11:12:05+02:00</time>
      </trkpt>
      <trkpt lat="44.0207" lon="5.68011">
        <ele>652</ele>
        <time>2021-03-31T11:12:09+02:00</time>
      </trkpt>
      <trkpt lat="44.02084" lon="5.68006">
        <ele>649</ele>
        <time>2021-03-31T11:12:13+02:00</time>
      </trkpt>
      <trkpt lat="44.021" lon="5.68004">
        <ele>649</ele>
        <time>2021-03-31T11:12:17+02:00</time>
      </trkpt>
      <trkpt lat="44.02115" lon="5.68003">
        <ele>649</ele>
        <time>2021-03-31T11:12:21+02:00</time>
      </trkpt>
      <trkpt lat="44.02131" lon="5.68002">
        <ele>648</ele>
        <time>2021-03-31T11:12:25+02:00</time>
      </trkpt>
      <trkpt lat="44.02147" lon="5.68001">
        <ele>648</ele>
        <time>2021-03-31T11:12:29+02:00</time>
      </trkpt>
      <trkpt lat="44.02162" lon="5.68">
        <ele>649</ele>
        <time>2021-03-31T11:12:33+02:00</time>
      </trkpt>
      <trkpt lat="44.02179" lon="5.68">
        <ele>648</ele>
        <time>2021-03-31T11:12:37+02:00</time>
      </trkpt>
      <trkpt lat="44.02192" lon="5.67999">
        <ele>648</ele>
        <time>2021-03-31T11:12:40+02:00</time>
      </trkpt>
      <trkpt lat="44.0221" lon="5.67998">
        <ele>649</ele>
        <time>2021-03-31T11:12:44+02:00</time>
      </trkpt>
      <trkpt lat="44.02228" lon="5.67999">
        <ele>650</ele>
        <time>2021-03-31T11:12:48+02:00</time>
      </trkpt>
      <trkpt lat="44.02245" lon="5.68">
        <ele>649</ele>
        <time>2021-03-31T11:12:52+02:00</time>
      </trkpt>
      <trkpt lat="44.02262" lon="5.68003">
        <ele>650</ele>
        <time>2021-03-31T11:12:56+02:00</time>
      </trkpt>
      <trkpt lat="44.02279" lon="5.68006">
        <ele>651</ele>
        <time>2021-03-31T11:13:00+02:00</time>
      </trkpt>
      <trkpt lat="44.02296" lon="5.6801">
        <ele>651</ele>
        <time>2021-03-31T11:13:04+02:00</time>
      </trkpt>
      <trkpt lat="44.02313" lon="5.68014">
        <ele>652</ele>
        <time>2021-03-31T11:13:08+02:00</time>
      </trkpt>
      <trkpt lat="44.0233" lon="5.68018">
        <ele>653</ele>
        <time>2021-03-31T11:13:12+02:00</time>
      </trkpt>
      <trkpt lat="44.02347" lon="5.68023">
        <ele>653</ele>
        <time>2021-03-31T11:13:16+02:00</time>
      </trkpt>
      <trkpt lat="44.02364" lon="5.68028">
        <ele>654</ele>
        <time>2021-03-31T11:13:20+02:00</time>
      </trkpt>
      <trkpt lat="44.02381" lon="5.68032">
        <ele>654</ele>
        <time>2021-03-31T11:13:24+02:00</time>
      </trkpt>
      <trkpt lat="44.02398" lon="5.68037">
        <ele>655</ele>
        <time>2021-03-31T11:13:28+02:00</time>
      </trkpt>
      <trkpt lat="44.02415" lon="5.68041">
        <ele>652</ele>
        <time>2021-03-31T11:13:32+02:00</time>
      </trkpt>
      <trkpt lat="44.02432" lon="5.68045">
        <ele>652</ele>
        <time>2021-03-31T11:13:36+02:00</time>
      </trkpt>
      <trkpt lat="44.0245" lon="5.6805">
        <ele>652</ele>
        <time>2021-03-31T11:13:40+02:00</time>
      </trkpt>
      <trkpt lat="44.02466" lon="5.68054">
        <ele>654</ele>
        <time>2021-03-31T11:13:44+02:00</time>
      </trkpt>
      <trkpt lat="44.02483" lon="5.68058">
        <ele>654</ele>
        <time>2021-03-31T11:13:48+02:00</time>
      </trkpt>
      <trkpt lat="44.02499" lon="5.68062">
        <ele>655</ele>
        <time>2021-03-31T11:13:52+02:00</time>
      </trkpt>
      <trkpt lat="44.02515" lon="5.68065">
        <ele>655</ele>
        <time>2021-03-31T11:13:56+02:00</time>
      </trkpt>
      <trkpt lat="44.02532" lon="5.6807">
        <ele>655</ele>
        <time>2021-03-31T11:14:00+02:00</time>
      </trkpt>
      <trkpt lat="44.02548" lon="5.68073">
        <ele>656</ele>
        <time>2021-03-31T11:14:04+02:00</time>
      </trkpt>
      <trkpt lat="44.02564" lon="5.68077">
        <ele>656</ele>
        <time>2021-03-31T11:14:08+02:00</time>
      </trkpt>
      <trkpt lat="44.0258" lon="5.68082">
        <ele>657</ele>
        <time>2021-03-31T11:14:12+02:00</time>
      </trkpt>
      <trkpt lat="44.02597" lon="5.68088">
        <ele>658</ele>
        <time>2021-03-31T11:14:16+02:00</time>
      </trkpt>
      <trkpt lat="44.02614" lon="5.68093">
        <ele>658</ele>
        <time>2021-03-31T11:14:20+02:00</time>
      </trkpt>
      <trkpt lat="44.0263" lon="5.68096">
        <ele>658</ele>
        <time>2021-03-31T11:14:24+02:00</time>
      </trkpt>
      <trkpt lat="44.02647" lon="5.68102">
        <ele>659</ele>
        <time>2021-03-31T11:14:28+02:00</time>
      </trkpt>
      <trkpt lat="44.02664" lon="5.68107">
        <ele>656</ele>
        <time>2021-03-31T11:14:32+02:00</time>
      </trkpt>
      <trkpt lat="44.02681" lon="5.6811">
        <ele>656</ele>
        <time>2021-03-31T11:14:36+02:00</time>
      </trkpt>
      <trkpt lat="44.02698" lon="5.68114">
        <ele>656</ele>
        <time>2021-03-31T11:14:40+02:00</time>
      </trkpt>
      <trkpt lat="44.02715" lon="5.68118">
        <ele>658</ele>
        <time>2021-03-31T11:14:44+02:00</time>
      </trkpt>
      <trkpt lat="44.02731" lon="5.68122">
        <ele>659</ele>
        <time>2021-03-31T11:14:48+02:00</time>
      </trkpt>
      <trkpt lat="44.02748" lon="5.68128">
        <ele>660</ele>
        <time>2021-03-31T11:14:52+02:00</time>
      </trkpt>
      <trkpt lat="44.02765" lon="5.68133">
        <ele>662</ele>
        <time>2021-03-31T11:14:56+02:00</time>
      </trkpt>
      <trkpt lat="44.02782" lon="5.68137">
        <ele>660</ele>
        <time>2021-03-31T11:15:00+02:00</time>
      </trkpt>
      <trkpt lat="44.02798" lon="5.68142">
        <ele>660</ele>
        <time>2021-03-31T11:15:04+02:00</time>
      </trkpt>
      <trkpt lat="44.02815" lon="5.68146">
        <ele>659</ele>
        <time>2021-03-31T11:15:08+02:00</time>
      </trkpt>
      <trkpt lat="44.02832" lon="5.68151">
        <ele>659</ele>
        <time>2021-03-31T11:15:12+02:00</time>
      </trkpt>
      <trkpt lat="44.02848" lon="5.68155">
        <ele>660</ele>
        <time>2021-03-31T11:15:16+02:00</time>
      </trkpt>
      <trkpt lat="44.02865" lon="5.68156">
        <ele>659</ele>
        <time>2021-03-31T11:15:20+02:00</time>
      </trkpt>
      <trkpt lat="44.02878" lon="5.68151">
        <ele>659</ele>
        <time>2021-03-31T11:15:23+02:00</time>
      </trkpt>
      <trkpt lat="44.0289" lon="5.68141">
        <ele>659</ele>
        <time>2021-03-31T11:15:26+02:00</time>
      </trkpt>
      <trkpt lat="44.02902" lon="5.68123">
        <ele>660</ele>
        <time>2021-03-31T11:15:30+02:00</time>
      </trkpt>
      <trkpt lat="44.02911" lon="5.68102">
        <ele>661</ele>
        <time>2021-03-31T11:15:34+02:00</time>
      </trkpt>
      <trkpt lat="44.02921" lon="5.68082">
        <ele>663</ele>
        <time>2021-03-31T11:15:38+02:00</time>
      </trkpt>
      <trkpt lat="44.0293" lon="5.68062">
        <ele>663</ele>
        <time>2021-03-31T11:15:42+02:00</time>
      </trkpt>
      <trkpt lat="44.02939" lon="5.68044">
        <ele>662</ele>
        <time>2021-03-31T11:15:46+02:00</time>
      </trkpt>
      <trkpt lat="44.02948" lon="5.68024">
        <ele>661</ele>
        <time>2021-03-31T11:15:50+02:00</time>
      </trkpt>
      <trkpt lat="44.02957" lon="5.68004">
        <ele>661</ele>
        <time>2021-03-31T11:15:54+02:00</time>
      </trkpt>
      <trkpt lat="44.02968" lon="5.67986">
        <ele>662</ele>
        <time>2021-03-31T11:15:58+02:00</time>
      </trkpt>
      <trkpt lat="44.0298" lon="5.6797">
        <ele>662</ele>
        <time>2021-03-31T11:16:02+02:00</time>
      </trkpt>
      <trkpt lat="44.02992" lon="5.67955">
        <ele>663</ele>
        <time>2021-03-31T11:16:06+02:00</time>
      </trkpt>
      <trkpt lat="44.03004" lon="5.67942">
        <ele>664</ele>
        <time>2021-03-31T11:16:10+02:00</time>
      </trkpt>
      <trkpt lat="44.03016" lon="5.67929">
        <ele>664</ele>
        <time>2021-03-31T11:16:14+02:00</time>
      </trkpt>
      <trkpt lat="44.03028" lon="5.67916">
        <ele>664</ele>
        <time>2021-03-31T11:16:18+02:00</time>
      </trkpt>
      <trkpt lat="44.03039" lon="5.67901">
        <ele>664</ele>
        <time>2021-03-31T11:16:22+02:00</time>
      </trkpt>
      <trkpt lat="44.0305" lon="5.67889">
        <ele>664</ele>
        <time>2021-03-31T11:16:26+02:00</time>
      </trkpt>
      <trkpt lat="44.03062" lon="5.67876">
        <ele>663</ele>
        <time>2021-03-31T11:16:30+02:00</time>
      </trkpt>
      <trkpt lat="44.03075" lon="5.67862">
        <ele>661</ele>
        <time>2021-03-31T11:16:34+02:00</time>
      </trkpt>
      <trkpt lat="44.03087" lon="5.67848">
        <ele>662</ele>
        <time>2021-03-31T11:16:38+02:00</time>
      </trkpt>
      <trkpt lat="44.03099" lon="5.67833">
        <ele>664</ele>
        <time>2021-03-31T11:16:42+02:00</time>
      </trkpt>
      <trkpt lat="44.03111" lon="5.67819">
        <ele>664</ele>
        <time>2021-03-31T11:16:46+02:00</time>
      </trkpt>
      <trkpt lat="44.03124" lon="5.67807">
        <ele>665</ele>
        <time>2021-03-31T11:16:50+02:00</time>
      </trkpt>
      <trkpt lat="44.03137" lon="5.67795">
        <ele>665</ele>
        <time>2021-03-31T11:16:54+02:00</time>
      </trkpt>
      <trkpt lat="44.03151" lon="5.67784">
        <ele>666</ele>
        <time>2021-03-31T11:16:58+02:00</time>
      </trkpt>
      <trkpt lat="44.03164" lon="5.67772">
        <ele>666</ele>
        <time>2021-03-31T11:17:02+02:00</time>
      </trkpt>
      <trkpt lat="44.03177" lon="5.67759">
        <ele>665</ele>
        <time>2021-03-31T11:17:06+02:00</time>
      </trkpt>
      <trkpt lat="44.0319" lon="5.67749">
        <ele>664</ele>
        <time>2021-03-31T11:17:10+02:00</time>
      </trkpt>
      <trkpt lat="44.03203" lon="5.67739">
        <ele>662</ele>
        <time>2021-03-31T11:17:14+02:00</time>
      </trkpt>
      <trkpt lat="44.03216" lon="5.67728">
        <ele>663</ele>
        <time>2021-03-31T11:17:18+02:00</time>
      </trkpt>
      <trkpt lat="44.03229" lon="5.67716">
        <ele>665</ele>
        <time>2021-03-31T11:17:22+02:00</time>
      </trkpt>
      <trkpt lat="44.03242" lon="5.67704">
        <ele>666</ele>
        <time>2021-03-31T11:17:26+02:00</time>
      </trkpt>
      <trkpt lat="44.03254" lon="5.67694">
        <ele>668</ele>
        <time>2021-03-31T11:17:30+02:00</time>
      </trkpt>
      <trkpt lat="44.03267" lon="5.67683">
        <ele>668</ele>
        <time>2021-03-31T11:17:34+02:00</time>
      </trkpt>
      <trkpt lat="44.03279" lon="5.67671">
        <ele>670</ele>
        <time>2021-03-31T11:17:38+02:00</time>
      </trkpt>
      <trkpt lat="44.03289" lon="5.67657">
        <ele>671</ele>
        <time>2021-03-31T11:17:42+02:00</time>
      </trkpt>
      <trkpt lat="44.03298" lon="5.67641">
        <ele>673</ele>
        <time>2021-03-31T11:17:46+02:00</time>
      </trkpt>
      <trkpt lat="44.03306" lon="5.67624">
        <ele>672</ele>
        <time>2021-03-31T11:17:50+02:00</time>
      </trkpt>
      <trkpt lat="44.03314" lon="5.67608">
        <ele>670</ele>
        <time>2021-03-31T11:17:54+02:00</time>
      </trkpt>
      <trkpt lat="44.03321" lon="5.6759">
        <ele>671</ele>
        <time>2021-03-31T11:17:58+02:00</time>
      </trkpt>
      <trkpt lat="44.03328" lon="5.6757">
        <ele>672</ele>
        <time>2021-03-31T11:18:02+02:00</time>
      </trkpt>
      <trkpt lat="44.03335" lon="5.67551">
        <ele>673</ele>
        <time>2021-03-31T11:18:06+02:00</time>
      </trkpt>
      <trkpt lat="44.03341" lon="5.67531">
        <ele>674</ele>
        <time>2021-03-31T11:18:10+02:00</time>
      </trkpt>
      <trkpt lat="44.03349" lon="5.67512">
        <ele>674</ele>
        <time>2021-03-31T11:18:14+02:00</time>
      </trkpt>
      <trkpt lat="44.03356" lon="5.67494">
        <ele>674</ele>
        <time>2021-03-31T11:18:18+02:00</time>
      </trkpt>
      <trkpt lat="44.03363" lon="5.67474">
        <ele>675</ele>
        <time>2021-03-31T11:18:22+02:00</time>
      </trkpt>
      <trkpt lat="44.03371" lon="5.67454">
        <ele>675</ele>
        <time>2021-03-31T11:18:26+02:00</time>
      </trkpt>
      <trkpt lat="44.03382" lon="5.67441">
        <ele>674</ele>
        <time>2021-03-31T11:18:30+02:00</time>
      </trkpt>
      <trkpt lat="44.03396" lon="5.67428">
        <ele>673</ele>
        <time>2021-03-31T11:18:34+02:00</time>
      </trkpt>
      <trkpt lat="44.0341" lon="5.67415">
        <ele>673</ele>
        <time>2021-03-31T11:18:38+02:00</time>
      </trkpt>
      <trkpt lat="44.03423" lon="5.67404">
        <ele>673</ele>
        <time>2021-03-31T11:18:42+02:00</time>
      </trkpt>
      <trkpt lat="44.03436" lon="5.67392">
        <ele>673</ele>
        <time>2021-03-31T11:18:46+02:00</time>
      </trkpt>
      <trkpt lat="44.03448" lon="5.67382">
        <ele>672</ele>
        <time>2021-03-31T11:18:50+02:00</time>
      </trkpt>
      <trkpt lat="44.0346" lon="5.6737">
        <ele>671</ele>
        <time>2021-03-31T11:18:54+02:00</time>
      </trkpt>
      <trkpt lat="44.03474" lon="5.6736">
        <ele>671</ele>
        <time>2021-03-31T11:18:58+02:00</time>
      </trkpt>
      <trkpt lat="44.03488" lon="5.6735">
        <ele>673</ele>
        <time>2021-03-31T11:19:02+02:00</time>
      </trkpt>
      <trkpt lat="44.035" lon="5.67337">
        <ele>677</ele>
        <time>2021-03-31T11:19:06+02:00</time>
      </trkpt>
      <trkpt lat="44.03512" lon="5.67324">
        <ele>679</ele>
        <time>2021-03-31T11:19:10+02:00</time>
      </trkpt>
      <trkpt lat="44.0352" lon="5.67307">
        <ele>679</ele>
        <time>2021-03-31T11:19:14+02:00</time>
      </trkpt>
      <trkpt lat="44.03527" lon="5.67288">
        <ele>679</ele>
        <time>2021-03-31T11:19:18+02:00</time>
      </trkpt>
      <trkpt lat="44.03532" lon="5.67269">
        <ele>680</ele>
        <time>2021-03-31T11:19:22+02:00</time>
      </trkpt>
      <trkpt lat="44.03536" lon="5.67248">
        <ele>679</ele>
        <time>2021-03-31T11:19:26+02:00</time>
      </trkpt>
      <trkpt lat="44.03541" lon="5.67229">
        <ele>678</ele>
        <time>2021-03-31T11:19:30+02:00</time>
      </trkpt>
      <trkpt lat="44.03545" lon="5.67209">
        <ele>679</ele>
        <time>2021-03-31T11:19:34+02:00</time>
      </trkpt>
      <trkpt lat="44.0355" lon="5.67189">
        <ele>679</ele>
        <time>2021-03-31T11:19:38+02:00</time>
      </trkpt>
      <trkpt lat="44.03555" lon="5.6717">
        <ele>679</ele>
        <time>2021-03-31T11:19:42+02:00</time>
      </trkpt>
      <trkpt lat="44.0356" lon="5.6715">
        <ele>680</ele>
        <time>2021-03-31T11:19:46+02:00</time>
      </trkpt>
      <trkpt lat="44.03567" lon="5.67129">
        <ele>681</ele>
        <time>2021-03-31T11:19:50+02:00</time>
      </trkpt>
      <trkpt lat="44.03577" lon="5.6711">
        <ele>680</ele>
        <time>2021-03-31T11:19:54+02:00</time>
      </trkpt>
      <trkpt lat="44.03588" lon="5.67096">
        <ele>680</ele>
        <time>2021-03-31T11:19:58+02:00</time>
      </trkpt>
      <trkpt lat="44.036" lon="5.67082">
        <ele>680</ele>
        <time>2021-03-31T11:20:02+02:00</time>
      </trkpt>
      <trkpt lat="44.03613" lon="5.67067">
        <ele>681</ele>
        <time>2021-03-31T11:20:06+02:00</time>
      </trkpt>
      <trkpt lat="44.03625" lon="5.67053">
        <ele>682</ele>
        <time>2021-03-31T11:20:10+02:00</time>
      </trkpt>
      <trkpt lat="44.03637" lon="5.67041">
        <ele>684</ele>
        <time>2021-03-31T11:20:14+02:00</time>
      </trkpt>
      <trkpt lat="44.03649" lon="5.67032">
        <ele>683</ele>
        <time>2021-03-31T11:20:18+02:00</time>
      </trkpt>
      <trkpt lat="44.03663" lon="5.6702">
        <ele>682</ele>
        <time>2021-03-31T11:20:22+02:00</time>
      </trkpt>
      <trkpt lat="44.03677" lon="5.67008">
        <ele>680</ele>
        <time>2021-03-31T11:20:26+02:00</time>
      </trkpt>
      <trkpt lat="44.03692" lon="5.67001">
        <ele>680</ele>
        <time>2021-03-31T11:20:30+02:00</time>
      </trkpt>
      <trkpt lat="44.03707" lon="5.66999">
        <ele>680</ele>
        <time>2021-03-31T11:20:34+02:00</time>
      </trkpt>
      <trkpt lat="44.03724" lon="5.66998">
        <ele>682</ele>
        <time>2021-03-31T11:20:38+02:00</time>
      </trkpt>
      <trkpt lat="44.0374" lon="5.67">
        <ele>680</ele>
        <time>2021-03-31T11:20:42+02:00</time>
      </trkpt>
      <trkpt lat="44.03757" lon="5.67004">
        <ele>682</ele>
        <time>2021-03-31T11:20:46+02:00</time>
      </trkpt>
      <trkpt lat="44.0377" lon="5.67006">
        <ele>681</ele>
        <time>2021-03-31T11:20:49+02:00</time>
      </trkpt>
      <trkpt lat="44.03786" lon="5.67009">
        <ele>681</ele>
        <time>2021-03-31T11:20:53+02:00</time>
      </trkpt>
      <trkpt lat="44.038" lon="5.67012">
        <ele>682</ele>
        <time>2021-03-31T11:20:57+02:00</time>
      </trkpt>
      <trkpt lat="44.03815" lon="5.67014">
        <ele>684</ele>
        <time>2021-03-31T11:21:01+02:00</time>
      </trkpt>
      <trkpt lat="44.0383" lon="5.67012">
        <ele>685</ele>
        <time>2021-03-31T11:21:05+02:00</time>
      </trkpt>
      <trkpt lat="44.03844" lon="5.67006">
        <ele>683</ele>
        <time>2021-03-31T11:21:09+02:00</time>
      </trkpt>
      <trkpt lat="44.03859" lon="5.66997">
        <ele>683</ele>
        <time>2021-03-31T11:21:13+02:00</time>
      </trkpt>
      <trkpt lat="44.03874" lon="5.6699">
        <ele>683</ele>
        <time>2021-03-31T11:21:17+02:00</time>
      </trkpt>
      <trkpt lat="44.03888" lon="5.6698">
        <ele>682</ele>
        <time>2021-03-31T11:21:21+02:00</time>
      </trkpt>
      <trkpt lat="44.03902" lon="5.6697">
        <ele>681</ele>
        <time>2021-03-31T11:21:25+02:00</time>
      </trkpt>
      <trkpt lat="44.03918" lon="5.66961">
        <ele>681</ele>
        <time>2021-03-31T11:21:29+02:00</time>
      </trkpt>
      <trkpt lat="44.03932" lon="5.66952">
        <ele>682</ele>
        <time>2021-03-31T11:21:33+02:00</time>
      </trkpt>
      <trkpt lat="44.03947" lon="5.66942">
        <ele>682</ele>
        <time>2021-03-31T11:21:37+02:00</time>
      </trkpt>
      <trkpt lat="44.03959" lon="5.66932">
        <ele>684</ele>
        <time>2021-03-31T11:21:40+02:00</time>
      </trkpt>
      <trkpt lat="44.03975" lon="5.6692">
        <ele>686</ele>
        <time>2021-03-31T11:21:44+02:00</time>
      </trkpt>
      <trkpt lat="44.03986" lon="5.66909">
        <ele>689</ele>
        <time>2021-03-31T11:21:47+02:00</time>
      </trkpt>
      <trkpt lat="44.03998" lon="5.66898">
        <ele>691</ele>
        <time>2021-03-31T11:21:50+02:00</time>
      </trkpt>
      <trkpt lat="44.04014" lon="5.66888">
        <ele>692</ele>
        <time>2021-03-31T11:21:54+02:00</time>
      </trkpt>
      <trkpt lat="44.04032" lon="5.66883">
        <ele>690</ele>
        <time>2021-03-31T11:21:58+02:00</time>
      </trkpt>
      <trkpt lat="44.04049" lon="5.66881">
        <ele>687</ele>
        <time>2021-03-31T11:22:02+02:00</time>
      </trkpt>
      <trkpt lat="44.04065" lon="5.66879">
        <ele>690</ele>
        <time>2021-03-31T11:22:06+02:00</time>
      </trkpt>
      <trkpt lat="44.04083" lon="5.66879">
        <ele>694</ele>
        <time>2021-03-31T11:22:10+02:00</time>
      </trkpt>
      <trkpt lat="44.041" lon="5.66878">
        <ele>695</ele>
        <time>2021-03-31T11:22:14+02:00</time>
      </trkpt>
      <trkpt lat="44.04117" lon="5.66876">
        <ele>695</ele>
        <time>2021-03-31T11:22:18+02:00</time>
      </trkpt>
      <trkpt lat="44.04133" lon="5.66875">
        <ele>694</ele>
        <time>2021-03-31T11:22:22+02:00</time>
      </trkpt>
      <trkpt lat="44.0415" lon="5.66875">
        <ele>692</ele>
        <time>2021-03-31T11:22:26+02:00</time>
      </trkpt>
      <trkpt lat="44.04166" lon="5.66877">
        <ele>690</ele>
        <time>2021-03-31T11:22:30+02:00</time>
      </trkpt>
      <trkpt lat="44.0418" lon="5.66881">
        <ele>689</ele>
        <time>2021-03-31T11:22:33+02:00</time>
      </trkpt>
      <trkpt lat="44.04197" lon="5.66884">
        <ele>688</ele>
        <time>2021-03-31T11:22:37+02:00</time>
      </trkpt>
      <trkpt lat="44.04214" lon="5.66888">
        <ele>687</ele>
        <time>2021-03-31T11:22:41+02:00</time>
      </trkpt>
      <trkpt lat="44.04229" lon="5.66892">
        <ele>687</ele>
        <time>2021-03-31T11:22:45+02:00</time>
      </trkpt>
      <trkpt lat="44.04246" lon="5.66894">
        <ele>687</ele>
        <time>2021-03-31T11:22:49+02:00</time>
      </trkpt>
      <trkpt lat="44.04263" lon="5.66896">
        <ele>686</ele>
        <time>2021-03-31T11:22:53+02:00</time>
      </trkpt>
      <trkpt lat="44.04279" lon="5.669">
        <ele>687</ele>
        <time>2021-03-31T11:22:57+02:00</time>
      </trkpt>
      <trkpt lat="44.04295" lon="5.66906">
        <ele>688</ele>
        <time>2021-03-31T11:23:01+02:00</time>
      </trkpt>
      <trkpt lat="44.0431" lon="5.66909">
        <ele>687</ele>
        <time>2021-03-31T11:23:04+02:00</time>
      </trkpt>
      <trkpt lat="44.04324" lon="5.66913">
        <ele>686</ele>
        <time>2021-03-31T11:23:07+02:00</time>
      </trkpt>
      <trkpt lat="44.0434" lon="5.66914">
        <ele>687</ele>
        <time>2021-03-31T11:23:11+02:00</time>
      </trkpt>
      <trkpt lat="44.04355" lon="5.66912">
        <ele>691</ele>
        <time>2021-03-31T11:23:15+02:00</time>
      </trkpt>
      <trkpt lat="44.04371" lon="5.66906">
        <ele>691</ele>
        <time>2021-03-31T11:23:19+02:00</time>
      </trkpt>
      <trkpt lat="44.04387" lon="5.66896">
        <ele>693</ele>
        <time>2021-03-31T11:23:23+02:00</time>
      </trkpt>
      <trkpt lat="44.04399" lon="5.66883">
        <ele>695</ele>
        <time>2021-03-31T11:23:27+02:00</time>
      </trkpt>
      <trkpt lat="44.0441" lon="5.66867">
        <ele>696</ele>
        <time>2021-03-31T11:23:31+02:00</time>
      </trkpt>
      <trkpt lat="44.04421" lon="5.6685">
        <ele>699</ele>
        <time>2021-03-31T11:23:35+02:00</time>
      </trkpt>
      <trkpt lat="44.0443" lon="5.66833">
        <ele>699</ele>
        <time>2021-03-31T11:23:39+02:00</time>
      </trkpt>
      <trkpt lat="44.04439" lon="5.66815">
        <ele>699</ele>
        <time>2021-03-31T11:23:43+02:00</time>
      </trkpt>
      <trkpt lat="44.04447" lon="5.66796">
        <ele>698</ele>
        <time>2021-03-31T11:23:47+02:00</time>
      </trkpt>
      <trkpt lat="44.04454" lon="5.66774">
        <ele>699</ele>
        <time>2021-03-31T11:23:51+02:00</time>
      </trkpt>
      <trkpt lat="44.04458" lon="5.66753">
        <ele>700</ele>
        <time>2021-03-31T11:23:55+02:00</time>
      </trkpt>
      <trkpt lat="44.04463" lon="5.66732">
        <ele>701</ele>
        <time>2021-03-31T11:23:59+02:00</time>
      </trkpt>
      <trkpt lat="44.04466" lon="5.6671">
        <ele>702</ele>
        <time>2021-03-31T11:24:03+02:00</time>
      </trkpt>
      <trkpt lat="44.04468" lon="5.66687">
        <ele>703</ele>
        <time>2021-03-31T11:24:07+02:00</time>
      </trkpt>
      <trkpt lat="44.04469" lon="5.66665">
        <ele>703</ele>
        <time>2021-03-31T11:24:11+02:00</time>
      </trkpt>
      <trkpt lat="44.04468" lon="5.66645">
        <ele>703</ele>
        <time>2021-03-31T11:24:15+02:00</time>
      </trkpt>
      <trkpt lat="44.04466" lon="5.66625">
        <ele>702</ele>
        <time>2021-03-31T11:24:19+02:00</time>
      </trkpt>
      <trkpt lat="44.04462" lon="5.66606">
        <ele>701</ele>
        <time>2021-03-31T11:24:23+02:00</time>
      </trkpt>
      <trkpt lat="44.04458" lon="5.66587">
        <ele>701</ele>
        <time>2021-03-31T11:24:27+02:00</time>
      </trkpt>
      <trkpt lat="44.04453" lon="5.66566">
        <ele>702</ele>
        <time>2021-03-31T11:24:32+02:00</time>
      </trkpt>
      <trkpt lat="44.04449" lon="5.66546">
        <ele>702</ele>
        <time>2021-03-31T11:24:37+02:00</time>
      </trkpt>
      <trkpt lat="44.0445" lon="5.66526">
        <ele>705</ele>
        <time>2021-03-31T11:24:43+02:00</time>
      </trkpt>
      <trkpt lat="44.04461" lon="5.66539">
        <ele>706</ele>
        <time>2021-03-31T11:24:52+02:00</time>
      </trkpt>
      <trkpt lat="44.0447" lon="5.66554">
        <ele>705</ele>
        <time>2021-03-31T11:25:02+02:00</time>
      </trkpt>
      <trkpt lat="44.04479" lon="5.6657">
        <ele>704</ele>
        <time>2021-03-31T11:42:15+02:00</time>
      </trkpt>
      <trkpt lat="44.04489" lon="5.66584">
        <ele>705</ele>
        <time>2021-03-31T11:42:28+02:00</time>
      </trkpt>
      <trkpt lat="44.045" lon="5.66597">
        <ele>708</ele>
        <time>2021-03-31T11:42:40+02:00</time>
      </trkpt>
      <trkpt lat="44.04513" lon="5.66605">
        <ele>711</ele>
        <time>2021-03-31T11:42:51+02:00</time>
      </trkpt>
      <trkpt lat="44.04526" lon="5.66614">
        <ele>715</ele>
        <time>2021-03-31T11:43:05+02:00</time>
      </trkpt>
      <trkpt lat="44.0454" lon="5.66618">
        <ele>719</ele>
        <time>2021-03-31T11:43:16+02:00</time>
      </trkpt>
      <trkpt lat="44.04553" lon="5.66621">
        <ele>720</ele>
        <time>2021-03-31T11:43:28+02:00</time>
      </trkpt>
      <trkpt lat="44.04567" lon="5.66624">
        <ele>723</ele>
        <time>2021-03-31T11:43:40+02:00</time>
      </trkpt>
      <trkpt lat="44.04581" lon="5.66628">
        <ele>720</ele>
        <time>2021-03-31T11:43:53+02:00</time>
      </trkpt>
      <trkpt lat="44.04595" lon="5.66629">
        <ele>721</ele>
        <time>2021-03-31T11:44:04+02:00</time>
      </trkpt>
      <trkpt lat="44.04609" lon="5.66632">
        <ele>725</ele>
        <time>2021-03-31T11:44:14+02:00</time>
      </trkpt>
      <trkpt lat="44.04623" lon="5.66637">
        <ele>726</ele>
        <time>2021-03-31T11:44:26+02:00</time>
      </trkpt>
      <trkpt lat="44.04637" lon="5.66644">
        <ele>724</ele>
        <time>2021-03-31T11:44:36+02:00</time>
      </trkpt>
      <trkpt lat="44.04651" lon="5.66646">
        <ele>727</ele>
        <time>2021-03-31T11:44:47+02:00</time>
      </trkpt>
      <trkpt lat="44.04664" lon="5.66654">
        <ele>724</ele>
        <time>2021-03-31T11:44:57+02:00</time>
      </trkpt>
      <trkpt lat="44.04679" lon="5.66659">
        <ele>727</ele>
        <time>2021-03-31T11:45:08+02:00</time>
      </trkpt>
      <trkpt lat="44.04692" lon="5.66666">
        <ele>727</ele>
        <time>2021-03-31T11:45:17+02:00</time>
      </trkpt>
      <trkpt lat="44.04706" lon="5.66672">
        <ele>729</ele>
        <time>2021-03-31T11:45:26+02:00</time>
      </trkpt>
      <trkpt lat="44.0472" lon="5.66676">
        <ele>731</ele>
        <time>2021-03-31T11:45:34+02:00</time>
      </trkpt>
      <trkpt lat="44.04735" lon="5.66681">
        <ele>734</ele>
        <time>2021-03-31T11:45:42+02:00</time>
      </trkpt>
      <trkpt lat="44.04749" lon="5.66688">
        <ele>733</ele>
        <time>2021-03-31T11:45:50+02:00</time>
      </trkpt>
      <trkpt lat="44.04762" lon="5.66694">
        <ele>734</ele>
        <time>2021-03-31T11:45:57+02:00</time>
      </trkpt>
      <trkpt lat="44.04775" lon="5.667">
        <ele>736</ele>
        <time>2021-03-31T11:46:04+02:00</time>
      </trkpt>
      <trkpt lat="44.04788" lon="5.66706">
        <ele>736</ele>
        <time>2021-03-31T11:46:11+02:00</time>
      </trkpt>
      <trkpt lat="44.04801" lon="5.66712">
        <ele>737</ele>
        <time>2021-03-31T11:46:18+02:00</time>
      </trkpt>
      <trkpt lat="44.04815" lon="5.66717">
        <ele>736</ele>
        <time>2021-03-31T11:47:33+02:00</time>
      </trkpt>
      <trkpt lat="44.0483" lon="5.66724">
        <ele>736</ele>
        <time>2021-03-31T11:47:39+02:00</time>
      </trkpt>
      <trkpt lat="44.04845" lon="5.6673">
        <ele>736</ele>
        <time>2021-03-31T11:47:45+02:00</time>
      </trkpt>
      <trkpt lat="44.04858" lon="5.66736">
        <ele>738</ele>
        <time>2021-03-31T11:47:51+02:00</time>
      </trkpt>
      <trkpt lat="44.04873" lon="5.66742">
        <ele>738</ele>
        <time>2021-03-31T11:47:57+02:00</time>
      </trkpt>
      <trkpt lat="44.04886" lon="5.66748">
        <ele>736</ele>
        <time>2021-03-31T11:48:03+02:00</time>
      </trkpt>
      <trkpt lat="44.049" lon="5.66754">
        <ele>736</ele>
        <time>2021-03-31T11:48:09+02:00</time>
      </trkpt>
      <trkpt lat="44.04915" lon="5.6676">
        <ele>736</ele>
        <time>2021-03-31T11:48:15+02:00</time>
      </trkpt>
      <trkpt lat="44.04929" lon="5.66766">
        <ele>737</ele>
        <time>2021-03-31T11:50:19+02:00</time>
      </trkpt>
      <trkpt lat="44.04942" lon="5.66772">
        <ele>738</ele>
        <time>2021-03-31T11:50:26+02:00</time>
      </trkpt>
      <trkpt lat="44.04955" lon="5.66779">
        <ele>740</ele>
        <time>2021-03-31T11:50:31+02:00</time>
      </trkpt>
      <trkpt lat="44.04968" lon="5.66784">
        <ele>741</ele>
        <time>2021-03-31T11:50:35+02:00</time>
      </trkpt>
      <trkpt lat="44.04983" lon="5.6679">
        <ele>740</ele>
        <time>2021-03-31T11:50:39+02:00</time>
      </trkpt>
      <trkpt lat="44.04997" lon="5.66796">
        <ele>741</ele>
        <time>2021-03-31T11:50:43+02:00</time>
      </trkpt>
      <trkpt lat="44.05013" lon="5.66804">
        <ele>742</ele>
        <time>2021-03-31T11:50:47+02:00</time>
      </trkpt>
      <trkpt lat="44.05029" lon="5.66811">
        <ele>742</ele>
        <time>2021-03-31T11:50:51+02:00</time>
      </trkpt>
      <trkpt lat="44.05045" lon="5.66818">
        <ele>743</ele>
        <time>2021-03-31T11:50:55+02:00</time>
      </trkpt>
      <trkpt lat="44.0506" lon="5.66825">
        <ele>742</ele>
        <time>2021-03-31T11:50:59+02:00</time>
      </trkpt>
      <trkpt lat="44.05076" lon="5.66833">
        <ele>742</ele>
        <time>2021-03-31T11:51:03+02:00</time>
      </trkpt>
      <trkpt lat="44.05088" lon="5.6684">
        <ele>742</ele>
        <time>2021-03-31T11:51:06+02:00</time>
      </trkpt>
      <trkpt lat="44.05102" lon="5.66846">
        <ele>741</ele>
        <time>2021-03-31T11:51:09+02:00</time>
      </trkpt>
      <trkpt lat="44.05117" lon="5.66853">
        <ele>741</ele>
        <time>2021-03-31T11:51:12+02:00</time>
      </trkpt>
      <trkpt lat="44.05131" lon="5.6686">
        <ele>741</ele>
        <time>2021-03-31T11:51:15+02:00</time>
      </trkpt>
      <trkpt lat="44.05146" lon="5.66867">
        <ele>741</ele>
        <time>2021-03-31T11:51:18+02:00</time>
      </trkpt>
      <trkpt lat="44.05161" lon="5.66875">
        <ele>742</ele>
        <time>2021-03-31T11:51:21+02:00</time>
      </trkpt>
      <trkpt lat="44.05176" lon="5.66883">
        <ele>742</ele>
        <time>2021-03-31T11:51:24+02:00</time>
      </trkpt>
      <trkpt lat="44.05191" lon="5.66891">
        <ele>742</ele>
        <time>2021-03-31T11:51:27+02:00</time>
      </trkpt>
      <trkpt lat="44.05205" lon="5.66898">
        <ele>742</ele>
        <time>2021-03-31T11:51:30+02:00</time>
      </trkpt>
      <trkpt lat="44.05221" lon="5.66905">
        <ele>742</ele>
        <time>2021-03-31T11:51:33+02:00</time>
      </trkpt>
      <trkpt lat="44.05235" lon="5.66913">
        <ele>741</ele>
        <time>2021-03-31T11:51:36+02:00</time>
      </trkpt>
      <trkpt lat="44.05249" lon="5.6692">
        <ele>743</ele>
        <time>2021-03-31T11:51:39+02:00</time>
      </trkpt>
      <trkpt lat="44.05262" lon="5.66926">
        <ele>743</ele>
        <time>2021-03-31T11:51:42+02:00</time>
      </trkpt>
      <trkpt lat="44.05278" lon="5.66934">
        <ele>742</ele>
        <time>2021-03-31T11:51:46+02:00</time>
      </trkpt>
      <trkpt lat="44.05293" lon="5.66943">
        <ele>743</ele>
        <time>2021-03-31T11:51:50+02:00</time>
      </trkpt>
      <trkpt lat="44.05307" lon="5.6695">
        <ele>744</ele>
        <time>2021-03-31T11:51:54+02:00</time>
      </trkpt>
      <trkpt lat="44.0532" lon="5.66957">
        <ele>744</ele>
        <time>2021-03-31T11:51:58+02:00</time>
      </trkpt>
      <trkpt lat="44.05333" lon="5.66964">
        <ele>744</ele>
        <time>2021-03-31T11:52:02+02:00</time>
      </trkpt>
      <trkpt lat="44.05346" lon="5.66969">
        <ele>744</ele>
        <time>2021-03-31T11:52:06+02:00</time>
      </trkpt>
      <trkpt lat="44.05359" lon="5.66976">
        <ele>745</ele>
        <time>2021-03-31T11:52:10+02:00</time>
      </trkpt>
      <trkpt lat="44.05376" lon="5.66982">
        <ele>745</ele>
        <time>2021-03-31T11:52:15+02:00</time>
      </trkpt>
      <trkpt lat="44.05392" lon="5.66987">
        <ele>745</ele>
        <time>2021-03-31T11:52:20+02:00</time>
      </trkpt>
      <trkpt lat="44.05406" lon="5.6699">
        <ele>746</ele>
        <time>2021-03-31T11:52:24+02:00</time>
      </trkpt>
      <trkpt lat="44.0542" lon="5.66994">
        <ele>745</ele>
        <time>2021-03-31T11:52:28+02:00</time>
      </trkpt>
      <trkpt lat="44.05434" lon="5.66996">
        <ele>746</ele>
        <time>2021-03-31T11:52:32+02:00</time>
      </trkpt>
      <trkpt lat="44.05449" lon="5.66999">
        <ele>746</ele>
        <time>2021-03-31T11:52:36+02:00</time>
      </trkpt>
      <trkpt lat="44.05462" lon="5.67003">
        <ele>747</ele>
        <time>2021-03-31T11:52:40+02:00</time>
      </trkpt>
      <trkpt lat="44.05477" lon="5.67007">
        <ele>747</ele>
        <time>2021-03-31T11:52:44+02:00</time>
      </trkpt>
      <trkpt lat="44.05492" lon="5.67009">
        <ele>747</ele>
        <time>2021-03-31T11:52:48+02:00</time>
      </trkpt>
      <trkpt lat="44.05507" lon="5.67011">
        <ele>747</ele>
        <time>2021-03-31T11:52:52+02:00</time>
      </trkpt>
      <trkpt lat="44.05524" lon="5.67012">
        <ele>747</ele>
        <time>2021-03-31T11:52:56+02:00</time>
      </trkpt>
      <trkpt lat="44.05537" lon="5.67011">
        <ele>747</ele>
        <time>2021-03-31T11:52:59+02:00</time>
      </trkpt>
      <trkpt lat="44.05552" lon="5.6701">
        <ele>748</ele>
        <time>2021-03-31T11:53:02+02:00</time>
      </trkpt>
      <trkpt lat="44.05567" lon="5.67008">
        <ele>748</ele>
        <time>2021-03-31T11:53:05+02:00</time>
      </trkpt>
      <trkpt lat="44.05581" lon="5.67005">
        <ele>748</ele>
        <time>2021-03-31T11:53:08+02:00</time>
      </trkpt>
      <trkpt lat="44.05596" lon="5.67003">
        <ele>748</ele>
        <time>2021-03-31T11:53:11+02:00</time>
      </trkpt>
      <trkpt lat="44.05612" lon="5.67">
        <ele>749</ele>
        <time>2021-03-31T11:53:14+02:00</time>
      </trkpt>
      <trkpt lat="44.05629" lon="5.66998">
        <ele>749</ele>
        <time>2021-03-31T11:53:17+02:00</time>
      </trkpt>
      <trkpt lat="44.05644" lon="5.66996">
        <ele>749</ele>
        <time>2021-03-31T11:53:20+02:00</time>
      </trkpt>
      <trkpt lat="44.0566" lon="5.66993">
        <ele>749</ele>
        <time>2021-03-31T11:53:23+02:00</time>
      </trkpt>
      <trkpt lat="44.05676" lon="5.66992">
        <ele>749</ele>
        <time>2021-03-31T11:53:26+02:00</time>
      </trkpt>
      <trkpt lat="44.05692" lon="5.6699">
        <ele>749</ele>
        <time>2021-03-31T11:53:29+02:00</time>
      </trkpt>
      <trkpt lat="44.05707" lon="5.66987">
        <ele>748</ele>
        <time>2021-03-31T11:53:32+02:00</time>
      </trkpt>
      <trkpt lat="44.05724" lon="5.66985">
        <ele>749</ele>
        <time>2021-03-31T11:53:35+02:00</time>
      </trkpt>
      <trkpt lat="44.0574" lon="5.66982">
        <ele>750</ele>
        <time>2021-03-31T11:53:38+02:00</time>
      </trkpt>
      <trkpt lat="44.05756" lon="5.66979">
        <ele>749</ele>
        <time>2021-03-31T11:53:41+02:00</time>
      </trkpt>
      <trkpt lat="44.05773" lon="5.66977">
        <ele>750</ele>
        <time>2021-03-31T11:53:44+02:00</time>
      </trkpt>
      <trkpt lat="44.05789" lon="5.66971">
        <ele>750</ele>
        <time>2021-03-31T11:53:47+02:00</time>
      </trkpt>
      <trkpt lat="44.05804" lon="5.66963">
        <ele>749</ele>
        <time>2021-03-31T11:53:50+02:00</time>
      </trkpt>
      <trkpt lat="44.05819" lon="5.66954">
        <ele>749</ele>
        <time>2021-03-31T11:53:53+02:00</time>
      </trkpt>
      <trkpt lat="44.05833" lon="5.66945">
        <ele>749</ele>
        <time>2021-03-31T11:53:56+02:00</time>
      </trkpt>
      <trkpt lat="44.05849" lon="5.66936">
        <ele>749</ele>
        <time>2021-03-31T11:53:59+02:00</time>
      </trkpt>
      <trkpt lat="44.05864" lon="5.66927">
        <ele>750</ele>
        <time>2021-03-31T11:54:02+02:00</time>
      </trkpt>
      <trkpt lat="44.05877" lon="5.66919">
        <ele>750</ele>
        <time>2021-03-31T11:54:05+02:00</time>
      </trkpt>
      <trkpt lat="44.05891" lon="5.66911">
        <ele>750</ele>
        <time>2021-03-31T11:54:08+02:00</time>
      </trkpt>
      <trkpt lat="44.05903" lon="5.66904">
        <ele>750</ele>
        <time>2021-03-31T11:54:11+02:00</time>
      </trkpt>
      <trkpt lat="44.05919" lon="5.66895">
        <ele>751</ele>
        <time>2021-03-31T11:54:15+02:00</time>
      </trkpt>
      <trkpt lat="44.05934" lon="5.66885">
        <ele>752</ele>
        <time>2021-03-31T11:54:19+02:00</time>
      </trkpt>
      <trkpt lat="44.05948" lon="5.66876">
        <ele>752</ele>
        <time>2021-03-31T11:54:23+02:00</time>
      </trkpt>
      <trkpt lat="44.05961" lon="5.66868">
        <ele>752</ele>
        <time>2021-03-31T11:54:27+02:00</time>
      </trkpt>
      <trkpt lat="44.05974" lon="5.66861">
        <ele>753</ele>
        <time>2021-03-31T11:54:31+02:00</time>
      </trkpt>
      <trkpt lat="44.05986" lon="5.66853">
        <ele>754</ele>
        <time>2021-03-31T11:54:35+02:00</time>
      </trkpt>
      <trkpt lat="44.06001" lon="5.66844">
        <ele>753</ele>
        <time>2021-03-31T11:54:40+02:00</time>
      </trkpt>
      <trkpt lat="44.06014" lon="5.66838">
        <ele>754</ele>
        <time>2021-03-31T11:54:44+02:00</time>
      </trkpt>
      <trkpt lat="44.06028" lon="5.66829">
        <ele>754</ele>
        <time>2021-03-31T11:54:49+02:00</time>
      </trkpt>
      <trkpt lat="44.06042" lon="5.6682">
        <ele>755</ele>
        <time>2021-03-31T11:54:56+02:00</time>
      </trkpt>
      <trkpt lat="44.06055" lon="5.66812">
        <ele>756</ele>
        <time>2021-03-31T11:55:03+02:00</time>
      </trkpt>
      <trkpt lat="44.06069" lon="5.66803">
        <ele>757</ele>
        <time>2021-03-31T11:55:11+02:00</time>
      </trkpt>
      <trkpt lat="44.06083" lon="5.66796">
        <ele>757</ele>
        <time>2021-03-31T11:55:16+02:00</time>
      </trkpt>
      <trkpt lat="44.06097" lon="5.66788">
        <ele>757</ele>
        <time>2021-03-31T11:55:21+02:00</time>
      </trkpt>
      <trkpt lat="44.06111" lon="5.66778">
        <ele>757</ele>
        <time>2021-03-31T11:55:26+02:00</time>
      </trkpt>
      <trkpt lat="44.06123" lon="5.66768">
        <ele>758</ele>
        <time>2021-03-31T11:55:31+02:00</time>
      </trkpt>
      <trkpt lat="44.06135" lon="5.66756">
        <ele>759</ele>
        <time>2021-03-31T11:55:36+02:00</time>
      </trkpt>
      <trkpt lat="44.06148" lon="5.66743">
        <ele>760</ele>
        <time>2021-03-31T11:55:41+02:00</time>
      </trkpt>
      <trkpt lat="44.06161" lon="5.66732">
        <ele>761</ele>
        <time>2021-03-31T11:55:46+02:00</time>
      </trkpt>
      <trkpt lat="44.06173" lon="5.6672">
        <ele>761</ele>
        <time>2021-03-31T11:55:51+02:00</time>
      </trkpt>
      <trkpt lat="44.06186" lon="5.66708">
        <ele>762</ele>
        <time>2021-03-31T11:55:56+02:00</time>
      </trkpt>
      <trkpt lat="44.06198" lon="5.66695">
        <ele>762</ele>
        <time>2021-03-31T11:56:01+02:00</time>
      </trkpt>
      <trkpt lat="44.06212" lon="5.66683">
        <ele>763</ele>
        <time>2021-03-31T11:56:06+02:00</time>
      </trkpt>
      <trkpt lat="44.06224" lon="5.66672">
        <ele>764</ele>
        <time>2021-03-31T11:56:11+02:00</time>
      </trkpt>
      <trkpt lat="44.06236" lon="5.66661">
        <ele>765</ele>
        <time>2021-03-31T11:56:17+02:00</time>
      </trkpt>
      <trkpt lat="44.06249" lon="5.66649">
        <ele>765</ele>
        <time>2021-03-31T11:56:23+02:00</time>
      </trkpt>
      <trkpt lat="44.06262" lon="5.66636">
        <ele>766</ele>
        <time>2021-03-31T11:56:29+02:00</time>
      </trkpt>
      <trkpt lat="44.06276" lon="5.66624">
        <ele>766</ele>
        <time>2021-03-31T11:56:35+02:00</time>
      </trkpt>
      <trkpt lat="44.06289" lon="5.66612">
        <ele>766</ele>
        <time>2021-03-31T11:56:41+02:00</time>
      </trkpt>
      <trkpt lat="44.06302" lon="5.66599">
        <ele>767</ele>
        <time>2021-03-31T11:56:47+02:00</time>
      </trkpt>
      <trkpt lat="44.06314" lon="5.66586">
        <ele>767</ele>
        <time>2021-03-31T11:56:53+02:00</time>
      </trkpt>
      <trkpt lat="44.06328" lon="5.66573">
        <ele>769</ele>
        <time>2021-03-31T11:56:59+02:00</time>
      </trkpt>
      <trkpt lat="44.06338" lon="5.66561">
        <ele>770</ele>
        <time>2021-03-31T11:57:04+02:00</time>
      </trkpt>
      <trkpt lat="44.06349" lon="5.66548">
        <ele>770</ele>
        <time>2021-03-31T11:57:09+02:00</time>
      </trkpt>
      <trkpt lat="44.0636" lon="5.66536">
        <ele>770</ele>
        <time>2021-03-31T11:57:14+02:00</time>
      </trkpt>
      <trkpt lat="44.0637" lon="5.66524">
        <ele>770</ele>
        <time>2021-03-31T11:57:19+02:00</time>
      </trkpt>
      <trkpt lat="44.06381" lon="5.66512">
        <ele>771</ele>
        <time>2021-03-31T11:57:24+02:00</time>
      </trkpt>
      <trkpt lat="44.06392" lon="5.66499">
        <ele>771</ele>
        <time>2021-03-31T11:57:29+02:00</time>
      </trkpt>
      <trkpt lat="44.06402" lon="5.66487">
        <ele>772</ele>
        <time>2021-03-31T11:57:34+02:00</time>
      </trkpt>
      <trkpt lat="44.06415" lon="5.66473">
        <ele>773</ele>
        <time>2021-03-31T11:57:40+02:00</time>
      </trkpt>
      <trkpt lat="44.06427" lon="5.66458">
        <ele>774</ele>
        <time>2021-03-31T11:57:46+02:00</time>
      </trkpt>
      <trkpt lat="44.06438" lon="5.66446">
        <ele>774</ele>
        <time>2021-03-31T11:57:51+02:00</time>
      </trkpt>
      <trkpt lat="44.06449" lon="5.66434">
        <ele>775</ele>
        <time>2021-03-31T11:57:56+02:00</time>
      </trkpt>
      <trkpt lat="44.06459" lon="5.66422">
        <ele>776</ele>
        <time>2021-03-31T11:58:01+02:00</time>
      </trkpt>
      <trkpt lat="44.06471" lon="5.66409">
        <ele>777</ele>
        <time>2021-03-31T11:58:07+02:00</time>
      </trkpt>
      <trkpt lat="44.06483" lon="5.66399">
        <ele>779</ele>
        <time>2021-03-31T11:58:14+02:00</time>
      </trkpt>
      <trkpt lat="44.06498" lon="5.66405">
        <ele>779</ele>
        <time>2021-03-31T12:00:20+02:00</time>
      </trkpt>
      <trkpt lat="44.0651" lon="5.66417">
        <ele>779</ele>
        <time>2021-03-31T12:00:26+02:00</time>
      </trkpt>
      <trkpt lat="44.06525" lon="5.66429">
        <ele>780</ele>
        <time>2021-03-31T12:00:31+02:00</time>
      </trkpt>
      <trkpt lat="44.06538" lon="5.66439">
        <ele>781</ele>
        <time>2021-03-31T12:00:35+02:00</time>
      </trkpt>
      <trkpt lat="44.0655" lon="5.6645">
        <ele>781</ele>
        <time>2021-03-31T12:00:39+02:00</time>
      </trkpt>
      <trkpt lat="44.06562" lon="5.66461">
        <ele>781</ele>
        <time>2021-03-31T12:00:43+02:00</time>
      </trkpt>
      <trkpt lat="44.06575" lon="5.66472">
        <ele>782</ele>
        <time>2021-03-31T12:00:47+02:00</time>
      </trkpt>
      <trkpt lat="44.06588" lon="5.66483">
        <ele>781</ele>
        <time>2021-03-31T12:00:51+02:00</time>
      </trkpt>
      <trkpt lat="44.06602" lon="5.66494">
        <ele>781</ele>
        <time>2021-03-31T12:00:55+02:00</time>
      </trkpt>
      <trkpt lat="44.06617" lon="5.66506">
        <ele>782</ele>
        <time>2021-03-31T12:00:59+02:00</time>
      </trkpt>
      <trkpt lat="44.06632" lon="5.66519">
        <ele>782</ele>
        <time>2021-03-31T12:01:03+02:00</time>
      </trkpt>
      <trkpt lat="44.06645" lon="5.66531">
        <ele>781</ele>
        <time>2021-03-31T12:01:07+02:00</time>
      </trkpt>
      <trkpt lat="44.0666" lon="5.66544">
        <ele>781</ele>
        <time>2021-03-31T12:01:11+02:00</time>
      </trkpt>
      <trkpt lat="44.06672" lon="5.66553">
        <ele>782</ele>
        <time>2021-03-31T12:01:14+02:00</time>
      </trkpt>
      <trkpt lat="44.06686" lon="5.66565">
        <ele>782</ele>
        <time>2021-03-31T12:01:18+02:00</time>
      </trkpt>
      <trkpt lat="44.06701" lon="5.66577">
        <ele>781</ele>
        <time>2021-03-31T12:01:22+02:00</time>
      </trkpt>
      <trkpt lat="44.06714" lon="5.6659">
        <ele>782</ele>
        <time>2021-03-31T12:01:26+02:00</time>
      </trkpt>
      <trkpt lat="44.06727" lon="5.66602">
        <ele>782</ele>
        <time>2021-03-31T12:01:30+02:00</time>
      </trkpt>
      <trkpt lat="44.06739" lon="5.66616">
        <ele>782</ele>
        <time>2021-03-31T12:01:34+02:00</time>
      </trkpt>
      <trkpt lat="44.06752" lon="5.66629">
        <ele>784</ele>
        <time>2021-03-31T12:01:38+02:00</time>
      </trkpt>
      <trkpt lat="44.06762" lon="5.66643">
        <ele>784</ele>
        <time>2021-03-31T12:01:42+02:00</time>
      </trkpt>
      <trkpt lat="44.06773" lon="5.66658">
        <ele>786</ele>
        <time>2021-03-31T12:01:46+02:00</time>
      </trkpt>
      <trkpt lat="44.06785" lon="5.66673">
        <ele>786</ele>
        <time>2021-03-31T12:01:50+02:00</time>
      </trkpt>
      <trkpt lat="44.06796" lon="5.66689">
        <ele>786</ele>
        <time>2021-03-31T12:01:54+02:00</time>
      </trkpt>
      <trkpt lat="44.06809" lon="5.66706">
        <ele>786</ele>
        <time>2021-03-31T12:01:58+02:00</time>
      </trkpt>
      <trkpt lat="44.06822" lon="5.66722">
        <ele>786</ele>
        <time>2021-03-31T12:02:02+02:00</time>
      </trkpt>
      <trkpt lat="44.06832" lon="5.66736">
        <ele>786</ele>
        <time>2021-03-31T12:02:05+02:00</time>
      </trkpt>
      <trkpt lat="44.06843" lon="5.6675">
        <ele>786</ele>
        <time>2021-03-31T12:02:08+02:00</time>
      </trkpt>
      <trkpt lat="44.06855" lon="5.66767">
        <ele>786</ele>
        <time>2021-03-31T12:02:11+02:00</time>
      </trkpt>
      <trkpt lat="44.06868" lon="5.66783">
        <ele>786</ele>
        <time>2021-03-31T12:02:14+02:00</time>
      </trkpt>
      <trkpt lat="44.06879" lon="5.66799">
        <ele>786</ele>
        <time>2021-03-31T12:02:17+02:00</time>
      </trkpt>
      <trkpt lat="44.06891" lon="5.66813">
        <ele>786</ele>
        <time>2021-03-31T12:02:20+02:00</time>
      </trkpt>
      <trkpt lat="44.06901" lon="5.66826">
        <ele>786</ele>
        <time>2021-03-31T12:02:23+02:00</time>
      </trkpt>
      <trkpt lat="44.06913" lon="5.66842">
        <ele>786</ele>
        <time>2021-03-31T12:02:27+02:00</time>
      </trkpt>
      <trkpt lat="44.06925" lon="5.66859">
        <ele>786</ele>
        <time>2021-03-31T12:02:31+02:00</time>
      </trkpt>
      <trkpt lat="44.06938" lon="5.66875">
        <ele>786</ele>
        <time>2021-03-31T12:02:35+02:00</time>
      </trkpt>
      <trkpt lat="44.06949" lon="5.66887">
        <ele>785</ele>
        <time>2021-03-31T12:02:38+02:00</time>
      </trkpt>
      <trkpt lat="44.06959" lon="5.669">
        <ele>786</ele>
        <time>2021-03-31T12:02:41+02:00</time>
      </trkpt>
      <trkpt lat="44.0697" lon="5.66913">
        <ele>786</ele>
        <time>2021-03-31T12:02:44+02:00</time>
      </trkpt>
      <trkpt lat="44.06981" lon="5.66926">
        <ele>786</ele>
        <time>2021-03-31T12:02:47+02:00</time>
      </trkpt>
      <trkpt lat="44.06993" lon="5.6694">
        <ele>786</ele>
        <time>2021-03-31T12:02:50+02:00</time>
      </trkpt>
      <trkpt lat="44.07005" lon="5.66954">
        <ele>786</ele>
        <time>2021-03-31T12:02:53+02:00</time>
      </trkpt>
      <trkpt lat="44.07018" lon="5.66968">
        <ele>786</ele>
        <time>2021-03-31T12:02:56+02:00</time>
      </trkpt>
      <trkpt lat="44.0703" lon="5.66983">
        <ele>786</ele>
        <time>2021-03-31T12:02:59+02:00</time>
      </trkpt>
      <trkpt lat="44.07042" lon="5.66997">
        <ele>786</ele>
        <time>2021-03-31T12:03:02+02:00</time>
      </trkpt>
      <trkpt lat="44.07053" lon="5.67011">
        <ele>786</ele>
        <time>2021-03-31T12:03:05+02:00</time>
      </trkpt>
      <trkpt lat="44.07064" lon="5.67026">
        <ele>786</ele>
        <time>2021-03-31T12:03:08+02:00</time>
      </trkpt>
      <trkpt lat="44.07075" lon="5.67039">
        <ele>786</ele>
        <time>2021-03-31T12:03:11+02:00</time>
      </trkpt>
      <trkpt lat="44.07086" lon="5.67052">
        <ele>786</ele>
        <time>2021-03-31T12:03:14+02:00</time>
      </trkpt>
      <trkpt lat="44.07097" lon="5.67064">
        <ele>787</ele>
        <time>2021-03-31T12:03:17+02:00</time>
      </trkpt>
      <trkpt lat="44.0711" lon="5.67075">
        <ele>787</ele>
        <time>2021-03-31T12:03:20+02:00</time>
      </trkpt>
      <trkpt lat="44.07125" lon="5.67084">
        <ele>787</ele>
        <time>2021-03-31T12:03:23+02:00</time>
      </trkpt>
      <trkpt lat="44.07142" lon="5.67092">
        <ele>785</ele>
        <time>2021-03-31T12:03:26+02:00</time>
      </trkpt>
      <trkpt lat="44.07162" lon="5.67101">
        <ele>784</ele>
        <time>2021-03-31T12:03:29+02:00</time>
      </trkpt>
      <trkpt lat="44.07174" lon="5.67108">
        <ele>784</ele>
        <time>2021-03-31T12:03:31+02:00</time>
      </trkpt>
      <trkpt lat="44.07191" lon="5.67121">
        <ele>784</ele>
        <time>2021-03-31T12:03:34+02:00</time>
      </trkpt>
      <trkpt lat="44.07206" lon="5.67136">
        <ele>784</ele>
        <time>2021-03-31T12:03:37+02:00</time>
      </trkpt>
      <trkpt lat="44.07218" lon="5.67152">
        <ele>785</ele>
        <time>2021-03-31T12:03:40+02:00</time>
      </trkpt>
      <trkpt lat="44.07229" lon="5.67167">
        <ele>785</ele>
        <time>2021-03-31T12:03:43+02:00</time>
      </trkpt>
      <trkpt lat="44.07238" lon="5.67182">
        <ele>787</ele>
        <time>2021-03-31T12:03:46+02:00</time>
      </trkpt>
      <trkpt lat="44.07249" lon="5.67201">
        <ele>788</ele>
        <time>2021-03-31T12:03:50+02:00</time>
      </trkpt>
      <trkpt lat="44.07259" lon="5.67218">
        <ele>788</ele>
        <time>2021-03-31T12:03:54+02:00</time>
      </trkpt>
      <trkpt lat="44.07267" lon="5.67234">
        <ele>789</ele>
        <time>2021-03-31T12:03:58+02:00</time>
      </trkpt>
      <trkpt lat="44.07276" lon="5.6725">
        <ele>789</ele>
        <time>2021-03-31T12:04:03+02:00</time>
      </trkpt>
      <trkpt lat="44.07283" lon="5.67267">
        <ele>790</ele>
        <time>2021-03-31T12:04:08+02:00</time>
      </trkpt>
      <trkpt lat="44.07288" lon="5.67286">
        <ele>790</ele>
        <time>2021-03-31T12:04:14+02:00</time>
      </trkpt>
      <trkpt lat="44.07294" lon="5.67306">
        <ele>790</ele>
        <time>2021-03-31T12:04:20+02:00</time>
      </trkpt>
      <trkpt lat="44.07299" lon="5.67327">
        <ele>791</ele>
        <time>2021-03-31T12:04:26+02:00</time>
      </trkpt>
      <trkpt lat="44.07304" lon="5.67344">
        <ele>794</ele>
        <time>2021-03-31T12:04:31+02:00</time>
      </trkpt>
      <trkpt lat="44.07308" lon="5.67363">
        <ele>793</ele>
        <time>2021-03-31T12:04:36+02:00</time>
      </trkpt>
      <trkpt lat="44.07313" lon="5.67382">
        <ele>792</ele>
        <time>2021-03-31T12:04:41+02:00</time>
      </trkpt>
      <trkpt lat="44.07319" lon="5.67401">
        <ele>792</ele>
        <time>2021-03-31T12:04:46+02:00</time>
      </trkpt>
      <trkpt lat="44.07326" lon="5.67419">
        <ele>792</ele>
        <time>2021-03-31T12:04:50+02:00</time>
      </trkpt>
      <trkpt lat="44.07334" lon="5.67436">
        <ele>792</ele>
        <time>2021-03-31T12:04:54+02:00</time>
      </trkpt>
      <trkpt lat="44.07344" lon="5.67453">
        <ele>792</ele>
        <time>2021-03-31T12:04:58+02:00</time>
      </trkpt>
      <trkpt lat="44.07356" lon="5.67469">
        <ele>792</ele>
        <time>2021-03-31T12:05:02+02:00</time>
      </trkpt>
      <trkpt lat="44.07365" lon="5.67483">
        <ele>792</ele>
        <time>2021-03-31T12:05:05+02:00</time>
      </trkpt>
      <trkpt lat="44.07377" lon="5.675">
        <ele>792</ele>
        <time>2021-03-31T12:05:09+02:00</time>
      </trkpt>
      <trkpt lat="44.07388" lon="5.67515">
        <ele>792</ele>
        <time>2021-03-31T12:05:12+02:00</time>
      </trkpt>
      <trkpt lat="44.07399" lon="5.6753">
        <ele>793</ele>
        <time>2021-03-31T12:05:15+02:00</time>
      </trkpt>
      <trkpt lat="44.07409" lon="5.67545">
        <ele>792</ele>
        <time>2021-03-31T12:05:18+02:00</time>
      </trkpt>
      <trkpt lat="44.07419" lon="5.6756">
        <ele>792</ele>
        <time>2021-03-31T12:05:21+02:00</time>
      </trkpt>
      <trkpt lat="44.07431" lon="5.67576">
        <ele>792</ele>
        <time>2021-03-31T12:05:24+02:00</time>
      </trkpt>
      <trkpt lat="44.07443" lon="5.67592">
        <ele>792</ele>
        <time>2021-03-31T12:05:27+02:00</time>
      </trkpt>
      <trkpt lat="44.07456" lon="5.67607">
        <ele>792</ele>
        <time>2021-03-31T12:05:30+02:00</time>
      </trkpt>
      <trkpt lat="44.0747" lon="5.67618">
        <ele>792</ele>
        <time>2021-03-31T12:05:33+02:00</time>
      </trkpt>
      <trkpt lat="44.07485" lon="5.67628">
        <ele>792</ele>
        <time>2021-03-31T12:05:36+02:00</time>
      </trkpt>
      <trkpt lat="44.075" lon="5.67637">
        <ele>792</ele>
        <time>2021-03-31T12:05:39+02:00</time>
      </trkpt>
      <trkpt lat="44.07516" lon="5.67646">
        <ele>793</ele>
        <time>2021-03-31T12:05:42+02:00</time>
      </trkpt>
      <trkpt lat="44.07531" lon="5.67655">
        <ele>793</ele>
        <time>2021-03-31T12:05:45+02:00</time>
      </trkpt>
      <trkpt lat="44.07545" lon="5.67662">
        <ele>794</ele>
        <time>2021-03-31T12:05:48+02:00</time>
      </trkpt>
      <trkpt lat="44.0756" lon="5.6767">
        <ele>794</ele>
        <time>2021-03-31T12:05:51+02:00</time>
      </trkpt>
      <trkpt lat="44.07574" lon="5.67678">
        <ele>795</ele>
        <time>2021-03-31T12:05:54+02:00</time>
      </trkpt>
      <trkpt lat="44.07587" lon="5.67687">
        <ele>794</ele>
        <time>2021-03-31T12:05:57+02:00</time>
      </trkpt>
      <trkpt lat="44.07601" lon="5.67695">
        <ele>794</ele>
        <time>2021-03-31T12:06:00+02:00</time>
      </trkpt>
      <trkpt lat="44.07614" lon="5.67703">
        <ele>795</ele>
        <time>2021-03-31T12:06:03+02:00</time>
      </trkpt>
      <trkpt lat="44.0763" lon="5.67712">
        <ele>795</ele>
        <time>2021-03-31T12:06:07+02:00</time>
      </trkpt>
      <trkpt lat="44.07644" lon="5.67719">
        <ele>795</ele>
        <time>2021-03-31T12:06:11+02:00</time>
      </trkpt>
      <trkpt lat="44.07658" lon="5.67728">
        <ele>796</ele>
        <time>2021-03-31T12:06:16+02:00</time>
      </trkpt>
      <trkpt lat="44.07671" lon="5.67738">
        <ele>797</ele>
        <time>2021-03-31T12:06:21+02:00</time>
      </trkpt>
      <trkpt lat="44.07685" lon="5.67749">
        <ele>800</ele>
        <time>2021-03-31T12:06:27+02:00</time>
      </trkpt>
      <trkpt lat="44.07697" lon="5.6776">
        <ele>800</ele>
        <time>2021-03-31T12:06:34+02:00</time>
      </trkpt>
      <trkpt lat="44.07709" lon="5.6777">
        <ele>801</ele>
        <time>2021-03-31T12:06:41+02:00</time>
      </trkpt>
      <trkpt lat="44.07723" lon="5.67779">
        <ele>802</ele>
        <time>2021-03-31T12:06:48+02:00</time>
      </trkpt>
      <trkpt lat="44.07735" lon="5.67789">
        <ele>803</ele>
        <time>2021-03-31T12:06:54+02:00</time>
      </trkpt>
      <trkpt lat="44.07749" lon="5.67797">
        <ele>801</ele>
        <time>2021-03-31T12:07:00+02:00</time>
      </trkpt>
      <trkpt lat="44.07763" lon="5.67806">
        <ele>801</ele>
        <time>2021-03-31T12:07:06+02:00</time>
      </trkpt>
      <trkpt lat="44.07777" lon="5.67814">
        <ele>804</ele>
        <time>2021-03-31T12:07:12+02:00</time>
      </trkpt>
      <trkpt lat="44.0779" lon="5.67823">
        <ele>805</ele>
        <time>2021-03-31T12:07:18+02:00</time>
      </trkpt>
      <trkpt lat="44.07803" lon="5.67831">
        <ele>804</ele>
        <time>2021-03-31T12:07:24+02:00</time>
      </trkpt>
      <trkpt lat="44.07817" lon="5.67839">
        <ele>803</ele>
        <time>2021-03-31T12:07:30+02:00</time>
      </trkpt>
      <trkpt lat="44.07829" lon="5.67847">
        <ele>802</ele>
        <time>2021-03-31T12:07:36+02:00</time>
      </trkpt>
      <trkpt lat="44.07843" lon="5.67854">
        <ele>803</ele>
        <time>2021-03-31T12:07:42+02:00</time>
      </trkpt>
      <trkpt lat="44.07857" lon="5.67863">
        <ele>806</ele>
        <time>2021-03-31T12:07:49+02:00</time>
      </trkpt>
      <trkpt lat="44.0787" lon="5.67871">
        <ele>808</ele>
        <time>2021-03-31T12:07:55+02:00</time>
      </trkpt>
      <trkpt lat="44.07882" lon="5.67879">
        <ele>810</ele>
        <time>2021-03-31T12:08:01+02:00</time>
      </trkpt>
      <trkpt lat="44.07896" lon="5.67887">
        <ele>809</ele>
        <time>2021-03-31T12:08:08+02:00</time>
      </trkpt>
      <trkpt lat="44.0791" lon="5.67894">
        <ele>811</ele>
        <time>2021-03-31T12:08:15+02:00</time>
      </trkpt>
      <trkpt lat="44.07922" lon="5.67903">
        <ele>812</ele>
        <time>2021-03-31T12:08:22+02:00</time>
      </trkpt>
      <trkpt lat="44.07936" lon="5.67912">
        <ele>812</ele>
        <time>2021-03-31T12:08:30+02:00</time>
      </trkpt>
      <trkpt lat="44.07949" lon="5.67921">
        <ele>815</ele>
        <time>2021-03-31T12:08:37+02:00</time>
      </trkpt>
      <trkpt lat="44.07962" lon="5.67929">
        <ele>816</ele>
        <time>2021-03-31T12:08:44+02:00</time>
      </trkpt>
      <trkpt lat="44.07975" lon="5.67939">
        <ele>818</ele>
        <time>2021-03-31T12:08:51+02:00</time>
      </trkpt>
      <trkpt lat="44.07988" lon="5.67949">
        <ele>819</ele>
        <time>2021-03-31T12:08:58+02:00</time>
      </trkpt>
      <trkpt lat="44.08" lon="5.67959">
        <ele>820</ele>
        <time>2021-03-31T12:09:04+02:00</time>
      </trkpt>
      <trkpt lat="44.08011" lon="5.6797">
        <ele>820</ele>
        <time>2021-03-31T12:09:10+02:00</time>
      </trkpt>
      <trkpt lat="44.08024" lon="5.67982">
        <ele>821</ele>
        <time>2021-03-31T12:09:17+02:00</time>
      </trkpt>
      <trkpt lat="44.08037" lon="5.67992">
        <ele>819</ele>
        <time>2021-03-31T12:09:24+02:00</time>
      </trkpt>
      <trkpt lat="44.08048" lon="5.68004">
        <ele>822</ele>
        <time>2021-03-31T12:09:31+02:00</time>
      </trkpt>
      <trkpt lat="44.0806" lon="5.68016">
        <ele>824</ele>
        <time>2021-03-31T12:09:38+02:00</time>
      </trkpt>
      <trkpt lat="44.08072" lon="5.68029">
        <ele>824</ele>
        <time>2021-03-31T12:09:45+02:00</time>
      </trkpt>
      <trkpt lat="44.08084" lon="5.6804">
        <ele>825</ele>
        <time>2021-03-31T12:09:52+02:00</time>
      </trkpt>
      <trkpt lat="44.08096" lon="5.68052">
        <ele>826</ele>
        <time>2021-03-31T12:09:59+02:00</time>
      </trkpt>
      <trkpt lat="44.08108" lon="5.68065">
        <ele>827</ele>
        <time>2021-03-31T12:10:06+02:00</time>
      </trkpt>
      <trkpt lat="44.0812" lon="5.68077">
        <ele>827</ele>
        <time>2021-03-31T12:10:13+02:00</time>
      </trkpt>
      <trkpt lat="44.08131" lon="5.68089">
        <ele>828</ele>
        <time>2021-03-31T12:10:19+02:00</time>
      </trkpt>
      <trkpt lat="44.08142" lon="5.681">
        <ele>828</ele>
        <time>2021-03-31T12:10:25+02:00</time>
      </trkpt>
      <trkpt lat="44.08154" lon="5.68112">
        <ele>828</ele>
        <time>2021-03-31T12:10:32+02:00</time>
      </trkpt>
      <trkpt lat="44.08166" lon="5.68124">
        <ele>828</ele>
        <time>2021-03-31T12:10:39+02:00</time>
      </trkpt>
      <trkpt lat="44.08179" lon="5.68137">
        <ele>830</ele>
        <time>2021-03-31T12:10:46+02:00</time>
      </trkpt>
      <trkpt lat="44.08191" lon="5.6815">
        <ele>831</ele>
        <time>2021-03-31T12:10:53+02:00</time>
      </trkpt>
      <trkpt lat="44.08203" lon="5.68163">
        <ele>832</ele>
        <time>2021-03-31T12:11:00+02:00</time>
      </trkpt>
      <trkpt lat="44.08215" lon="5.68174">
        <ele>833</ele>
        <time>2021-03-31T12:11:06+02:00</time>
      </trkpt>
      <trkpt lat="44.08226" lon="5.68186">
        <ele>835</ele>
        <time>2021-03-31T12:11:12+02:00</time>
      </trkpt>
      <trkpt lat="44.08238" lon="5.68198">
        <ele>835</ele>
        <time>2021-03-31T12:11:19+02:00</time>
      </trkpt>
      <trkpt lat="44.0825" lon="5.68209">
        <ele>835</ele>
        <time>2021-03-31T12:11:25+02:00</time>
      </trkpt>
      <trkpt lat="44.08262" lon="5.68223">
        <ele>835</ele>
        <time>2021-03-31T12:11:32+02:00</time>
      </trkpt>
      <trkpt lat="44.08273" lon="5.68235">
        <ele>836</ele>
        <time>2021-03-31T12:11:38+02:00</time>
      </trkpt>
      <trkpt lat="44.08284" lon="5.68248">
        <ele>836</ele>
        <time>2021-03-31T12:11:44+02:00</time>
      </trkpt>
      <trkpt lat="44.08294" lon="5.6826">
        <ele>836</ele>
        <time>2021-03-31T12:11:50+02:00</time>
      </trkpt>
      <trkpt lat="44.08306" lon="5.68273">
        <ele>837</ele>
        <time>2021-03-31T12:11:56+02:00</time>
      </trkpt>
      <trkpt lat="44.08318" lon="5.68286">
        <ele>839</ele>
        <time>2021-03-31T12:12:03+02:00</time>
      </trkpt>
      <trkpt lat="44.08328" lon="5.68299">
        <ele>840</ele>
        <time>2021-03-31T12:12:10+02:00</time>
      </trkpt>
      <trkpt lat="44.0834" lon="5.68313">
        <ele>842</ele>
        <time>2021-03-31T12:12:17+02:00</time>
      </trkpt>
      <trkpt lat="44.08351" lon="5.68328">
        <ele>843</ele>
        <time>2021-03-31T12:12:24+02:00</time>
      </trkpt>
      <trkpt lat="44.08363" lon="5.68341">
        <ele>844</ele>
        <time>2021-03-31T12:12:31+02:00</time>
      </trkpt>
      <trkpt lat="44.08375" lon="5.68354">
        <ele>844</ele>
        <time>2021-03-31T12:12:37+02:00</time>
      </trkpt>
      <trkpt lat="44.08385" lon="5.68367">
        <ele>845</ele>
        <time>2021-03-31T12:12:44+02:00</time>
      </trkpt>
      <trkpt lat="44.08397" lon="5.68382">
        <ele>844</ele>
        <time>2021-03-31T12:12:51+02:00</time>
      </trkpt>
      <trkpt lat="44.08407" lon="5.68395">
        <ele>846</ele>
        <time>2021-03-31T12:12:57+02:00</time>
      </trkpt>
      <trkpt lat="44.08418" lon="5.68408">
        <ele>846</ele>
        <time>2021-03-31T12:13:03+02:00</time>
      </trkpt>
      <trkpt lat="44.08428" lon="5.68422">
        <ele>845</ele>
        <time>2021-03-31T12:13:09+02:00</time>
      </trkpt>
      <trkpt lat="44.08438" lon="5.68435">
        <ele>846</ele>
        <time>2021-03-31T12:13:15+02:00</time>
      </trkpt>
      <trkpt lat="44.08449" lon="5.68447">
        <ele>847</ele>
        <time>2021-03-31T12:13:21+02:00</time>
      </trkpt>
      <trkpt lat="44.0846" lon="5.6846">
        <ele>847</ele>
        <time>2021-03-31T12:13:27+02:00</time>
      </trkpt>
      <trkpt lat="44.08471" lon="5.68474">
        <ele>848</ele>
        <time>2021-03-31T12:13:33+02:00</time>
      </trkpt>
      <trkpt lat="44.0848" lon="5.6849">
        <ele>847</ele>
        <time>2021-03-31T12:13:39+02:00</time>
      </trkpt>
      <trkpt lat="44.0849" lon="5.68507">
        <ele>847</ele>
        <time>2021-03-31T12:13:46+02:00</time>
      </trkpt>
      <trkpt lat="44.08498" lon="5.68523">
        <ele>846</ele>
        <time>2021-03-31T12:13:52+02:00</time>
      </trkpt>
      <trkpt lat="44.08506" lon="5.68538">
        <ele>847</ele>
        <time>2021-03-31T12:13:58+02:00</time>
      </trkpt>
      <trkpt lat="44.08516" lon="5.68555">
        <ele>849</ele>
        <time>2021-03-31T12:14:05+02:00</time>
      </trkpt>
      <trkpt lat="44.08525" lon="5.68572">
        <ele>850</ele>
        <time>2021-03-31T12:14:12+02:00</time>
      </trkpt>
      <trkpt lat="44.08533" lon="5.68587">
        <ele>850</ele>
        <time>2021-03-31T12:14:18+02:00</time>
      </trkpt>
      <trkpt lat="44.08543" lon="5.68602">
        <ele>852</ele>
        <time>2021-03-31T12:14:24+02:00</time>
      </trkpt>
      <trkpt lat="44.08551" lon="5.68617">
        <ele>853</ele>
        <time>2021-03-31T12:14:30+02:00</time>
      </trkpt>
      <trkpt lat="44.0856" lon="5.68633">
        <ele>854</ele>
        <time>2021-03-31T12:14:36+02:00</time>
      </trkpt>
      <trkpt lat="44.08568" lon="5.68649">
        <ele>853</ele>
        <time>2021-03-31T12:14:42+02:00</time>
      </trkpt>
      <trkpt lat="44.08576" lon="5.68665">
        <ele>854</ele>
        <time>2021-03-31T12:14:48+02:00</time>
      </trkpt>
      <trkpt lat="44.08581" lon="5.68684">
        <ele>854</ele>
        <time>2021-03-31T12:14:55+02:00</time>
      </trkpt>
      <trkpt lat="44.08586" lon="5.68704">
        <ele>855</ele>
        <time>2021-03-31T12:15:02+02:00</time>
      </trkpt>
      <trkpt lat="44.08589" lon="5.68725">
        <ele>856</ele>
        <time>2021-03-31T12:15:09+02:00</time>
      </trkpt>
      <trkpt lat="44.08593" lon="5.68744">
        <ele>857</ele>
        <time>2021-03-31T12:15:16+02:00</time>
      </trkpt>
      <trkpt lat="44.08596" lon="5.68765">
        <ele>858</ele>
        <time>2021-03-31T12:15:24+02:00</time>
      </trkpt>
      <trkpt lat="44.08599" lon="5.68784">
        <ele>858</ele>
        <time>2021-03-31T12:16:24+02:00</time>
      </trkpt>
      <trkpt lat="44.08602" lon="5.68805">
        <ele>857</ele>
        <time>2021-03-31T12:16:33+02:00</time>
      </trkpt>
      <trkpt lat="44.08605" lon="5.68827">
        <ele>858</ele>
        <time>2021-03-31T12:16:40+02:00</time>
      </trkpt>
      <trkpt lat="44.08606" lon="5.68849">
        <ele>859</ele>
        <time>2021-03-31T12:16:46+02:00</time>
      </trkpt>
      <trkpt lat="44.08607" lon="5.68872">
        <ele>860</ele>
        <time>2021-03-31T12:16:52+02:00</time>
      </trkpt>
      <trkpt lat="44.08606" lon="5.68892">
        <ele>858</ele>
        <time>2021-03-31T12:16:57+02:00</time>
      </trkpt>
      <trkpt lat="44.08602" lon="5.6891">
        <ele>858</ele>
        <time>2021-03-31T12:17:02+02:00</time>
      </trkpt>
      <trkpt lat="44.08598" lon="5.68929">
        <ele>859</ele>
        <time>2021-03-31T12:17:07+02:00</time>
      </trkpt>
      <trkpt lat="44.08593" lon="5.6895">
        <ele>860</ele>
        <time>2021-03-31T12:17:13+02:00</time>
      </trkpt>
      <trkpt lat="44.08588" lon="5.68971">
        <ele>862</ele>
        <time>2021-03-31T12:17:19+02:00</time>
      </trkpt>
      <trkpt lat="44.08586" lon="5.68991">
        <ele>862</ele>
        <time>2021-03-31T12:17:25+02:00</time>
      </trkpt>
      <trkpt lat="44.08588" lon="5.69013">
        <ele>863</ele>
        <time>2021-03-31T12:17:31+02:00</time>
      </trkpt>
      <trkpt lat="44.08592" lon="5.69032">
        <ele>863</ele>
        <time>2021-03-31T12:17:36+02:00</time>
      </trkpt>
      <trkpt lat="44.08595" lon="5.69052">
        <ele>863</ele>
        <time>2021-03-31T12:17:41+02:00</time>
      </trkpt>
      <trkpt lat="44.08601" lon="5.69073">
        <ele>864</ele>
        <time>2021-03-31T12:17:46+02:00</time>
      </trkpt>
      <trkpt lat="44.08604" lon="5.69094">
        <ele>865</ele>
        <time>2021-03-31T12:17:51+02:00</time>
      </trkpt>
      <trkpt lat="44.08609" lon="5.69116">
        <ele>866</ele>
        <time>2021-03-31T12:17:56+02:00</time>
      </trkpt>
      <trkpt lat="44.08613" lon="5.69135">
        <ele>865</ele>
        <time>2021-03-31T12:18:00+02:00</time>
      </trkpt>
      <trkpt lat="44.08617" lon="5.69157">
        <ele>866</ele>
        <time>2021-03-31T12:18:05+02:00</time>
      </trkpt>
      <trkpt lat="44.08619" lon="5.69176">
        <ele>865</ele>
        <time>2021-03-31T12:18:09+02:00</time>
      </trkpt>
      <trkpt lat="44.08624" lon="5.69198">
        <ele>864</ele>
        <time>2021-03-31T12:18:13+02:00</time>
      </trkpt>
      <trkpt lat="44.0863" lon="5.69221">
        <ele>864</ele>
        <time>2021-03-31T12:18:17+02:00</time>
      </trkpt>
      <trkpt lat="44.08637" lon="5.69239">
        <ele>864</ele>
        <time>2021-03-31T12:18:20+02:00</time>
      </trkpt>
      <trkpt lat="44.08648" lon="5.69255">
        <ele>863</ele>
        <time>2021-03-31T12:18:23+02:00</time>
      </trkpt>
      <trkpt lat="44.08664" lon="5.6927">
        <ele>862</ele>
        <time>2021-03-31T12:18:26+02:00</time>
      </trkpt>
      <trkpt lat="44.08676" lon="5.6928">
        <ele>861</ele>
        <time>2021-03-31T12:18:28+02:00</time>
      </trkpt>
      <trkpt lat="44.08689" lon="5.69291">
        <ele>860</ele>
        <time>2021-03-31T12:18:30+02:00</time>
      </trkpt>
      <trkpt lat="44.08703" lon="5.69301">
        <ele>858</ele>
        <time>2021-03-31T12:18:32+02:00</time>
      </trkpt>
      <trkpt lat="44.08719" lon="5.69307">
        <ele>856</ele>
        <time>2021-03-31T12:18:34+02:00</time>
      </trkpt>
      <trkpt lat="44.08737" lon="5.69307">
        <ele>855</ele>
        <time>2021-03-31T12:18:36+02:00</time>
      </trkpt>
      <trkpt lat="44.08756" lon="5.69306">
        <ele>857</ele>
        <time>2021-03-31T12:18:38+02:00</time>
      </trkpt>
      <trkpt lat="44.08776" lon="5.69312">
        <ele>857</ele>
        <time>2021-03-31T12:18:40+02:00</time>
      </trkpt>
      <trkpt lat="44.08791" lon="5.69329">
        <ele>855</ele>
        <time>2021-03-31T12:18:42+02:00</time>
      </trkpt>
      <trkpt lat="44.08802" lon="5.69347">
        <ele>855</ele>
        <time>2021-03-31T12:18:44+02:00</time>
      </trkpt>
      <trkpt lat="44.08814" lon="5.69364">
        <ele>854</ele>
        <time>2021-03-31T12:18:46+02:00</time>
      </trkpt>
      <trkpt lat="44.08826" lon="5.6938">
        <ele>854</ele>
        <time>2021-03-31T12:18:48+02:00</time>
      </trkpt>
      <trkpt lat="44.08838" lon="5.69395">
        <ele>854</ele>
        <time>2021-03-31T12:18:50+02:00</time>
      </trkpt>
      <trkpt lat="44.08848" lon="5.69412">
        <ele>855</ele>
        <time>2021-03-31T12:18:52+02:00</time>
      </trkpt>
      <trkpt lat="44.08856" lon="5.69432">
        <ele>855</ele>
        <time>2021-03-31T12:18:54+02:00</time>
      </trkpt>
      <trkpt lat="44.08859" lon="5.69453">
        <ele>854</ele>
        <time>2021-03-31T12:18:56+02:00</time>
      </trkpt>
      <trkpt lat="44.08858" lon="5.69474">
        <ele>853</ele>
        <time>2021-03-31T12:18:58+02:00</time>
      </trkpt>
      <trkpt lat="44.08854" lon="5.69492">
        <ele>853</ele>
        <time>2021-03-31T12:19:00+02:00</time>
      </trkpt>
      <trkpt lat="44.08846" lon="5.69516">
        <ele>853</ele>
        <time>2021-03-31T12:19:03+02:00</time>
      </trkpt>
      <trkpt lat="44.0884" lon="5.69534">
        <ele>853</ele>
        <time>2021-03-31T12:19:06+02:00</time>
      </trkpt>
      <trkpt lat="44.08832" lon="5.69553">
        <ele>853</ele>
        <time>2021-03-31T12:19:10+02:00</time>
      </trkpt>
      <trkpt lat="44.08821" lon="5.69569">
        <ele>854</ele>
        <time>2021-03-31T12:19:15+02:00</time>
      </trkpt>
      <trkpt lat="44.08809" lon="5.69577">
        <ele>852</ele>
        <time>2021-03-31T12:19:21+02:00</time>
      </trkpt>
      <trkpt lat="44.08796" lon="5.69579">
        <ele>853</ele>
        <time>2021-03-31T12:19:27+02:00</time>
      </trkpt>
      <trkpt lat="44.0878" lon="5.69577">
        <ele>854</ele>
        <time>2021-03-31T12:19:33+02:00</time>
      </trkpt>
      <trkpt lat="44.08765" lon="5.69577">
        <ele>856</ele>
        <time>2021-03-31T12:19:39+02:00</time>
      </trkpt>
      <trkpt lat="44.0875" lon="5.69577">
        <ele>858</ele>
        <time>2021-03-31T12:19:45+02:00</time>
      </trkpt>
      <trkpt lat="44.08735" lon="5.69578">
        <ele>861</ele>
        <time>2021-03-31T12:19:51+02:00</time>
      </trkpt>
      <trkpt lat="44.08721" lon="5.6958">
        <ele>863</ele>
        <time>2021-03-31T12:19:57+02:00</time>
      </trkpt>
      <trkpt lat="44.08707" lon="5.69581">
        <ele>862</ele>
        <time>2021-03-31T12:20:04+02:00</time>
      </trkpt>
      <trkpt lat="44.08692" lon="5.69577">
        <ele>860</ele>
        <time>2021-03-31T12:20:10+02:00</time>
      </trkpt>
      <trkpt lat="44.08677" lon="5.69571">
        <ele>860</ele>
        <time>2021-03-31T12:20:16+02:00</time>
      </trkpt>
      <trkpt lat="44.08664" lon="5.69567">
        <ele>862</ele>
        <time>2021-03-31T12:20:21+02:00</time>
      </trkpt>
      <trkpt lat="44.0865" lon="5.69563">
        <ele>864</ele>
        <time>2021-03-31T12:20:26+02:00</time>
      </trkpt>
      <trkpt lat="44.08635" lon="5.69561">
        <ele>864</ele>
        <time>2021-03-31T12:20:31+02:00</time>
      </trkpt>
      <trkpt lat="44.0862" lon="5.69562">
        <ele>865</ele>
        <time>2021-03-31T12:20:36+02:00</time>
      </trkpt>
      <trkpt lat="44.08607" lon="5.69567">
        <ele>864</ele>
        <time>2021-03-31T12:20:41+02:00</time>
      </trkpt>
      <trkpt lat="44.08594" lon="5.69573">
        <ele>864</ele>
        <time>2021-03-31T12:20:46+02:00</time>
      </trkpt>
      <trkpt lat="44.08582" lon="5.69585">
        <ele>866</ele>
        <time>2021-03-31T12:20:52+02:00</time>
      </trkpt>
      <trkpt lat="44.08572" lon="5.69601">
        <ele>864</ele>
        <time>2021-03-31T12:20:58+02:00</time>
      </trkpt>
      <trkpt lat="44.08563" lon="5.69618">
        <ele>866</ele>
        <time>2021-03-31T12:21:04+02:00</time>
      </trkpt>
      <trkpt lat="44.08556" lon="5.69635">
        <ele>872</ele>
        <time>2021-03-31T12:21:10+02:00</time>
      </trkpt>
      <trkpt lat="44.0855" lon="5.69653">
        <ele>873</ele>
        <time>2021-03-31T12:21:16+02:00</time>
      </trkpt>
      <trkpt lat="44.08544" lon="5.6967">
        <ele>874</ele>
        <time>2021-03-31T12:21:22+02:00</time>
      </trkpt>
      <trkpt lat="44.08538" lon="5.69688">
        <ele>873</ele>
        <time>2021-03-31T12:21:29+02:00</time>
      </trkpt>
      <trkpt lat="44.08533" lon="5.69708">
        <ele>873</ele>
        <time>2021-03-31T12:21:37+02:00</time>
      </trkpt>
      <trkpt lat="44.08528" lon="5.69725">
        <ele>875</ele>
        <time>2021-03-31T12:21:44+02:00</time>
      </trkpt>
      <trkpt lat="44.08523" lon="5.69745">
        <ele>874</ele>
        <time>2021-03-31T12:21:52+02:00</time>
      </trkpt>
      <trkpt lat="44.08534" lon="5.69758">
        <ele>875</ele>
        <time>2021-03-31T12:22:08+02:00</time>
      </trkpt>
      <trkpt lat="44.08547" lon="5.6976">
        <ele>877</ele>
        <time>2021-03-31T12:22:17+02:00</time>
      </trkpt>
      <trkpt lat="44.08561" lon="5.69767">
        <ele>879</ele>
        <time>2021-03-31T12:22:26+02:00</time>
      </trkpt>
      <trkpt lat="44.08575" lon="5.69773">
        <ele>880</ele>
        <time>2021-03-31T12:22:35+02:00</time>
      </trkpt>
      <trkpt lat="44.08589" lon="5.69777">
        <ele>881</ele>
        <time>2021-03-31T12:22:44+02:00</time>
      </trkpt>
      <trkpt lat="44.08601" lon="5.69784">
        <ele>882</ele>
        <time>2021-03-31T12:22:54+02:00</time>
      </trkpt>
      <trkpt lat="44.08613" lon="5.69792">
        <ele>883</ele>
        <time>2021-03-31T12:23:05+02:00</time>
      </trkpt>
      <trkpt lat="44.08623" lon="5.69806">
        <ele>886</ele>
        <time>2021-03-31T12:23:22+02:00</time>
      </trkpt>
      <trkpt lat="44.08633" lon="5.6982">
        <ele>886</ele>
        <time>2021-03-31T12:23:37+02:00</time>
      </trkpt>
      <trkpt lat="44.08643" lon="5.69833">
        <ele>889</ele>
        <time>2021-03-31T12:23:51+02:00</time>
      </trkpt>
      <trkpt lat="44.08655" lon="5.69843">
        <ele>890</ele>
        <time>2021-03-31T12:24:05+02:00</time>
      </trkpt>
      <trkpt lat="44.08674" lon="5.69843">
        <ele>892</ele>
        <time>2021-03-31T12:24:42+02:00</time>
      </trkpt>
      <trkpt lat="44.08687" lon="5.69854">
        <ele>892</ele>
        <time>2021-03-31T12:24:59+02:00</time>
      </trkpt>
      <trkpt lat="44.08693" lon="5.69871">
        <ele>888</ele>
        <time>2021-03-31T12:25:23+02:00</time>
      </trkpt>
      <trkpt lat="44.08707" lon="5.69874">
        <ele>890</ele>
        <time>2021-03-31T12:25:37+02:00</time>
      </trkpt>
      <trkpt lat="44.08721" lon="5.69881">
        <ele>893</ele>
        <time>2021-03-31T12:25:55+02:00</time>
      </trkpt>
      <trkpt lat="44.0874" lon="5.69896">
        <ele>904</ele>
        <time>2021-03-31T12:26:18+02:00</time>
      </trkpt>
      <trkpt lat="44.08755" lon="5.69895">
        <ele>910</ele>
        <time>2021-03-31T12:26:33+02:00</time>
      </trkpt>
      <trkpt lat="44.08769" lon="5.69875">
        <ele>902</ele>
        <time>2021-03-31T12:27:21+02:00</time>
      </trkpt>
      <trkpt lat="44.08768" lon="5.69853">
        <ele>898</ele>
        <time>2021-03-31T12:27:28+02:00</time>
      </trkpt>
      <trkpt lat="44.08771" lon="5.69873">
        <ele>897</ele>
        <time>2021-03-31T12:28:10+02:00</time>
      </trkpt>
      <trkpt lat="44.08766" lon="5.69893">
        <ele>899</ele>
        <time>2021-03-31T12:28:19+02:00</time>
      </trkpt>
      <trkpt lat="44.08761" lon="5.69913">
        <ele>899</ele>
        <time>2021-03-31T12:28:26+02:00</time>
      </trkpt>
      <trkpt lat="44.08749" lon="5.69928">
        <ele>898</ele>
        <time>2021-03-31T12:28:31+02:00</time>
      </trkpt>
      <trkpt lat="44.08735" lon="5.69924">
        <ele>893</ele>
        <time>2021-03-31T12:28:37+02:00</time>
      </trkpt>
      <trkpt lat="44.08727" lon="5.69907">
        <ele>892</ele>
        <time>2021-03-31T12:28:43+02:00</time>
      </trkpt>
      <trkpt lat="44.08717" lon="5.69892">
        <ele>892</ele>
        <time>2021-03-31T12:28:51+02:00</time>
      </trkpt>
      <trkpt lat="44.08705" lon="5.69881">
        <ele>889</ele>
        <time>2021-03-31T12:28:57+02:00</time>
      </trkpt>
      <trkpt lat="44.08691" lon="5.69879">
        <ele>889</ele>
        <time>2021-03-31T12:29:03+02:00</time>
      </trkpt>
      <trkpt lat="44.08675" lon="5.69875">
        <ele>889</ele>
        <time>2021-03-31T12:29:08+02:00</time>
      </trkpt>
      <trkpt lat="44.08663" lon="5.69856">
        <ele>889</ele>
        <time>2021-03-31T12:29:12+02:00</time>
      </trkpt>
      <trkpt lat="44.08653" lon="5.69839">
        <ele>888</ele>
        <time>2021-03-31T12:29:15+02:00</time>
      </trkpt>
      <trkpt lat="44.08641" lon="5.69824">
        <ele>887</ele>
        <time>2021-03-31T12:29:18+02:00</time>
      </trkpt>
      <trkpt lat="44.08629" lon="5.69807">
        <ele>882</ele>
        <time>2021-03-31T12:29:22+02:00</time>
      </trkpt>
      <trkpt lat="44.08617" lon="5.69793">
        <ele>879</ele>
        <time>2021-03-31T12:29:25+02:00</time>
      </trkpt>
      <trkpt lat="44.086" lon="5.69782">
        <ele>877</ele>
        <time>2021-03-31T12:29:28+02:00</time>
      </trkpt>
      <trkpt lat="44.08581" lon="5.69773">
        <ele>877</ele>
        <time>2021-03-31T12:29:31+02:00</time>
      </trkpt>
      <trkpt lat="44.08564" lon="5.69766">
        <ele>876</ele>
        <time>2021-03-31T12:29:34+02:00</time>
      </trkpt>
      <trkpt lat="44.08549" lon="5.69761">
        <ele>875</ele>
        <time>2021-03-31T12:29:37+02:00</time>
      </trkpt>
      <trkpt lat="44.08534" lon="5.69754">
        <ele>876</ele>
        <time>2021-03-31T12:29:41+02:00</time>
      </trkpt>
      <trkpt lat="44.0852" lon="5.69761">
        <ele>875</ele>
        <time>2021-03-31T12:29:47+02:00</time>
      </trkpt>
      <trkpt lat="44.08513" lon="5.69781">
        <ele>873</ele>
        <time>2021-03-31T12:29:51+02:00</time>
      </trkpt>
      <trkpt lat="44.08505" lon="5.69799">
        <ele>871</ele>
        <time>2021-03-31T12:29:54+02:00</time>
      </trkpt>
      <trkpt lat="44.08493" lon="5.69817">
        <ele>870</ele>
        <time>2021-03-31T12:29:57+02:00</time>
      </trkpt>
      <trkpt lat="44.08479" lon="5.69838">
        <ele>868</ele>
        <time>2021-03-31T12:30:00+02:00</time>
      </trkpt>
      <trkpt lat="44.08469" lon="5.69853">
        <ele>867</ele>
        <time>2021-03-31T12:30:02+02:00</time>
      </trkpt>
      <trkpt lat="44.08457" lon="5.6987">
        <ele>866</ele>
        <time>2021-03-31T12:30:04+02:00</time>
      </trkpt>
      <trkpt lat="44.08444" lon="5.69887">
        <ele>865</ele>
        <time>2021-03-31T12:30:06+02:00</time>
      </trkpt>
      <trkpt lat="44.08431" lon="5.69904">
        <ele>860</ele>
        <time>2021-03-31T12:30:08+02:00</time>
      </trkpt>
      <trkpt lat="44.08416" lon="5.69922">
        <ele>859</ele>
        <time>2021-03-31T12:30:10+02:00</time>
      </trkpt>
      <trkpt lat="44.08401" lon="5.69937">
        <ele>858</ele>
        <time>2021-03-31T12:30:12+02:00</time>
      </trkpt>
      <trkpt lat="44.08384" lon="5.69954">
        <ele>856</ele>
        <time>2021-03-31T12:30:14+02:00</time>
      </trkpt>
      <trkpt lat="44.08368" lon="5.69971">
        <ele>854</ele>
        <time>2021-03-31T12:30:16+02:00</time>
      </trkpt>
      <trkpt lat="44.08351" lon="5.69988">
        <ele>852</ele>
        <time>2021-03-31T12:30:18+02:00</time>
      </trkpt>
      <trkpt lat="44.08334" lon="5.70004">
        <ele>850</ele>
        <time>2021-03-31T12:30:20+02:00</time>
      </trkpt>
      <trkpt lat="44.08318" lon="5.70021">
        <ele>848</ele>
        <time>2021-03-31T12:30:22+02:00</time>
      </trkpt>
      <trkpt lat="44.08301" lon="5.7004">
        <ele>847</ele>
        <time>2021-03-31T12:30:24+02:00</time>
      </trkpt>
      <trkpt lat="44.08285" lon="5.70058">
        <ele>846</ele>
        <time>2021-03-31T12:30:26+02:00</time>
      </trkpt>
      <trkpt lat="44.08268" lon="5.70078">
        <ele>845</ele>
        <time>2021-03-31T12:30:28+02:00</time>
      </trkpt>
      <trkpt lat="44.0825" lon="5.70098">
        <ele>843</ele>
        <time>2021-03-31T12:30:30+02:00</time>
      </trkpt>
      <trkpt lat="44.08234" lon="5.70119">
        <ele>843</ele>
        <time>2021-03-31T12:30:32+02:00</time>
      </trkpt>
      <trkpt lat="44.08218" lon="5.70141">
        <ele>841</ele>
        <time>2021-03-31T12:30:34+02:00</time>
      </trkpt>
      <trkpt lat="44.08203" lon="5.70163">
        <ele>839</ele>
        <time>2021-03-31T12:30:36+02:00</time>
      </trkpt>
      <trkpt lat="44.08189" lon="5.70184">
        <ele>838</ele>
        <time>2021-03-31T12:30:38+02:00</time>
      </trkpt>
      <trkpt lat="44.08173" lon="5.70207">
        <ele>835</ele>
        <time>2021-03-31T12:30:40+02:00</time>
      </trkpt>
      <trkpt lat="44.08157" lon="5.70226">
        <ele>833</ele>
        <time>2021-03-31T12:30:42+02:00</time>
      </trkpt>
      <trkpt lat="44.08139" lon="5.70245">
        <ele>833</ele>
        <time>2021-03-31T12:30:44+02:00</time>
      </trkpt>
      <trkpt lat="44.08123" lon="5.70264">
        <ele>834</ele>
        <time>2021-03-31T12:30:46+02:00</time>
      </trkpt>
      <trkpt lat="44.08109" lon="5.70282">
        <ele>834</ele>
        <time>2021-03-31T12:30:48+02:00</time>
      </trkpt>
      <trkpt lat="44.08097" lon="5.703">
        <ele>834</ele>
        <time>2021-03-31T12:30:50+02:00</time>
      </trkpt>
      <trkpt lat="44.08085" lon="5.70315">
        <ele>835</ele>
        <time>2021-03-31T12:30:52+02:00</time>
      </trkpt>
      <trkpt lat="44.08075" lon="5.70329">
        <ele>835</ele>
        <time>2021-03-31T12:30:54+02:00</time>
      </trkpt>
      <trkpt lat="44.08065" lon="5.70342">
        <ele>835</ele>
        <time>2021-03-31T12:30:56+02:00</time>
      </trkpt>
      <trkpt lat="44.08052" lon="5.70355">
        <ele>836</ele>
        <time>2021-03-31T12:30:59+02:00</time>
      </trkpt>
      <trkpt lat="44.08039" lon="5.70365">
        <ele>836</ele>
        <time>2021-03-31T12:31:03+02:00</time>
      </trkpt>
      <trkpt lat="44.08025" lon="5.7037">
        <ele>838</ele>
        <time>2021-03-31T12:31:08+02:00</time>
      </trkpt>
      <trkpt lat="44.08011" lon="5.70374">
        <ele>840</ele>
        <time>2021-03-31T12:31:14+02:00</time>
      </trkpt>
      <trkpt lat="44.07996" lon="5.70379">
        <ele>842</ele>
        <time>2021-03-31T12:31:20+02:00</time>
      </trkpt>
      <trkpt lat="44.0798" lon="5.70384">
        <ele>844</ele>
        <time>2021-03-31T12:31:26+02:00</time>
      </trkpt>
      <trkpt lat="44.07967" lon="5.7039">
        <ele>848</ele>
        <time>2021-03-31T12:31:32+02:00</time>
      </trkpt>
      <trkpt lat="44.07953" lon="5.70393">
        <ele>844</ele>
        <time>2021-03-31T12:31:39+02:00</time>
      </trkpt>
      <trkpt lat="44.0794" lon="5.704">
        <ele>843</ele>
        <time>2021-03-31T12:31:44+02:00</time>
      </trkpt>
      <trkpt lat="44.07927" lon="5.70404">
        <ele>845</ele>
        <time>2021-03-31T12:31:49+02:00</time>
      </trkpt>
      <trkpt lat="44.07913" lon="5.70409">
        <ele>848</ele>
        <time>2021-03-31T12:31:54+02:00</time>
      </trkpt>
      <trkpt lat="44.07899" lon="5.70415">
        <ele>848</ele>
        <time>2021-03-31T12:32:00+02:00</time>
      </trkpt>
      <trkpt lat="44.07885" lon="5.70419">
        <ele>849</ele>
        <time>2021-03-31T12:32:06+02:00</time>
      </trkpt>
      <trkpt lat="44.07871" lon="5.70422">
        <ele>851</ele>
        <time>2021-03-31T12:32:12+02:00</time>
      </trkpt>
      <trkpt lat="44.07858" lon="5.70428">
        <ele>851</ele>
        <time>2021-03-31T12:32:18+02:00</time>
      </trkpt>
      <trkpt lat="44.07845" lon="5.70435">
        <ele>849</ele>
        <time>2021-03-31T12:32:24+02:00</time>
      </trkpt>
      <trkpt lat="44.0783" lon="5.70442">
        <ele>848</ele>
        <time>2021-03-31T12:32:31+02:00</time>
      </trkpt>
      <trkpt lat="44.07817" lon="5.70449">
        <ele>848</ele>
        <time>2021-03-31T12:32:37+02:00</time>
      </trkpt>
      <trkpt lat="44.07804" lon="5.70457">
        <ele>852</ele>
        <time>2021-03-31T12:32:44+02:00</time>
      </trkpt>
      <trkpt lat="44.07791" lon="5.70464">
        <ele>856</ele>
        <time>2021-03-31T12:32:50+02:00</time>
      </trkpt>
      <trkpt lat="44.07776" lon="5.70472">
        <ele>857</ele>
        <time>2021-03-31T12:32:57+02:00</time>
      </trkpt>
      <trkpt lat="44.07763" lon="5.70479">
        <ele>857</ele>
        <time>2021-03-31T12:33:03+02:00</time>
      </trkpt>
      <trkpt lat="44.07749" lon="5.70487">
        <ele>853</ele>
        <time>2021-03-31T12:33:09+02:00</time>
      </trkpt>
      <trkpt lat="44.07734" lon="5.7049">
        <ele>853</ele>
        <time>2021-03-31T12:33:14+02:00</time>
      </trkpt>
      <trkpt lat="44.07719" lon="5.70491">
        <ele>853</ele>
        <time>2021-03-31T12:33:18+02:00</time>
      </trkpt>
      <trkpt lat="44.07705" lon="5.70491">
        <ele>853</ele>
        <time>2021-03-31T12:33:22+02:00</time>
      </trkpt>
      <trkpt lat="44.07689" lon="5.7049">
        <ele>854</ele>
        <time>2021-03-31T12:33:26+02:00</time>
      </trkpt>
      <trkpt lat="44.07672" lon="5.70488">
        <ele>854</ele>
        <time>2021-03-31T12:33:30+02:00</time>
      </trkpt>
      <trkpt lat="44.07657" lon="5.70488">
        <ele>854</ele>
        <time>2021-03-31T12:33:34+02:00</time>
      </trkpt>
      <trkpt lat="44.0764" lon="5.70487">
        <ele>852</ele>
        <time>2021-03-31T12:33:38+02:00</time>
      </trkpt>
      <trkpt lat="44.07623" lon="5.70485">
        <ele>851</ele>
        <time>2021-03-31T12:33:42+02:00</time>
      </trkpt>
      <trkpt lat="44.07607" lon="5.70484">
        <ele>851</ele>
        <time>2021-03-31T12:33:46+02:00</time>
      </trkpt>
      <trkpt lat="44.0759" lon="5.70482">
        <ele>851</ele>
        <time>2021-03-31T12:33:50+02:00</time>
      </trkpt>
      <trkpt lat="44.07575" lon="5.70482">
        <ele>849</ele>
        <time>2021-03-31T12:33:54+02:00</time>
      </trkpt>
      <trkpt lat="44.07558" lon="5.70482">
        <ele>849</ele>
        <time>2021-03-31T12:33:58+02:00</time>
      </trkpt>
      <trkpt lat="44.07544" lon="5.70481">
        <ele>850</ele>
        <time>2021-03-31T12:34:01+02:00</time>
      </trkpt>
      <trkpt lat="44.07527" lon="5.70484">
        <ele>851</ele>
        <time>2021-03-31T12:34:05+02:00</time>
      </trkpt>
      <trkpt lat="44.07514" lon="5.70489">
        <ele>851</ele>
        <time>2021-03-31T12:34:08+02:00</time>
      </trkpt>
      <trkpt lat="44.07501" lon="5.70497">
        <ele>852</ele>
        <time>2021-03-31T12:34:11+02:00</time>
      </trkpt>
      <trkpt lat="44.07489" lon="5.70508">
        <ele>854</ele>
        <time>2021-03-31T12:34:14+02:00</time>
      </trkpt>
      <trkpt lat="44.0748" lon="5.70522">
        <ele>853</ele>
        <time>2021-03-31T12:34:17+02:00</time>
      </trkpt>
      <trkpt lat="44.07467" lon="5.70539">
        <ele>852</ele>
        <time>2021-03-31T12:34:21+02:00</time>
      </trkpt>
      <trkpt lat="44.07456" lon="5.70549">
        <ele>853</ele>
        <time>2021-03-31T12:34:24+02:00</time>
      </trkpt>
      <trkpt lat="44.07439" lon="5.70556">
        <ele>854</ele>
        <time>2021-03-31T12:34:28+02:00</time>
      </trkpt>
      <trkpt lat="44.07422" lon="5.70558">
        <ele>851</ele>
        <time>2021-03-31T12:34:32+02:00</time>
      </trkpt>
      <trkpt lat="44.07408" lon="5.70552">
        <ele>852</ele>
        <time>2021-03-31T12:34:36+02:00</time>
      </trkpt>
      <trkpt lat="44.07393" lon="5.70541">
        <ele>855</ele>
        <time>2021-03-31T12:34:41+02:00</time>
      </trkpt>
      <trkpt lat="44.0738" lon="5.70529">
        <ele>858</ele>
        <time>2021-03-31T12:34:47+02:00</time>
      </trkpt>
      <trkpt lat="44.07368" lon="5.70518">
        <ele>859</ele>
        <time>2021-03-31T12:34:54+02:00</time>
      </trkpt>
      <trkpt lat="44.07355" lon="5.70507">
        <ele>858</ele>
        <time>2021-03-31T12:35:01+02:00</time>
      </trkpt>
      <trkpt lat="44.07342" lon="5.70497">
        <ele>857</ele>
        <time>2021-03-31T12:35:08+02:00</time>
      </trkpt>
      <trkpt lat="44.0733" lon="5.70485">
        <ele>856</ele>
        <time>2021-03-31T12:35:16+02:00</time>
      </trkpt>
      <trkpt lat="44.07317" lon="5.70474">
        <ele>855</ele>
        <time>2021-03-31T12:35:23+02:00</time>
      </trkpt>
      <trkpt lat="44.07306" lon="5.70463">
        <ele>860</ele>
        <time>2021-03-31T12:35:31+02:00</time>
      </trkpt>
      <trkpt lat="44.07294" lon="5.70451">
        <ele>856</ele>
        <time>2021-03-31T12:35:43+02:00</time>
      </trkpt>
      <trkpt lat="44.07282" lon="5.7044">
        <ele>858</ele>
        <time>2021-03-31T12:35:52+02:00</time>
      </trkpt>
      <trkpt lat="44.07269" lon="5.7043">
        <ele>858</ele>
        <time>2021-03-31T12:36:02+02:00</time>
      </trkpt>
      <trkpt lat="44.07255" lon="5.70424">
        <ele>860</ele>
        <time>2021-03-31T12:36:10+02:00</time>
      </trkpt>
      <trkpt lat="44.07241" lon="5.70425">
        <ele>862</ele>
        <time>2021-03-31T12:36:17+02:00</time>
      </trkpt>
      <trkpt lat="44.07226" lon="5.70427">
        <ele>865</ele>
        <time>2021-03-31T12:36:25+02:00</time>
      </trkpt>
      <trkpt lat="44.07212" lon="5.70434">
        <ele>869</ele>
        <time>2021-03-31T12:36:33+02:00</time>
      </trkpt>
      <trkpt lat="44.07198" lon="5.70442">
        <ele>871</ele>
        <time>2021-03-31T12:36:40+02:00</time>
      </trkpt>
      <trkpt lat="44.07183" lon="5.70447">
        <ele>870</ele>
        <time>2021-03-31T12:37:52+02:00</time>
      </trkpt>
      <trkpt lat="44.07168" lon="5.70453">
        <ele>869</ele>
        <time>2021-03-31T12:37:58+02:00</time>
      </trkpt>
      <trkpt lat="44.07153" lon="5.70459">
        <ele>866</ele>
        <time>2021-03-31T12:38:02+02:00</time>
      </trkpt>
      <trkpt lat="44.0714" lon="5.70465">
        <ele>865</ele>
        <time>2021-03-31T12:38:05+02:00</time>
      </trkpt>
      <trkpt lat="44.07124" lon="5.70472">
        <ele>865</ele>
        <time>2021-03-31T12:38:08+02:00</time>
      </trkpt>
      <trkpt lat="44.07105" lon="5.7048">
        <ele>863</ele>
        <time>2021-03-31T12:38:11+02:00</time>
      </trkpt>
      <trkpt lat="44.07092" lon="5.70486">
        <ele>862</ele>
        <time>2021-03-31T12:38:13+02:00</time>
      </trkpt>
      <trkpt lat="44.07077" lon="5.70492">
        <ele>860</ele>
        <time>2021-03-31T12:38:15+02:00</time>
      </trkpt>
      <trkpt lat="44.07062" lon="5.70499">
        <ele>859</ele>
        <time>2021-03-31T12:38:17+02:00</time>
      </trkpt>
      <trkpt lat="44.07045" lon="5.70505">
        <ele>858</ele>
        <time>2021-03-31T12:38:19+02:00</time>
      </trkpt>
      <trkpt lat="44.07029" lon="5.70512">
        <ele>857</ele>
        <time>2021-03-31T12:38:21+02:00</time>
      </trkpt>
      <trkpt lat="44.07012" lon="5.70519">
        <ele>856</ele>
        <time>2021-03-31T12:38:23+02:00</time>
      </trkpt>
      <trkpt lat="44.06994" lon="5.70524">
        <ele>855</ele>
        <time>2021-03-31T12:38:25+02:00</time>
      </trkpt>
      <trkpt lat="44.06975" lon="5.70527">
        <ele>857</ele>
        <time>2021-03-31T12:38:27+02:00</time>
      </trkpt>
      <trkpt lat="44.06958" lon="5.70525">
        <ele>855</ele>
        <time>2021-03-31T12:38:29+02:00</time>
      </trkpt>
      <trkpt lat="44.06941" lon="5.70523">
        <ele>854</ele>
        <time>2021-03-31T12:38:31+02:00</time>
      </trkpt>
      <trkpt lat="44.06926" lon="5.70521">
        <ele>853</ele>
        <time>2021-03-31T12:38:33+02:00</time>
      </trkpt>
      <trkpt lat="44.06911" lon="5.70516">
        <ele>852</ele>
        <time>2021-03-31T12:38:35+02:00</time>
      </trkpt>
      <trkpt lat="44.06893" lon="5.70505">
        <ele>851</ele>
        <time>2021-03-31T12:38:38+02:00</time>
      </trkpt>
      <trkpt lat="44.06878" lon="5.70506">
        <ele>848</ele>
        <time>2021-03-31T12:38:41+02:00</time>
      </trkpt>
      <trkpt lat="44.06886" lon="5.70527">
        <ele>845</ele>
        <time>2021-03-31T12:38:45+02:00</time>
      </trkpt>
      <trkpt lat="44.06902" lon="5.70534">
        <ele>845</ele>
        <time>2021-03-31T12:38:48+02:00</time>
      </trkpt>
      <trkpt lat="44.06919" lon="5.70541">
        <ele>846</ele>
        <time>2021-03-31T12:38:51+02:00</time>
      </trkpt>
      <trkpt lat="44.06936" lon="5.70553">
        <ele>844</ele>
        <time>2021-03-31T12:38:54+02:00</time>
      </trkpt>
      <trkpt lat="44.06951" lon="5.70561">
        <ele>842</ele>
        <time>2021-03-31T12:38:56+02:00</time>
      </trkpt>
      <trkpt lat="44.06965" lon="5.70569">
        <ele>841</ele>
        <time>2021-03-31T12:38:58+02:00</time>
      </trkpt>
      <trkpt lat="44.06981" lon="5.70578">
        <ele>840</ele>
        <time>2021-03-31T12:39:00+02:00</time>
      </trkpt>
      <trkpt lat="44.06996" lon="5.70586">
        <ele>839</ele>
        <time>2021-03-31T12:39:02+02:00</time>
      </trkpt>
      <trkpt lat="44.07011" lon="5.70594">
        <ele>838</ele>
        <time>2021-03-31T12:39:04+02:00</time>
      </trkpt>
      <trkpt lat="44.07021" lon="5.70607">
        <ele>838</ele>
        <time>2021-03-31T12:39:06+02:00</time>
      </trkpt>
      <trkpt lat="44.07024" lon="5.70626">
        <ele>838</ele>
        <time>2021-03-31T12:39:08+02:00</time>
      </trkpt>
      <trkpt lat="44.07016" lon="5.7065">
        <ele>838</ele>
        <time>2021-03-31T12:39:11+02:00</time>
      </trkpt>
      <trkpt lat="44.07009" lon="5.70666">
        <ele>837</ele>
        <time>2021-03-31T12:39:13+02:00</time>
      </trkpt>
      <trkpt lat="44.07" lon="5.70681">
        <ele>837</ele>
        <time>2021-03-31T12:39:15+02:00</time>
      </trkpt>
      <trkpt lat="44.06987" lon="5.70694">
        <ele>837</ele>
        <time>2021-03-31T12:39:17+02:00</time>
      </trkpt>
      <trkpt lat="44.06972" lon="5.70701">
        <ele>838</ele>
        <time>2021-03-31T12:39:19+02:00</time>
      </trkpt>
      <trkpt lat="44.06958" lon="5.70707">
        <ele>838</ele>
        <time>2021-03-31T12:39:21+02:00</time>
      </trkpt>
      <trkpt lat="44.06944" lon="5.70714">
        <ele>838</ele>
        <time>2021-03-31T12:39:23+02:00</time>
      </trkpt>
      <trkpt lat="44.06931" lon="5.70722">
        <ele>837</ele>
        <time>2021-03-31T12:39:25+02:00</time>
      </trkpt>
      <trkpt lat="44.06917" lon="5.7073">
        <ele>837</ele>
        <time>2021-03-31T12:39:27+02:00</time>
      </trkpt>
      <trkpt lat="44.06902" lon="5.70735">
        <ele>837</ele>
        <time>2021-03-31T12:39:29+02:00</time>
      </trkpt>
      <trkpt lat="44.06887" lon="5.70737">
        <ele>837</ele>
        <time>2021-03-31T12:39:31+02:00</time>
      </trkpt>
      <trkpt lat="44.06873" lon="5.70736">
        <ele>837</ele>
        <time>2021-03-31T12:39:33+02:00</time>
      </trkpt>
      <trkpt lat="44.06858" lon="5.70734">
        <ele>836</ele>
        <time>2021-03-31T12:39:35+02:00</time>
      </trkpt>
      <trkpt lat="44.06842" lon="5.70734">
        <ele>834</ele>
        <time>2021-03-31T12:39:37+02:00</time>
      </trkpt>
      <trkpt lat="44.06826" lon="5.70735">
        <ele>832</ele>
        <time>2021-03-31T12:39:39+02:00</time>
      </trkpt>
      <trkpt lat="44.0681" lon="5.70737">
        <ele>832</ele>
        <time>2021-03-31T12:39:41+02:00</time>
      </trkpt>
      <trkpt lat="44.06794" lon="5.7074">
        <ele>832</ele>
        <time>2021-03-31T12:39:43+02:00</time>
      </trkpt>
      <trkpt lat="44.06778" lon="5.70744">
        <ele>832</ele>
        <time>2021-03-31T12:39:45+02:00</time>
      </trkpt>
      <trkpt lat="44.06761" lon="5.70748">
        <ele>833</ele>
        <time>2021-03-31T12:39:47+02:00</time>
      </trkpt>
      <trkpt lat="44.06745" lon="5.70749">
        <ele>832</ele>
        <time>2021-03-31T12:39:49+02:00</time>
      </trkpt>
      <trkpt lat="44.06727" lon="5.7075">
        <ele>831</ele>
        <time>2021-03-31T12:39:51+02:00</time>
      </trkpt>
      <trkpt lat="44.06711" lon="5.70748">
        <ele>830</ele>
        <time>2021-03-31T12:39:53+02:00</time>
      </trkpt>
      <trkpt lat="44.06694" lon="5.70747">
        <ele>829</ele>
        <time>2021-03-31T12:39:55+02:00</time>
      </trkpt>
      <trkpt lat="44.06678" lon="5.70746">
        <ele>828</ele>
        <time>2021-03-31T12:39:57+02:00</time>
      </trkpt>
      <trkpt lat="44.06662" lon="5.70746">
        <ele>827</ele>
        <time>2021-03-31T12:39:59+02:00</time>
      </trkpt>
      <trkpt lat="44.06645" lon="5.70747">
        <ele>826</ele>
        <time>2021-03-31T12:40:01+02:00</time>
      </trkpt>
      <trkpt lat="44.06629" lon="5.70749">
        <ele>824</ele>
        <time>2021-03-31T12:40:03+02:00</time>
      </trkpt>
      <trkpt lat="44.06613" lon="5.7075">
        <ele>823</ele>
        <time>2021-03-31T12:40:05+02:00</time>
      </trkpt>
      <trkpt lat="44.06596" lon="5.70753">
        <ele>822</ele>
        <time>2021-03-31T12:40:07+02:00</time>
      </trkpt>
      <trkpt lat="44.0658" lon="5.70758">
        <ele>820</ele>
        <time>2021-03-31T12:40:09+02:00</time>
      </trkpt>
      <trkpt lat="44.06563" lon="5.70763">
        <ele>819</ele>
        <time>2021-03-31T12:40:11+02:00</time>
      </trkpt>
      <trkpt lat="44.06547" lon="5.70768">
        <ele>818</ele>
        <time>2021-03-31T12:40:13+02:00</time>
      </trkpt>
      <trkpt lat="44.0653" lon="5.70773">
        <ele>816</ele>
        <time>2021-03-31T12:40:15+02:00</time>
      </trkpt>
      <trkpt lat="44.06513" lon="5.70782">
        <ele>815</ele>
        <time>2021-03-31T12:40:17+02:00</time>
      </trkpt>
      <trkpt lat="44.06497" lon="5.70791">
        <ele>814</ele>
        <time>2021-03-31T12:40:19+02:00</time>
      </trkpt>
      <trkpt lat="44.06482" lon="5.70802">
        <ele>812</ele>
        <time>2021-03-31T12:40:21+02:00</time>
      </trkpt>
      <trkpt lat="44.06467" lon="5.70815">
        <ele>811</ele>
        <time>2021-03-31T12:40:23+02:00</time>
      </trkpt>
      <trkpt lat="44.06453" lon="5.7083">
        <ele>811</ele>
        <time>2021-03-31T12:40:25+02:00</time>
      </trkpt>
      <trkpt lat="44.06441" lon="5.70847">
        <ele>809</ele>
        <time>2021-03-31T12:40:27+02:00</time>
      </trkpt>
      <trkpt lat="44.0643" lon="5.70866">
        <ele>806</ele>
        <time>2021-03-31T12:40:29+02:00</time>
      </trkpt>
      <trkpt lat="44.06418" lon="5.70884">
        <ele>805</ele>
        <time>2021-03-31T12:40:31+02:00</time>
      </trkpt>
      <trkpt lat="44.06406" lon="5.70903">
        <ele>804</ele>
        <time>2021-03-31T12:40:33+02:00</time>
      </trkpt>
      <trkpt lat="44.06396" lon="5.70925">
        <ele>803</ele>
        <time>2021-03-31T12:40:35+02:00</time>
      </trkpt>
      <trkpt lat="44.06392" lon="5.70949">
        <ele>802</ele>
        <time>2021-03-31T12:40:37+02:00</time>
      </trkpt>
      <trkpt lat="44.06391" lon="5.70976">
        <ele>804</ele>
        <time>2021-03-31T12:40:39+02:00</time>
      </trkpt>
      <trkpt lat="44.06387" lon="5.71003">
        <ele>804</ele>
        <time>2021-03-31T12:40:41+02:00</time>
      </trkpt>
      <trkpt lat="44.06378" lon="5.71025">
        <ele>806</ele>
        <time>2021-03-31T12:40:43+02:00</time>
      </trkpt>
      <trkpt lat="44.06362" lon="5.71043">
        <ele>803</ele>
        <time>2021-03-31T12:40:45+02:00</time>
      </trkpt>
      <trkpt lat="44.06344" lon="5.71054">
        <ele>800</ele>
        <time>2021-03-31T12:40:47+02:00</time>
      </trkpt>
      <trkpt lat="44.06328" lon="5.71062">
        <ele>797</ele>
        <time>2021-03-31T12:40:49+02:00</time>
      </trkpt>
      <trkpt lat="44.06311" lon="5.71074">
        <ele>797</ele>
        <time>2021-03-31T12:40:51+02:00</time>
      </trkpt>
      <trkpt lat="44.06297" lon="5.71084">
        <ele>797</ele>
        <time>2021-03-31T12:40:53+02:00</time>
      </trkpt>
      <trkpt lat="44.0628" lon="5.71096">
        <ele>795</ele>
        <time>2021-03-31T12:40:55+02:00</time>
      </trkpt>
      <trkpt lat="44.06265" lon="5.7111">
        <ele>793</ele>
        <time>2021-03-31T12:40:57+02:00</time>
      </trkpt>
      <trkpt lat="44.06249" lon="5.71126">
        <ele>795</ele>
        <time>2021-03-31T12:40:59+02:00</time>
      </trkpt>
      <trkpt lat="44.06236" lon="5.71144">
        <ele>794</ele>
        <time>2021-03-31T12:41:01+02:00</time>
      </trkpt>
      <trkpt lat="44.06228" lon="5.71166">
        <ele>793</ele>
        <time>2021-03-31T12:41:03+02:00</time>
      </trkpt>
      <trkpt lat="44.06223" lon="5.71191">
        <ele>791</ele>
        <time>2021-03-31T12:41:05+02:00</time>
      </trkpt>
      <trkpt lat="44.06221" lon="5.71215">
        <ele>789</ele>
        <time>2021-03-31T12:41:07+02:00</time>
      </trkpt>
      <trkpt lat="44.06222" lon="5.71243">
        <ele>792</ele>
        <time>2021-03-31T12:41:09+02:00</time>
      </trkpt>
      <trkpt lat="44.06222" lon="5.71268">
        <ele>790</ele>
        <time>2021-03-31T12:41:11+02:00</time>
      </trkpt>
      <trkpt lat="44.06215" lon="5.71289">
        <ele>792</ele>
        <time>2021-03-31T12:41:13+02:00</time>
      </trkpt>
      <trkpt lat="44.06201" lon="5.71302">
        <ele>793</ele>
        <time>2021-03-31T12:41:15+02:00</time>
      </trkpt>
      <trkpt lat="44.06185" lon="5.71302">
        <ele>794</ele>
        <time>2021-03-31T12:41:17+02:00</time>
      </trkpt>
      <trkpt lat="44.06171" lon="5.71298">
        <ele>795</ele>
        <time>2021-03-31T12:41:19+02:00</time>
      </trkpt>
      <trkpt lat="44.06154" lon="5.71295">
        <ele>795</ele>
        <time>2021-03-31T12:41:22+02:00</time>
      </trkpt>
      <trkpt lat="44.06137" lon="5.71292">
        <ele>796</ele>
        <time>2021-03-31T12:41:25+02:00</time>
      </trkpt>
      <trkpt lat="44.06121" lon="5.7129">
        <ele>797</ele>
        <time>2021-03-31T12:41:28+02:00</time>
      </trkpt>
      <trkpt lat="44.06105" lon="5.71287">
        <ele>797</ele>
        <time>2021-03-31T12:41:31+02:00</time>
      </trkpt>
      <trkpt lat="44.06089" lon="5.71279">
        <ele>796</ele>
        <time>2021-03-31T12:41:34+02:00</time>
      </trkpt>
      <trkpt lat="44.06073" lon="5.7127">
        <ele>795</ele>
        <time>2021-03-31T12:41:37+02:00</time>
      </trkpt>
      <trkpt lat="44.06056" lon="5.71259">
        <ele>794</ele>
        <time>2021-03-31T12:41:40+02:00</time>
      </trkpt>
      <trkpt lat="44.06041" lon="5.71244">
        <ele>792</ele>
        <time>2021-03-31T12:41:43+02:00</time>
      </trkpt>
      <trkpt lat="44.06027" lon="5.71227">
        <ele>791</ele>
        <time>2021-03-31T12:41:46+02:00</time>
      </trkpt>
      <trkpt lat="44.06013" lon="5.71208">
        <ele>790</ele>
        <time>2021-03-31T12:41:49+02:00</time>
      </trkpt>
      <trkpt lat="44.06" lon="5.71189">
        <ele>790</ele>
        <time>2021-03-31T12:41:52+02:00</time>
      </trkpt>
      <trkpt lat="44.05986" lon="5.7117">
        <ele>788</ele>
        <time>2021-03-31T12:41:55+02:00</time>
      </trkpt>
      <trkpt lat="44.05972" lon="5.71152">
        <ele>788</ele>
        <time>2021-03-31T12:41:58+02:00</time>
      </trkpt>
      <trkpt lat="44.05955" lon="5.71137">
        <ele>787</ele>
        <time>2021-03-31T12:42:01+02:00</time>
      </trkpt>
      <trkpt lat="44.05939" lon="5.71123">
        <ele>786</ele>
        <time>2021-03-31T12:42:04+02:00</time>
      </trkpt>
      <trkpt lat="44.05921" lon="5.7111">
        <ele>786</ele>
        <time>2021-03-31T12:42:07+02:00</time>
      </trkpt>
      <trkpt lat="44.05903" lon="5.71097">
        <ele>785</ele>
        <time>2021-03-31T12:42:10+02:00</time>
      </trkpt>
      <trkpt lat="44.05891" lon="5.71088">
        <ele>784</ele>
        <time>2021-03-31T12:42:12+02:00</time>
      </trkpt>
      <trkpt lat="44.05879" lon="5.71079">
        <ele>783</ele>
        <time>2021-03-31T12:42:14+02:00</time>
      </trkpt>
      <trkpt lat="44.05865" lon="5.71073">
        <ele>783</ele>
        <time>2021-03-31T12:42:16+02:00</time>
      </trkpt>
      <trkpt lat="44.05851" lon="5.71072">
        <ele>782</ele>
        <time>2021-03-31T12:42:18+02:00</time>
      </trkpt>
      <trkpt lat="44.05837" lon="5.71077">
        <ele>781</ele>
        <time>2021-03-31T12:42:20+02:00</time>
      </trkpt>
      <trkpt lat="44.05825" lon="5.71088">
        <ele>781</ele>
        <time>2021-03-31T12:42:22+02:00</time>
      </trkpt>
      <trkpt lat="44.05812" lon="5.71108">
        <ele>781</ele>
        <time>2021-03-31T12:42:25+02:00</time>
      </trkpt>
      <trkpt lat="44.05801" lon="5.71123">
        <ele>782</ele>
        <time>2021-03-31T12:42:28+02:00</time>
      </trkpt>
      <trkpt lat="44.05792" lon="5.7114">
        <ele>782</ele>
        <time>2021-03-31T12:42:32+02:00</time>
      </trkpt>
      <trkpt lat="44.05784" lon="5.71158">
        <ele>780</ele>
        <time>2021-03-31T12:42:36+02:00</time>
      </trkpt>
      <trkpt lat="44.05776" lon="5.71175">
        <ele>778</ele>
        <time>2021-03-31T12:42:40+02:00</time>
      </trkpt>
      <trkpt lat="44.05766" lon="5.7119">
        <ele>779</ele>
        <time>2021-03-31T12:48:07+02:00</time>
      </trkpt>
      <trkpt lat="44.05756" lon="5.71203">
        <ele>782</ele>
        <time>2021-03-31T12:48:16+02:00</time>
      </trkpt>
      <trkpt lat="44.05744" lon="5.71214">
        <ele>780</ele>
        <time>2021-03-31T12:48:23+02:00</time>
      </trkpt>
      <trkpt lat="44.05737" lon="5.71231">
        <ele>781</ele>
        <time>2021-03-31T12:48:33+02:00</time>
      </trkpt>
      <trkpt lat="44.05727" lon="5.71245">
        <ele>783</ele>
        <time>2021-03-31T12:49:22+02:00</time>
      </trkpt>
      <trkpt lat="44.05713" lon="5.71249">
        <ele>784</ele>
        <time>2021-03-31T12:49:26+02:00</time>
      </trkpt>
      <trkpt lat="44.05702" lon="5.71263">
        <ele>783</ele>
        <time>2021-03-31T12:49:31+02:00</time>
      </trkpt>
      <trkpt lat="44.05689" lon="5.71267">
        <ele>781</ele>
        <time>2021-03-31T12:49:34+02:00</time>
      </trkpt>
      <trkpt lat="44.05673" lon="5.7127">
        <ele>778</ele>
        <time>2021-03-31T12:49:38+02:00</time>
      </trkpt>
      <trkpt lat="44.05665" lon="5.71291">
        <ele>777</ele>
        <time>2021-03-31T12:49:43+02:00</time>
      </trkpt>
      <trkpt lat="44.05669" lon="5.71314">
        <ele>776</ele>
        <time>2021-03-31T12:49:47+02:00</time>
      </trkpt>
      <trkpt lat="44.05668" lon="5.71334">
        <ele>774</ele>
        <time>2021-03-31T12:49:50+02:00</time>
      </trkpt>
      <trkpt lat="44.05662" lon="5.71355">
        <ele>775</ele>
        <time>2021-03-31T12:49:53+02:00</time>
      </trkpt>
      <trkpt lat="44.05657" lon="5.71375">
        <ele>778</ele>
        <time>2021-03-31T12:49:57+02:00</time>
      </trkpt>
      <trkpt lat="44.05653" lon="5.71395">
        <ele>781</ele>
        <time>2021-03-31T12:50:02+02:00</time>
      </trkpt>
      <trkpt lat="44.05658" lon="5.71415">
        <ele>778</ele>
        <time>2021-03-31T12:50:08+02:00</time>
      </trkpt>
      <trkpt lat="44.05658" lon="5.71434">
        <ele>780</ele>
        <time>2021-03-31T12:50:12+02:00</time>
      </trkpt>
      <trkpt lat="44.05651" lon="5.71452">
        <ele>783</ele>
        <time>2021-03-31T12:50:17+02:00</time>
      </trkpt>
      <trkpt lat="44.0564" lon="5.71464">
        <ele>782</ele>
        <time>2021-03-31T12:50:23+02:00</time>
      </trkpt>
      <trkpt lat="44.05627" lon="5.71471">
        <ele>781</ele>
        <time>2021-03-31T12:50:29+02:00</time>
      </trkpt>
      <trkpt lat="44.05617" lon="5.71486">
        <ele>774</ele>
        <time>2021-03-31T12:50:37+02:00</time>
      </trkpt>
      <trkpt lat="44.05609" lon="5.71505">
        <ele>776</ele>
        <time>2021-03-31T12:50:43+02:00</time>
      </trkpt>
      <trkpt lat="44.05601" lon="5.7152">
        <ele>781</ele>
        <time>2021-03-31T12:50:48+02:00</time>
      </trkpt>
      <trkpt lat="44.05592" lon="5.71538">
        <ele>785</ele>
        <time>2021-03-31T12:50:54+02:00</time>
      </trkpt>
      <trkpt lat="44.05583" lon="5.71552">
        <ele>787</ele>
        <time>2021-03-31T12:51:00+02:00</time>
      </trkpt>
      <trkpt lat="44.05572" lon="5.71566">
        <ele>788</ele>
        <time>2021-03-31T12:51:06+02:00</time>
      </trkpt>
      <trkpt lat="44.05562" lon="5.71579">
        <ele>790</ele>
        <time>2021-03-31T12:51:11+02:00</time>
      </trkpt>
      <trkpt lat="44.05553" lon="5.71593">
        <ele>786</ele>
        <time>2021-03-31T12:51:16+02:00</time>
      </trkpt>
      <trkpt lat="44.05544" lon="5.7161">
        <ele>786</ele>
        <time>2021-03-31T12:51:21+02:00</time>
      </trkpt>
      <trkpt lat="44.05536" lon="5.71627">
        <ele>786</ele>
        <time>2021-03-31T12:51:26+02:00</time>
      </trkpt>
      <trkpt lat="44.05529" lon="5.71645">
        <ele>787</ele>
        <time>2021-03-31T12:51:31+02:00</time>
      </trkpt>
      <trkpt lat="44.05524" lon="5.71664">
        <ele>787</ele>
        <time>2021-03-31T12:51:38+02:00</time>
      </trkpt>
      <trkpt lat="44.05523" lon="5.71684">
        <ele>786</ele>
        <time>2021-03-31T12:51:48+02:00</time>
      </trkpt>
      <trkpt lat="44.05523" lon="5.71706">
        <ele>787</ele>
        <time>2021-03-31T12:51:55+02:00</time>
      </trkpt>
      <trkpt lat="44.05523" lon="5.71725">
        <ele>788</ele>
        <time>2021-03-31T12:52:02+02:00</time>
      </trkpt>
      <trkpt lat="44.05523" lon="5.71746">
        <ele>786</ele>
        <time>2021-03-31T12:52:09+02:00</time>
      </trkpt>
      <trkpt lat="44.05523" lon="5.71766">
        <ele>788</ele>
        <time>2021-03-31T12:52:16+02:00</time>
      </trkpt>
      <trkpt lat="44.05523" lon="5.71787">
        <ele>789</ele>
        <time>2021-03-31T12:52:23+02:00</time>
      </trkpt>
      <trkpt lat="44.05523" lon="5.71807">
        <ele>790</ele>
        <time>2021-03-31T12:52:30+02:00</time>
      </trkpt>
      <trkpt lat="44.05523" lon="5.71829">
        <ele>792</ele>
        <time>2021-03-31T12:52:37+02:00</time>
      </trkpt>
      <trkpt lat="44.05523" lon="5.71848">
        <ele>792</ele>
        <time>2021-03-31T12:52:43+02:00</time>
      </trkpt>
      <trkpt lat="44.05523" lon="5.71868">
        <ele>793</ele>
        <time>2021-03-31T12:52:49+02:00</time>
      </trkpt>
      <trkpt lat="44.05521" lon="5.71888">
        <ele>792</ele>
        <time>2021-03-31T12:52:56+02:00</time>
      </trkpt>
      <trkpt lat="44.0552" lon="5.71908">
        <ele>792</ele>
        <time>2021-03-31T12:53:03+02:00</time>
      </trkpt>
      <trkpt lat="44.05519" lon="5.71927">
        <ele>792</ele>
        <time>2021-03-31T12:53:09+02:00</time>
      </trkpt>
      <trkpt lat="44.05518" lon="5.71948">
        <ele>793</ele>
        <time>2021-03-31T12:53:15+02:00</time>
      </trkpt>
      <trkpt lat="44.05516" lon="5.71967">
        <ele>794</ele>
        <time>2021-03-31T12:53:21+02:00</time>
      </trkpt>
      <trkpt lat="44.05519" lon="5.71946">
        <ele>793</ele>
        <time>2021-03-31T12:55:01+02:00</time>
      </trkpt>
      <trkpt lat="44.0552" lon="5.71924">
        <ele>791</ele>
        <time>2021-03-31T12:55:07+02:00</time>
      </trkpt>
      <trkpt lat="44.05521" lon="5.71902">
        <ele>789</ele>
        <time>2021-03-31T12:55:13+02:00</time>
      </trkpt>
      <trkpt lat="44.05523" lon="5.71881">
        <ele>789</ele>
        <time>2021-03-31T12:55:18+02:00</time>
      </trkpt>
      <trkpt lat="44.05524" lon="5.71862">
        <ele>789</ele>
        <time>2021-03-31T12:55:22+02:00</time>
      </trkpt>
      <trkpt lat="44.05524" lon="5.71841">
        <ele>790</ele>
        <time>2021-03-31T12:55:26+02:00</time>
      </trkpt>
      <trkpt lat="44.05524" lon="5.7182">
        <ele>789</ele>
        <time>2021-03-31T12:55:30+02:00</time>
      </trkpt>
      <trkpt lat="44.05524" lon="5.71798">
        <ele>788</ele>
        <time>2021-03-31T12:55:34+02:00</time>
      </trkpt>
      <trkpt lat="44.05525" lon="5.71774">
        <ele>787</ele>
        <time>2021-03-31T12:55:38+02:00</time>
      </trkpt>
      <trkpt lat="44.05525" lon="5.71749">
        <ele>786</ele>
        <time>2021-03-31T12:55:42+02:00</time>
      </trkpt>
      <trkpt lat="44.05526" lon="5.71726">
        <ele>786</ele>
        <time>2021-03-31T12:55:46+02:00</time>
      </trkpt>
      <trkpt lat="44.05526" lon="5.71704">
        <ele>786</ele>
        <time>2021-03-31T12:55:50+02:00</time>
      </trkpt>
      <trkpt lat="44.05526" lon="5.71685">
        <ele>786</ele>
        <time>2021-03-31T12:55:55+02:00</time>
      </trkpt>
      <trkpt lat="44.05527" lon="5.71666">
        <ele>786</ele>
        <time>2021-03-31T12:56:02+02:00</time>
      </trkpt>
      <trkpt lat="44.05531" lon="5.71648">
        <ele>786</ele>
        <time>2021-03-31T12:56:10+02:00</time>
      </trkpt>
      <trkpt lat="44.05537" lon="5.71629">
        <ele>786</ele>
        <time>2021-03-31T12:56:15+02:00</time>
      </trkpt>
      <trkpt lat="44.05545" lon="5.71614">
        <ele>787</ele>
        <time>2021-03-31T12:57:26+02:00</time>
      </trkpt>
      <trkpt lat="44.05553" lon="5.71595">
        <ele>786</ele>
        <time>2021-03-31T12:57:32+02:00</time>
      </trkpt>
      <trkpt lat="44.05564" lon="5.71581">
        <ele>785</ele>
        <time>2021-03-31T12:57:38+02:00</time>
      </trkpt>
      <trkpt lat="44.05573" lon="5.71566">
        <ele>785</ele>
        <time>2021-03-31T12:57:43+02:00</time>
      </trkpt>
      <trkpt lat="44.05584" lon="5.71552">
        <ele>785</ele>
        <time>2021-03-31T12:57:50+02:00</time>
      </trkpt>
      <trkpt lat="44.05595" lon="5.71536">
        <ele>783</ele>
        <time>2021-03-31T12:57:57+02:00</time>
      </trkpt>
      <trkpt lat="44.05604" lon="5.71519">
        <ele>782</ele>
        <time>2021-03-31T12:58:01+02:00</time>
      </trkpt>
      <trkpt lat="44.05614" lon="5.71498">
        <ele>780</ele>
        <time>2021-03-31T12:58:05+02:00</time>
      </trkpt>
      <trkpt lat="44.05623" lon="5.71482">
        <ele>781</ele>
        <time>2021-03-31T12:58:08+02:00</time>
      </trkpt>
      <trkpt lat="44.05635" lon="5.71468">
        <ele>780</ele>
        <time>2021-03-31T12:58:11+02:00</time>
      </trkpt>
      <trkpt lat="44.05646" lon="5.71456">
        <ele>777</ele>
        <time>2021-03-31T12:58:14+02:00</time>
      </trkpt>
      <trkpt lat="44.05656" lon="5.71437">
        <ele>773</ele>
        <time>2021-03-31T12:58:18+02:00</time>
      </trkpt>
      <trkpt lat="44.05656" lon="5.71413">
        <ele>774</ele>
        <time>2021-03-31T12:58:22+02:00</time>
      </trkpt>
      <trkpt lat="44.05642" lon="5.71415">
        <ele>778</ele>
        <time>2021-03-31T12:58:41+02:00</time>
      </trkpt>
      <trkpt lat="44.0563" lon="5.71425">
        <ele>776</ele>
        <time>2021-03-31T12:58:44+02:00</time>
      </trkpt>
      <trkpt lat="44.05615" lon="5.71425">
        <ele>775</ele>
        <time>2021-03-31T12:58:47+02:00</time>
      </trkpt>
      <trkpt lat="44.05601" lon="5.7142">
        <ele>773</ele>
        <time>2021-03-31T12:58:50+02:00</time>
      </trkpt>
      <trkpt lat="44.05585" lon="5.71411">
        <ele>772</ele>
        <time>2021-03-31T12:58:53+02:00</time>
      </trkpt>
      <trkpt lat="44.0557" lon="5.71396">
        <ele>772</ele>
        <time>2021-03-31T12:58:56+02:00</time>
      </trkpt>
      <trkpt lat="44.05555" lon="5.71377">
        <ele>772</ele>
        <time>2021-03-31T12:58:59+02:00</time>
      </trkpt>
      <trkpt lat="44.05546" lon="5.71363">
        <ele>773</ele>
        <time>2021-03-31T12:59:01+02:00</time>
      </trkpt>
      <trkpt lat="44.05532" lon="5.71342">
        <ele>772</ele>
        <time>2021-03-31T12:59:04+02:00</time>
      </trkpt>
      <trkpt lat="44.05522" lon="5.7133">
        <ele>771</ele>
        <time>2021-03-31T12:59:06+02:00</time>
      </trkpt>
      <trkpt lat="44.0551" lon="5.71317">
        <ele>770</ele>
        <time>2021-03-31T12:59:08+02:00</time>
      </trkpt>
      <trkpt lat="44.05498" lon="5.71306">
        <ele>769</ele>
        <time>2021-03-31T12:59:10+02:00</time>
      </trkpt>
      <trkpt lat="44.05485" lon="5.71297">
        <ele>766</ele>
        <time>2021-03-31T12:59:12+02:00</time>
      </trkpt>
      <trkpt lat="44.05469" lon="5.71291">
        <ele>765</ele>
        <time>2021-03-31T12:59:14+02:00</time>
      </trkpt>
      <trkpt lat="44.05451" lon="5.71285">
        <ele>765</ele>
        <time>2021-03-31T12:59:16+02:00</time>
      </trkpt>
      <trkpt lat="44.05431" lon="5.71284">
        <ele>764</ele>
        <time>2021-03-31T12:59:18+02:00</time>
      </trkpt>
      <trkpt lat="44.05413" lon="5.71281">
        <ele>762</ele>
        <time>2021-03-31T12:59:20+02:00</time>
      </trkpt>
      <trkpt lat="44.05395" lon="5.7127">
        <ele>763</ele>
        <time>2021-03-31T12:59:22+02:00</time>
      </trkpt>
      <trkpt lat="44.05381" lon="5.71252">
        <ele>763</ele>
        <time>2021-03-31T12:59:24+02:00</time>
      </trkpt>
      <trkpt lat="44.05369" lon="5.71235">
        <ele>763</ele>
        <time>2021-03-31T12:59:26+02:00</time>
      </trkpt>
      <trkpt lat="44.05358" lon="5.71217">
        <ele>763</ele>
        <time>2021-03-31T12:59:29+02:00</time>
      </trkpt>
      <trkpt lat="44.05348" lon="5.71204">
        <ele>761</ele>
        <time>2021-03-31T12:59:32+02:00</time>
      </trkpt>
      <trkpt lat="44.05333" lon="5.71199">
        <ele>761</ele>
        <time>2021-03-31T12:59:36+02:00</time>
      </trkpt>
      <trkpt lat="44.05318" lon="5.71197">
        <ele>760</ele>
        <time>2021-03-31T12:59:40+02:00</time>
      </trkpt>
      <trkpt lat="44.05305" lon="5.71196">
        <ele>761</ele>
        <time>2021-03-31T12:59:43+02:00</time>
      </trkpt>
      <trkpt lat="44.05289" lon="5.71194">
        <ele>759</ele>
        <time>2021-03-31T12:59:46+02:00</time>
      </trkpt>
      <trkpt lat="44.05272" lon="5.71189">
        <ele>758</ele>
        <time>2021-03-31T12:59:49+02:00</time>
      </trkpt>
      <trkpt lat="44.05252" lon="5.71186">
        <ele>756</ele>
        <time>2021-03-31T12:59:52+02:00</time>
      </trkpt>
      <trkpt lat="44.05233" lon="5.7118">
        <ele>754</ele>
        <time>2021-03-31T12:59:55+02:00</time>
      </trkpt>
      <trkpt lat="44.05219" lon="5.71176">
        <ele>753</ele>
        <time>2021-03-31T12:59:57+02:00</time>
      </trkpt>
      <trkpt lat="44.05204" lon="5.71171">
        <ele>753</ele>
        <time>2021-03-31T12:59:59+02:00</time>
      </trkpt>
      <trkpt lat="44.05189" lon="5.71167">
        <ele>752</ele>
        <time>2021-03-31T13:00:01+02:00</time>
      </trkpt>
      <trkpt lat="44.05173" lon="5.71163">
        <ele>752</ele>
        <time>2021-03-31T13:00:03+02:00</time>
      </trkpt>
      <trkpt lat="44.05158" lon="5.71161">
        <ele>750</ele>
        <time>2021-03-31T13:00:05+02:00</time>
      </trkpt>
      <trkpt lat="44.05143" lon="5.71158">
        <ele>750</ele>
        <time>2021-03-31T13:00:07+02:00</time>
      </trkpt>
      <trkpt lat="44.05128" lon="5.71157">
        <ele>749</ele>
        <time>2021-03-31T13:00:09+02:00</time>
      </trkpt>
      <trkpt lat="44.05113" lon="5.71155">
        <ele>748</ele>
        <time>2021-03-31T13:00:11+02:00</time>
      </trkpt>
      <trkpt lat="44.05098" lon="5.71152">
        <ele>747</ele>
        <time>2021-03-31T13:00:13+02:00</time>
      </trkpt>
      <trkpt lat="44.05083" lon="5.71148">
        <ele>746</ele>
        <time>2021-03-31T13:00:15+02:00</time>
      </trkpt>
      <trkpt lat="44.05068" lon="5.71145">
        <ele>745</ele>
        <time>2021-03-31T13:00:17+02:00</time>
      </trkpt>
      <trkpt lat="44.05054" lon="5.71141">
        <ele>744</ele>
        <time>2021-03-31T13:00:19+02:00</time>
      </trkpt>
      <trkpt lat="44.0504" lon="5.71139">
        <ele>744</ele>
        <time>2021-03-31T13:00:21+02:00</time>
      </trkpt>
      <trkpt lat="44.05021" lon="5.71137">
        <ele>743</ele>
        <time>2021-03-31T13:00:24+02:00</time>
      </trkpt>
      <trkpt lat="44.05002" lon="5.71136">
        <ele>743</ele>
        <time>2021-03-31T13:00:27+02:00</time>
      </trkpt>
      <trkpt lat="44.04984" lon="5.71136">
        <ele>743</ele>
        <time>2021-03-31T13:00:30+02:00</time>
      </trkpt>
      <trkpt lat="44.04967" lon="5.71139">
        <ele>742</ele>
        <time>2021-03-31T13:00:33+02:00</time>
      </trkpt>
      <trkpt lat="44.0495" lon="5.71139">
        <ele>741</ele>
        <time>2021-03-31T13:00:36+02:00</time>
      </trkpt>
      <trkpt lat="44.04933" lon="5.71137">
        <ele>740</ele>
        <time>2021-03-31T13:00:39+02:00</time>
      </trkpt>
      <trkpt lat="44.04919" lon="5.71135">
        <ele>740</ele>
        <time>2021-03-31T13:00:42+02:00</time>
      </trkpt>
      <trkpt lat="44.04904" lon="5.71134">
        <ele>740</ele>
        <time>2021-03-31T13:00:45+02:00</time>
      </trkpt>
      <trkpt lat="44.04888" lon="5.71133">
        <ele>740</ele>
        <time>2021-03-31T13:00:48+02:00</time>
      </trkpt>
      <trkpt lat="44.04873" lon="5.71131">
        <ele>740</ele>
        <time>2021-03-31T13:00:51+02:00</time>
      </trkpt>
      <trkpt lat="44.04859" lon="5.7113">
        <ele>739</ele>
        <time>2021-03-31T13:00:54+02:00</time>
      </trkpt>
      <trkpt lat="44.04845" lon="5.71129">
        <ele>739</ele>
        <time>2021-03-31T13:00:57+02:00</time>
      </trkpt>
      <trkpt lat="44.04832" lon="5.7113">
        <ele>738</ele>
        <time>2021-03-31T13:01:00+02:00</time>
      </trkpt>
      <trkpt lat="44.04818" lon="5.71131">
        <ele>738</ele>
        <time>2021-03-31T13:01:03+02:00</time>
      </trkpt>
      <trkpt lat="44.04804" lon="5.71131">
        <ele>737</ele>
        <time>2021-03-31T13:01:06+02:00</time>
      </trkpt>
      <trkpt lat="44.0479" lon="5.71132">
        <ele>737</ele>
        <time>2021-03-31T13:01:09+02:00</time>
      </trkpt>
      <trkpt lat="44.04775" lon="5.71132">
        <ele>736</ele>
        <time>2021-03-31T13:01:12+02:00</time>
      </trkpt>
      <trkpt lat="44.04759" lon="5.71134">
        <ele>735</ele>
        <time>2021-03-31T13:01:15+02:00</time>
      </trkpt>
      <trkpt lat="44.04743" lon="5.71138">
        <ele>735</ele>
        <time>2021-03-31T13:01:18+02:00</time>
      </trkpt>
      <trkpt lat="44.04728" lon="5.71143">
        <ele>733</ele>
        <time>2021-03-31T13:01:21+02:00</time>
      </trkpt>
      <trkpt lat="44.04711" lon="5.71143">
        <ele>733</ele>
        <time>2021-03-31T13:01:24+02:00</time>
      </trkpt>
      <trkpt lat="44.04695" lon="5.71142">
        <ele>732</ele>
        <time>2021-03-31T13:01:27+02:00</time>
      </trkpt>
      <trkpt lat="44.04681" lon="5.71142">
        <ele>732</ele>
        <time>2021-03-31T13:01:30+02:00</time>
      </trkpt>
      <trkpt lat="44.04667" lon="5.71143">
        <ele>732</ele>
        <time>2021-03-31T13:01:33+02:00</time>
      </trkpt>
      <trkpt lat="44.04651" lon="5.7115">
        <ele>731</ele>
        <time>2021-03-31T13:01:37+02:00</time>
      </trkpt>
      <trkpt lat="44.04638" lon="5.71158">
        <ele>731</ele>
        <time>2021-03-31T13:01:40+02:00</time>
      </trkpt>
      <trkpt lat="44.04622" lon="5.71167">
        <ele>728</ele>
        <time>2021-03-31T13:01:44+02:00</time>
      </trkpt>
      <trkpt lat="44.04607" lon="5.7117">
        <ele>727</ele>
        <time>2021-03-31T13:01:47+02:00</time>
      </trkpt>
      <trkpt lat="44.0459" lon="5.71171">
        <ele>726</ele>
        <time>2021-03-31T13:01:50+02:00</time>
      </trkpt>
      <trkpt lat="44.04572" lon="5.7117">
        <ele>726</ele>
        <time>2021-03-31T13:01:53+02:00</time>
      </trkpt>
      <trkpt lat="44.04557" lon="5.71169">
        <ele>726</ele>
        <time>2021-03-31T13:01:56+02:00</time>
      </trkpt>
      <trkpt lat="44.04542" lon="5.71167">
        <ele>725</ele>
        <time>2021-03-31T13:01:59+02:00</time>
      </trkpt>
      <trkpt lat="44.04527" lon="5.71165">
        <ele>726</ele>
        <time>2021-03-31T13:02:02+02:00</time>
      </trkpt>
      <trkpt lat="44.04511" lon="5.71163">
        <ele>725</ele>
        <time>2021-03-31T13:02:05+02:00</time>
      </trkpt>
      <trkpt lat="44.04495" lon="5.71161">
        <ele>725</ele>
        <time>2021-03-31T13:02:08+02:00</time>
      </trkpt>
      <trkpt lat="44.0448" lon="5.71159">
        <ele>725</ele>
        <time>2021-03-31T13:02:11+02:00</time>
      </trkpt>
      <trkpt lat="44.04466" lon="5.71162">
        <ele>726</ele>
        <time>2021-03-31T13:02:14+02:00</time>
      </trkpt>
      <trkpt lat="44.0445" lon="5.71163">
        <ele>725</ele>
        <time>2021-03-31T13:02:18+02:00</time>
      </trkpt>
      <trkpt lat="44.04434" lon="5.71157">
        <ele>723</ele>
        <time>2021-03-31T13:02:22+02:00</time>
      </trkpt>
      <trkpt lat="44.04417" lon="5.7115">
        <ele>721</ele>
        <time>2021-03-31T13:02:26+02:00</time>
      </trkpt>
      <trkpt lat="44.04404" lon="5.71144">
        <ele>720</ele>
        <time>2021-03-31T13:02:29+02:00</time>
      </trkpt>
      <trkpt lat="44.0439" lon="5.71137">
        <ele>719</ele>
        <time>2021-03-31T13:02:32+02:00</time>
      </trkpt>
      <trkpt lat="44.04377" lon="5.71131">
        <ele>718</ele>
        <time>2021-03-31T13:02:35+02:00</time>
      </trkpt>
      <trkpt lat="44.04364" lon="5.71125">
        <ele>717</ele>
        <time>2021-03-31T13:02:38+02:00</time>
      </trkpt>
      <trkpt lat="44.0435" lon="5.7112">
        <ele>717</ele>
        <time>2021-03-31T13:02:41+02:00</time>
      </trkpt>
      <trkpt lat="44.04335" lon="5.71114">
        <ele>716</ele>
        <time>2021-03-31T13:02:44+02:00</time>
      </trkpt>
      <trkpt lat="44.04322" lon="5.71104">
        <ele>715</ele>
        <time>2021-03-31T13:02:47+02:00</time>
      </trkpt>
      <trkpt lat="44.04308" lon="5.71095">
        <ele>714</ele>
        <time>2021-03-31T13:02:50+02:00</time>
      </trkpt>
      <trkpt lat="44.04293" lon="5.71088">
        <ele>711</ele>
        <time>2021-03-31T13:02:54+02:00</time>
      </trkpt>
      <trkpt lat="44.04278" lon="5.7108">
        <ele>710</ele>
        <time>2021-03-31T13:03:10+02:00</time>
      </trkpt>
      <trkpt lat="44.04265" lon="5.71072">
        <ele>708</ele>
        <time>2021-03-31T13:03:15+02:00</time>
      </trkpt>
      <trkpt lat="44.0425" lon="5.71065">
        <ele>707</ele>
        <time>2021-03-31T13:03:19+02:00</time>
      </trkpt>
      <trkpt lat="44.04234" lon="5.71062">
        <ele>711</ele>
        <time>2021-03-31T13:03:23+02:00</time>
      </trkpt>
      <trkpt lat="44.04219" lon="5.71059">
        <ele>713</ele>
        <time>2021-03-31T13:03:27+02:00</time>
      </trkpt>
      <trkpt lat="44.04204" lon="5.71053">
        <ele>712</ele>
        <time>2021-03-31T13:03:31+02:00</time>
      </trkpt>
      <trkpt lat="44.04189" lon="5.71046">
        <ele>711</ele>
        <time>2021-03-31T13:03:35+02:00</time>
      </trkpt>
      <trkpt lat="44.04175" lon="5.71041">
        <ele>710</ele>
        <time>2021-03-31T13:03:39+02:00</time>
      </trkpt>
      <trkpt lat="44.04159" lon="5.71038">
        <ele>710</ele>
        <time>2021-03-31T13:03:44+02:00</time>
      </trkpt>
      <trkpt lat="44.04144" lon="5.71036">
        <ele>709</ele>
        <time>2021-03-31T13:03:48+02:00</time>
      </trkpt>
      <trkpt lat="44.04128" lon="5.71034">
        <ele>708</ele>
        <time>2021-03-31T13:03:52+02:00</time>
      </trkpt>
      <trkpt lat="44.04114" lon="5.71034">
        <ele>706</ele>
        <time>2021-03-31T13:03:56+02:00</time>
      </trkpt>
      <trkpt lat="44.04099" lon="5.71034">
        <ele>706</ele>
        <time>2021-03-31T13:04:00+02:00</time>
      </trkpt>
      <trkpt lat="44.04084" lon="5.71032">
        <ele>706</ele>
        <time>2021-03-31T13:04:04+02:00</time>
      </trkpt>
      <trkpt lat="44.04066" lon="5.71027">
        <ele>707</ele>
        <time>2021-03-31T13:04:08+02:00</time>
      </trkpt>
      <trkpt lat="44.0405" lon="5.71022">
        <ele>706</ele>
        <time>2021-03-31T13:04:12+02:00</time>
      </trkpt>
      <trkpt lat="44.04036" lon="5.71018">
        <ele>703</ele>
        <time>2021-03-31T13:04:16+02:00</time>
      </trkpt>
      <trkpt lat="44.04021" lon="5.71016">
        <ele>703</ele>
        <time>2021-03-31T13:04:21+02:00</time>
      </trkpt>
      <trkpt lat="44.04007" lon="5.71019">
        <ele>703</ele>
        <time>2021-03-31T13:04:26+02:00</time>
      </trkpt>
      <trkpt lat="44.03991" lon="5.71021">
        <ele>704</ele>
        <time>2021-03-31T13:04:31+02:00</time>
      </trkpt>
      <trkpt lat="44.03976" lon="5.71025">
        <ele>703</ele>
        <time>2021-03-31T13:04:35+02:00</time>
      </trkpt>
      <trkpt lat="44.03962" lon="5.71027">
        <ele>703</ele>
        <time>2021-03-31T13:04:39+02:00</time>
      </trkpt>
      <trkpt lat="44.03946" lon="5.71031">
        <ele>700</ele>
        <time>2021-03-31T13:04:44+02:00</time>
      </trkpt>
      <trkpt lat="44.03929" lon="5.71032">
        <ele>698</ele>
        <time>2021-03-31T13:04:49+02:00</time>
      </trkpt>
      <trkpt lat="44.03914" lon="5.71034">
        <ele>695</ele>
        <time>2021-03-31T13:04:54+02:00</time>
      </trkpt>
      <trkpt lat="44.03898" lon="5.71035">
        <ele>694</ele>
        <time>2021-03-31T13:05:00+02:00</time>
      </trkpt>
      <trkpt lat="44.03883" lon="5.71039">
        <ele>690</ele>
        <time>2021-03-31T13:05:05+02:00</time>
      </trkpt>
      <trkpt lat="44.03869" lon="5.71045">
        <ele>688</ele>
        <time>2021-03-31T13:05:09+02:00</time>
      </trkpt>
      <trkpt lat="44.03853" lon="5.71051">
        <ele>686</ele>
        <time>2021-03-31T13:05:14+02:00</time>
      </trkpt>
      <trkpt lat="44.0384" lon="5.7106">
        <ele>686</ele>
        <time>2021-03-31T13:05:18+02:00</time>
      </trkpt>
      <trkpt lat="44.03827" lon="5.71067">
        <ele>686</ele>
        <time>2021-03-31T13:05:54+02:00</time>
      </trkpt>
      <trkpt lat="44.03814" lon="5.71074">
        <ele>681</ele>
        <time>2021-03-31T13:06:01+02:00</time>
      </trkpt>
      <trkpt lat="44.03798" lon="5.71074">
        <ele>677</ele>
        <time>2021-03-31T13:06:06+02:00</time>
      </trkpt>
      <trkpt lat="44.03781" lon="5.71072">
        <ele>677</ele>
        <time>2021-03-31T13:06:11+02:00</time>
      </trkpt>
      <trkpt lat="44.03767" lon="5.71081">
        <ele>677</ele>
        <time>2021-03-31T13:06:15+02:00</time>
      </trkpt>
      <trkpt lat="44.03753" lon="5.71088">
        <ele>678</ele>
        <time>2021-03-31T13:06:19+02:00</time>
      </trkpt>
      <trkpt lat="44.03738" lon="5.71088">
        <ele>677</ele>
        <time>2021-03-31T13:06:23+02:00</time>
      </trkpt>
      <trkpt lat="44.0372" lon="5.71088">
        <ele>677</ele>
        <time>2021-03-31T13:06:27+02:00</time>
      </trkpt>
      <trkpt lat="44.03703" lon="5.71092">
        <ele>675</ele>
        <time>2021-03-31T13:06:31+02:00</time>
      </trkpt>
      <trkpt lat="44.03689" lon="5.71094">
        <ele>674</ele>
        <time>2021-03-31T13:06:34+02:00</time>
      </trkpt>
      <trkpt lat="44.03673" lon="5.711">
        <ele>673</ele>
        <time>2021-03-31T13:06:38+02:00</time>
      </trkpt>
      <trkpt lat="44.03656" lon="5.71106">
        <ele>672</ele>
        <time>2021-03-31T13:06:43+02:00</time>
      </trkpt>
      <trkpt lat="44.03643" lon="5.71103">
        <ele>672</ele>
        <time>2021-03-31T13:06:46+02:00</time>
      </trkpt>
      <trkpt lat="44.03626" lon="5.71097">
        <ele>673</ele>
        <time>2021-03-31T13:06:49+02:00</time>
      </trkpt>
      <trkpt lat="44.03612" lon="5.71092">
        <ele>674</ele>
        <time>2021-03-31T13:06:52+02:00</time>
      </trkpt>
      <trkpt lat="44.03598" lon="5.71083">
        <ele>674</ele>
        <time>2021-03-31T13:06:56+02:00</time>
      </trkpt>
      <trkpt lat="44.03586" lon="5.71073">
        <ele>673</ele>
        <time>2021-03-31T13:07:03+02:00</time>
      </trkpt>
      <trkpt lat="44.03571" lon="5.71072">
        <ele>673</ele>
        <time>2021-03-31T13:07:13+02:00</time>
      </trkpt>
      <trkpt lat="44.03558" lon="5.71071">
        <ele>671</ele>
        <time>2021-03-31T13:07:18+02:00</time>
      </trkpt>
      <trkpt lat="44.03542" lon="5.71073">
        <ele>673</ele>
        <time>2021-03-31T13:07:22+02:00</time>
      </trkpt>
      <trkpt lat="44.03525" lon="5.71077">
        <ele>674</ele>
        <time>2021-03-31T13:07:26+02:00</time>
      </trkpt>
      <trkpt lat="44.0351" lon="5.7108">
        <ele>675</ele>
        <time>2021-03-31T13:07:29+02:00</time>
      </trkpt>
      <trkpt lat="44.03496" lon="5.71085">
        <ele>675</ele>
        <time>2021-03-31T13:07:32+02:00</time>
      </trkpt>
      <trkpt lat="44.03481" lon="5.71091">
        <ele>675</ele>
        <time>2021-03-31T13:07:35+02:00</time>
      </trkpt>
      <trkpt lat="44.03466" lon="5.71098">
        <ele>674</ele>
        <time>2021-03-31T13:07:38+02:00</time>
      </trkpt>
      <trkpt lat="44.0345" lon="5.71104">
        <ele>674</ele>
        <time>2021-03-31T13:07:41+02:00</time>
      </trkpt>
      <trkpt lat="44.03435" lon="5.7111">
        <ele>676</ele>
        <time>2021-03-31T13:07:44+02:00</time>
      </trkpt>
      <trkpt lat="44.03419" lon="5.71115">
        <ele>677</ele>
        <time>2021-03-31T13:07:47+02:00</time>
      </trkpt>
      <trkpt lat="44.03404" lon="5.71121">
        <ele>676</ele>
        <time>2021-03-31T13:07:50+02:00</time>
      </trkpt>
      <trkpt lat="44.03388" lon="5.71124">
        <ele>677</ele>
        <time>2021-03-31T13:07:53+02:00</time>
      </trkpt>
      <trkpt lat="44.03372" lon="5.71128">
        <ele>677</ele>
        <time>2021-03-31T13:07:56+02:00</time>
      </trkpt>
      <trkpt lat="44.03357" lon="5.71134">
        <ele>677</ele>
        <time>2021-03-31T13:07:59+02:00</time>
      </trkpt>
      <trkpt lat="44.03342" lon="5.71141">
        <ele>676</ele>
        <time>2021-03-31T13:08:02+02:00</time>
      </trkpt>
      <trkpt lat="44.03327" lon="5.71148">
        <ele>676</ele>
        <time>2021-03-31T13:08:05+02:00</time>
      </trkpt>
      <trkpt lat="44.03311" lon="5.71154">
        <ele>676</ele>
        <time>2021-03-31T13:08:08+02:00</time>
      </trkpt>
      <trkpt lat="44.03294" lon="5.71161">
        <ele>674</ele>
        <time>2021-03-31T13:08:11+02:00</time>
      </trkpt>
      <trkpt lat="44.03275" lon="5.71166">
        <ele>674</ele>
        <time>2021-03-31T13:08:14+02:00</time>
      </trkpt>
      <trkpt lat="44.03256" lon="5.71167">
        <ele>672</ele>
        <time>2021-03-31T13:08:17+02:00</time>
      </trkpt>
      <trkpt lat="44.03236" lon="5.71168">
        <ele>672</ele>
        <time>2021-03-31T13:08:20+02:00</time>
      </trkpt>
      <trkpt lat="44.03222" lon="5.7117">
        <ele>672</ele>
        <time>2021-03-31T13:08:22+02:00</time>
      </trkpt>
      <trkpt lat="44.03207" lon="5.7117">
        <ele>672</ele>
        <time>2021-03-31T13:08:24+02:00</time>
      </trkpt>
      <trkpt lat="44.03192" lon="5.7117">
        <ele>671</ele>
        <time>2021-03-31T13:08:26+02:00</time>
      </trkpt>
      <trkpt lat="44.03176" lon="5.71169">
        <ele>669</ele>
        <time>2021-03-31T13:08:28+02:00</time>
      </trkpt>
      <trkpt lat="44.03159" lon="5.71167">
        <ele>668</ele>
        <time>2021-03-31T13:08:30+02:00</time>
      </trkpt>
      <trkpt lat="44.03142" lon="5.71166">
        <ele>667</ele>
        <time>2021-03-31T13:08:32+02:00</time>
      </trkpt>
      <trkpt lat="44.03125" lon="5.71164">
        <ele>666</ele>
        <time>2021-03-31T13:08:34+02:00</time>
      </trkpt>
      <trkpt lat="44.03108" lon="5.71162">
        <ele>665</ele>
        <time>2021-03-31T13:08:36+02:00</time>
      </trkpt>
      <trkpt lat="44.03091" lon="5.71161">
        <ele>663</ele>
        <time>2021-03-31T13:08:38+02:00</time>
      </trkpt>
      <trkpt lat="44.03075" lon="5.71159">
        <ele>663</ele>
        <time>2021-03-31T13:08:40+02:00</time>
      </trkpt>
      <trkpt lat="44.03059" lon="5.71158">
        <ele>663</ele>
        <time>2021-03-31T13:08:42+02:00</time>
      </trkpt>
      <trkpt lat="44.03043" lon="5.71156">
        <ele>662</ele>
        <time>2021-03-31T13:08:44+02:00</time>
      </trkpt>
      <trkpt lat="44.03027" lon="5.71154">
        <ele>662</ele>
        <time>2021-03-31T13:08:46+02:00</time>
      </trkpt>
      <trkpt lat="44.03011" lon="5.71152">
        <ele>661</ele>
        <time>2021-03-31T13:08:48+02:00</time>
      </trkpt>
      <trkpt lat="44.02996" lon="5.7115">
        <ele>661</ele>
        <time>2021-03-31T13:08:50+02:00</time>
      </trkpt>
      <trkpt lat="44.0298" lon="5.71149">
        <ele>660</ele>
        <time>2021-03-31T13:08:52+02:00</time>
      </trkpt>
      <trkpt lat="44.02965" lon="5.71147">
        <ele>659</ele>
        <time>2021-03-31T13:08:54+02:00</time>
      </trkpt>
      <trkpt lat="44.02949" lon="5.71145">
        <ele>659</ele>
        <time>2021-03-31T13:08:56+02:00</time>
      </trkpt>
      <trkpt lat="44.02934" lon="5.71144">
        <ele>658</ele>
        <time>2021-03-31T13:08:58+02:00</time>
      </trkpt>
      <trkpt lat="44.02918" lon="5.71142">
        <ele>657</ele>
        <time>2021-03-31T13:09:00+02:00</time>
      </trkpt>
      <trkpt lat="44.02902" lon="5.71141">
        <ele>657</ele>
        <time>2021-03-31T13:09:02+02:00</time>
      </trkpt>
      <trkpt lat="44.02886" lon="5.71139">
        <ele>656</ele>
        <time>2021-03-31T13:09:04+02:00</time>
      </trkpt>
      <trkpt lat="44.02871" lon="5.71137">
        <ele>654</ele>
        <time>2021-03-31T13:09:06+02:00</time>
      </trkpt>
      <trkpt lat="44.02855" lon="5.71136">
        <ele>652</ele>
        <time>2021-03-31T13:09:08+02:00</time>
      </trkpt>
      <trkpt lat="44.0284" lon="5.71134">
        <ele>651</ele>
        <time>2021-03-31T13:09:10+02:00</time>
      </trkpt>
      <trkpt lat="44.02825" lon="5.71133">
        <ele>650</ele>
        <time>2021-03-31T13:09:12+02:00</time>
      </trkpt>
      <trkpt lat="44.0281" lon="5.71132">
        <ele>649</ele>
        <time>2021-03-31T13:09:14+02:00</time>
      </trkpt>
      <trkpt lat="44.02795" lon="5.7113">
        <ele>648</ele>
        <time>2021-03-31T13:09:16+02:00</time>
      </trkpt>
      <trkpt lat="44.0278" lon="5.71127">
        <ele>648</ele>
        <time>2021-03-31T13:09:18+02:00</time>
      </trkpt>
      <trkpt lat="44.02765" lon="5.71126">
        <ele>647</ele>
        <time>2021-03-31T13:09:20+02:00</time>
      </trkpt>
      <trkpt lat="44.0275" lon="5.71124">
        <ele>646</ele>
        <time>2021-03-31T13:09:22+02:00</time>
      </trkpt>
      <trkpt lat="44.02735" lon="5.71124">
        <ele>647</ele>
        <time>2021-03-31T13:09:24+02:00</time>
      </trkpt>
      <trkpt lat="44.02719" lon="5.71126">
        <ele>647</ele>
        <time>2021-03-31T13:09:26+02:00</time>
      </trkpt>
      <trkpt lat="44.02704" lon="5.71132">
        <ele>647</ele>
        <time>2021-03-31T13:09:28+02:00</time>
      </trkpt>
      <trkpt lat="44.0269" lon="5.7114">
        <ele>647</ele>
        <time>2021-03-31T13:09:30+02:00</time>
      </trkpt>
      <trkpt lat="44.02675" lon="5.71148">
        <ele>646</ele>
        <time>2021-03-31T13:09:32+02:00</time>
      </trkpt>
      <trkpt lat="44.02661" lon="5.71155">
        <ele>646</ele>
        <time>2021-03-31T13:09:34+02:00</time>
      </trkpt>
      <trkpt lat="44.02647" lon="5.71163">
        <ele>645</ele>
        <time>2021-03-31T13:09:36+02:00</time>
      </trkpt>
      <trkpt lat="44.02634" lon="5.7117">
        <ele>645</ele>
        <time>2021-03-31T13:09:38+02:00</time>
      </trkpt>
      <trkpt lat="44.0262" lon="5.71178">
        <ele>645</ele>
        <time>2021-03-31T13:09:40+02:00</time>
      </trkpt>
      <trkpt lat="44.02607" lon="5.71185">
        <ele>644</ele>
        <time>2021-03-31T13:09:42+02:00</time>
      </trkpt>
      <trkpt lat="44.02594" lon="5.71192">
        <ele>643</ele>
        <time>2021-03-31T13:09:44+02:00</time>
      </trkpt>
      <trkpt lat="44.02581" lon="5.71199">
        <ele>642</ele>
        <time>2021-03-31T13:09:46+02:00</time>
      </trkpt>
      <trkpt lat="44.02568" lon="5.71206">
        <ele>641</ele>
        <time>2021-03-31T13:09:48+02:00</time>
      </trkpt>
      <trkpt lat="44.02555" lon="5.71213">
        <ele>640</ele>
        <time>2021-03-31T13:09:50+02:00</time>
      </trkpt>
      <trkpt lat="44.02541" lon="5.71221">
        <ele>640</ele>
        <time>2021-03-31T13:09:52+02:00</time>
      </trkpt>
      <trkpt lat="44.02528" lon="5.71228">
        <ele>641</ele>
        <time>2021-03-31T13:09:54+02:00</time>
      </trkpt>
      <trkpt lat="44.02515" lon="5.71235">
        <ele>641</ele>
        <time>2021-03-31T13:09:56+02:00</time>
      </trkpt>
      <trkpt lat="44.02496" lon="5.71245">
        <ele>640</ele>
        <time>2021-03-31T13:09:59+02:00</time>
      </trkpt>
      <trkpt lat="44.02483" lon="5.71252">
        <ele>641</ele>
        <time>2021-03-31T13:10:01+02:00</time>
      </trkpt>
      <trkpt lat="44.02464" lon="5.71261">
        <ele>640</ele>
        <time>2021-03-31T13:10:04+02:00</time>
      </trkpt>
      <trkpt lat="44.02446" lon="5.71272">
        <ele>639</ele>
        <time>2021-03-31T13:10:07+02:00</time>
      </trkpt>
      <trkpt lat="44.02427" lon="5.71282">
        <ele>637</ele>
        <time>2021-03-31T13:10:10+02:00</time>
      </trkpt>
      <trkpt lat="44.02409" lon="5.71291">
        <ele>638</ele>
        <time>2021-03-31T13:10:13+02:00</time>
      </trkpt>
      <trkpt lat="44.02392" lon="5.713">
        <ele>637</ele>
        <time>2021-03-31T13:10:16+02:00</time>
      </trkpt>
      <trkpt lat="44.02375" lon="5.71309">
        <ele>636</ele>
        <time>2021-03-31T13:10:19+02:00</time>
      </trkpt>
      <trkpt lat="44.02358" lon="5.71319">
        <ele>635</ele>
        <time>2021-03-31T13:10:22+02:00</time>
      </trkpt>
      <trkpt lat="44.02341" lon="5.71328">
        <ele>635</ele>
        <time>2021-03-31T13:10:25+02:00</time>
      </trkpt>
      <trkpt lat="44.02327" lon="5.71336">
        <ele>633</ele>
        <time>2021-03-31T13:10:28+02:00</time>
      </trkpt>
      <trkpt lat="44.02311" lon="5.71347">
        <ele>633</ele>
        <time>2021-03-31T13:10:32+02:00</time>
      </trkpt>
      <trkpt lat="44.02313" lon="5.71368">
        <ele>631</ele>
        <time>2021-03-31T13:10:38+02:00</time>
      </trkpt>
      <trkpt lat="44.02322" lon="5.71382">
        <ele>631</ele>
        <time>2021-03-31T13:10:42+02:00</time>
      </trkpt>
      <trkpt lat="44.02333" lon="5.71398">
        <ele>633</ele>
        <time>2021-03-31T13:10:46+02:00</time>
      </trkpt>
      <trkpt lat="44.02346" lon="5.71414">
        <ele>635</ele>
        <time>2021-03-31T13:10:50+02:00</time>
      </trkpt>
      <trkpt lat="44.02358" lon="5.71432">
        <ele>636</ele>
        <time>2021-03-31T13:10:54+02:00</time>
      </trkpt>
      <trkpt lat="44.02368" lon="5.71447">
        <ele>636</ele>
        <time>2021-03-31T13:10:57+02:00</time>
      </trkpt>
      <trkpt lat="44.02377" lon="5.71462">
        <ele>635</ele>
        <time>2021-03-31T13:11:00+02:00</time>
      </trkpt>
      <trkpt lat="44.02387" lon="5.71477">
        <ele>635</ele>
        <time>2021-03-31T13:11:03+02:00</time>
      </trkpt>
      <trkpt lat="44.02396" lon="5.71491">
        <ele>635</ele>
        <time>2021-03-31T13:11:06+02:00</time>
      </trkpt>
      <trkpt lat="44.02406" lon="5.71505">
        <ele>636</ele>
        <time>2021-03-31T13:11:09+02:00</time>
      </trkpt>
      <trkpt lat="44.02415" lon="5.71521">
        <ele>636</ele>
        <time>2021-03-31T13:11:12+02:00</time>
      </trkpt>
      <trkpt lat="44.02423" lon="5.71539">
        <ele>636</ele>
        <time>2021-03-31T13:11:15+02:00</time>
      </trkpt>
      <trkpt lat="44.02429" lon="5.71558">
        <ele>637</ele>
        <time>2021-03-31T13:11:18+02:00</time>
      </trkpt>
      <trkpt lat="44.02435" lon="5.71578">
        <ele>637</ele>
        <time>2021-03-31T13:11:21+02:00</time>
      </trkpt>
      <trkpt lat="44.02439" lon="5.71598">
        <ele>638</ele>
        <time>2021-03-31T13:11:24+02:00</time>
      </trkpt>
      <trkpt lat="44.02444" lon="5.71619">
        <ele>638</ele>
        <time>2021-03-31T13:11:27+02:00</time>
      </trkpt>
      <trkpt lat="44.02448" lon="5.7164">
        <ele>638</ele>
        <time>2021-03-31T13:11:30+02:00</time>
      </trkpt>
      <trkpt lat="44.02454" lon="5.7166">
        <ele>637</ele>
        <time>2021-03-31T13:11:33+02:00</time>
      </trkpt>
      <trkpt lat="44.02459" lon="5.7168">
        <ele>637</ele>
        <time>2021-03-31T13:11:36+02:00</time>
      </trkpt>
      <trkpt lat="44.02464" lon="5.71699">
        <ele>638</ele>
        <time>2021-03-31T13:11:39+02:00</time>
      </trkpt>
      <trkpt lat="44.02468" lon="5.71721">
        <ele>637</ele>
        <time>2021-03-31T13:11:42+02:00</time>
      </trkpt>
      <trkpt lat="44.02475" lon="5.71745">
        <ele>636</ele>
        <time>2021-03-31T13:11:45+02:00</time>
      </trkpt>
      <trkpt lat="44.0248" lon="5.71762">
        <ele>636</ele>
        <time>2021-03-31T13:11:47+02:00</time>
      </trkpt>
      <trkpt lat="44.02486" lon="5.71779">
        <ele>635</ele>
        <time>2021-03-31T13:11:49+02:00</time>
      </trkpt>
      <trkpt lat="44.02493" lon="5.71797">
        <ele>634</ele>
        <time>2021-03-31T13:11:51+02:00</time>
      </trkpt>
      <trkpt lat="44.02502" lon="5.71813">
        <ele>633</ele>
        <time>2021-03-31T13:11:53+02:00</time>
      </trkpt>
      <trkpt lat="44.0251" lon="5.71831">
        <ele>632</ele>
        <time>2021-03-31T13:11:55+02:00</time>
      </trkpt>
      <trkpt lat="44.02519" lon="5.71849">
        <ele>631</ele>
        <time>2021-03-31T13:11:57+02:00</time>
      </trkpt>
      <trkpt lat="44.02528" lon="5.71868">
        <ele>630</ele>
        <time>2021-03-31T13:11:59+02:00</time>
      </trkpt>
      <trkpt lat="44.02537" lon="5.71887">
        <ele>629</ele>
        <time>2021-03-31T13:12:01+02:00</time>
      </trkpt>
      <trkpt lat="44.02546" lon="5.71907">
        <ele>628</ele>
        <time>2021-03-31T13:12:03+02:00</time>
      </trkpt>
      <trkpt lat="44.02554" lon="5.71928">
        <ele>628</ele>
        <time>2021-03-31T13:12:05+02:00</time>
      </trkpt>
      <trkpt lat="44.02562" lon="5.7195">
        <ele>628</ele>
        <time>2021-03-31T13:12:07+02:00</time>
      </trkpt>
      <trkpt lat="44.0257" lon="5.71972">
        <ele>627</ele>
        <time>2021-03-31T13:12:09+02:00</time>
      </trkpt>
      <trkpt lat="44.02577" lon="5.71994">
        <ele>627</ele>
        <time>2021-03-31T13:12:11+02:00</time>
      </trkpt>
      <trkpt lat="44.02585" lon="5.72017">
        <ele>627</ele>
        <time>2021-03-31T13:12:13+02:00</time>
      </trkpt>
      <trkpt lat="44.02594" lon="5.72038">
        <ele>626</ele>
        <time>2021-03-31T13:12:15+02:00</time>
      </trkpt>
      <trkpt lat="44.02606" lon="5.72056">
        <ele>626</ele>
        <time>2021-03-31T13:12:17+02:00</time>
      </trkpt>
      <trkpt lat="44.02619" lon="5.72072">
        <ele>625</ele>
        <time>2021-03-31T13:12:19+02:00</time>
      </trkpt>
      <trkpt lat="44.02633" lon="5.72087">
        <ele>625</ele>
        <time>2021-03-31T13:12:21+02:00</time>
      </trkpt>
      <trkpt lat="44.02646" lon="5.72103">
        <ele>624</ele>
        <time>2021-03-31T13:12:23+02:00</time>
      </trkpt>
      <trkpt lat="44.02657" lon="5.72122">
        <ele>623</ele>
        <time>2021-03-31T13:12:25+02:00</time>
      </trkpt>
      <trkpt lat="44.02667" lon="5.72141">
        <ele>623</ele>
        <time>2021-03-31T13:12:27+02:00</time>
      </trkpt>
      <trkpt lat="44.02675" lon="5.72162">
        <ele>623</ele>
        <time>2021-03-31T13:12:29+02:00</time>
      </trkpt>
      <trkpt lat="44.02684" lon="5.72181">
        <ele>623</ele>
        <time>2021-03-31T13:12:31+02:00</time>
      </trkpt>
      <trkpt lat="44.02692" lon="5.722">
        <ele>623</ele>
        <time>2021-03-31T13:12:33+02:00</time>
      </trkpt>
      <trkpt lat="44.02699" lon="5.72218">
        <ele>623</ele>
        <time>2021-03-31T13:12:35+02:00</time>
      </trkpt>
      <trkpt lat="44.02707" lon="5.72236">
        <ele>622</ele>
        <time>2021-03-31T13:12:37+02:00</time>
      </trkpt>
      <trkpt lat="44.02716" lon="5.72255">
        <ele>621</ele>
        <time>2021-03-31T13:12:39+02:00</time>
      </trkpt>
      <trkpt lat="44.02724" lon="5.72276">
        <ele>621</ele>
        <time>2021-03-31T13:12:41+02:00</time>
      </trkpt>
      <trkpt lat="44.02734" lon="5.72297">
        <ele>620</ele>
        <time>2021-03-31T13:12:43+02:00</time>
      </trkpt>
      <trkpt lat="44.02744" lon="5.72318">
        <ele>620</ele>
        <time>2021-03-31T13:12:45+02:00</time>
      </trkpt>
      <trkpt lat="44.02754" lon="5.7234">
        <ele>618</ele>
        <time>2021-03-31T13:12:47+02:00</time>
      </trkpt>
      <trkpt lat="44.02763" lon="5.72364">
        <ele>619</ele>
        <time>2021-03-31T13:12:49+02:00</time>
      </trkpt>
      <trkpt lat="44.0277" lon="5.72391">
        <ele>617</ele>
        <time>2021-03-31T13:12:51+02:00</time>
      </trkpt>
      <trkpt lat="44.02767" lon="5.72419">
        <ele>617</ele>
        <time>2021-03-31T13:12:53+02:00</time>
      </trkpt>
      <trkpt lat="44.02761" lon="5.72445">
        <ele>617</ele>
        <time>2021-03-31T13:12:55+02:00</time>
      </trkpt>
      <trkpt lat="44.02755" lon="5.7247">
        <ele>616</ele>
        <time>2021-03-31T13:12:57+02:00</time>
      </trkpt>
      <trkpt lat="44.02751" lon="5.72491">
        <ele>615</ele>
        <time>2021-03-31T13:12:59+02:00</time>
      </trkpt>
      <trkpt lat="44.02745" lon="5.72512">
        <ele>615</ele>
        <time>2021-03-31T13:13:01+02:00</time>
      </trkpt>
      <trkpt lat="44.02737" lon="5.72528">
        <ele>616</ele>
        <time>2021-03-31T13:13:03+02:00</time>
      </trkpt>
      <trkpt lat="44.02728" lon="5.72548">
        <ele>617</ele>
        <time>2021-03-31T13:13:06+02:00</time>
      </trkpt>
      <trkpt lat="44.02719" lon="5.72566">
        <ele>618</ele>
        <time>2021-03-31T13:13:09+02:00</time>
      </trkpt>
      <trkpt lat="44.02712" lon="5.72583">
        <ele>618</ele>
        <time>2021-03-31T13:13:12+02:00</time>
      </trkpt>
      <trkpt lat="44.02705" lon="5.72601">
        <ele>618</ele>
        <time>2021-03-31T13:13:15+02:00</time>
      </trkpt>
      <trkpt lat="44.02699" lon="5.7262">
        <ele>620</ele>
        <time>2021-03-31T13:13:18+02:00</time>
      </trkpt>
      <trkpt lat="44.02694" lon="5.72639">
        <ele>619</ele>
        <time>2021-03-31T13:13:21+02:00</time>
      </trkpt>
      <trkpt lat="44.02688" lon="5.72657">
        <ele>618</ele>
        <time>2021-03-31T13:13:24+02:00</time>
      </trkpt>
      <trkpt lat="44.02681" lon="5.72675">
        <ele>618</ele>
        <time>2021-03-31T13:13:27+02:00</time>
      </trkpt>
      <trkpt lat="44.02674" lon="5.72692">
        <ele>618</ele>
        <time>2021-03-31T13:13:30+02:00</time>
      </trkpt>
      <trkpt lat="44.02668" lon="5.72709">
        <ele>618</ele>
        <time>2021-03-31T13:13:33+02:00</time>
      </trkpt>
      <trkpt lat="44.02664" lon="5.72732">
        <ele>618</ele>
        <time>2021-03-31T13:13:37+02:00</time>
      </trkpt>
      <trkpt lat="44.02667" lon="5.72756">
        <ele>619</ele>
        <time>2021-03-31T13:13:41+02:00</time>
      </trkpt>
      <trkpt lat="44.02673" lon="5.72773">
        <ele>618</ele>
        <time>2021-03-31T13:13:44+02:00</time>
      </trkpt>
      <trkpt lat="44.0268" lon="5.72791">
        <ele>618</ele>
        <time>2021-03-31T13:13:47+02:00</time>
      </trkpt>
      <trkpt lat="44.02686" lon="5.72812">
        <ele>618</ele>
        <time>2021-03-31T13:13:50+02:00</time>
      </trkpt>
      <trkpt lat="44.02692" lon="5.72835">
        <ele>617</ele>
        <time>2021-03-31T13:13:53+02:00</time>
      </trkpt>
      <trkpt lat="44.027" lon="5.72859">
        <ele>617</ele>
        <time>2021-03-31T13:13:56+02:00</time>
      </trkpt>
      <trkpt lat="44.02706" lon="5.72884">
        <ele>616</ele>
        <time>2021-03-31T13:13:59+02:00</time>
      </trkpt>
      <trkpt lat="44.0271" lon="5.72908">
        <ele>615</ele>
        <time>2021-03-31T13:14:02+02:00</time>
      </trkpt>
      <trkpt lat="44.02715" lon="5.7293">
        <ele>616</ele>
        <time>2021-03-31T13:14:05+02:00</time>
      </trkpt>
      <trkpt lat="44.02721" lon="5.72951">
        <ele>616</ele>
        <time>2021-03-31T13:14:08+02:00</time>
      </trkpt>
      <trkpt lat="44.02727" lon="5.72972">
        <ele>617</ele>
        <time>2021-03-31T13:14:11+02:00</time>
      </trkpt>
      <trkpt lat="44.02732" lon="5.72991">
        <ele>618</ele>
        <time>2021-03-31T13:14:14+02:00</time>
      </trkpt>
      <trkpt lat="44.02738" lon="5.7301">
        <ele>618</ele>
        <time>2021-03-31T13:14:17+02:00</time>
      </trkpt>
      <trkpt lat="44.02743" lon="5.73029">
        <ele>619</ele>
        <time>2021-03-31T13:14:20+02:00</time>
      </trkpt>
      <trkpt lat="44.02748" lon="5.73047">
        <ele>620</ele>
        <time>2021-03-31T13:14:23+02:00</time>
      </trkpt>
      <trkpt lat="44.02752" lon="5.73066">
        <ele>620</ele>
        <time>2021-03-31T13:14:26+02:00</time>
      </trkpt>
      <trkpt lat="44.02757" lon="5.73084">
        <ele>620</ele>
        <time>2021-03-31T13:14:29+02:00</time>
      </trkpt>
      <trkpt lat="44.02762" lon="5.73103">
        <ele>620</ele>
        <time>2021-03-31T13:14:32+02:00</time>
      </trkpt>
      <trkpt lat="44.02767" lon="5.73121">
        <ele>620</ele>
        <time>2021-03-31T13:14:35+02:00</time>
      </trkpt>
      <trkpt lat="44.02771" lon="5.7314">
        <ele>620</ele>
        <time>2021-03-31T13:14:38+02:00</time>
      </trkpt>
      <trkpt lat="44.02776" lon="5.73159">
        <ele>622</ele>
        <time>2021-03-31T13:14:41+02:00</time>
      </trkpt>
      <trkpt lat="44.02783" lon="5.73182">
        <ele>623</ele>
        <time>2021-03-31T13:14:45+02:00</time>
      </trkpt>
      <trkpt lat="44.02788" lon="5.732">
        <ele>621</ele>
        <time>2021-03-31T13:14:48+02:00</time>
      </trkpt>
      <trkpt lat="44.02793" lon="5.73221">
        <ele>622</ele>
        <time>2021-03-31T13:14:52+02:00</time>
      </trkpt>
      <trkpt lat="44.02799" lon="5.73242">
        <ele>622</ele>
        <time>2021-03-31T13:14:56+02:00</time>
      </trkpt>
      <trkpt lat="44.02805" lon="5.73261">
        <ele>621</ele>
        <time>2021-03-31T13:15:00+02:00</time>
      </trkpt>
      <trkpt lat="44.02809" lon="5.73281">
        <ele>622</ele>
        <time>2021-03-31T13:15:04+02:00</time>
      </trkpt>
      <trkpt lat="44.02811" lon="5.73304">
        <ele>623</ele>
        <time>2021-03-31T13:15:09+02:00</time>
      </trkpt>
      <trkpt lat="44.02806" lon="5.73323">
        <ele>621</ele>
        <time>2021-03-31T13:15:13+02:00</time>
      </trkpt>
      <trkpt lat="44.02797" lon="5.73342">
        <ele>620</ele>
        <time>2021-03-31T13:15:17+02:00</time>
      </trkpt>
      <trkpt lat="44.02782" lon="5.73353">
        <ele>622</ele>
        <time>2021-03-31T13:15:21+02:00</time>
      </trkpt>
      <trkpt lat="44.02766" lon="5.73356">
        <ele>622</ele>
        <time>2021-03-31T13:15:25+02:00</time>
      </trkpt>
      <trkpt lat="44.02752" lon="5.73367">
        <ele>622</ele>
        <time>2021-03-31T13:15:29+02:00</time>
      </trkpt>
      <trkpt lat="44.02744" lon="5.73385">
        <ele>620</ele>
        <time>2021-03-31T13:15:33+02:00</time>
      </trkpt>
      <trkpt lat="44.02734" lon="5.734">
        <ele>620</ele>
        <time>2021-03-31T13:15:36+02:00</time>
      </trkpt>
      <trkpt lat="44.02719" lon="5.7341">
        <ele>619</ele>
        <time>2021-03-31T13:15:39+02:00</time>
      </trkpt>
      <trkpt lat="44.02702" lon="5.73413">
        <ele>618</ele>
        <time>2021-03-31T13:15:42+02:00</time>
      </trkpt>
      <trkpt lat="44.02688" lon="5.73413">
        <ele>615</ele>
        <time>2021-03-31T13:15:46+02:00</time>
      </trkpt>
      <trkpt lat="44.02675" lon="5.73403">
        <ele>611</ele>
        <time>2021-03-31T13:15:50+02:00</time>
      </trkpt>
      <trkpt lat="44.0266" lon="5.73394">
        <ele>611</ele>
        <time>2021-03-31T13:15:53+02:00</time>
      </trkpt>
      <trkpt lat="44.02639" lon="5.7339">
        <ele>611</ele>
        <time>2021-03-31T13:15:56+02:00</time>
      </trkpt>
      <trkpt lat="44.02623" lon="5.7339">
        <ele>611</ele>
        <time>2021-03-31T13:15:58+02:00</time>
      </trkpt>
      <trkpt lat="44.02606" lon="5.7339">
        <ele>610</ele>
        <time>2021-03-31T13:16:00+02:00</time>
      </trkpt>
      <trkpt lat="44.02588" lon="5.7339">
        <ele>610</ele>
        <time>2021-03-31T13:16:02+02:00</time>
      </trkpt>
      <trkpt lat="44.0257" lon="5.7339">
        <ele>609</ele>
        <time>2021-03-31T13:16:04+02:00</time>
      </trkpt>
      <trkpt lat="44.0255" lon="5.7339">
        <ele>611</ele>
        <time>2021-03-31T13:16:06+02:00</time>
      </trkpt>
      <trkpt lat="44.02532" lon="5.73389">
        <ele>609</ele>
        <time>2021-03-31T13:16:08+02:00</time>
      </trkpt>
      <trkpt lat="44.02515" lon="5.7339">
        <ele>608</ele>
        <time>2021-03-31T13:16:10+02:00</time>
      </trkpt>
      <trkpt lat="44.02497" lon="5.7339">
        <ele>606</ele>
        <time>2021-03-31T13:16:12+02:00</time>
      </trkpt>
      <trkpt lat="44.0248" lon="5.7339">
        <ele>606</ele>
        <time>2021-03-31T13:16:14+02:00</time>
      </trkpt>
      <trkpt lat="44.02464" lon="5.7339">
        <ele>605</ele>
        <time>2021-03-31T13:16:16+02:00</time>
      </trkpt>
      <trkpt lat="44.02449" lon="5.7339">
        <ele>605</ele>
        <time>2021-03-31T13:16:18+02:00</time>
      </trkpt>
      <trkpt lat="44.02434" lon="5.7339">
        <ele>604</ele>
        <time>2021-03-31T13:16:20+02:00</time>
      </trkpt>
      <trkpt lat="44.0242" lon="5.7339">
        <ele>604</ele>
        <time>2021-03-31T13:16:22+02:00</time>
      </trkpt>
      <trkpt lat="44.02401" lon="5.73387">
        <ele>603</ele>
        <time>2021-03-31T13:16:25+02:00</time>
      </trkpt>
      <trkpt lat="44.02383" lon="5.73377">
        <ele>602</ele>
        <time>2021-03-31T13:16:28+02:00</time>
      </trkpt>
      <trkpt lat="44.02363" lon="5.73373">
        <ele>603</ele>
        <time>2021-03-31T13:16:31+02:00</time>
      </trkpt>
      <trkpt lat="44.02349" lon="5.73372">
        <ele>601</ele>
        <time>2021-03-31T13:16:33+02:00</time>
      </trkpt>
      <trkpt lat="44.02335" lon="5.73371">
        <ele>600</ele>
        <time>2021-03-31T13:16:35+02:00</time>
      </trkpt>
      <trkpt lat="44.0232" lon="5.73369">
        <ele>598</ele>
        <time>2021-03-31T13:16:37+02:00</time>
      </trkpt>
      <trkpt lat="44.02303" lon="5.73368">
        <ele>597</ele>
        <time>2021-03-31T13:16:39+02:00</time>
      </trkpt>
      <trkpt lat="44.02287" lon="5.73368">
        <ele>596</ele>
        <time>2021-03-31T13:16:41+02:00</time>
      </trkpt>
      <trkpt lat="44.0227" lon="5.73373">
        <ele>595</ele>
        <time>2021-03-31T13:16:43+02:00</time>
      </trkpt>
      <trkpt lat="44.02256" lon="5.73386">
        <ele>594</ele>
        <time>2021-03-31T13:16:45+02:00</time>
      </trkpt>
      <trkpt lat="44.02246" lon="5.73405">
        <ele>593</ele>
        <time>2021-03-31T13:16:47+02:00</time>
      </trkpt>
      <trkpt lat="44.02237" lon="5.73424">
        <ele>592</ele>
        <time>2021-03-31T13:16:49+02:00</time>
      </trkpt>
      <trkpt lat="44.02229" lon="5.73443">
        <ele>590</ele>
        <time>2021-03-31T13:16:51+02:00</time>
      </trkpt>
      <trkpt lat="44.0222" lon="5.73462">
        <ele>589</ele>
        <time>2021-03-31T13:16:53+02:00</time>
      </trkpt>
      <trkpt lat="44.02211" lon="5.7348">
        <ele>589</ele>
        <time>2021-03-31T13:16:55+02:00</time>
      </trkpt>
      <trkpt lat="44.02203" lon="5.735">
        <ele>588</ele>
        <time>2021-03-31T13:16:57+02:00</time>
      </trkpt>
      <trkpt lat="44.02195" lon="5.7352">
        <ele>586</ele>
        <time>2021-03-31T13:16:59+02:00</time>
      </trkpt>
      <trkpt lat="44.02187" lon="5.7354">
        <ele>584</ele>
        <time>2021-03-31T13:17:01+02:00</time>
      </trkpt>
      <trkpt lat="44.02178" lon="5.73562">
        <ele>583</ele>
        <time>2021-03-31T13:17:03+02:00</time>
      </trkpt>
      <trkpt lat="44.02169" lon="5.73581">
        <ele>582</ele>
        <time>2021-03-31T13:17:05+02:00</time>
      </trkpt>
      <trkpt lat="44.02159" lon="5.73599">
        <ele>582</ele>
        <time>2021-03-31T13:17:07+02:00</time>
      </trkpt>
      <trkpt lat="44.02149" lon="5.73615">
        <ele>582</ele>
        <time>2021-03-31T13:17:09+02:00</time>
      </trkpt>
      <trkpt lat="44.02136" lon="5.73633">
        <ele>582</ele>
        <time>2021-03-31T13:17:12+02:00</time>
      </trkpt>
      <trkpt lat="44.02127" lon="5.73649">
        <ele>582</ele>
        <time>2021-03-31T13:17:15+02:00</time>
      </trkpt>
      <trkpt lat="44.02125" lon="5.73669">
        <ele>582</ele>
        <time>2021-03-31T13:17:18+02:00</time>
      </trkpt>
      <trkpt lat="44.02127" lon="5.73689">
        <ele>582</ele>
        <time>2021-03-31T13:17:21+02:00</time>
      </trkpt>
      <trkpt lat="44.02132" lon="5.7371">
        <ele>581</ele>
        <time>2021-03-31T13:17:24+02:00</time>
      </trkpt>
      <trkpt lat="44.02138" lon="5.73729">
        <ele>581</ele>
        <time>2021-03-31T13:17:27+02:00</time>
      </trkpt>
      <trkpt lat="44.02146" lon="5.73748">
        <ele>579</ele>
        <time>2021-03-31T13:17:30+02:00</time>
      </trkpt>
      <trkpt lat="44.02155" lon="5.73771">
        <ele>578</ele>
        <time>2021-03-31T13:17:33+02:00</time>
      </trkpt>
      <trkpt lat="44.02162" lon="5.73796">
        <ele>577</ele>
        <time>2021-03-31T13:17:36+02:00</time>
      </trkpt>
      <trkpt lat="44.02167" lon="5.73823">
        <ele>577</ele>
        <time>2021-03-31T13:17:39+02:00</time>
      </trkpt>
      <trkpt lat="44.0217" lon="5.73842">
        <ele>578</ele>
        <time>2021-03-31T13:17:41+02:00</time>
      </trkpt>
      <trkpt lat="44.02172" lon="5.73862">
        <ele>578</ele>
        <time>2021-03-31T13:17:43+02:00</time>
      </trkpt>
      <trkpt lat="44.02172" lon="5.73882">
        <ele>577</ele>
        <time>2021-03-31T13:17:45+02:00</time>
      </trkpt>
      <trkpt lat="44.02171" lon="5.73901">
        <ele>577</ele>
        <time>2021-03-31T13:17:47+02:00</time>
      </trkpt>
      <trkpt lat="44.02167" lon="5.7392">
        <ele>577</ele>
        <time>2021-03-31T13:17:49+02:00</time>
      </trkpt>
      <trkpt lat="44.02163" lon="5.73939">
        <ele>576</ele>
        <time>2021-03-31T13:17:51+02:00</time>
      </trkpt>
      <trkpt lat="44.02157" lon="5.73956">
        <ele>576</ele>
        <time>2021-03-31T13:17:53+02:00</time>
      </trkpt>
      <trkpt lat="44.02151" lon="5.73973">
        <ele>576</ele>
        <time>2021-03-31T13:17:55+02:00</time>
      </trkpt>
      <trkpt lat="44.02144" lon="5.7399">
        <ele>576</ele>
        <time>2021-03-31T13:17:57+02:00</time>
      </trkpt>
      <trkpt lat="44.02133" lon="5.74011">
        <ele>575</ele>
        <time>2021-03-31T13:18:00+02:00</time>
      </trkpt>
      <trkpt lat="44.02119" lon="5.74031">
        <ele>577</ele>
        <time>2021-03-31T13:18:03+02:00</time>
      </trkpt>
      <trkpt lat="44.02105" lon="5.74048">
        <ele>578</ele>
        <time>2021-03-31T13:18:06+02:00</time>
      </trkpt>
      <trkpt lat="44.02092" lon="5.74064">
        <ele>578</ele>
        <time>2021-03-31T13:18:09+02:00</time>
      </trkpt>
      <trkpt lat="44.02083" lon="5.74083">
        <ele>580</ele>
        <time>2021-03-31T13:18:12+02:00</time>
      </trkpt>
      <trkpt lat="44.02076" lon="5.74102">
        <ele>580</ele>
        <time>2021-03-31T13:18:15+02:00</time>
      </trkpt>
      <trkpt lat="44.02068" lon="5.74118">
        <ele>581</ele>
        <time>2021-03-31T13:18:18+02:00</time>
      </trkpt>
      <trkpt lat="44.02057" lon="5.74132">
        <ele>582</ele>
        <time>2021-03-31T13:18:21+02:00</time>
      </trkpt>
      <trkpt lat="44.02043" lon="5.74146">
        <ele>582</ele>
        <time>2021-03-31T13:18:25+02:00</time>
      </trkpt>
      <trkpt lat="44.02033" lon="5.74163">
        <ele>581</ele>
        <time>2021-03-31T13:18:29+02:00</time>
      </trkpt>
      <trkpt lat="44.02027" lon="5.74184">
        <ele>581</ele>
        <time>2021-03-31T13:18:33+02:00</time>
      </trkpt>
      <trkpt lat="44.02022" lon="5.74205">
        <ele>580</ele>
        <time>2021-03-31T13:18:37+02:00</time>
      </trkpt>
      <trkpt lat="44.02017" lon="5.74225">
        <ele>579</ele>
        <time>2021-03-31T13:18:41+02:00</time>
      </trkpt>
      <trkpt lat="44.02013" lon="5.74246">
        <ele>578</ele>
        <time>2021-03-31T13:18:45+02:00</time>
      </trkpt>
      <trkpt lat="44.02006" lon="5.74265">
        <ele>578</ele>
        <time>2021-03-31T13:18:49+02:00</time>
      </trkpt>
      <trkpt lat="44.02002" lon="5.74286">
        <ele>579</ele>
        <time>2021-03-31T13:18:54+02:00</time>
      </trkpt>
      <trkpt lat="44.01994" lon="5.74302">
        <ele>579</ele>
        <time>2021-03-31T13:18:59+02:00</time>
      </trkpt>
      <trkpt lat="44.01987" lon="5.74319">
        <ele>580</ele>
        <time>2021-03-31T13:19:03+02:00</time>
      </trkpt>
      <trkpt lat="44.01977" lon="5.74336">
        <ele>582</ele>
        <time>2021-03-31T13:19:08+02:00</time>
      </trkpt>
      <trkpt lat="44.01966" lon="5.74352">
        <ele>583</ele>
        <time>2021-03-31T13:19:13+02:00</time>
      </trkpt>
      <trkpt lat="44.01953" lon="5.74363">
        <ele>582</ele>
        <time>2021-03-31T13:19:18+02:00</time>
      </trkpt>
      <trkpt lat="44.0194" lon="5.74372">
        <ele>582</ele>
        <time>2021-03-31T13:19:23+02:00</time>
      </trkpt>
      <trkpt lat="44.01927" lon="5.74381">
        <ele>582</ele>
        <time>2021-03-31T13:19:28+02:00</time>
      </trkpt>
      <trkpt lat="44.01916" lon="5.74394">
        <ele>584</ele>
        <time>2021-03-31T13:19:33+02:00</time>
      </trkpt>
      <trkpt lat="44.0191" lon="5.74412">
        <ele>586</ele>
        <time>2021-03-31T13:19:38+02:00</time>
      </trkpt>
      <trkpt lat="44.01906" lon="5.74435">
        <ele>586</ele>
        <time>2021-03-31T13:19:43+02:00</time>
      </trkpt>
      <trkpt lat="44.01906" lon="5.74458">
        <ele>585</ele>
        <time>2021-03-31T13:19:46+02:00</time>
      </trkpt>
      <trkpt lat="44.01907" lon="5.74482">
        <ele>584</ele>
        <time>2021-03-31T13:19:49+02:00</time>
      </trkpt>
      <trkpt lat="44.01906" lon="5.74506">
        <ele>584</ele>
        <time>2021-03-31T13:19:52+02:00</time>
      </trkpt>
      <trkpt lat="44.01905" lon="5.74528">
        <ele>583</ele>
        <time>2021-03-31T13:19:55+02:00</time>
      </trkpt>
      <trkpt lat="44.01906" lon="5.7455">
        <ele>583</ele>
        <time>2021-03-31T13:19:58+02:00</time>
      </trkpt>
      <trkpt lat="44.0191" lon="5.74571">
        <ele>583</ele>
        <time>2021-03-31T13:20:01+02:00</time>
      </trkpt>
      <trkpt lat="44.01911" lon="5.74592">
        <ele>582</ele>
        <time>2021-03-31T13:20:04+02:00</time>
      </trkpt>
      <trkpt lat="44.01913" lon="5.74611">
        <ele>582</ele>
        <time>2021-03-31T13:20:07+02:00</time>
      </trkpt>
      <trkpt lat="44.01914" lon="5.74632">
        <ele>582</ele>
        <time>2021-03-31T13:20:10+02:00</time>
      </trkpt>
      <trkpt lat="44.01916" lon="5.74654">
        <ele>582</ele>
        <time>2021-03-31T13:20:13+02:00</time>
      </trkpt>
      <trkpt lat="44.01919" lon="5.74675">
        <ele>583</ele>
        <time>2021-03-31T13:20:16+02:00</time>
      </trkpt>
      <trkpt lat="44.01925" lon="5.74697">
        <ele>583</ele>
        <time>2021-03-31T13:20:19+02:00</time>
      </trkpt>
      <trkpt lat="44.01932" lon="5.74721">
        <ele>582</ele>
        <time>2021-03-31T13:20:22+02:00</time>
      </trkpt>
      <trkpt lat="44.01941" lon="5.74745">
        <ele>582</ele>
        <time>2021-03-31T13:20:25+02:00</time>
      </trkpt>
      <trkpt lat="44.01949" lon="5.74771">
        <ele>581</ele>
        <time>2021-03-31T13:20:28+02:00</time>
      </trkpt>
      <trkpt lat="44.01954" lon="5.74788">
        <ele>581</ele>
        <time>2021-03-31T13:20:30+02:00</time>
      </trkpt>
      <trkpt lat="44.0196" lon="5.74806">
        <ele>581</ele>
        <time>2021-03-31T13:20:32+02:00</time>
      </trkpt>
      <trkpt lat="44.01965" lon="5.74823">
        <ele>581</ele>
        <time>2021-03-31T13:20:34+02:00</time>
      </trkpt>
      <trkpt lat="44.01971" lon="5.7484">
        <ele>581</ele>
        <time>2021-03-31T13:20:36+02:00</time>
      </trkpt>
      <trkpt lat="44.0198" lon="5.74865">
        <ele>581</ele>
        <time>2021-03-31T13:20:39+02:00</time>
      </trkpt>
      <trkpt lat="44.0199" lon="5.74879">
        <ele>580</ele>
        <time>2021-03-31T13:20:41+02:00</time>
      </trkpt>
      <trkpt lat="44.02001" lon="5.74893">
        <ele>580</ele>
        <time>2021-03-31T13:20:43+02:00</time>
      </trkpt>
      <trkpt lat="44.02013" lon="5.74907">
        <ele>578</ele>
        <time>2021-03-31T13:20:45+02:00</time>
      </trkpt>
      <trkpt lat="44.02026" lon="5.74921">
        <ele>578</ele>
        <time>2021-03-31T13:20:47+02:00</time>
      </trkpt>
      <trkpt lat="44.02039" lon="5.74937">
        <ele>577</ele>
        <time>2021-03-31T13:20:49+02:00</time>
      </trkpt>
      <trkpt lat="44.02051" lon="5.74951">
        <ele>577</ele>
        <time>2021-03-31T13:20:51+02:00</time>
      </trkpt>
      <trkpt lat="44.02063" lon="5.74965">
        <ele>577</ele>
        <time>2021-03-31T13:20:53+02:00</time>
      </trkpt>
      <trkpt lat="44.02074" lon="5.74975">
        <ele>577</ele>
        <time>2021-03-31T13:20:55+02:00</time>
      </trkpt>
      <trkpt lat="44.02079" lon="5.74996">
        <ele>575</ele>
        <time>2021-03-31T13:20:59+02:00</time>
      </trkpt>
      <trkpt lat="44.0206" lon="5.75">
        <ele>574</ele>
        <time>2021-03-31T13:21:02+02:00</time>
      </trkpt>
      <trkpt lat="44.02042" lon="5.75006">
        <ele>572</ele>
        <time>2021-03-31T13:21:05+02:00</time>
      </trkpt>
      <trkpt lat="44.02023" lon="5.75015">
        <ele>571</ele>
        <time>2021-03-31T13:21:08+02:00</time>
      </trkpt>
      <trkpt lat="44.02011" lon="5.75024">
        <ele>570</ele>
        <time>2021-03-31T13:21:10+02:00</time>
      </trkpt>
      <trkpt lat="44.02001" lon="5.75038">
        <ele>570</ele>
        <time>2021-03-31T13:21:12+02:00</time>
      </trkpt>
      <trkpt lat="44.0199" lon="5.75053">
        <ele>570</ele>
        <time>2021-03-31T13:21:14+02:00</time>
      </trkpt>
      <trkpt lat="44.01981" lon="5.75067">
        <ele>569</ele>
        <time>2021-03-31T13:21:16+02:00</time>
      </trkpt>
      <trkpt lat="44.01973" lon="5.75082">
        <ele>568</ele>
        <time>2021-03-31T13:21:18+02:00</time>
      </trkpt>
      <trkpt lat="44.01969" lon="5.75102">
        <ele>567</ele>
        <time>2021-03-31T13:21:20+02:00</time>
      </trkpt>
      <trkpt lat="44.01968" lon="5.75123">
        <ele>566</ele>
        <time>2021-03-31T13:21:22+02:00</time>
      </trkpt>
      <trkpt lat="44.01967" lon="5.75146">
        <ele>565</ele>
        <time>2021-03-31T13:21:24+02:00</time>
      </trkpt>
      <trkpt lat="44.01966" lon="5.75168">
        <ele>564</ele>
        <time>2021-03-31T13:21:26+02:00</time>
      </trkpt>
      <trkpt lat="44.01964" lon="5.7519">
        <ele>563</ele>
        <time>2021-03-31T13:21:28+02:00</time>
      </trkpt>
      <trkpt lat="44.01963" lon="5.7521">
        <ele>563</ele>
        <time>2021-03-31T13:21:30+02:00</time>
      </trkpt>
      <trkpt lat="44.0196" lon="5.75236">
        <ele>561</ele>
        <time>2021-03-31T13:21:33+02:00</time>
      </trkpt>
      <trkpt lat="44.01957" lon="5.7526">
        <ele>560</ele>
        <time>2021-03-31T13:21:36+02:00</time>
      </trkpt>
      <trkpt lat="44.01953" lon="5.75281">
        <ele>560</ele>
        <time>2021-03-31T13:21:40+02:00</time>
      </trkpt>
      <trkpt lat="44.01947" lon="5.75301">
        <ele>558</ele>
        <time>2021-03-31T13:21:44+02:00</time>
      </trkpt>
      <trkpt lat="44.01945" lon="5.75324">
        <ele>558</ele>
        <time>2021-03-31T13:21:48+02:00</time>
      </trkpt>
      <trkpt lat="44.01948" lon="5.75348">
        <ele>556</ele>
        <time>2021-03-31T13:21:52+02:00</time>
      </trkpt>
      <trkpt lat="44.01949" lon="5.75373">
        <ele>554</ele>
        <time>2021-03-31T13:21:56+02:00</time>
      </trkpt>
      <trkpt lat="44.01949" lon="5.75394">
        <ele>552</ele>
        <time>2021-03-31T13:21:59+02:00</time>
      </trkpt>
      <trkpt lat="44.01946" lon="5.75416">
        <ele>553</ele>
        <time>2021-03-31T13:22:02+02:00</time>
      </trkpt>
      <trkpt lat="44.01938" lon="5.75433">
        <ele>554</ele>
        <time>2021-03-31T13:22:05+02:00</time>
      </trkpt>
      <trkpt lat="44.01922" lon="5.75439">
        <ele>556</ele>
        <time>2021-03-31T13:22:09+02:00</time>
      </trkpt>
      <trkpt lat="44.01917" lon="5.75457">
        <ele>557</ele>
        <time>2021-03-31T13:22:16+02:00</time>
      </trkpt>
      <trkpt lat="44.01928" lon="5.75473">
        <ele>558</ele>
        <time>2021-03-31T13:22:21+02:00</time>
      </trkpt>
      <trkpt lat="44.01939" lon="5.75485">
        <ele>559</ele>
        <time>2021-03-31T13:22:25+02:00</time>
      </trkpt>
      <trkpt lat="44.0195" lon="5.75499">
        <ele>560</ele>
        <time>2021-03-31T13:22:29+02:00</time>
      </trkpt>
      <trkpt lat="44.01962" lon="5.75512">
        <ele>561</ele>
        <time>2021-03-31T13:22:33+02:00</time>
      </trkpt>
      <trkpt lat="44.01974" lon="5.75526">
        <ele>562</ele>
        <time>2021-03-31T13:22:37+02:00</time>
      </trkpt>
      <trkpt lat="44.01985" lon="5.7554">
        <ele>562</ele>
        <time>2021-03-31T13:22:41+02:00</time>
      </trkpt>
      <trkpt lat="44.01997" lon="5.75554">
        <ele>562</ele>
        <time>2021-03-31T13:22:45+02:00</time>
      </trkpt>
      <trkpt lat="44.02009" lon="5.75567">
        <ele>562</ele>
        <time>2021-03-31T13:22:49+02:00</time>
      </trkpt>
      <trkpt lat="44.0202" lon="5.75581">
        <ele>563</ele>
        <time>2021-03-31T13:22:53+02:00</time>
      </trkpt>
      <trkpt lat="44.02031" lon="5.75594">
        <ele>563</ele>
        <time>2021-03-31T13:22:57+02:00</time>
      </trkpt>
      <trkpt lat="44.02042" lon="5.75609">
        <ele>564</ele>
        <time>2021-03-31T13:23:01+02:00</time>
      </trkpt>
      <trkpt lat="44.02053" lon="5.75622">
        <ele>564</ele>
        <time>2021-03-31T13:23:05+02:00</time>
      </trkpt>
      <trkpt lat="44.02065" lon="5.75636">
        <ele>565</ele>
        <time>2021-03-31T13:23:09+02:00</time>
      </trkpt>
      <trkpt lat="44.02076" lon="5.75649">
        <ele>565</ele>
        <time>2021-03-31T13:23:13+02:00</time>
      </trkpt>
      <trkpt lat="44.02088" lon="5.75663">
        <ele>566</ele>
        <time>2021-03-31T13:23:17+02:00</time>
      </trkpt>
      <trkpt lat="44.02099" lon="5.75676">
        <ele>566</ele>
        <time>2021-03-31T13:23:21+02:00</time>
      </trkpt>
      <trkpt lat="44.02109" lon="5.75689">
        <ele>566</ele>
        <time>2021-03-31T13:23:25+02:00</time>
      </trkpt>
      <trkpt lat="44.0212" lon="5.75703">
        <ele>565</ele>
        <time>2021-03-31T13:23:29+02:00</time>
      </trkpt>
      <trkpt lat="44.02133" lon="5.75718">
        <ele>566</ele>
        <time>2021-03-31T13:23:34+02:00</time>
      </trkpt>
      <trkpt lat="44.02143" lon="5.7573">
        <ele>566</ele>
        <time>2021-03-31T13:23:38+02:00</time>
      </trkpt>
      <trkpt lat="44.02153" lon="5.75743">
        <ele>567</ele>
        <time>2021-03-31T13:23:42+02:00</time>
      </trkpt>
      <trkpt lat="44.02164" lon="5.75755">
        <ele>568</ele>
        <time>2021-03-31T13:23:46+02:00</time>
      </trkpt>
      <trkpt lat="44.02175" lon="5.7577">
        <ele>569</ele>
        <time>2021-03-31T13:23:51+02:00</time>
      </trkpt>
      <trkpt lat="44.02187" lon="5.75783">
        <ele>569</ele>
        <time>2021-03-31T13:23:56+02:00</time>
      </trkpt>
      <trkpt lat="44.02199" lon="5.75798">
        <ele>569</ele>
        <time>2021-03-31T13:24:01+02:00</time>
      </trkpt>
      <trkpt lat="44.02209" lon="5.75813">
        <ele>569</ele>
        <time>2021-03-31T13:24:07+02:00</time>
      </trkpt>
      <trkpt lat="44.0222" lon="5.75825">
        <ele>570</ele>
        <time>2021-03-31T13:24:13+02:00</time>
      </trkpt>
      <trkpt lat="44.02232" lon="5.75838">
        <ele>570</ele>
        <time>2021-03-31T13:24:19+02:00</time>
      </trkpt>
      <trkpt lat="44.02242" lon="5.75851">
        <ele>571</ele>
        <time>2021-03-31T13:24:25+02:00</time>
      </trkpt>
      <trkpt lat="44.02252" lon="5.75865">
        <ele>573</ele>
        <time>2021-03-31T13:24:31+02:00</time>
      </trkpt>
      <trkpt lat="44.02264" lon="5.7588">
        <ele>574</ele>
        <time>2021-03-31T13:24:37+02:00</time>
      </trkpt>
      <trkpt lat="44.02277" lon="5.75894">
        <ele>574</ele>
        <time>2021-03-31T13:24:43+02:00</time>
      </trkpt>
      <trkpt lat="44.02288" lon="5.75908">
        <ele>574</ele>
        <time>2021-03-31T13:24:49+02:00</time>
      </trkpt>
      <trkpt lat="44.023" lon="5.75922">
        <ele>574</ele>
        <time>2021-03-31T13:24:55+02:00</time>
      </trkpt>
      <trkpt lat="44.0231" lon="5.75934">
        <ele>575</ele>
        <time>2021-03-31T13:25:00+02:00</time>
      </trkpt>
      <trkpt lat="44.02322" lon="5.75949">
        <ele>575</ele>
        <time>2021-03-31T13:25:06+02:00</time>
      </trkpt>
      <trkpt lat="44.02333" lon="5.75963">
        <ele>577</ele>
        <time>2021-03-31T13:25:12+02:00</time>
      </trkpt>
      <trkpt lat="44.02346" lon="5.75977">
        <ele>578</ele>
        <time>2021-03-31T13:25:18+02:00</time>
      </trkpt>
      <trkpt lat="44.02356" lon="5.7599">
        <ele>577</ele>
        <time>2021-03-31T13:25:23+02:00</time>
      </trkpt>
      <trkpt lat="44.02367" lon="5.76002">
        <ele>578</ele>
        <time>2021-03-31T13:25:28+02:00</time>
      </trkpt>
      <trkpt lat="44.0238" lon="5.76017">
        <ele>578</ele>
        <time>2021-03-31T13:25:33+02:00</time>
      </trkpt>
      <trkpt lat="44.02391" lon="5.76028">
        <ele>580</ele>
        <time>2021-03-31T13:25:37+02:00</time>
      </trkpt>
      <trkpt lat="44.02403" lon="5.76039">
        <ele>581</ele>
        <time>2021-03-31T13:25:41+02:00</time>
      </trkpt>
      <trkpt lat="44.02417" lon="5.76048">
        <ele>580</ele>
        <time>2021-03-31T13:25:45+02:00</time>
      </trkpt>
      <trkpt lat="44.02431" lon="5.76056">
        <ele>580</ele>
        <time>2021-03-31T13:25:49+02:00</time>
      </trkpt>
      <trkpt lat="44.02444" lon="5.76065">
        <ele>580</ele>
        <time>2021-03-31T13:25:53+02:00</time>
      </trkpt>
      <trkpt lat="44.02458" lon="5.76074">
        <ele>579</ele>
        <time>2021-03-31T13:25:57+02:00</time>
      </trkpt>
      <trkpt lat="44.02472" lon="5.76083">
        <ele>579</ele>
        <time>2021-03-31T13:26:01+02:00</time>
      </trkpt>
      <trkpt lat="44.02485" lon="5.76092">
        <ele>580</ele>
        <time>2021-03-31T13:26:05+02:00</time>
      </trkpt>
      <trkpt lat="44.02498" lon="5.76102">
        <ele>578</ele>
        <time>2021-03-31T13:26:09+02:00</time>
      </trkpt>
      <trkpt lat="44.0251" lon="5.76111">
        <ele>579</ele>
        <time>2021-03-31T13:26:13+02:00</time>
      </trkpt>
      <trkpt lat="44.02525" lon="5.76122">
        <ele>581</ele>
        <time>2021-03-31T13:26:18+02:00</time>
      </trkpt>
      <trkpt lat="44.02536" lon="5.76132">
        <ele>582</ele>
        <time>2021-03-31T13:26:22+02:00</time>
      </trkpt>
      <trkpt lat="44.02549" lon="5.76141">
        <ele>583</ele>
        <time>2021-03-31T13:26:26+02:00</time>
      </trkpt>
      <trkpt lat="44.02561" lon="5.76152">
        <ele>584</ele>
        <time>2021-03-31T13:26:30+02:00</time>
      </trkpt>
      <trkpt lat="44.02572" lon="5.76165">
        <ele>585</ele>
        <time>2021-03-31T13:26:34+02:00</time>
      </trkpt>
      <trkpt lat="44.02583" lon="5.76179">
        <ele>584</ele>
        <time>2021-03-31T13:26:38+02:00</time>
      </trkpt>
      <trkpt lat="44.02594" lon="5.76193">
        <ele>585</ele>
        <time>2021-03-31T13:26:42+02:00</time>
      </trkpt>
      <trkpt lat="44.02602" lon="5.76209">
        <ele>582</ele>
        <time>2021-03-31T13:26:46+02:00</time>
      </trkpt>
      <trkpt lat="44.02611" lon="5.76226">
        <ele>581</ele>
        <time>2021-03-31T13:26:50+02:00</time>
      </trkpt>
      <trkpt lat="44.0262" lon="5.76246">
        <ele>582</ele>
        <time>2021-03-31T13:26:54+02:00</time>
      </trkpt>
      <trkpt lat="44.02629" lon="5.76267">
        <ele>584</ele>
        <time>2021-03-31T13:26:58+02:00</time>
      </trkpt>
      <trkpt lat="44.02637" lon="5.76288">
        <ele>585</ele>
        <time>2021-03-31T13:27:02+02:00</time>
      </trkpt>
      <trkpt lat="44.02644" lon="5.76305">
        <ele>586</ele>
        <time>2021-03-31T13:27:05+02:00</time>
      </trkpt>
      <trkpt lat="44.02653" lon="5.76326">
        <ele>586</ele>
        <time>2021-03-31T13:27:09+02:00</time>
      </trkpt>
      <trkpt lat="44.0266" lon="5.76343">
        <ele>585</ele>
        <time>2021-03-31T13:27:12+02:00</time>
      </trkpt>
      <trkpt lat="44.02667" lon="5.7636">
        <ele>585</ele>
        <time>2021-03-31T13:27:15+02:00</time>
      </trkpt>
      <trkpt lat="44.02675" lon="5.76382">
        <ele>587</ele>
        <time>2021-03-31T13:27:19+02:00</time>
      </trkpt>
      <trkpt lat="44.02682" lon="5.76398">
        <ele>586</ele>
        <time>2021-03-31T13:27:22+02:00</time>
      </trkpt>
      <trkpt lat="44.02688" lon="5.76415">
        <ele>586</ele>
        <time>2021-03-31T13:27:25+02:00</time>
      </trkpt>
      <trkpt lat="44.02695" lon="5.76432">
        <ele>585</ele>
        <time>2021-03-31T13:27:28+02:00</time>
      </trkpt>
      <trkpt lat="44.02702" lon="5.76449">
        <ele>585</ele>
        <time>2021-03-31T13:27:31+02:00</time>
      </trkpt>
      <trkpt lat="44.02709" lon="5.7647">
        <ele>584</ele>
        <time>2021-03-31T13:27:35+02:00</time>
      </trkpt>
      <trkpt lat="44.02716" lon="5.76493">
        <ele>584</ele>
        <time>2021-03-31T13:27:39+02:00</time>
      </trkpt>
      <trkpt lat="44.02723" lon="5.76515">
        <ele>585</ele>
        <time>2021-03-31T13:27:43+02:00</time>
      </trkpt>
      <trkpt lat="44.02731" lon="5.76534">
        <ele>584</ele>
        <time>2021-03-31T13:27:47+02:00</time>
      </trkpt>
      <trkpt lat="44.02738" lon="5.76556">
        <ele>584</ele>
        <time>2021-03-31T13:27:51+02:00</time>
      </trkpt>
      <trkpt lat="44.02745" lon="5.76579">
        <ele>584</ele>
        <time>2021-03-31T13:27:55+02:00</time>
      </trkpt>
      <trkpt lat="44.0275" lon="5.76602">
        <ele>585</ele>
        <time>2021-03-31T13:27:59+02:00</time>
      </trkpt>
      <trkpt lat="44.02755" lon="5.76625">
        <ele>586</ele>
        <time>2021-03-31T13:28:03+02:00</time>
      </trkpt>
      <trkpt lat="44.02759" lon="5.76649">
        <ele>587</ele>
        <time>2021-03-31T13:28:07+02:00</time>
      </trkpt>
      <trkpt lat="44.02765" lon="5.76671">
        <ele>587</ele>
        <time>2021-03-31T13:28:11+02:00</time>
      </trkpt>
      <trkpt lat="44.0277" lon="5.76691">
        <ele>587</ele>
        <time>2021-03-31T13:28:15+02:00</time>
      </trkpt>
      <trkpt lat="44.02774" lon="5.76709">
        <ele>588</ele>
        <time>2021-03-31T13:28:19+02:00</time>
      </trkpt>
      <trkpt lat="44.02778" lon="5.76731">
        <ele>588</ele>
        <time>2021-03-31T13:28:24+02:00</time>
      </trkpt>
      <trkpt lat="44.02779" lon="5.7675">
        <ele>588</ele>
        <time>2021-03-31T13:30:24+02:00</time>
      </trkpt>
      <trkpt lat="44.02776" lon="5.76768">
        <ele>590</ele>
        <time>2021-03-31T13:30:29+02:00</time>
      </trkpt>
      <trkpt lat="44.02774" lon="5.76789">
        <ele>590</ele>
        <time>2021-03-31T13:30:34+02:00</time>
      </trkpt>
      <trkpt lat="44.02772" lon="5.76812">
        <ele>590</ele>
        <time>2021-03-31T13:30:39+02:00</time>
      </trkpt>
      <trkpt lat="44.02769" lon="5.76831">
        <ele>591</ele>
        <time>2021-03-31T13:30:43+02:00</time>
      </trkpt>
      <trkpt lat="44.02767" lon="5.76852">
        <ele>592</ele>
        <time>2021-03-31T13:30:47+02:00</time>
      </trkpt>
      <trkpt lat="44.02763" lon="5.76875">
        <ele>591</ele>
        <time>2021-03-31T13:30:51+02:00</time>
      </trkpt>
      <trkpt lat="44.02764" lon="5.76899">
        <ele>589</ele>
        <time>2021-03-31T13:30:55+02:00</time>
      </trkpt>
      <trkpt lat="44.02769" lon="5.76919">
        <ele>589</ele>
        <time>2021-03-31T13:30:58+02:00</time>
      </trkpt>
      <trkpt lat="44.02777" lon="5.76941">
        <ele>588</ele>
        <time>2021-03-31T13:31:01+02:00</time>
      </trkpt>
      <trkpt lat="44.02786" lon="5.76963">
        <ele>588</ele>
        <time>2021-03-31T13:31:04+02:00</time>
      </trkpt>
      <trkpt lat="44.02794" lon="5.76986">
        <ele>587</ele>
        <time>2021-03-31T13:31:07+02:00</time>
      </trkpt>
      <trkpt lat="44.02802" lon="5.7701">
        <ele>587</ele>
        <time>2021-03-31T13:31:10+02:00</time>
      </trkpt>
      <trkpt lat="44.02808" lon="5.77033">
        <ele>586</ele>
        <time>2021-03-31T13:31:13+02:00</time>
      </trkpt>
      <trkpt lat="44.02813" lon="5.77055">
        <ele>587</ele>
        <time>2021-03-31T13:31:16+02:00</time>
      </trkpt>
      <trkpt lat="44.02814" lon="5.77075">
        <ele>588</ele>
        <time>2021-03-31T13:31:19+02:00</time>
      </trkpt>
      <trkpt lat="44.02814" lon="5.77096">
        <ele>588</ele>
        <time>2021-03-31T13:31:22+02:00</time>
      </trkpt>
      <trkpt lat="44.02811" lon="5.77118">
        <ele>588</ele>
        <time>2021-03-31T13:31:25+02:00</time>
      </trkpt>
      <trkpt lat="44.02808" lon="5.77138">
        <ele>588</ele>
        <time>2021-03-31T13:31:28+02:00</time>
      </trkpt>
      <trkpt lat="44.02806" lon="5.77159">
        <ele>588</ele>
        <time>2021-03-31T13:31:31+02:00</time>
      </trkpt>
      <trkpt lat="44.02804" lon="5.77178">
        <ele>587</ele>
        <time>2021-03-31T13:31:34+02:00</time>
      </trkpt>
      <trkpt lat="44.028" lon="5.77202">
        <ele>587</ele>
        <time>2021-03-31T13:31:38+02:00</time>
      </trkpt>
      <trkpt lat="44.02797" lon="5.77226">
        <ele>588</ele>
        <time>2021-03-31T13:31:42+02:00</time>
      </trkpt>
      <trkpt lat="44.02798" lon="5.77251">
        <ele>588</ele>
        <time>2021-03-31T13:31:46+02:00</time>
      </trkpt>
      <trkpt lat="44.028" lon="5.77274">
        <ele>588</ele>
        <time>2021-03-31T13:31:50+02:00</time>
      </trkpt>
      <trkpt lat="44.02806" lon="5.77296">
        <ele>588</ele>
        <time>2021-03-31T13:31:54+02:00</time>
      </trkpt>
      <trkpt lat="44.02816" lon="5.77314">
        <ele>589</ele>
        <time>2021-03-31T13:31:58+02:00</time>
      </trkpt>
      <trkpt lat="44.02825" lon="5.77329">
        <ele>590</ele>
        <time>2021-03-31T13:32:02+02:00</time>
      </trkpt>
      <trkpt lat="44.02839" lon="5.77339">
        <ele>590</ele>
        <time>2021-03-31T13:32:07+02:00</time>
      </trkpt>
      <trkpt lat="44.02855" lon="5.77344">
        <ele>589</ele>
        <time>2021-03-31T13:32:12+02:00</time>
      </trkpt>
      <trkpt lat="44.02871" lon="5.77347">
        <ele>588</ele>
        <time>2021-03-31T13:32:17+02:00</time>
      </trkpt>
      <trkpt lat="44.02886" lon="5.77356">
        <ele>588</ele>
        <time>2021-03-31T13:32:22+02:00</time>
      </trkpt>
      <trkpt lat="44.02892" lon="5.77374">
        <ele>591</ele>
        <time>2021-03-31T13:32:27+02:00</time>
      </trkpt>
      <trkpt lat="44.02898" lon="5.7739">
        <ele>592</ele>
        <time>2021-03-31T13:32:33+02:00</time>
      </trkpt>
      <trkpt lat="44.02906" lon="5.77408">
        <ele>595</ele>
        <time>2021-03-31T13:32:40+02:00</time>
      </trkpt>
      <trkpt lat="44.02912" lon="5.77425">
        <ele>595</ele>
        <time>2021-03-31T13:32:46+02:00</time>
      </trkpt>
      <trkpt lat="44.02919" lon="5.77443">
        <ele>595</ele>
        <time>2021-03-31T13:32:52+02:00</time>
      </trkpt>
      <trkpt lat="44.02927" lon="5.77462">
        <ele>593</ele>
        <time>2021-03-31T13:32:58+02:00</time>
      </trkpt>
      <trkpt lat="44.02933" lon="5.77479">
        <ele>593</ele>
        <time>2021-03-31T13:33:03+02:00</time>
      </trkpt>
      <trkpt lat="44.0294" lon="5.77499">
        <ele>593</ele>
        <time>2021-03-31T13:33:09+02:00</time>
      </trkpt>
      <trkpt lat="44.02947" lon="5.77519">
        <ele>594</ele>
        <time>2021-03-31T13:33:15+02:00</time>
      </trkpt>
      <trkpt lat="44.02953" lon="5.77538">
        <ele>595</ele>
        <time>2021-03-31T13:33:21+02:00</time>
      </trkpt>
      <trkpt lat="44.0296" lon="5.77557">
        <ele>596</ele>
        <time>2021-03-31T13:33:27+02:00</time>
      </trkpt>
      <trkpt lat="44.02968" lon="5.77574">
        <ele>595</ele>
        <time>2021-03-31T13:33:32+02:00</time>
      </trkpt>
      <trkpt lat="44.02975" lon="5.77593">
        <ele>596</ele>
        <time>2021-03-31T13:33:38+02:00</time>
      </trkpt>
      <trkpt lat="44.02982" lon="5.77612">
        <ele>598</ele>
        <time>2021-03-31T13:33:44+02:00</time>
      </trkpt>
      <trkpt lat="44.0299" lon="5.77628">
        <ele>598</ele>
        <time>2021-03-31T13:33:49+02:00</time>
      </trkpt>
      <trkpt lat="44.02996" lon="5.77645">
        <ele>597</ele>
        <time>2021-03-31T13:33:54+02:00</time>
      </trkpt>
      <trkpt lat="44.03002" lon="5.77663">
        <ele>597</ele>
        <time>2021-03-31T13:33:59+02:00</time>
      </trkpt>
      <trkpt lat="44.03008" lon="5.77679">
        <ele>598</ele>
        <time>2021-03-31T13:34:04+02:00</time>
      </trkpt>
      <trkpt lat="44.03016" lon="5.77698">
        <ele>599</ele>
        <time>2021-03-31T13:34:10+02:00</time>
      </trkpt>
      <trkpt lat="44.03023" lon="5.77715">
        <ele>599</ele>
        <time>2021-03-31T13:34:15+02:00</time>
      </trkpt>
      <trkpt lat="44.0303" lon="5.77735">
        <ele>600</ele>
        <time>2021-03-31T13:34:21+02:00</time>
      </trkpt>
      <trkpt lat="44.03038" lon="5.77754">
        <ele>600</ele>
        <time>2021-03-31T13:34:27+02:00</time>
      </trkpt>
      <trkpt lat="44.03045" lon="5.77772">
        <ele>601</ele>
        <time>2021-03-31T13:34:33+02:00</time>
      </trkpt>
      <trkpt lat="44.03053" lon="5.7779">
        <ele>602</ele>
        <time>2021-03-31T13:34:39+02:00</time>
      </trkpt>
      <trkpt lat="44.03059" lon="5.77807">
        <ele>603</ele>
        <time>2021-03-31T13:34:45+02:00</time>
      </trkpt>
      <trkpt lat="44.03063" lon="5.77827">
        <ele>605</ele>
        <time>2021-03-31T13:34:51+02:00</time>
      </trkpt>
      <trkpt lat="44.03072" lon="5.77844">
        <ele>604</ele>
        <time>2021-03-31T13:34:58+02:00</time>
      </trkpt>
      <trkpt lat="44.03084" lon="5.77856">
        <ele>603</ele>
        <time>2021-03-31T13:35:04+02:00</time>
      </trkpt>
      <trkpt lat="44.03097" lon="5.77865">
        <ele>603</ele>
        <time>2021-03-31T13:35:10+02:00</time>
      </trkpt>
      <trkpt lat="44.0311" lon="5.77876">
        <ele>604</ele>
        <time>2021-03-31T13:35:16+02:00</time>
      </trkpt>
      <trkpt lat="44.03123" lon="5.77889">
        <ele>603</ele>
        <time>2021-03-31T13:35:22+02:00</time>
      </trkpt>
      <trkpt lat="44.03134" lon="5.77904">
        <ele>602</ele>
        <time>2021-03-31T13:35:28+02:00</time>
      </trkpt>
      <trkpt lat="44.03143" lon="5.7792">
        <ele>605</ele>
        <time>2021-03-31T13:35:33+02:00</time>
      </trkpt>
      <trkpt lat="44.0315" lon="5.77936">
        <ele>606</ele>
        <time>2021-03-31T13:35:38+02:00</time>
      </trkpt>
      <trkpt lat="44.03158" lon="5.77954">
        <ele>607</ele>
        <time>2021-03-31T13:35:44+02:00</time>
      </trkpt>
      <trkpt lat="44.03166" lon="5.77971">
        <ele>606</ele>
        <time>2021-03-31T13:35:49+02:00</time>
      </trkpt>
      <trkpt lat="44.03173" lon="5.77989">
        <ele>608</ele>
        <time>2021-03-31T13:35:55+02:00</time>
      </trkpt>
      <trkpt lat="44.03181" lon="5.78007">
        <ele>609</ele>
        <time>2021-03-31T13:36:02+02:00</time>
      </trkpt>
      <trkpt lat="44.03188" lon="5.78023">
        <ele>610</ele>
        <time>2021-03-31T13:36:08+02:00</time>
      </trkpt>
      <trkpt lat="44.03194" lon="5.7804">
        <ele>609</ele>
        <time>2021-03-31T13:36:13+02:00</time>
      </trkpt>
      <trkpt lat="44.03199" lon="5.78059">
        <ele>606</ele>
        <time>2021-03-31T13:36:19+02:00</time>
      </trkpt>
      <trkpt lat="44.03204" lon="5.78078">
        <ele>607</ele>
        <time>2021-03-31T13:36:26+02:00</time>
      </trkpt>
      <trkpt lat="44.03207" lon="5.78099">
        <ele>610</ele>
        <time>2021-03-31T13:36:32+02:00</time>
      </trkpt>
      <trkpt lat="44.03211" lon="5.78117">
        <ele>611</ele>
        <time>2021-03-31T13:36:37+02:00</time>
      </trkpt>
      <trkpt lat="44.03213" lon="5.78139">
        <ele>612</ele>
        <time>2021-03-31T13:36:43+02:00</time>
      </trkpt>
      <trkpt lat="44.03215" lon="5.78158">
        <ele>612</ele>
        <time>2021-03-31T13:36:48+02:00</time>
      </trkpt>
      <trkpt lat="44.03218" lon="5.78176">
        <ele>612</ele>
        <time>2021-03-31T13:36:53+02:00</time>
      </trkpt>
      <trkpt lat="44.03222" lon="5.78195">
        <ele>613</ele>
        <time>2021-03-31T13:36:58+02:00</time>
      </trkpt>
      <trkpt lat="44.03227" lon="5.78215">
        <ele>613</ele>
        <time>2021-03-31T13:37:04+02:00</time>
      </trkpt>
      <trkpt lat="44.03233" lon="5.78233">
        <ele>613</ele>
        <time>2021-03-31T13:37:09+02:00</time>
      </trkpt>
      <trkpt lat="44.0324" lon="5.78253">
        <ele>613</ele>
        <time>2021-03-31T13:37:15+02:00</time>
      </trkpt>
      <trkpt lat="44.03247" lon="5.78271">
        <ele>613</ele>
        <time>2021-03-31T13:37:21+02:00</time>
      </trkpt>
      <trkpt lat="44.03255" lon="5.7829">
        <ele>614</ele>
        <time>2021-03-31T13:37:27+02:00</time>
      </trkpt>
      <trkpt lat="44.03263" lon="5.78307">
        <ele>614</ele>
        <time>2021-03-31T13:38:46+02:00</time>
      </trkpt>
      <trkpt lat="44.0327" lon="5.78324">
        <ele>612</ele>
        <time>2021-03-31T13:38:51+02:00</time>
      </trkpt>
      <trkpt lat="44.03277" lon="5.78343">
        <ele>613</ele>
        <time>2021-03-31T13:38:56+02:00</time>
      </trkpt>
      <trkpt lat="44.03282" lon="5.78361">
        <ele>614</ele>
        <time>2021-03-31T13:39:01+02:00</time>
      </trkpt>
      <trkpt lat="44.03288" lon="5.78381">
        <ele>615</ele>
        <time>2021-03-31T13:39:06+02:00</time>
      </trkpt>
      <trkpt lat="44.03292" lon="5.78402">
        <ele>614</ele>
        <time>2021-03-31T13:39:11+02:00</time>
      </trkpt>
      <trkpt lat="44.03297" lon="5.7842">
        <ele>614</ele>
        <time>2021-03-31T13:39:15+02:00</time>
      </trkpt>
      <trkpt lat="44.03303" lon="5.78439">
        <ele>612</ele>
        <time>2021-03-31T13:39:19+02:00</time>
      </trkpt>
      <trkpt lat="44.03309" lon="5.78457">
        <ele>613</ele>
        <time>2021-03-31T13:39:24+02:00</time>
      </trkpt>
      <trkpt lat="44.03312" lon="5.78476">
        <ele>613</ele>
        <time>2021-03-31T13:39:28+02:00</time>
      </trkpt>
      <trkpt lat="44.03308" lon="5.78495">
        <ele>614</ele>
        <time>2021-03-31T13:39:32+02:00</time>
      </trkpt>
      <trkpt lat="44.03302" lon="5.78516">
        <ele>614</ele>
        <time>2021-03-31T13:39:37+02:00</time>
      </trkpt>
      <trkpt lat="44.03296" lon="5.78534">
        <ele>616</ele>
        <time>2021-03-31T13:39:41+02:00</time>
      </trkpt>
      <trkpt lat="44.03291" lon="5.78555">
        <ele>617</ele>
        <time>2021-03-31T13:39:46+02:00</time>
      </trkpt>
      <trkpt lat="44.03287" lon="5.78575">
        <ele>619</ele>
        <time>2021-03-31T13:39:51+02:00</time>
      </trkpt>
      <trkpt lat="44.03293" lon="5.78595">
        <ele>619</ele>
        <time>2021-03-31T13:39:56+02:00</time>
      </trkpt>
      <trkpt lat="44.03307" lon="5.78602">
        <ele>619</ele>
        <time>2021-03-31T13:40:01+02:00</time>
      </trkpt>
      <trkpt lat="44.03321" lon="5.78612">
        <ele>621</ele>
        <time>2021-03-31T13:40:06+02:00</time>
      </trkpt>
      <trkpt lat="44.0333" lon="5.78627">
        <ele>621</ele>
        <time>2021-03-31T13:40:11+02:00</time>
      </trkpt>
      <trkpt lat="44.03339" lon="5.78642">
        <ele>621</ele>
        <time>2021-03-31T13:40:16+02:00</time>
      </trkpt>
      <trkpt lat="44.0335" lon="5.78655">
        <ele>619</ele>
        <time>2021-03-31T13:40:21+02:00</time>
      </trkpt>
      <trkpt lat="44.0336" lon="5.78669">
        <ele>620</ele>
        <time>2021-03-31T13:40:26+02:00</time>
      </trkpt>
      <trkpt lat="44.03369" lon="5.78686">
        <ele>622</ele>
        <time>2021-03-31T13:40:35+02:00</time>
      </trkpt>
      <trkpt lat="44.0338" lon="5.78699">
        <ele>622</ele>
        <time>2021-03-31T13:40:44+02:00</time>
      </trkpt>
      <trkpt lat="44.0339" lon="5.78712">
        <ele>623</ele>
        <time>2021-03-31T13:40:52+02:00</time>
      </trkpt>
      <trkpt lat="44.03399" lon="5.78727">
        <ele>624</ele>
        <time>2021-03-31T13:41:00+02:00</time>
      </trkpt>
      <trkpt lat="44.03408" lon="5.78742">
        <ele>625</ele>
        <time>2021-03-31T13:41:07+02:00</time>
      </trkpt>
      <trkpt lat="44.03417" lon="5.78758">
        <ele>625</ele>
        <time>2021-03-31T13:41:14+02:00</time>
      </trkpt>
      <trkpt lat="44.03425" lon="5.78775">
        <ele>626</ele>
        <time>2021-03-31T13:42:14+02:00</time>
      </trkpt>
      <trkpt lat="44.03433" lon="5.7879">
        <ele>624</ele>
        <time>2021-03-31T13:42:22+02:00</time>
      </trkpt>
      <trkpt lat="44.03441" lon="5.78806">
        <ele>624</ele>
        <time>2021-03-31T13:42:29+02:00</time>
      </trkpt>
      <trkpt lat="44.03449" lon="5.78822">
        <ele>627</ele>
        <time>2021-03-31T13:42:38+02:00</time>
      </trkpt>
      <trkpt lat="44.03457" lon="5.78839">
        <ele>629</ele>
        <time>2021-03-31T13:42:47+02:00</time>
      </trkpt>
      <trkpt lat="44.03466" lon="5.78856">
        <ele>631</ele>
        <time>2021-03-31T13:42:57+02:00</time>
      </trkpt>
      <trkpt lat="44.03475" lon="5.78872">
        <ele>632</ele>
        <time>2021-03-31T13:43:06+02:00</time>
      </trkpt>
      <trkpt lat="44.03484" lon="5.78887">
        <ele>633</ele>
        <time>2021-03-31T13:43:15+02:00</time>
      </trkpt>
      <trkpt lat="44.03492" lon="5.78904">
        <ele>634</ele>
        <time>2021-03-31T13:43:24+02:00</time>
      </trkpt>
      <trkpt lat="44.03501" lon="5.78918">
        <ele>633</ele>
        <time>2021-03-31T13:43:31+02:00</time>
      </trkpt>
      <trkpt lat="44.0351" lon="5.78935">
        <ele>634</ele>
        <time>2021-03-31T13:43:39+02:00</time>
      </trkpt>
      <trkpt lat="44.03519" lon="5.78953">
        <ele>636</ele>
        <time>2021-03-31T13:43:47+02:00</time>
      </trkpt>
      <trkpt lat="44.03528" lon="5.78966">
        <ele>637</ele>
        <time>2021-03-31T13:43:54+02:00</time>
      </trkpt>
      <trkpt lat="44.03539" lon="5.78978">
        <ele>636</ele>
        <time>2021-03-31T13:44:02+02:00</time>
      </trkpt>
      <trkpt lat="44.03552" lon="5.78989">
        <ele>636</ele>
        <time>2021-03-31T13:44:09+02:00</time>
      </trkpt>
      <trkpt lat="44.03565" lon="5.78998">
        <ele>638</ele>
        <time>2021-03-31T13:44:16+02:00</time>
      </trkpt>
      <trkpt lat="44.03578" lon="5.79004">
        <ele>638</ele>
        <time>2021-03-31T13:44:23+02:00</time>
      </trkpt>
      <trkpt lat="44.03591" lon="5.79012">
        <ele>639</ele>
        <time>2021-03-31T13:44:31+02:00</time>
      </trkpt>
      <trkpt lat="44.03605" lon="5.79018">
        <ele>641</ele>
        <time>2021-03-31T13:44:39+02:00</time>
      </trkpt>
      <trkpt lat="44.03618" lon="5.79026">
        <ele>643</ele>
        <time>2021-03-31T13:44:47+02:00</time>
      </trkpt>
      <trkpt lat="44.03633" lon="5.79028">
        <ele>637</ele>
        <time>2021-03-31T13:44:55+02:00</time>
      </trkpt>
      <trkpt lat="44.03647" lon="5.79037">
        <ele>634</ele>
        <time>2021-03-31T13:45:03+02:00</time>
      </trkpt>
      <trkpt lat="44.0366" lon="5.79045">
        <ele>633</ele>
        <time>2021-03-31T13:45:11+02:00</time>
      </trkpt>
      <trkpt lat="44.03674" lon="5.79052">
        <ele>631</ele>
        <time>2021-03-31T13:45:18+02:00</time>
      </trkpt>
      <trkpt lat="44.03687" lon="5.7906">
        <ele>632</ele>
        <time>2021-03-31T13:45:25+02:00</time>
      </trkpt>
      <trkpt lat="44.037" lon="5.79069">
        <ele>635</ele>
        <time>2021-03-31T13:45:33+02:00</time>
      </trkpt>
      <trkpt lat="44.03714" lon="5.79078">
        <ele>638</ele>
        <time>2021-03-31T13:45:43+02:00</time>
      </trkpt>
      <trkpt lat="44.03727" lon="5.79088">
        <ele>640</ele>
        <time>2021-03-31T13:45:50+02:00</time>
      </trkpt>
      <trkpt lat="44.03738" lon="5.79098">
        <ele>646</ele>
        <time>2021-03-31T13:45:56+02:00</time>
      </trkpt>
      <trkpt lat="44.03748" lon="5.79111">
        <ele>648</ele>
        <time>2021-03-31T13:46:03+02:00</time>
      </trkpt>
      <trkpt lat="44.03758" lon="5.79127">
        <ele>648</ele>
        <time>2021-03-31T13:46:10+02:00</time>
      </trkpt>
      <trkpt lat="44.03765" lon="5.79145">
        <ele>646</ele>
        <time>2021-03-31T13:46:17+02:00</time>
      </trkpt>
      <trkpt lat="44.03772" lon="5.79162">
        <ele>646</ele>
        <time>2021-03-31T13:46:24+02:00</time>
      </trkpt>
      <trkpt lat="44.03781" lon="5.79179">
        <ele>646</ele>
        <time>2021-03-31T13:46:31+02:00</time>
      </trkpt>
      <trkpt lat="44.03789" lon="5.79196">
        <ele>649</ele>
        <time>2021-03-31T13:46:38+02:00</time>
      </trkpt>
      <trkpt lat="44.03798" lon="5.79213">
        <ele>649</ele>
        <time>2021-03-31T13:46:45+02:00</time>
      </trkpt>
      <trkpt lat="44.03803" lon="5.79231">
        <ele>648</ele>
        <time>2021-03-31T13:46:50+02:00</time>
      </trkpt>
      <trkpt lat="44.03808" lon="5.79251">
        <ele>647</ele>
        <time>2021-03-31T13:46:54+02:00</time>
      </trkpt>
      <trkpt lat="44.03812" lon="5.7927">
        <ele>645</ele>
        <time>2021-03-31T13:46:58+02:00</time>
      </trkpt>
      <trkpt lat="44.03816" lon="5.79291">
        <ele>644</ele>
        <time>2021-03-31T13:47:03+02:00</time>
      </trkpt>
      <trkpt lat="44.0382" lon="5.79311">
        <ele>644</ele>
        <time>2021-03-31T13:47:10+02:00</time>
      </trkpt>
      <trkpt lat="44.03826" lon="5.79329">
        <ele>648</ele>
        <time>2021-03-31T13:47:17+02:00</time>
      </trkpt>
      <trkpt lat="44.03835" lon="5.79345">
        <ele>651</ele>
        <time>2021-03-31T13:47:26+02:00</time>
      </trkpt>
      <trkpt lat="44.03844" lon="5.79361">
        <ele>653</ele>
        <time>2021-03-31T13:47:34+02:00</time>
      </trkpt>
      <trkpt lat="44.03853" lon="5.79375">
        <ele>653</ele>
        <time>2021-03-31T13:47:41+02:00</time>
      </trkpt>
      <trkpt lat="44.03863" lon="5.7939">
        <ele>653</ele>
        <time>2021-03-31T13:47:49+02:00</time>
      </trkpt>
      <trkpt lat="44.03873" lon="5.79407">
        <ele>653</ele>
        <time>2021-03-31T13:47:56+02:00</time>
      </trkpt>
      <trkpt lat="44.0388" lon="5.79424">
        <ele>652</ele>
        <time>2021-03-31T13:48:04+02:00</time>
      </trkpt>
      <trkpt lat="44.03888" lon="5.79441">
        <ele>651</ele>
        <time>2021-03-31T13:48:11+02:00</time>
      </trkpt>
      <trkpt lat="44.03895" lon="5.79459">
        <ele>652</ele>
        <time>2021-03-31T13:48:19+02:00</time>
      </trkpt>
      <trkpt lat="44.03902" lon="5.79476">
        <ele>652</ele>
        <time>2021-03-31T13:48:26+02:00</time>
      </trkpt>
      <trkpt lat="44.03909" lon="5.79492">
        <ele>654</ele>
        <time>2021-03-31T13:48:32+02:00</time>
      </trkpt>
      <trkpt lat="44.03917" lon="5.7951">
        <ele>654</ele>
        <time>2021-03-31T13:48:38+02:00</time>
      </trkpt>
      <trkpt lat="44.03925" lon="5.79528">
        <ele>653</ele>
        <time>2021-03-31T13:48:44+02:00</time>
      </trkpt>
      <trkpt lat="44.03932" lon="5.79544">
        <ele>653</ele>
        <time>2021-03-31T13:48:49+02:00</time>
      </trkpt>
      <trkpt lat="44.0394" lon="5.7956">
        <ele>654</ele>
        <time>2021-03-31T13:48:55+02:00</time>
      </trkpt>
      <trkpt lat="44.03953" lon="5.79572">
        <ele>654</ele>
        <time>2021-03-31T13:50:30+02:00</time>
      </trkpt>
      <trkpt lat="44.03962" lon="5.79588">
        <ele>654</ele>
        <time>2021-03-31T13:50:36+02:00</time>
      </trkpt>
      <trkpt lat="44.03967" lon="5.79605">
        <ele>655</ele>
        <time>2021-03-31T13:50:41+02:00</time>
      </trkpt>
      <trkpt lat="44.03975" lon="5.79622">
        <ele>653</ele>
        <time>2021-03-31T13:50:45+02:00</time>
      </trkpt>
      <trkpt lat="44.03983" lon="5.7964">
        <ele>653</ele>
        <time>2021-03-31T13:50:49+02:00</time>
      </trkpt>
      <trkpt lat="44.03992" lon="5.79662">
        <ele>653</ele>
        <time>2021-03-31T13:50:53+02:00</time>
      </trkpt>
      <trkpt lat="44.03996" lon="5.79682">
        <ele>653</ele>
        <time>2021-03-31T13:50:56+02:00</time>
      </trkpt>
      <trkpt lat="44.04" lon="5.79702">
        <ele>651</ele>
        <time>2021-03-31T13:51:00+02:00</time>
      </trkpt>
      <trkpt lat="44.04007" lon="5.79719">
        <ele>651</ele>
        <time>2021-03-31T13:51:06+02:00</time>
      </trkpt>
      <trkpt lat="44.04015" lon="5.79737">
        <ele>653</ele>
        <time>2021-03-31T13:51:12+02:00</time>
      </trkpt>
      <trkpt lat="44.04025" lon="5.79752">
        <ele>655</ele>
        <time>2021-03-31T13:51:18+02:00</time>
      </trkpt>
      <trkpt lat="44.04037" lon="5.79764">
        <ele>658</ele>
        <time>2021-03-31T13:51:24+02:00</time>
      </trkpt>
      <trkpt lat="44.0405" lon="5.79773">
        <ele>659</ele>
        <time>2021-03-31T13:51:30+02:00</time>
      </trkpt>
      <trkpt lat="44.04063" lon="5.79783">
        <ele>660</ele>
        <time>2021-03-31T13:51:37+02:00</time>
      </trkpt>
      <trkpt lat="44.04076" lon="5.79791">
        <ele>661</ele>
        <time>2021-03-31T13:51:44+02:00</time>
      </trkpt>
      <trkpt lat="44.04088" lon="5.798">
        <ele>662</ele>
        <time>2021-03-31T13:51:52+02:00</time>
      </trkpt>
      <trkpt lat="44.04101" lon="5.79809">
        <ele>662</ele>
        <time>2021-03-31T13:52:01+02:00</time>
      </trkpt>
      <trkpt lat="44.04113" lon="5.79817">
        <ele>663</ele>
        <time>2021-03-31T13:52:10+02:00</time>
      </trkpt>
      <trkpt lat="44.04127" lon="5.79825">
        <ele>664</ele>
        <time>2021-03-31T13:52:19+02:00</time>
      </trkpt>
      <trkpt lat="44.04138" lon="5.79835">
        <ele>665</ele>
        <time>2021-03-31T13:52:28+02:00</time>
      </trkpt>
      <trkpt lat="44.04152" lon="5.79843">
        <ele>666</ele>
        <time>2021-03-31T13:52:37+02:00</time>
      </trkpt>
      <trkpt lat="44.04167" lon="5.79848">
        <ele>663</ele>
        <time>2021-03-31T13:52:46+02:00</time>
      </trkpt>
      <trkpt lat="44.04181" lon="5.79852">
        <ele>659</ele>
        <time>2021-03-31T13:52:55+02:00</time>
      </trkpt>
      <trkpt lat="44.04196" lon="5.7985">
        <ele>660</ele>
        <time>2021-03-31T13:53:05+02:00</time>
      </trkpt>
      <trkpt lat="44.0421" lon="5.79847">
        <ele>662</ele>
        <time>2021-03-31T13:53:14+02:00</time>
      </trkpt>
      <trkpt lat="44.04224" lon="5.79843">
        <ele>664</ele>
        <time>2021-03-31T13:53:22+02:00</time>
      </trkpt>
      <trkpt lat="44.04238" lon="5.79842">
        <ele>668</ele>
        <time>2021-03-31T13:53:31+02:00</time>
      </trkpt>
      <trkpt lat="44.04253" lon="5.79841">
        <ele>669</ele>
        <time>2021-03-31T13:53:40+02:00</time>
      </trkpt>
      <trkpt lat="44.04267" lon="5.79842">
        <ele>670</ele>
        <time>2021-03-31T13:53:49+02:00</time>
      </trkpt>
      <trkpt lat="44.04282" lon="5.79842">
        <ele>670</ele>
        <time>2021-03-31T13:53:58+02:00</time>
      </trkpt>
      <trkpt lat="44.04296" lon="5.79844">
        <ele>671</ele>
        <time>2021-03-31T13:54:06+02:00</time>
      </trkpt>
      <trkpt lat="44.0431" lon="5.79843">
        <ele>672</ele>
        <time>2021-03-31T13:54:16+02:00</time>
      </trkpt>
      <trkpt lat="44.04325" lon="5.79842">
        <ele>673</ele>
        <time>2021-03-31T13:54:25+02:00</time>
      </trkpt>
      <trkpt lat="44.04339" lon="5.79841">
        <ele>674</ele>
        <time>2021-03-31T13:54:33+02:00</time>
      </trkpt>
      <trkpt lat="44.04347" lon="5.79826">
        <ele>676</ele>
        <time>2021-03-31T13:54:42+02:00</time>
      </trkpt>
      <trkpt lat="44.04337" lon="5.79808">
        <ele>674</ele>
        <time>2021-03-31T13:54:48+02:00</time>
      </trkpt>
      <trkpt lat="44.04332" lon="5.7979">
        <ele>674</ele>
        <time>2021-03-31T13:54:55+02:00</time>
      </trkpt>
      <trkpt lat="44.04327" lon="5.79769">
        <ele>673</ele>
        <time>2021-03-31T13:55:03+02:00</time>
      </trkpt>
      <trkpt lat="44.04322" lon="5.79751">
        <ele>675</ele>
        <time>2021-03-31T13:55:09+02:00</time>
      </trkpt>
      <trkpt lat="44.04318" lon="5.79733">
        <ele>675</ele>
        <time>2021-03-31T13:55:15+02:00</time>
      </trkpt>
      <trkpt lat="44.04314" lon="5.79713">
        <ele>679</ele>
        <time>2021-03-31T13:55:22+02:00</time>
      </trkpt>
      <trkpt lat="44.04311" lon="5.79693">
        <ele>677</ele>
        <time>2021-03-31T13:55:29+02:00</time>
      </trkpt>
      <trkpt lat="44.0431" lon="5.79674">
        <ele>675</ele>
        <time>2021-03-31T13:55:38+02:00</time>
      </trkpt>
      <trkpt lat="44.04323" lon="5.79679">
        <ele>680</ele>
        <time>2021-03-31T13:55:47+02:00</time>
      </trkpt>
      <trkpt lat="44.04338" lon="5.79677">
        <ele>682</ele>
        <time>2021-03-31T13:55:55+02:00</time>
      </trkpt>
    </trkseg>
  </trk>
</gpx>